ECMWFFLT1_925_spd_000.txt.gz
Wind_Speed
17 18 19 18 18 19 19 19 20 23 25 26 26 28 29 29 28 28 27 27 27 27 27 27 26 26 26 25 25 24 23 23 22 21 21 20 18 17 15 14 12 10 9 9 8 9 9 9 10 9 9 9 9 8 7 7 7 6 6 6 6 6 6
16 17 18 18 19 20 20 21 23 24 25 26 26 28 29 29 29 29 28 27 27 27 27 27 26 26 26 25 24 25 25 24 22 21 21 20 18 17 16 14 12 11 10 9 8 8 9 9 9 9 8 9 9 8 8 8 7 7 6 7 7 7 7
15 16 17 18 18 19 20 21 23 27 27 27 28 28 30 30 29 29 29 27 26 26 27 27 26 26 25 25 25 25 26 25 24 24 23 21 20 18 16 15 13 11 10 10 9 9 9 9 9 9 9 9 9 9 9 8 8 8 7 7 8 8 8
16 17 17 18 19 19 20 21 23 28 30 29 30 30 30 30 29 28 28 28 27 26 27 27 26 26 25 24 24 25 26 26 26 25 23 21 19 18 17 16 14 13 11 10 10 10 10 9 9 9 10 9 9 9 9 9 8 8 8 8 8 8 9
17 17 17 17 18 18 19 20 22 27 30 31 31 30 29 30 29 28 28 28 29 28 27 28 26 24 23 23 23 23 25 26 25 24 22 21 19 18 18 17 15 14 11 11 12 12 11 10 10 10 10 10 9 9 9 9 9 9 9 9 8 8 9
15 15 16 16 17 18 19 21 24 29 32 32 32 30 29 29 29 30 30 28 30 29 27 28 27 24 23 23 22 22 23 24 24 23 22 21 20 20 18 17 16 14 12 12 14 13 11 10 9 9 9 9 9 9 9 9 10 9 9 9 9 8 9
13 14 16 17 17 18 20 21 25 31 33 31 31 29 29 30 30 31 31 29 30 30 28 28 28 26 24 23 23 23 23 24 24 24 23 23 23 21 19 18 16 14 13 14 13 11 9 9 9 8 8 8 8 9 9 9 10 9 9 9 9 9 9
13 14 16 18 18 19 19 19 23 29 31 30 31 30 30 30 30 30 31 30 29 30 30 29 28 27 25 24 24 24 25 25 26 26 25 23 22 20 18 18 16 14 13 11 11 10 8 8 9 8 8 9 10 10 10 10 10 10 10 10 10 9 9
12 13 15 17 18 18 17 17 19 24 27 29 30 30 30 29 29 30 30 29 28 29 31 30 28 27 25 25 26 26 27 27 26 26 25 24 23 21 18 16 16 15 11 6 4 6 6 8 10 10 10 11 13 14 13 12 13 12 12 11 11 11 11
10 11 13 15 16 15 16 17 17 18 20 24 27 28 28 28 27 28 28 28 28 28 29 30 29 28 27 27 27 26 27 27 26 26 26 24 23 22 19 15 12 12 10 7 2 4 3 6 9 10 11 12 15 17 17 16 15 15 15 14 13 13 12
8 10 11 14 14 15 16 16 16 15 16 20 24 26 27 26 26 26 26 27 27 26 27 28 29 29 28 27 26 25 26 25 24 24 24 23 25 26 23 18 15 13 13 11 4 3 5 8 12 14 15 16 17 20 21 21 19 18 17 16 15 14 13
7 8 9 12 13 14 15 14 14 15 15 19 24 25 26 26 25 25 24 24 25 25 25 26 28 29 27 25 24 24 23 21 19 19 18 21 27 30 28 23 19 17 17 15 11 11 16 21 23 23 24 23 23 24 25 24 22 20 18 17 15 14 14
7 7 8 10 12 13 13 14 15 17 16 19 23 24 25 25 25 24 23 23 24 24 24 24 25 25 26 26 24 22 23 24 25 27 25 23 28 33 32 27 24 23 22 21 23 28 31 31 32 34 33 32 30 28 26 25 23 21 19 17 16 15 14
8 8 9 10 12 14 15 15 16 17 16 18 22 23 23 23 24 23 22 22 23 23 23 22 22 24 26 23 18 18 23 27 29 31 31 29 30 32 31 31 33 32 29 29 35 41 42 41 43 43 41 38 34 30 27 25 23 21 19 18 16 15 15
10 11 12 13 14 15 16 15 15 16 16 18 21 22 22 22 22 22 21 21 22 23 23 21 21 23 20 14 12 16 21 23 24 26 28 29 31 31 32 36 40 40 39 41 44 47 47 47 46 45 43 40 35 30 28 26 22 21 22 20 18 17 16
11 11 13 14 15 15 16 17 16 16 16 17 19 22 22 21 22 22 22 22 22 22 21 20 19 18 16 12 16 21 23 24 26 29 31 32 33 36 42 46 46 45 46 47 46 46 46 45 44 44 42 36 31 29 28 26 22 21 23 22 20 19 18
11 12 13 15 16 15 15 16 16 16 17 18 20 23 23 21 21 22 22 21 21 20 19 19 18 17 16 16 21 25 26 27 30 33 36 38 39 42 46 50 50 49 47 46 45 45 46 46 45 40 31 25 26 27 26 25 24 23 22 20 20 22 20
9 10 11 12 13 14 15 16 17 19 19 19 21 22 22 20 20 20 20 19 19 18 18 18 17 17 17 19 22 26 27 29 33 36 38 41 44 47 50 52 51 49 47 46 46 47 48 47 42 33 23 21 24 25 24 24 24 22 21 21 21 22 23
7 7 7 8 10 13 14 14 15 16 16 17 19 20 20 19 18 17 18 17 16 16 16 17 17 17 19 22 24 25 28 31 34 36 39 43 47 50 52 51 48 46 47 47 47 46 44 39 32 25 22 22 23 21 20 20 21 21 21 22 22 21 21
6 6 6 7 10 12 13 13 12 13 15 17 18 18 17 16 15 15 16 16 16 17 17 17 17 17 21 25 26 27 29 32 34 35 37 42 47 50 51 49 47 45 45 45 44 41 35 27 23 21 22 23 24 21 16 15 19 22 20 19 21 20 18
7 8 8 8 10 11 12 13 13 14 17 18 18 18 18 17 16 17 17 18 18 18 18 19 19 20 23 26 26 27 29 30 31 32 34 37 42 46 47 47 46 44 40 36 33 31 26 21 19 20 22 23 23 20 16 15 18 20 19 20 23 21 18
8 10 11 11 12 13 13 15 16 17 19 21 21 20 20 19 19 19 19 19 19 19 20 20 21 22 24 25 25 25 26 27 28 30 32 34 36 38 38 39 38 34 28 24 21 21 20 18 18 19 21 22 21 18 15 14 15 17 19 22 24 21 17
5 8 11 12 12 14 16 18 20 21 20 21 23 23 22 22 21 21 20 20 19 20 20 21 22 23 24 24 24 24 25 27 30 30 30 30 30 30 29 28 26 23 20 19 18 17 17 17 16 17 19 20 20 18 15 15 17 18 19 20 20 16 13
5 6 9 10 11 14 17 19 21 22 21 21 23 25 25 25 24 22 21 20 20 20 20 19 21 22 23 23 23 24 26 31 34 33 28 25 25 25 22 20 19 18 16 16 17 17 17 17 17 17 18 19 19 19 17 16 18 20 22 21 18 15 13
8 9 10 12 15 17 18 18 19 21 21 21 21 23 24 25 24 22 20 19 20 20 19 19 20 21 22 22 22 24 27 31 35 34 28 23 22 21 18 16 16 15 14 14 16 17 17 17 18 17 17 17 18 19 18 17 17 20 22 22 21 20 16
10 11 11 14 16 17 18 17 18 19 19 19 19 20 22 23 22 19 19 19 20 19 19 19 20 20 21 21 22 24 26 29 31 30 26 24 23 20 17 16 14 14 13 13 15 16 17 17 17 16 16 16 16 17 16 16 17 18 20 21 21 19 16
11 12 13 15 17 19 20 20 20 20 18 16 17 19 21 20 19 18 18 18 18 19 20 21 22 21 22 23 23 24 26 27 27 25 22 23 22 18 15 14 13 13 14 13 13 14 15 15 16 16 16 16 15 15 14 15 14 14 17 19 18 15 14
14 14 16 17 17 20 22 21 21 20 17 15 17 19 19 19 19 18 18 18 18 20 23 25 25 24 24 25 25 25 25 26 26 23 21 21 20 17 15 15 13 13 14 13 13 13 14 15 15 16 15 14 13 13 13 15 16 14 14 15 15 14 14
17 17 18 18 18 20 21 18 15 14 13 13 15 17 19 21 20 18 18 19 19 22 25 27 28 28 27 26 26 26 26 26 26 23 21 21 20 18 17 16 15 14 14 13 12 12 13 14 14 14 13 13 13 13 12 14 17 15 13 13 13 13 13
19 18 18 19 20 21 19 14 12 12 11 10 9 10 13 16 17 16 16 17 18 20 23 24 26 28 27 26 25 26 25 25 24 22 20 20 20 18 17 17 15 14 13 13 13 13 13 13 13 13 13 13 13 12 11 11 13 13 14 14 13 13 14
17 17 17 18 18 18 17 14 12 13 13 12 11 9 7 8 11 13 14 14 15 16 18 21 25 27 26 25 25 25 24 22 21 19 19 20 20 18 18 18 17 15 14 14 14 14 14 14 14 14 14 14 13 11 10 10 10 10 14 16 16 16 14
14 15 16 15 15 15 15 14 13 13 13 11 9 9 8 7 9 12 13 14 15 16 18 21 23 25 24 24 23 23 22 21 20 18 18 19 18 17 17 17 16 15 15 15 15 14 14 13 13 14 14 13 12 11 10 10 10 9 12 15 17 15 13
12 12 13 12 12 12 14 13 12 12 12 10 8 7 8 9 10 12 13 14 15 17 18 19 20 21 21 20 21 21 21 20 19 19 18 18 17 16 16 16 15 14 14 14 13 13 13 13 12 13 13 12 12 11 9 8 9 10 11 13 14 15 14
11 11 11 12 11 12 13 13 12 11 10 9 7 7 8 9 10 11 12 13 14 16 17 16 17 18 19 18 18 19 19 19 19 19 19 18 16 15 14 14 12 12 12 12 11 11 12 13 13 12 11 10 10 9 8 8 11 12 13 14 14 14 12
11 11 11 11 11 11 12 12 12 11 10 8 7 7 8 9 10 11 13 14 15 17 17 17 17 17 18 18 17 17 18 18 18 18 18 17 15 14 13 13 11 9 7 8 10 10 9 10 10 9 9 10 10 10 10 11 13 13 13 13 13 12 10
11 12 12 12 12 11 10 11 11 11 10 8 6 6 7 8 9 11 13 15 16 17 18 18 17 17 17 16 16 16 17 17 17 17 16 15 14 14 13 12 11 10 7 7 10 13 14 12 8 6 6 7 8 10 10 8 8 9 9 11 13 12 11
12 12 13 13 12 10 9 8 8 8 8 7 5 6 7 8 10 11 13 15 16 17 18 18 17 17 17 16 16 17 17 16 16 16 15 13 12 12 11 9 8 9 9 9 10 11 14 15 13 11 10 6 4 8 10 8 6 7 7 9 12 11 11
16 14 13 14 13 11 9 7 6 6 6 5 5 5 6 7 9 10 12 14 15 16 18 17 16 16 16 15 16 16 15 14 14 14 14 12 11 10 9 8 7 6 6 8 9 8 9 11 11 12 13 10 6 7 9 8 7 7 7 9 11 11 11

ECMWFFLT1_925_spd_003.txt.gz
Wind_Speed
20 18 17 16 17 20 21 22 22 25 28 31 32 34 34 33 32 30 29 30 30 29 30 29 28 27 27 27 26 25 23 21 19 18 18 17 15 14 14 13 12 10 9 7 7 6 6 5 6 6 6 6 7 7 7 6 7 6 6 6 5 5 5
17 16 16 17 19 22 24 23 23 26 29 31 33 34 35 34 33 32 30 30 31 30 30 30 30 29 27 27 26 25 24 22 20 19 18 17 16 15 14 13 12 10 8 7 6 5 6 6 6 6 7 7 8 8 8 8 8 8 8 7 7 7 6
13 15 16 17 19 21 23 22 23 28 30 32 34 34 35 35 34 34 32 31 32 31 30 30 30 29 28 27 27 26 25 23 22 21 20 19 18 16 15 13 12 10 9 8 6 5 6 6 6 7 7 8 8 9 9 9 9 9 9 8 9 9 9
12 15 16 18 20 20 21 22 23 27 31 33 35 35 35 36 35 34 33 32 32 32 31 30 30 29 28 27 27 26 26 24 23 23 21 20 19 18 16 14 13 11 10 9 7 7 6 6 6 6 7 8 9 9 10 10 10 10 10 10 10 11 10
15 15 14 15 18 19 20 22 23 27 31 33 35 34 34 35 35 34 34 32 32 32 32 30 29 28 27 27 26 26 26 26 25 24 23 21 20 18 17 16 15 13 11 10 9 9 8 7 7 8 9 9 10 10 11 11 11 11 12 12 12 12 11
15 14 12 14 16 19 21 23 26 30 33 34 34 34 33 35 35 34 34 33 32 31 31 31 30 28 27 27 26 26 26 27 26 24 23 22 20 19 18 17 16 14 12 12 12 12 12 11 11 13 13 13 13 13 13 14 14 14 13 14 14 13 12
12 12 11 13 15 19 22 23 25 31 33 32 33 33 34 35 35 34 33 33 33 32 31 31 31 28 27 27 27 27 27 27 26 25 23 22 21 20 19 19 19 17 15 16 16 15 16 17 19 21 19 18 17 17 17 17 17 16 14 14 14 14 13
13 14 14 15 15 18 21 21 22 27 30 30 31 33 34 34 34 34 34 33 34 33 31 31 30 29 27 27 27 27 27 27 27 26 24 23 23 23 22 22 23 23 22 22 21 21 23 25 26 26 24 23 22 21 19 18 18 16 14 14 14 14 14
15 18 17 16 15 18 19 19 20 22 26 29 30 31 33 33 33 34 35 33 33 34 33 30 29 28 27 27 26 27 27 27 27 27 26 26 27 26 25 26 30 31 30 28 26 28 31 30 29 28 26 26 26 24 20 18 18 17 15 14 15 15 14
10 15 14 15 17 18 17 17 17 18 20 23 25 29 32 32 33 33 34 33 33 33 33 31 29 28 28 27 26 26 27 28 28 29 30 30 30 30 30 34 39 39 36 34 33 36 36 33 31 30 29 29 28 25 22 20 18 16 16 16 17 17 16
9 9 10 12 16 17 17 17 15 14 15 18 23 28 30 31 32 32 33 33 33 32 32 32 31 30 30 29 28 28 29 30 31 32 34 33 32 32 34 40 44 41 39 39 39 40 39 35 33 32 31 31 29 27 26 23 20 17 16 17 18 17 16
5 6 7 10 13 14 15 13 12 13 13 17 24 28 28 30 32 32 31 33 33 31 30 31 31 31 31 30 30 30 31 32 32 34 35 33 33 35 36 41 44 43 42 44 44 42 39 35 35 34 33 33 31 29 27 23 19 18 17 17 18 17 15
1 4 6 10 11 12 13 12 12 14 13 17 25 29 29 31 32 31 30 31 32 30 29 30 31 32 31 29 30 32 32 33 34 35 35 34 36 37 37 41 46 46 47 48 46 43 39 36 36 36 35 34 32 31 29 25 20 19 18 18 19 18 16
5 7 8 10 12 13 14 13 13 15 15 18 25 29 30 31 32 32 31 31 32 30 30 31 32 33 32 30 31 33 33 33 34 34 35 36 37 38 41 46 49 49 49 48 47 44 41 39 40 38 36 34 32 31 29 26 22 19 18 19 20 19 17
13 13 12 12 13 14 14 13 14 15 16 18 22 27 29 30 30 30 30 31 32 31 31 32 32 32 31 30 32 32 32 32 31 31 34 37 39 41 47 52 52 50 50 49 48 46 43 42 41 39 36 33 29 27 25 22 20 19 19 20 20 20 18
15 16 15 14 13 13 13 14 15 15 16 17 19 24 27 28 29 30 31 31 31 31 30 29 29 30 31 32 32 31 31 31 30 31 33 37 44 47 49 52 52 51 51 50 49 47 44 42 39 34 33 31 26 24 22 20 19 19 20 21 21 20 18
16 12 13 13 11 11 13 14 15 16 17 18 21 25 27 27 28 30 30 30 31 31 30 28 28 28 29 30 29 28 30 32 31 30 33 41 48 49 48 50 52 52 52 51 49 46 42 40 36 28 24 25 23 22 21 20 19 20 21 23 24 22 19
13 14 13 9 8 10 13 15 16 18 20 21 24 27 28 27 28 29 29 29 30 30 30 29 28 28 26 25 25 28 31 31 29 29 35 44 50 50 49 50 50 50 47 42 41 41 37 36 36 28 20 19 19 20 20 19 20 22 23 24 26 26 22
13 16 13 8 9 11 14 16 16 19 20 21 24 29 29 29 29 29 29 28 28 28 29 28 28 28 28 28 29 31 31 30 30 30 35 42 46 46 46 46 47 43 33 24 25 27 26 28 29 23 18 16 17 18 19 19 21 24 25 25 26 26 24
16 15 12 7 8 11 13 15 15 17 20 22 25 28 29 29 28 28 28 28 27 27 27 27 27 28 29 30 31 31 30 31 32 32 32 34 35 35 34 36 38 34 23 15 15 15 15 17 17 16 16 16 15 17 17 18 20 24 25 24 24 24 26
14 12 10 10 11 13 14 15 16 17 20 24 26 27 27 27 27 28 28 27 26 26 26 27 28 28 28 29 29 29 29 29 30 29 28 27 27 27 26 26 26 24 19 16 14 12 12 13 13 13 14 14 14 15 16 17 20 22 22 22 22 24 26
14 12 11 11 12 13 14 16 18 18 21 24 26 27 27 28 28 28 27 27 26 27 27 28 29 28 28 27 27 27 26 27 27 26 24 23 23 24 25 23 20 19 18 17 15 13 12 12 12 13 13 14 15 16 16 17 20 21 22 21 21 23 25
16 15 13 12 12 13 14 17 19 20 22 25 27 27 27 27 27 27 27 27 26 27 27 27 27 28 27 27 27 26 24 25 24 23 22 22 22 23 23 22 20 19 18 17 16 14 12 12 13 13 14 15 17 18 18 18 21 22 22 21 21 23 24
14 15 13 11 12 13 14 17 19 21 24 25 26 27 27 27 28 28 27 27 27 27 27 27 27 29 29 28 27 26 26 25 24 23 23 22 22 22 21 20 20 20 19 16 16 14 12 12 12 12 13 15 16 18 18 18 19 21 20 20 21 22 23
12 13 12 12 13 14 16 18 20 22 24 24 24 25 25 26 27 27 26 27 27 27 26 27 27 27 27 25 24 25 27 26 23 23 23 21 21 20 19 18 19 19 17 15 14 14 13 13 12 12 13 14 14 16 17 17 17 18 19 20 22 23 21
11 12 11 12 14 15 17 18 19 20 22 25 25 25 26 26 25 25 25 26 27 26 25 25 24 23 23 23 24 26 27 24 22 22 21 20 19 17 16 16 16 16 15 14 14 14 14 14 13 12 13 13 12 13 15 15 15 16 17 19 22 24 21
10 10 11 11 13 15 17 17 18 19 20 23 25 26 27 26 24 23 24 25 25 24 24 24 23 23 23 23 23 25 24 23 22 21 19 18 18 17 17 18 17 17 17 15 14 15 14 14 13 13 13 12 12 12 13 13 14 16 19 19 20 21 22
9 10 11 11 13 16 16 16 18 19 19 21 24 25 26 26 24 22 22 22 23 23 24 25 24 23 23 22 22 22 22 23 22 20 19 19 18 18 19 19 17 17 16 14 13 13 12 12 12 12 12 11 11 11 10 10 12 15 17 18 18 21 24
9 10 10 12 14 17 18 16 17 19 21 22 24 25 25 24 22 20 19 20 21 23 24 24 23 23 22 21 20 20 21 22 21 19 20 20 20 20 20 19 17 15 13 13 12 11 11 10 11 11 12 11 11 11 10 10 11 13 15 18 19 21 23
9 10 12 14 16 18 19 18 18 20 23 23 23 24 24 23 20 18 18 19 21 23 24 24 23 23 22 21 21 21 20 19 19 18 18 19 20 20 18 17 15 13 13 13 13 11 12 11 11 12 12 12 12 12 11 10 11 14 18 19 18 18 20
11 12 13 15 17 20 21 20 19 20 20 20 20 21 21 21 19 18 18 19 21 22 23 22 23 23 23 23 23 23 22 22 21 19 19 19 19 17 16 15 14 13 14 14 12 12 12 12 12 12 11 11 12 12 12 12 12 14 17 17 16 17 18
12 13 14 16 18 20 22 21 20 20 19 19 19 19 18 19 20 20 20 20 21 23 23 22 21 20 21 22 22 23 25 25 23 20 19 19 18 15 14 15 14 13 14 13 12 12 12 12 13 13 12 12 12 11 12 13 13 13 15 16 16 17 16
14 14 14 16 17 19 20 19 17 17 17 17 16 17 17 18 19 19 20 22 23 25 26 25 23 19 19 21 22 22 23 23 22 20 18 18 18 17 16 15 14 13 12 12 13 13 13 13 13 13 12 12 12 11 10 11 12 13 14 15 16 15 15
14 14 15 17 18 18 18 17 16 16 16 15 14 14 14 15 15 17 19 21 24 25 25 24 23 22 21 21 21 20 19 19 20 19 19 19 19 19 17 16 14 14 13 12 13 13 13 13 12 12 12 12 11 11 10 10 11 12 13 14 14 14 14
13 14 15 16 18 17 17 16 16 16 15 15 14 14 14 14 15 17 18 19 21 23 23 22 23 23 22 21 20 19 18 18 18 18 19 19 15 13 14 14 12 12 12 11 10 9 9 10 10 9 10 10 10 10 10 10 11 12 13 13 13 13 15
13 13 14 16 17 17 17 16 15 16 16 15 14 15 15 15 16 17 17 18 18 19 21 22 22 21 21 20 19 19 18 18 18 18 20 18 13 11 13 13 10 10 11 10 9 8 7 7 6 5 4 2 4 8 10 9 11 13 14 14 13 13 15
12 12 14 15 15 15 15 15 15 15 15 14 14 14 15 15 16 16 16 16 15 17 19 20 19 19 19 18 19 20 19 19 19 19 19 18 16 13 13 12 11 11 11 10 9 9 8 8 7 6 4 6 7 8 8 7 9 12 13 14 16 16 17
14 13 13 15 15 14 14 13 12 13 13 12 13 14 14 14 15 15 16 16 16 17 19 19 18 19 19 18 20 21 21 20 20 19 18 18 18 17 15 13 11 9 8 8 9 9 9 11 11 10 7 6 6 8 8 8 9 11 12 16 19 20 18

ECMWFFLT1_925_spd_006.txt.gz
Wind_Speed
19 19 17 13 13 14 14 17 17 19 22 25 28 33 34 32 32 32 31 33 35 33 33 34 32 32 31 30 29 28 27 27 27 26 23 22 20 21 22 21 21 21 21 20 19 19 18 18 20 20 17 15 16 15 14 13 13 11 11 13 13 10 10
19 18 17 15 15 16 17 18 18 20 24 25 28 32 34 34 33 32 31 33 34 34 34 34 34 33 32 31 29 29 28 28 27 27 25 23 22 22 23 23 23 22 22 22 20 21 21 21 21 20 18 17 17 17 16 15 16 15 14 14 14 13 11
18 18 17 16 16 17 18 18 18 22 28 29 29 33 35 35 34 33 32 33 34 34 34 35 34 33 33 32 31 30 30 29 28 28 26 24 24 24 24 24 24 23 22 22 22 22 23 24 23 21 21 19 18 18 18 18 18 17 16 16 15 14 13
20 21 18 17 18 18 18 18 17 22 30 32 32 33 35 35 34 34 33 33 35 35 35 35 34 33 33 33 32 31 31 30 28 28 27 26 26 26 25 25 25 24 23 24 24 24 24 25 24 23 22 21 20 21 20 19 19 19 18 17 16 15 14
22 22 18 18 17 15 16 17 17 22 29 33 33 33 34 35 35 34 33 33 34 35 35 34 33 33 33 33 32 32 32 31 29 29 28 28 29 29 28 27 27 27 27 26 26 27 27 27 25 24 23 22 22 22 21 21 20 19 19 18 17 16 15
21 21 18 17 16 14 16 18 21 26 30 33 33 31 33 35 36 35 34 33 33 34 34 34 34 34 33 33 32 31 32 32 31 31 30 30 31 31 31 31 30 30 30 30 29 29 29 29 27 26 26 25 24 23 23 23 21 20 21 20 19 18 17
19 21 18 17 16 16 18 18 20 25 28 29 29 30 32 34 36 37 36 34 34 34 35 35 34 34 34 33 32 32 33 33 32 32 32 31 32 33 33 33 33 32 31 31 31 31 31 30 28 28 27 26 25 25 25 25 24 22 22 22 21 20 18
17 19 18 18 17 17 18 17 17 20 23 26 27 29 33 34 35 36 36 35 35 35 35 36 35 35 35 34 33 33 34 34 33 33 33 33 34 35 35 34 35 34 33 32 33 33 31 30 28 28 28 28 27 27 26 25 25 24 23 22 22 21 19
15 19 19 19 18 17 16 15 15 16 19 23 26 28 31 34 34 36 37 36 36 36 36 36 36 35 36 35 34 34 34 35 34 34 34 34 34 35 35 36 37 36 35 34 34 33 31 29 29 29 29 28 28 27 27 26 26 25 24 23 22 22 20
11 17 18 17 16 14 12 12 13 14 15 18 23 27 30 33 34 35 36 37 36 37 37 37 36 35 36 36 35 34 35 36 35 35 35 34 34 34 34 36 39 38 37 35 34 33 31 29 29 31 31 30 29 29 28 27 26 25 24 23 22 22 20
11 13 12 14 13 11 11 12 13 14 13 14 20 26 29 32 33 34 36 37 37 36 37 37 36 35 36 36 36 36 37 37 36 36 36 35 34 35 35 34 36 38 38 37 34 32 32 31 30 32 33 33 32 31 30 28 27 26 25 23 22 21 20
13 13 12 13 12 11 12 12 13 15 14 13 18 24 27 30 32 33 34 36 37 36 37 37 36 36 36 36 37 37 37 38 37 37 38 37 35 36 36 34 34 35 36 38 37 33 33 33 33 33 35 35 34 33 31 29 28 28 26 24 23 21 20
11 11 12 13 12 12 12 11 12 14 14 14 19 25 27 29 32 33 33 35 36 36 37 36 36 36 36 37 38 38 37 38 39 39 39 39 37 36 37 36 34 33 35 39 39 36 35 36 35 35 36 35 33 33 32 30 28 28 27 25 23 21 20
13 13 13 13 13 14 13 12 12 14 14 16 21 26 27 29 32 32 31 34 35 36 38 37 36 37 38 38 38 37 38 39 39 39 39 39 39 38 38 38 37 35 36 38 38 37 38 40 37 34 34 33 32 31 31 31 29 29 28 26 24 22 21
14 16 15 14 14 15 15 14 13 13 14 15 18 24 26 27 31 31 30 33 35 36 38 38 37 38 39 38 37 37 39 39 38 38 38 38 39 39 40 40 39 38 36 37 38 36 37 41 39 35 32 30 30 30 30 31 30 30 31 30 27 25 23
11 14 13 12 13 13 13 14 13 13 14 15 16 21 24 26 30 31 30 33 35 35 36 38 38 38 39 39 37 37 38 38 38 38 38 39 40 40 40 40 40 39 37 37 39 36 34 37 36 33 32 30 29 30 30 31 31 32 33 32 30 28 26
10 11 9 11 12 12 12 12 12 12 13 15 17 22 26 27 30 32 32 33 36 35 34 36 39 39 39 40 39 38 38 38 37 38 38 39 40 40 39 39 39 39 37 36 37 33 31 31 29 29 32 31 30 31 32 31 32 33 34 32 29 28 26
10 9 7 12 12 12 13 14 13 13 13 15 17 22 27 28 28 31 33 34 35 36 34 34 38 40 40 39 38 37 38 38 37 37 37 37 38 38 38 37 36 35 33 33 33 30 27 28 30 31 32 30 29 31 32 32 32 33 33 30 28 27 25
12 12 9 12 11 10 13 14 14 14 14 15 18 24 29 30 29 30 34 35 34 36 34 32 36 40 38 38 37 37 38 38 36 36 36 36 36 35 33 33 32 31 31 30 29 27 25 26 28 30 30 29 29 29 29 29 30 31 30 29 28 27 25
13 14 12 13 13 13 12 12 12 13 15 18 23 27 30 31 31 31 34 33 32 34 34 31 34 39 38 38 38 37 37 37 35 35 35 34 32 31 30 31 32 31 30 27 25 24 23 22 24 26 27 27 27 27 25 25 27 28 29 28 27 27 26
11 13 11 8 11 14 13 12 12 12 15 20 25 26 27 28 30 31 32 32 31 33 35 32 32 36 38 37 36 36 37 38 36 34 33 31 30 30 31 31 30 28 26 23 21 22 22 21 22 23 24 23 23 23 22 21 24 26 27 27 26 25 27
16 15 12 8 8 11 13 14 15 15 18 21 23 24 25 28 31 32 33 33 32 32 34 31 28 32 35 33 34 37 40 41 39 34 30 29 29 29 28 28 27 25 23 21 19 18 19 20 21 21 22 22 21 20 19 17 20 23 25 25 24 25 27
20 17 14 12 10 11 14 17 19 19 20 21 22 24 27 29 31 31 32 33 31 30 32 28 24 30 32 28 30 36 38 38 36 31 27 28 28 24 23 24 24 23 22 21 19 16 15 16 18 19 21 22 22 20 18 16 17 20 23 24 24 25 26
20 17 13 12 11 12 15 19 21 21 22 22 23 26 27 29 31 30 28 30 30 28 29 24 20 26 28 24 24 29 30 30 30 28 26 26 26 22 20 20 19 18 19 19 17 16 13 13 15 17 20 21 22 21 19 17 17 19 22 24 24 24 24
19 18 14 13 14 11 14 19 21 20 21 22 22 26 28 29 30 28 26 28 28 28 27 22 20 24 25 23 23 25 26 26 27 27 25 23 21 19 18 18 17 16 17 16 16 17 16 15 15 16 18 17 18 19 18 17 18 21 23 24 23 22 22
11 14 15 15 20 15 12 19 18 16 17 19 22 26 29 29 28 25 24 25 26 27 26 24 25 28 28 25 24 24 25 25 26 25 22 20 20 19 19 19 19 18 18 17 16 18 19 18 17 16 15 14 14 17 17 14 16 19 22 22 22 21 20
8 6 8 11 16 14 11 17 16 15 18 21 24 25 27 27 25 22 22 23 23 25 26 26 29 31 30 27 25 25 26 26 25 24 21 21 22 22 21 21 20 20 21 19 18 18 19 20 17 14 13 13 14 15 13 11 11 14 18 20 19 18 20
8 10 7 7 11 7 10 14 13 16 19 21 23 24 25 25 21 19 21 20 20 23 25 28 31 31 30 28 26 25 26 24 24 23 22 22 22 21 20 20 20 20 21 20 18 17 18 17 13 11 11 13 14 13 12 12 12 12 15 18 17 17 19
3 3 6 9 9 1 9 10 10 14 17 20 23 23 24 23 19 18 19 18 20 25 28 30 32 32 30 28 26 26 25 24 24 24 24 24 23 22 22 20 19 20 19 17 16 17 17 15 13 12 13 12 13 12 11 13 14 12 13 15 16 17 18
3 3 1 7 7 4 8 7 8 12 15 19 23 22 22 23 21 19 18 18 24 29 31 32 32 31 29 28 28 27 27 27 28 27 26 27 26 24 23 21 20 19 16 13 14 15 15 14 13 14 13 13 13 11 10 12 13 12 12 14 17 17 18
9 8 6 6 7 9 11 8 8 11 12 14 17 20 22 24 24 21 18 22 28 30 30 30 30 29 29 29 28 27 27 28 27 24 24 25 24 23 22 20 19 18 14 12 14 14 13 12 11 10 10 12 14 13 12 12 14 14 14 15 17 18 18
12 11 10 9 10 15 15 10 8 7 9 15 18 21 24 26 26 25 24 27 30 29 28 29 28 27 27 26 24 23 25 25 23 20 21 22 23 23 23 21 19 17 15 15 15 14 13 13 12 10 9 10 13 16 16 16 15 16 17 17 18 18 17
11 11 11 10 11 6 1 3 5 5 7 12 17 20 20 22 26 29 29 29 28 28 29 29 28 27 26 25 25 25 25 24 22 20 20 20 21 22 21 20 18 17 17 17 16 15 14 13 13 12 11 10 12 15 18 19 16 15 16 15 16 17 17
7 6 5 3 5 7 11 8 7 8 6 8 15 19 19 20 24 27 29 28 26 27 28 28 27 26 25 25 25 25 24 23 23 22 20 17 17 18 17 17 17 17 17 16 15 15 15 14 13 14 14 13 13 14 17 19 17 16 15 14 14 16 18
4 4 7 5 2 9 14 12 10 11 9 8 13 18 20 22 23 25 26 25 25 27 27 26 25 24 22 22 22 22 22 22 21 22 20 18 17 17 17 17 18 18 17 14 12 13 14 14 13 13 13 13 14 14 17 18 16 16 15 13 13 15 18
3 3 6 11 12 16 20 18 13 13 12 10 12 18 20 21 22 22 23 23 24 26 27 25 23 22 21 20 20 21 21 20 20 21 21 20 20 19 17 14 14 17 19 15 12 11 12 12 10 7 6 6 7 10 13 15 15 15 13 12 13 14 16
4 6 8 12 14 14 16 17 15 14 13 12 13 17 18 19 20 21 22 23 24 25 26 24 22 20 20 20 21 21 20 19 20 21 21 21 21 21 20 18 17 18 18 15 13 11 10 9 7 4 3 3 3 7 12 14 14 14 14 16 18 17 16
10 11 12 14 15 14 15 16 16 15 14 13 14 16 16 17 19 19 20 22 22 22 24 23 21 20 20 20 22 24 21 19 21 21 19 20 20 19 19 20 20 17 15 13 12 10 9 8 7 5 5 5 6 10 14 15 14 15 17 19 19 17 17

ECMWFFLT1_925_spd_009.txt.gz
Wind_Speed
14 15 14 14 15 16 16 17 19 22 27 30 32 36 36 36 37 37 36 38 39 37 38 38 37 37 37 37 37 37 36 35 34 34 35 35 32 32 33 32 32 31 31 31 32 32 31 31 32 30 27 27 27 26 23 21 22 20 16 18 19 17 15
14 13 14 13 14 15 16 17 18 22 27 29 31 34 36 36 37 37 37 38 40 39 39 39 38 37 37 37 37 37 37 36 36 35 35 36 33 32 34 34 34 33 32 32 33 33 32 32 32 31 29 28 27 25 23 23 23 21 19 19 19 17 15
15 15 15 14 14 15 16 16 18 23 28 29 30 33 36 37 37 37 37 38 39 39 39 39 39 38 37 36 37 38 38 37 37 37 37 37 34 32 34 35 35 34 33 33 33 32 33 33 33 32 31 30 28 25 25 25 24 22 20 20 19 18 17
17 18 17 16 16 16 16 16 18 22 28 31 33 35 37 38 37 37 37 39 40 39 39 40 39 39 38 37 37 37 38 38 38 39 39 37 35 33 35 36 35 34 34 34 33 32 32 33 34 34 32 30 28 27 26 25 24 23 21 20 20 20 19
20 19 17 16 17 16 15 16 17 21 27 31 34 35 36 38 37 37 37 38 40 41 41 41 40 39 39 38 37 37 39 40 39 40 39 37 35 35 36 37 36 35 35 35 34 33 33 32 32 34 34 31 29 29 27 25 24 24 22 21 20 21 22
19 18 17 16 17 17 17 18 19 24 29 31 33 34 34 36 37 36 36 37 39 39 40 40 40 40 39 39 37 36 38 40 40 40 40 38 37 36 37 38 37 36 36 36 35 35 35 33 31 34 35 33 31 30 28 26 25 24 23 22 20 21 22
19 18 17 18 17 17 18 19 19 25 30 31 31 32 33 36 37 37 36 36 37 38 39 40 40 40 39 38 38 37 39 40 41 41 40 39 38 37 37 38 38 37 36 36 36 36 37 36 34 34 35 34 32 30 29 28 26 25 24 24 23 22 22
19 18 17 18 18 17 18 18 17 21 26 27 28 30 33 36 37 36 36 36 37 38 39 40 40 40 39 39 39 39 40 40 41 41 40 40 38 37 38 38 39 39 37 36 37 37 37 37 36 35 35 34 32 31 30 29 28 26 25 26 26 25 24
17 18 18 19 19 18 17 17 16 18 23 27 29 31 33 35 36 37 37 37 36 37 38 39 39 40 39 39 40 41 41 40 40 41 40 39 39 39 39 39 39 40 38 37 38 38 37 37 37 37 36 35 34 33 33 32 30 29 28 28 28 28 26
16 18 19 19 19 18 16 15 14 15 17 21 26 29 33 35 36 37 37 37 37 37 39 39 38 39 39 40 41 41 41 41 41 41 40 39 39 40 41 40 40 40 39 38 38 38 37 37 37 37 37 36 36 36 35 34 33 32 31 29 29 29 29
16 18 19 20 19 17 15 13 13 14 13 16 22 26 30 34 35 36 37 38 37 37 38 38 38 38 40 40 40 40 41 42 42 42 41 40 40 41 41 41 40 40 40 40 39 38 38 38 37 37 38 38 38 38 37 36 35 34 32 31 30 30 30
16 17 18 19 17 15 14 13 13 14 13 15 21 25 28 32 34 35 37 38 37 37 37 38 37 38 40 41 40 40 41 42 43 43 42 42 41 41 41 41 41 41 41 40 40 39 38 38 38 39 39 39 39 39 37 35 35 35 34 32 31 31 30
16 17 16 16 15 14 14 14 15 16 15 16 22 26 28 31 33 34 35 37 38 37 37 37 37 38 39 41 41 41 41 43 44 44 43 42 42 42 42 42 41 41 42 41 40 38 38 38 38 39 39 39 39 38 37 35 34 35 34 34 33 32 31
18 17 15 14 14 16 16 16 15 16 15 16 21 24 26 29 32 34 35 36 37 36 36 37 38 38 39 40 41 41 42 44 45 45 43 43 43 42 42 42 41 41 41 41 40 39 38 38 38 38 38 38 38 37 36 35 34 35 35 35 34 33 32
14 15 14 13 14 16 16 16 15 15 14 15 18 21 23 25 29 31 33 35 37 37 37 38 38 38 38 39 41 42 43 44 44 44 43 43 43 43 42 42 41 39 38 39 40 39 38 37 37 36 36 37 36 35 36 36 36 36 37 37 36 35 34
13 14 14 14 15 16 16 16 15 14 14 14 15 18 22 25 29 32 34 36 38 38 38 39 40 39 39 39 42 44 44 44 43 43 43 43 44 44 42 40 39 38 38 39 40 39 36 34 34 34 35 35 35 35 35 36 37 37 38 38 37 36 35
12 13 12 12 12 13 13 14 14 14 14 13 15 19 23 26 30 33 34 36 38 38 39 40 40 41 40 41 42 43 43 43 43 42 43 43 43 42 40 39 38 37 37 38 39 38 35 33 32 33 34 34 34 34 35 36 36 37 38 39 38 36 35
12 14 15 15 14 13 14 15 15 15 15 15 17 22 25 28 30 32 33 36 39 40 40 40 41 41 42 42 42 42 43 43 43 43 43 43 41 40 39 38 37 37 35 34 35 36 34 32 33 33 33 33 33 34 35 36 37 37 37 36 35 33 31
12 11 13 14 15 16 16 15 15 16 16 17 20 26 30 32 31 32 36 39 41 40 39 39 40 41 41 42 42 43 43 43 43 42 42 41 40 38 38 37 36 37 36 33 32 32 32 32 32 32 32 32 32 33 34 36 36 35 34 33 30 28 27
10 10 12 15 16 17 16 14 13 15 18 22 26 31 35 35 35 38 40 41 40 40 40 40 39 39 40 42 44 44 45 44 43 42 41 40 39 37 36 37 37 37 35 32 29 29 29 29 29 30 31 32 31 32 33 34 33 31 32 32 29 27 28
9 11 14 16 16 16 17 17 15 15 17 23 29 31 33 34 36 37 38 38 38 39 41 40 39 39 41 43 44 45 45 44 44 43 41 39 38 37 36 36 35 34 32 30 28 28 27 27 28 30 31 31 32 32 31 32 31 30 30 31 29 28 31
9 9 11 14 15 15 16 17 17 18 21 25 29 29 30 33 36 35 34 36 37 39 41 41 38 38 40 43 45 46 46 46 44 42 39 38 37 37 36 35 34 32 30 28 28 28 29 28 29 29 30 31 32 32 31 31 31 30 29 30 28 27 31
7 7 8 10 12 15 17 19 21 23 25 26 27 28 30 33 35 34 32 34 36 37 39 39 37 37 40 43 46 47 47 46 43 40 38 38 38 36 36 35 32 30 29 29 29 29 30 28 26 27 29 31 32 33 33 32 31 29 29 29 28 28 32
7 9 9 9 10 13 17 21 24 25 26 26 26 30 33 34 35 33 31 32 35 36 36 36 37 39 41 43 47 48 47 45 42 39 38 38 37 37 35 33 30 30 31 32 32 31 30 29 27 27 29 31 32 33 31 29 28 27 27 28 28 30 33
10 9 8 8 10 12 16 24 28 29 29 27 27 31 34 35 35 33 30 32 35 34 33 35 38 41 43 45 46 46 44 42 41 40 39 38 37 35 34 31 30 31 32 32 32 30 28 28 28 28 28 29 30 29 26 25 25 25 26 26 27 30 33
4 4 4 2 4 11 19 25 25 23 23 25 30 35 38 37 34 31 29 33 35 33 34 38 43 46 46 44 43 42 42 41 41 40 39 37 36 34 33 32 32 32 32 31 31 29 27 27 27 28 28 28 27 26 23 22 22 23 24 26 27 29 32
6 6 8 10 8 3 16 23 20 18 21 26 30 33 33 32 29 27 31 32 29 31 39 44 45 44 42 39 38 39 40 40 40 40 39 37 36 34 33 33 33 32 31 30 29 28 27 28 28 27 26 26 24 23 22 21 21 22 23 25 27 29 31
10 10 11 16 19 12 4 14 17 19 24 30 35 36 35 32 27 25 28 28 28 36 44 43 40 38 36 36 37 37 38 38 39 39 38 37 37 34 32 32 31 31 29 27 28 29 28 27 26 25 25 25 23 21 22 21 20 20 23 25 26 28 30
12 11 10 11 15 16 11 4 1 0 1 4 12 18 22 25 26 26 23 22 29 38 37 32 33 34 33 33 34 34 36 38 39 38 37 36 36 34 32 30 30 29 29 28 28 28 25 23 24 26 27 25 23 22 23 21 17 17 21 23 25 27 30
14 14 12 11 12 14 14 10 8 11 18 20 16 11 9 9 9 14 21 26 32 34 29 29 32 32 32 33 33 34 35 36 37 37 37 36 36 34 32 32 31 29 28 28 27 26 25 25 26 27 26 24 23 23 22 19 15 15 17 20 23 26 28
11 11 12 13 14 15 12 11 10 12 16 21 22 17 15 20 22 18 14 16 22 21 20 23 23 23 25 27 29 31 33 34 35 36 36 36 36 35 33 32 31 28 26 27 27 27 26 26 26 26 25 24 24 23 21 18 16 16 16 17 20 23 26
9 10 10 11 13 15 11 11 12 11 13 18 24 23 20 23 27 24 19 8 21 31 31 30 27 24 22 21 22 23 25 26 27 28 30 32 33 33 32 31 30 27 25 26 26 25 25 25 24 24 25 25 25 24 22 20 19 19 18 18 21 22 23
9 9 9 9 11 12 11 9 9 10 11 14 19 24 26 28 30 26 20 17 23 35 41 41 35 28 23 21 21 22 23 24 25 25 26 27 28 28 28 28 28 26 24 23 23 22 23 23 22 23 24 24 24 24 23 22 23 22 22 22 22 21 21
7 8 9 11 13 13 10 7 7 9 11 13 17 23 28 29 29 25 21 20 21 26 34 39 39 34 30 26 25 26 27 28 28 27 26 26 26 27 27 27 27 25 23 22 22 22 22 21 21 22 23 23 24 25 23 23 25 25 23 22 21 21 21
5 6 8 11 14 15 13 9 8 11 13 14 17 21 25 27 26 22 19 19 19 18 21 26 31 33 33 31 28 28 29 29 28 28 28 28 29 28 26 26 27 26 24 22 22 22 22 21 20 20 20 20 23 26 24 23 24 25 22 20 20 20 20
4 4 7 9 11 13 13 11 9 10 12 16 18 20 23 26 26 21 14 12 14 17 20 22 22 24 28 29 27 27 28 27 26 27 29 31 31 29 25 23 23 24 23 22 22 22 21 19 18 18 17 17 20 24 25 23 23 23 20 18 17 16 16
8 6 8 9 9 8 10 11 12 10 7 12 16 18 21 25 26 23 19 18 18 21 25 25 21 20 23 25 26 26 27 25 25 26 28 30 31 31 28 25 23 21 21 22 23 23 21 19 17 15 15 16 17 21 24 24 22 21 20 17 15 13 12
13 12 10 11 10 9 8 11 12 12 9 6 10 12 16 23 27 26 26 27 27 26 26 26 23 21 21 22 25 26 25 24 25 26 26 27 28 30 31 30 26 22 21 22 23 23 22 20 18 15 14 13 13 16 22 25 23 20 19 16 14 12 11

ECMWFFLT1_925_spd_012.txt.gz
Wind_Speed
18 19 19 17 18 19 19 20 21 24 30 33 35 38 39 39 40 40 40 42 43 42 43 43 43 44 44 44 43 42 41 41 41 40 39 38 36 35 35 35 34 34 34 33 33 34 33 31 31 31 30 31 31 30 29 27 27 28 28 27 25 23 22
17 17 18 18 18 19 20 21 22 26 30 32 36 38 38 39 40 40 40 42 43 43 44 44 43 43 44 44 43 43 43 42 42 40 38 37 36 36 36 36 35 36 35 35 35 34 33 32 32 32 32 33 33 31 30 29 28 29 29 28 26 24 22
15 16 18 18 18 19 21 21 22 27 31 32 34 37 39 42 43 43 42 41 42 42 42 43 43 43 42 42 42 42 43 43 42 41 38 37 36 36 37 36 36 37 36 36 36 35 34 33 34 34 34 35 35 33 32 30 29 28 28 28 27 25 23
16 17 18 19 20 20 21 20 21 25 31 34 38 40 42 44 44 43 43 42 43 42 42 43 43 43 42 42 42 42 43 44 43 42 39 37 37 37 37 37 37 37 37 37 37 36 35 35 35 35 36 36 36 35 34 33 31 29 28 28 27 26 24
17 17 16 17 19 18 18 19 20 24 30 35 39 42 43 43 41 41 41 42 44 45 45 46 44 43 42 43 43 43 44 45 43 41 39 37 37 37 37 38 38 38 37 38 37 36 36 36 36 37 37 37 37 36 35 35 33 30 29 28 27 27 26
16 16 15 16 17 17 18 20 21 27 33 35 38 39 38 38 38 39 40 41 42 43 44 45 44 43 43 43 44 43 43 43 43 41 39 38 37 38 38 38 39 39 39 38 38 37 37 37 38 39 39 39 38 37 37 37 34 32 30 29 28 29 27
17 17 17 17 17 17 19 20 21 28 34 34 35 35 35 36 38 39 39 40 42 42 42 43 43 44 44 44 44 43 42 43 43 42 40 39 39 39 38 38 39 40 40 39 39 39 39 39 39 40 41 40 39 38 39 38 36 34 32 31 30 29 28
19 18 18 18 18 18 19 19 19 23 28 30 30 32 34 36 37 37 38 39 41 42 42 44 44 45 45 44 44 44 43 43 43 42 40 39 39 39 39 38 39 40 40 40 40 40 40 41 41 41 42 41 40 40 40 39 38 36 34 34 32 31 30
20 19 19 19 19 18 18 18 18 20 24 27 29 31 33 35 36 37 39 40 40 41 43 44 44 45 45 44 44 44 44 43 42 41 40 40 40 40 40 39 39 40 41 41 41 40 41 42 42 43 42 42 41 41 41 40 39 38 37 36 35 33 31
17 18 20 20 19 17 17 17 16 16 18 20 25 29 32 34 35 37 38 39 40 42 43 43 43 44 44 44 43 43 43 43 42 41 40 40 41 41 41 40 40 41 42 42 41 41 41 41 42 43 43 43 42 42 42 42 40 39 38 36 35 33 31
17 19 20 19 18 16 16 16 14 14 14 16 22 27 30 33 34 35 37 38 39 40 40 41 42 43 43 43 43 42 43 42 42 41 41 41 42 42 42 41 40 41 42 41 41 42 41 40 40 42 43 44 44 43 43 42 41 40 38 37 34 32 32
17 18 17 18 18 17 16 14 14 16 15 16 22 26 29 32 34 35 36 38 38 37 38 40 41 42 42 42 41 41 42 43 42 42 42 43 43 42 42 41 41 42 42 42 42 42 41 41 41 42 44 45 44 44 43 42 42 41 39 37 35 32 32
15 16 16 17 17 15 15 14 15 17 16 17 22 27 29 32 34 35 35 36 37 37 37 39 39 40 40 41 41 41 42 43 44 44 43 44 44 43 42 42 42 42 42 41 41 41 41 42 43 43 43 43 43 43 43 42 42 41 40 38 35 33 33
12 14 16 16 16 16 16 15 16 17 16 17 21 26 29 31 34 35 35 36 36 36 37 38 39 39 40 40 41 41 43 45 45 44 44 43 43 42 42 42 42 41 41 40 40 40 41 42 43 42 41 41 41 41 42 41 41 41 40 38 36 35 35
12 13 15 16 16 16 16 16 16 17 17 17 20 23 26 28 31 33 34 35 37 37 39 40 40 40 40 40 41 43 44 44 43 43 43 42 41 42 42 42 41 40 38 38 39 39 39 40 40 40 39 39 39 39 40 41 41 41 41 39 38 37 37
14 15 16 15 16 16 17 18 18 17 17 16 17 20 23 25 28 31 33 34 36 38 40 41 40 40 39 41 43 44 43 42 42 42 41 41 42 42 42 40 39 38 37 37 38 37 36 36 37 37 38 39 39 38 38 39 40 41 42 41 40 39 38
12 13 13 12 13 14 15 16 15 15 17 17 17 21 25 27 30 32 33 34 36 38 40 41 41 40 41 43 44 43 41 41 41 40 41 42 41 41 40 38 37 36 35 35 35 35 35 35 36 37 38 39 38 37 37 38 39 40 42 42 41 40 39
11 12 12 11 10 10 10 11 12 13 15 16 18 23 26 27 29 30 31 34 37 40 40 40 40 40 42 43 42 41 41 41 40 40 40 40 40 39 37 35 34 33 33 33 34 35 35 35 36 37 37 37 37 38 38 38 38 40 41 42 43 41 39
10 11 12 13 13 12 12 11 12 14 15 15 19 25 30 31 31 31 35 39 41 40 39 39 40 41 41 41 40 41 42 41 39 39 39 39 39 37 34 32 32 32 32 33 34 35 35 35 35 36 37 37 38 39 38 37 38 40 41 43 44 41 40
11 13 13 13 14 14 14 13 13 15 18 22 27 33 36 37 37 38 41 41 40 39 38 39 39 39 40 39 39 40 41 39 38 38 38 37 35 33 32 32 31 31 31 32 34 36 36 35 35 37 38 39 39 39 38 37 39 41 42 43 43 41 42
5 7 10 12 13 13 12 12 13 13 16 24 30 33 33 34 35 36 36 36 36 37 38 39 38 38 38 38 38 39 39 38 38 37 35 34 32 32 32 32 31 31 32 34 35 36 37 37 38 38 38 39 39 38 37 38 39 40 40 41 41 41 41
4 5 7 10 13 15 15 14 14 14 17 23 28 30 30 33 35 34 33 34 35 36 38 38 37 37 37 36 38 39 39 39 38 36 33 32 32 33 33 33 33 34 35 35 35 36 37 38 39 39 38 38 38 38 36 36 37 38 39 39 40 41 39
5 6 7 8 10 13 18 21 22 22 24 25 26 27 30 33 35 34 33 34 34 35 37 36 35 35 36 36 38 39 40 40 38 35 33 33 34 35 35 35 36 37 38 36 35 36 38 39 39 39 39 38 38 38 36 34 35 36 37 38 40 41 39
5 6 5 6 9 10 13 19 25 29 32 30 28 32 34 35 35 33 30 31 32 34 34 33 34 35 35 37 39 39 40 40 39 36 34 35 37 37 37 37 39 40 41 39 38 38 39 40 39 38 38 38 39 39 36 33 33 34 35 37 39 41 40
7 8 8 6 5 7 12 17 21 24 25 23 25 31 33 31 30 28 26 28 32 32 31 32 35 37 37 39 40 40 40 40 40 38 37 38 39 38 39 40 41 41 41 40 39 38 38 38 36 36 37 38 39 37 34 32 31 31 32 35 37 39 40
6 6 7 9 12 12 11 17 18 16 16 19 25 32 34 32 29 25 26 29 30 29 30 34 39 42 44 43 41 39 40 40 40 40 39 39 40 40 41 41 40 39 40 39 39 38 37 37 36 35 36 36 35 34 32 31 29 29 31 32 33 36 39
4 5 5 7 12 16 12 10 12 12 12 13 18 23 26 30 30 29 31 32 29 31 38 43 45 46 45 43 39 38 40 40 42 42 42 41 40 39 40 40 39 39 40 39 38 37 35 35 34 33 33 32 31 31 30 30 29 28 29 30 31 34 36
8 8 10 10 13 17 14 6 2 1 1 2 1 5 10 16 19 20 23 23 23 30 37 40 42 45 44 41 38 38 40 40 42 42 41 40 39 38 38 38 39 40 41 39 38 37 35 34 32 30 28 28 28 29 29 28 27 26 28 30 30 31 35
9 9 10 11 13 15 12 8 8 10 10 10 7 5 4 8 9 8 8 7 10 17 21 22 27 32 33 33 33 34 37 39 40 40 39 39 39 39 38 38 38 37 36 34 32 28 26 26 26 26 25 25 25 26 27 26 24 24 26 29 29 31 35
9 9 9 8 11 13 10 6 6 8 11 12 12 11 9 9 9 7 5 3 6 13 16 18 21 24 24 25 25 27 29 31 33 33 32 34 36 36 34 32 29 26 25 24 23 20 18 20 22 23 24 24 23 25 25 25 24 23 24 26 29 31 34
9 9 9 9 11 13 11 7 6 8 9 10 11 13 13 13 14 13 9 6 5 10 15 18 20 22 22 23 23 23 24 26 28 28 29 30 32 31 28 26 24 24 24 25 25 24 24 25 24 22 23 22 22 24 26 24 23 23 22 24 27 30 32
7 8 8 8 11 13 11 9 8 9 10 10 9 10 12 14 15 14 10 8 7 6 10 16 21 23 24 24 24 26 27 27 26 27 29 31 31 30 31 32 31 30 27 25 24 24 22 21 21 21 21 22 22 24 26 25 24 23 23 25 28 29 30
7 8 8 9 10 10 9 8 7 7 8 8 8 8 9 11 14 17 17 14 10 9 13 18 23 26 29 31 32 32 33 34 34 33 33 34 36 35 34 33 31 28 25 25 25 22 18 18 21 22 21 22 23 25 25 25 24 24 24 26 28 29 30
6 7 8 11 12 10 8 6 5 5 5 6 8 10 12 13 13 15 17 18 21 24 25 24 22 21 21 25 30 34 35 36 38 38 36 36 37 36 33 31 30 30 31 32 31 28 25 24 24 24 24 25 25 25 24 24 26 26 26 26 27 27 30
5 6 7 9 11 11 8 5 4 5 6 7 8 11 14 16 16 18 21 24 28 31 30 26 24 22 18 14 15 21 31 38 40 39 39 39 37 33 30 31 34 34 32 31 32 33 33 30 27 27 29 30 30 29 27 27 28 28 27 27 27 27 28
6 6 8 10 10 10 9 7 5 6 7 7 7 9 12 15 17 19 23 26 29 31 30 28 26 25 23 18 9 6 15 28 36 36 36 38 37 32 28 27 29 32 29 27 28 31 33 32 30 31 32 32 33 34 32 29 28 28 27 26 26 27 27
8 7 9 11 10 9 9 9 7 8 8 7 5 6 7 9 11 14 19 23 27 30 31 30 26 21 19 22 19 8 4 11 25 29 29 31 32 33 32 29 27 27 29 29 28 28 29 29 29 30 31 32 33 33 30 25 25 26 27 26 25 25 26
11 11 11 11 11 9 9 10 9 9 10 10 8 4 2 4 6 9 13 18 22 25 27 27 24 20 18 21 25 22 17 19 22 22 26 30 32 33 34 33 30 26 25 28 29 29 28 27 26 27 29 30 31 30 27 25 25 25 25 25 24 23 24

ECMWFFLT1_925_spd_015.txt.gz
Wind_Speed
17 17 17 16 16 17 18 19 20 22 28 31 34 37 39 39 40 39 39 42 43 43 43 43 43 44 45 46 47 45 43 41 40 38 37 36 36 35 35 35 35 35 35 35 35 35 34 32 32 31 31 29 28 27 25 26 26 26 25 25 24 23 23
15 16 16 16 16 18 20 19 20 23 28 31 34 36 38 39 40 40 40 41 43 43 44 45 44 45 46 46 45 44 43 42 40 38 36 35 35 36 36 36 35 36 36 36 36 35 34 32 32 31 31 30 28 27 26 27 28 26 26 25 24 24 24
16 16 16 17 17 19 20 19 19 24 28 31 32 34 37 40 42 43 42 41 42 43 43 44 46 46 46 45 44 43 43 43 41 40 37 36 36 36 36 36 36 36 36 36 35 34 34 33 32 31 31 30 29 28 28 29 29 27 25 26 25 25 25
16 17 18 19 19 18 18 18 19 24 29 33 35 37 40 43 44 43 43 42 43 43 44 46 47 46 46 45 43 42 43 43 42 41 39 37 37 36 35 35 36 36 35 35 35 34 34 33 32 31 31 31 30 30 30 30 30 28 26 26 27 27 26
16 17 17 16 17 16 16 18 19 23 30 34 36 38 41 43 42 41 42 43 43 45 46 46 46 46 46 45 44 42 42 43 43 42 39 38 36 36 36 36 36 36 35 35 35 35 34 33 32 32 32 32 32 31 31 31 31 30 29 29 29 29 29
15 16 16 15 16 17 18 19 21 26 32 34 37 39 39 38 37 39 41 41 41 43 43 43 43 44 45 45 44 41 41 42 43 42 40 38 37 37 37 37 37 37 36 35 35 35 35 34 33 33 33 33 33 33 32 32 33 32 31 31 31 31 31
15 16 16 16 16 17 19 19 21 27 34 35 37 37 35 35 36 39 39 39 41 41 40 41 43 44 44 44 43 41 40 41 42 41 39 38 37 38 38 37 37 37 36 35 35 36 35 35 34 33 34 34 34 34 34 34 34 34 33 33 32 32 32
16 16 16 17 18 18 19 19 19 24 30 32 31 31 32 34 36 37 37 39 40 40 40 43 44 45 44 42 41 41 41 41 41 40 39 38 38 39 39 38 37 37 35 35 35 36 36 35 34 34 34 34 35 35 35 35 36 36 35 35 34 34 33
17 17 17 17 18 17 17 18 18 20 24 27 29 30 33 34 34 36 38 39 38 39 42 45 45 45 43 42 41 41 41 40 40 40 39 39 39 40 40 38 37 36 35 36 36 36 36 36 35 34 35 35 36 36 36 37 37 38 37 37 36 35 34
14 15 16 16 17 16 16 15 15 15 17 20 25 29 31 33 35 36 37 38 38 41 44 45 43 42 41 41 40 39 40 40 40 39 38 39 40 41 40 38 37 36 36 36 35 35 36 35 35 35 35 36 36 37 38 39 39 39 39 39 38 37 35
12 13 14 15 15 15 16 14 13 14 14 16 22 27 30 32 34 35 36 38 40 42 43 43 41 40 40 40 38 38 39 40 39 39 39 40 41 41 40 38 36 36 36 36 35 35 35 34 35 35 36 37 38 39 40 40 41 41 40 40 39 38 37
12 12 13 16 16 16 16 14 14 15 14 15 21 26 28 31 33 35 37 40 41 41 41 41 41 39 39 39 38 38 39 40 40 40 40 40 40 40 39 37 36 36 36 37 36 35 34 35 36 36 38 39 39 40 41 41 42 42 42 41 40 39 38
11 12 14 16 16 15 14 13 14 16 16 17 22 27 29 30 33 34 35 38 40 40 40 40 40 39 39 39 39 39 40 41 42 41 40 40 40 39 38 37 36 36 36 37 36 36 35 35 37 38 39 40 40 41 42 42 42 43 42 41 40 40 39
10 11 13 13 14 14 14 14 15 16 16 17 21 26 28 30 33 34 35 37 38 38 39 39 39 39 40 40 39 40 42 43 42 41 40 39 39 38 37 36 36 36 36 36 36 37 37 37 38 39 40 40 41 41 41 41 43 43 42 41 40 41 39
11 12 14 15 15 15 15 15 15 16 17 17 18 22 26 28 31 33 33 35 36 38 40 40 40 40 40 39 40 42 43 42 40 40 39 37 37 38 37 36 36 36 36 36 37 38 38 38 39 39 39 40 41 41 40 41 43 44 44 42 41 41 40
13 13 15 15 16 15 15 16 16 16 16 16 16 20 24 26 30 32 34 35 36 38 39 38 39 39 39 40 42 42 41 40 39 38 37 37 37 37 37 36 36 36 36 37 37 38 39 39 38 38 39 39 40 40 40 42 44 45 45 44 43 42 40
12 13 14 14 15 15 15 16 15 14 15 16 18 21 25 28 31 33 34 35 36 38 38 38 38 38 39 41 42 39 38 38 38 37 37 37 37 37 36 35 35 36 37 38 39 39 39 39 39 39 39 39 39 40 40 42 44 45 45 45 44 43 40
11 12 13 13 14 14 15 16 16 15 16 17 19 22 26 29 29 30 32 34 37 38 37 38 38 39 40 41 38 36 37 38 37 37 37 37 37 37 35 35 35 36 38 39 40 40 39 39 40 40 40 39 38 39 41 43 45 45 45 45 46 45 40
9 10 10 11 12 14 15 15 16 17 18 18 20 26 31 32 31 31 35 38 38 36 35 37 38 38 39 38 36 36 37 37 36 37 37 38 38 36 35 35 37 39 40 40 40 39 39 40 41 41 41 39 39 40 41 43 44 45 45 45 47 44 38
7 8 8 8 9 11 13 13 13 15 17 21 26 31 33 34 34 35 37 37 35 34 35 36 37 37 38 37 36 37 37 36 37 38 37 37 36 36 36 39 40 41 41 39 38 39 40 41 41 41 41 41 41 41 41 43 44 45 45 45 45 42 37
6 7 7 6 7 8 9 12 13 13 15 21 28 30 30 31 33 33 32 32 33 35 37 38 38 39 38 37 36 36 36 37 38 38 37 36 36 37 39 41 41 41 40 39 39 41 41 41 41 41 41 41 41 40 41 43 44 44 45 44 42 40 37
4 4 6 6 7 7 7 7 10 13 18 24 27 27 29 32 33 31 31 33 34 35 37 37 36 36 35 34 35 36 37 38 38 36 36 36 37 39 40 41 41 42 41 40 39 40 40 40 40 41 40 40 41 41 41 42 43 43 44 43 40 39 36
5 6 6 5 5 7 8 7 7 9 14 20 24 28 30 32 33 32 30 31 32 32 33 33 32 33 34 34 35 37 38 39 38 37 37 37 39 40 40 40 41 42 41 39 38 39 40 40 39 40 41 41 41 41 41 41 41 42 43 41 38 37 37
5 6 7 7 6 4 5 9 10 8 10 15 20 28 32 31 31 29 27 27 30 30 30 30 32 34 34 35 38 39 40 40 40 38 38 39 41 41 40 41 41 41 40 39 40 41 41 39 38 38 41 42 42 42 42 40 40 41 40 39 38 38 39
7 7 7 8 9 9 7 5 9 11 11 12 17 23 27 29 31 29 26 26 28 28 27 29 33 35 36 38 41 40 40 40 41 41 41 42 42 41 41 42 41 40 39 40 40 40 38 37 37 37 39 40 41 42 42 39 38 39 38 36 37 39 41
8 8 8 9 11 13 12 4 5 10 12 14 18 18 17 21 25 25 26 27 26 25 27 33 36 37 39 41 40 38 39 40 42 43 44 44 44 43 43 42 39 38 39 39 39 37 35 35 36 35 35 36 37 39 39 38 37 37 36 35 36 38 40
8 9 9 9 12 15 14 9 4 6 7 11 15 15 14 16 17 19 22 23 23 26 33 39 40 41 41 40 37 36 39 41 43 45 46 45 44 42 41 41 40 40 40 39 38 35 32 32 31 29 28 30 32 34 35 37 38 36 34 33 34 38 39
9 11 13 15 17 17 15 12 9 7 4 1 6 12 17 18 17 17 17 16 21 31 36 36 36 37 37 35 33 33 36 38 40 41 41 40 39 38 38 39 39 39 39 38 36 32 29 27 25 24 24 26 30 33 33 34 35 34 33 31 32 35 37
9 9 11 13 16 18 15 10 9 11 10 7 3 7 16 21 20 17 16 17 24 29 26 23 25 28 29 28 28 30 33 35 37 38 36 35 36 36 35 34 34 35 35 34 32 28 26 25 26 26 25 26 29 30 28 27 27 26 28 29 29 31 33
9 9 9 9 12 16 15 10 8 12 12 10 7 2 9 17 20 17 17 21 25 24 21 21 21 22 24 25 26 28 30 31 33 34 34 34 34 34 32 32 33 34 35 34 32 28 26 27 28 28 27 26 26 22 18 20 22 21 22 24 24 26 30
7 7 8 9 12 15 14 11 10 11 11 11 10 7 2 6 12 15 18 24 25 22 22 22 22 22 24 26 26 26 26 26 27 28 29 29 30 30 31 33 34 34 33 32 31 29 29 30 31 32 31 28 24 20 18 20 22 20 19 20 20 22 28
7 7 7 8 11 13 13 11 12 11 11 12 12 10 8 5 3 6 12 20 23 23 24 24 23 24 26 27 28 29 28 27 27 28 29 30 32 33 35 36 35 32 31 31 31 31 31 32 33 34 31 28 25 25 24 22 22 22 22 21 20 24 30
7 7 8 8 10 12 10 8 8 9 9 12 15 15 13 10 9 9 8 11 15 20 25 27 27 27 27 28 29 29 30 31 32 32 33 34 36 37 38 37 35 33 32 33 34 33 33 34 35 33 29 26 27 30 29 27 26 26 27 26 24 27 34
5 6 7 9 10 11 9 7 6 7 7 9 13 17 16 14 13 11 8 8 10 12 17 24 30 32 32 34 35 35 35 36 37 38 41 42 43 41 38 37 37 37 39 42 42 40 38 36 32 28 27 26 28 31 30 28 29 31 31 28 26 30 36
5 5 7 8 9 9 9 7 7 7 7 8 11 14 15 15 14 13 10 9 10 12 13 16 20 23 26 29 31 31 30 28 26 27 30 34 39 41 40 41 43 42 43 45 46 45 41 35 27 24 25 28 31 32 29 28 32 35 33 29 27 33 36
7 6 8 10 11 10 9 8 9 9 9 10 12 13 13 14 13 12 12 11 10 11 14 16 16 16 17 18 18 18 18 19 20 20 21 25 30 32 30 32 36 38 38 38 39 42 45 42 37 35 34 33 33 33 33 36 39 36 32 29 29 32 33
7 7 9 12 11 10 9 9 9 9 10 11 12 11 11 12 12 12 11 10 8 9 10 11 12 13 12 11 12 17 20 23 25 26 27 28 30 30 28 26 25 26 30 33 37 43 48 47 44 45 45 41 37 33 32 36 37 34 32 31 29 28 29
10 10 11 12 12 10 10 10 9 9 10 11 12 10 9 8 9 9 9 9 9 8 8 8 8 8 7 7 12 17 22 24 25 26 28 27 26 27 29 27 21 15 15 20 28 36 41 41 42 45 45 42 40 36 31 29 31 32 31 30 27 26 29

ECMWFFLT1_925_spd_018.txt.gz
Wind_Speed
15 16 17 16 15 16 17 18 18 22 26 29 31 34 35 35 36 36 36 38 40 40 41 42 41 41 42 42 43 43 43 41 39 38 38 37 36 35 35 34 33 32 33 33 34 34 33 32 30 29 29 29 28 28 27 25 23 22 21 21 20 21 22
13 14 16 15 16 18 19 18 19 22 26 28 31 34 35 36 36 37 37 38 40 41 41 42 42 42 42 42 42 42 42 41 40 38 37 37 37 36 36 35 35 34 34 34 34 34 33 31 30 29 29 30 29 28 28 26 25 24 23 21 21 23 23
12 14 15 16 17 19 19 18 19 23 27 29 30 32 35 38 40 40 39 38 39 40 40 40 42 42 42 41 41 41 41 41 40 38 37 38 38 36 35 35 35 35 35 35 34 34 33 32 30 29 30 30 30 29 29 28 26 25 24 22 23 24 25
13 15 16 17 18 17 17 17 18 24 29 31 33 35 37 41 42 42 41 40 39 40 41 42 42 42 42 41 41 40 41 41 40 40 39 38 37 36 35 35 35 35 35 35 35 34 33 32 30 29 30 31 30 30 30 29 27 26 25 24 25 26 25
14 14 14 15 16 15 15 16 18 23 29 32 35 36 39 41 40 39 40 41 41 42 43 43 41 40 40 40 41 40 41 42 41 40 39 37 36 35 36 37 36 36 36 36 35 34 33 32 31 30 30 31 31 31 31 30 29 27 26 26 27 27 26
14 13 13 15 16 16 17 18 21 26 31 34 36 37 38 38 36 37 39 40 41 41 41 40 39 39 39 39 40 39 39 40 41 40 39 38 37 36 37 38 37 37 37 36 35 35 34 33 32 31 31 32 32 32 32 31 30 29 28 28 29 29 27
13 12 13 15 15 16 18 19 20 27 33 34 35 36 35 35 35 38 39 39 41 40 39 39 40 40 39 39 39 39 39 39 40 40 39 38 38 38 38 38 38 38 37 37 36 35 35 34 33 33 32 33 34 34 33 33 32 31 30 30 31 31 29
13 12 13 15 15 15 17 17 18 23 29 30 30 30 32 33 35 36 37 39 40 39 39 41 41 41 41 39 39 39 39 39 39 40 40 39 39 38 38 38 38 38 37 37 37 36 36 36 35 34 34 34 35 35 35 34 34 32 32 32 33 32 31
13 12 13 14 14 13 14 15 16 19 23 26 28 30 32 34 34 36 38 39 38 38 41 42 42 42 40 39 39 40 39 39 39 40 40 40 39 38 38 38 37 37 37 37 37 37 37 37 36 36 35 35 36 36 36 36 35 34 33 34 34 34 33
11 12 13 12 12 11 12 12 12 14 16 20 25 29 31 33 35 36 37 37 38 40 44 43 41 40 38 39 39 39 39 39 39 39 40 40 39 38 38 38 37 37 37 37 37 37 38 38 38 37 36 36 37 37 37 37 36 36 35 35 35 35 35
9 11 11 10 10 10 11 12 12 13 13 16 22 28 31 33 35 35 36 38 39 42 43 42 40 38 38 38 38 38 39 40 39 39 40 39 39 39 39 39 38 37 37 37 37 38 38 38 38 38 38 38 38 38 38 38 38 37 36 36 36 36 35
9 10 10 11 11 11 12 12 13 14 14 15 22 27 29 32 34 34 36 38 40 41 40 39 39 37 37 37 37 38 40 40 40 40 40 39 39 39 39 40 39 38 37 38 38 38 38 39 39 40 40 40 40 39 39 39 39 38 37 37 36 36 35
7 7 9 10 11 10 11 12 13 15 15 16 22 27 29 31 33 34 35 37 39 39 38 37 37 37 37 37 37 38 40 41 41 40 40 40 39 39 40 40 40 39 38 39 39 39 40 40 41 41 42 42 41 41 40 40 39 39 38 37 37 36 36
5 7 8 8 8 9 11 13 14 15 15 16 20 25 28 30 33 34 36 37 38 38 38 38 38 38 38 37 37 39 40 41 41 40 40 40 40 40 41 40 40 39 39 39 40 41 42 42 42 41 42 42 42 42 41 40 39 39 39 38 37 37 37
7 8 9 9 10 11 12 14 15 15 16 16 18 22 26 28 31 32 33 35 36 38 40 40 39 40 39 38 40 41 41 40 40 39 39 39 39 40 40 40 39 38 38 40 41 42 42 42 41 41 41 42 42 42 41 40 40 40 40 40 39 38 37
8 9 9 10 11 11 12 14 16 16 15 14 15 19 24 26 29 31 33 34 36 38 39 38 38 39 39 40 41 40 39 40 39 39 39 39 40 40 40 40 39 38 39 40 42 42 41 40 40 41 41 41 41 41 40 41 41 42 42 42 40 39 38
9 9 10 10 11 10 10 12 13 13 13 14 16 20 24 27 30 32 33 34 36 38 38 38 38 38 39 41 40 37 38 39 39 38 39 40 40 40 40 39 38 39 40 41 42 41 40 39 40 41 42 41 41 41 41 42 43 43 44 43 42 40 39
9 10 10 10 8 8 9 11 12 13 14 15 18 21 26 29 29 30 32 35 38 38 37 38 38 38 39 39 36 36 38 39 38 39 39 40 41 41 41 40 39 40 40 41 41 40 39 40 41 42 41 40 40 41 42 43 44 44 45 44 43 41 40
10 10 9 7 7 7 9 10 11 13 15 15 19 25 32 34 32 34 37 40 40 37 36 37 38 38 38 36 36 38 39 39 39 40 40 41 41 40 40 40 41 41 42 41 40 39 40 41 42 41 41 40 41 42 43 43 43 45 45 44 43 43 41
9 9 8 7 7 8 9 9 10 11 14 17 23 29 32 34 34 36 38 37 35 35 36 37 38 37 37 36 37 39 39 39 39 40 40 40 40 39 40 41 42 43 42 41 40 39 40 41 41 41 41 42 42 42 42 43 43 43 44 43 43 43 42
6 7 7 7 7 8 8 8 9 9 11 17 22 24 24 26 29 30 29 30 32 33 35 36 35 36 35 35 36 37 37 38 39 39 39 40 39 39 40 41 41 42 41 40 40 41 41 42 41 41 42 42 42 40 41 43 42 41 41 42 42 43 42
5 5 6 6 6 8 8 8 10 11 11 14 17 20 22 25 26 25 25 28 31 32 34 34 33 34 33 34 35 37 38 39 38 38 39 39 39 39 40 40 41 42 40 39 39 41 41 41 41 41 42 41 40 39 41 41 38 37 39 40 41 42 42
4 5 6 6 6 7 8 8 11 13 13 14 17 21 23 25 25 25 25 26 28 29 31 31 31 32 33 34 36 38 39 39 39 39 39 39 39 39 41 42 42 42 40 39 39 39 40 40 40 41 41 40 40 41 41 38 34 34 37 39 41 42 42
4 4 5 6 7 7 8 7 7 11 14 15 17 21 24 24 25 26 24 24 26 27 28 29 30 32 33 35 37 38 39 40 39 38 38 38 39 40 41 41 42 41 41 40 39 38 39 39 39 39 39 39 40 42 40 35 32 33 36 38 40 42 42
5 4 5 6 7 7 9 8 4 6 11 13 14 17 20 23 25 24 22 23 26 26 25 27 30 32 35 37 38 37 38 38 38 38 39 40 42 43 42 42 42 40 39 39 38 37 36 36 36 37 38 39 40 41 40 35 32 33 35 37 40 42 43
5 6 6 8 10 11 11 11 7 3 3 6 11 16 20 22 23 22 21 23 24 24 26 31 34 36 38 37 35 35 36 37 39 41 42 44 44 43 42 41 39 37 37 37 36 34 32 34 35 35 36 37 38 39 40 37 34 33 35 37 40 43 44
4 5 6 8 12 13 14 15 14 11 11 7 4 13 20 23 22 20 20 20 20 24 31 35 35 34 33 31 31 33 36 38 40 43 44 44 42 39 37 36 35 35 35 34 33 31 31 33 35 35 35 36 36 37 39 38 36 34 35 37 41 44 46
3 4 6 8 12 14 13 14 14 15 16 15 9 3 13 19 19 17 17 17 21 28 30 27 24 25 25 26 29 32 35 38 40 41 41 39 37 35 34 33 32 33 33 32 31 31 32 33 34 34 35 34 34 36 37 37 38 37 36 37 42 46 48
5 6 7 8 11 13 12 11 11 13 17 19 18 13 4 6 10 12 14 17 23 27 24 19 19 21 22 24 27 30 33 36 38 38 37 36 35 34 33 32 32 33 33 33 33 32 32 34 34 33 32 31 31 33 34 35 38 39 38 39 42 46 50
8 8 8 9 10 12 13 11 10 13 18 21 21 20 16 10 5 1 5 9 12 15 19 23 23 22 23 26 29 31 33 34 35 35 35 36 36 36 35 35 35 35 34 35 34 33 33 34 33 32 30 28 27 29 32 34 36 38 39 41 42 46 51
9 9 9 11 12 14 14 13 11 13 18 21 21 21 20 19 16 12 9 10 11 9 12 20 22 24 26 29 30 33 34 34 34 36 36 36 36 36 36 36 35 34 35 37 37 36 35 35 34 32 29 28 28 30 32 35 37 39 40 41 43 46 50
9 10 11 12 13 15 15 14 13 13 15 18 21 21 20 20 18 16 15 15 13 9 6 9 14 19 24 27 30 33 33 32 33 35 36 37 37 38 37 37 36 35 36 36 37 36 35 33 33 33 31 31 32 31 30 32 36 40 41 41 44 48 48
7 8 10 11 13 15 16 13 12 13 13 14 17 19 19 20 19 18 18 19 17 13 9 6 6 8 11 14 19 24 28 31 32 33 34 35 36 37 36 36 36 36 35 35 34 33 32 30 30 30 31 32 32 30 29 31 34 38 41 43 45 48 49
7 7 9 10 12 15 15 13 12 12 12 12 15 17 17 17 18 19 20 20 19 18 15 13 12 11 11 11 11 11 14 20 24 27 31 33 35 35 34 35 37 37 37 39 39 35 33 31 30 31 32 30 29 28 27 26 28 33 38 43 46 46 46
7 8 8 10 12 13 13 11 10 10 11 12 15 17 18 18 18 18 19 19 19 19 18 17 16 15 14 14 14 13 11 12 14 17 21 26 31 35 38 38 39 39 41 45 48 47 43 40 39 40 38 33 31 31 29 29 32 34 35 39 43 44 44
7 8 9 10 12 13 13 12 11 11 11 13 16 17 18 19 20 20 20 19 19 18 18 17 16 15 14 14 13 13 12 10 11 13 16 20 24 29 34 37 37 36 35 37 42 47 49 47 44 42 40 36 36 38 39 39 41 41 37 38 41 43 44
7 8 10 11 12 12 13 13 12 12 13 15 17 17 17 18 20 20 20 19 18 17 17 17 15 14 12 12 11 11 10 9 10 11 14 19 21 22 25 27 29 28 26 27 30 36 42 43 38 34 35 36 35 35 38 40 41 41 41 42 43 42 43
8 9 9 11 12 11 11 12 12 12 13 16 18 18 18 18 19 18 18 17 16 15 14 14 13 11 10 9 9 9 8 8 8 10 12 15 18 19 20 20 19 18 18 19 22 25 31 34 32 30 34 38 38 39 41 42 42 42 44 44 44 43 43

ECMWFFLT1_925_spd_021.txt.gz
Wind_Speed
16 17 18 17 17 19 19 18 19 23 26 27 29 32 33 33 33 31 29 31 35 33 33 37 36 35 37 40 41 40 39 37 37 38 36 34 33 32 34 34 32 32 31 31 33 34 33 32 31 31 30 29 28 26 25 24 24 24 23 21 19 18 17
15 16 17 17 18 20 20 19 20 23 25 27 29 31 32 33 33 34 32 33 38 38 35 38 39 37 37 40 40 40 40 38 37 38 35 34 36 36 36 35 34 35 35 34 34 34 34 32 32 31 30 30 29 27 26 24 25 25 24 23 21 19 19
14 15 17 18 19 20 20 19 20 24 26 26 29 31 33 34 35 36 35 34 38 39 35 37 40 39 38 39 39 39 41 38 36 38 37 36 38 35 32 34 36 36 35 36 35 34 33 32 32 32 31 31 29 28 26 24 24 26 25 25 23 21 20
14 16 17 19 20 19 18 18 20 25 28 29 31 33 35 37 37 38 38 36 37 38 38 38 40 40 39 39 38 37 39 39 37 37 36 34 34 32 31 34 36 35 34 36 35 33 33 32 32 32 32 31 30 29 27 24 24 26 26 26 24 23 22
14 15 15 16 17 16 16 19 21 26 30 32 33 33 34 37 36 36 37 37 37 38 40 39 38 38 38 38 38 36 38 40 39 37 35 32 31 33 35 36 36 35 34 35 36 35 34 33 32 32 32 31 31 30 28 26 25 26 27 27 26 25 23
12 14 14 15 16 17 19 21 23 29 32 33 34 33 33 34 35 36 37 36 36 36 35 35 35 35 38 40 38 36 37 39 41 40 37 35 34 36 38 37 37 36 35 36 37 36 35 34 33 33 32 32 30 30 30 28 27 27 28 28 28 27 25
11 13 14 15 16 18 20 21 23 29 33 32 32 31 31 31 32 34 35 35 37 36 33 34 35 35 37 39 37 37 39 39 40 41 39 37 38 39 39 38 39 39 37 37 38 38 37 36 36 35 34 32 31 31 32 31 29 28 29 29 29 28 27
10 10 13 15 16 17 18 18 20 25 29 29 28 28 29 30 30 32 34 35 36 36 34 35 35 34 37 38 37 38 40 38 38 40 39 36 36 37 38 38 40 41 39 38 39 39 39 38 38 37 35 33 33 33 34 33 31 30 30 30 30 30 29
8 7 9 11 13 14 15 16 17 20 23 25 27 27 30 31 30 32 35 35 34 34 35 36 35 34 37 39 39 38 39 37 35 36 37 36 35 35 35 35 37 40 41 39 37 38 41 40 40 39 37 35 35 35 36 34 33 32 32 32 32 32 31
8 6 6 7 10 11 12 13 14 15 16 19 23 26 28 30 31 32 33 33 33 35 36 36 34 33 36 39 38 36 36 36 35 35 36 36 35 34 34 33 33 37 41 38 34 36 41 42 41 40 39 37 36 36 37 36 35 34 34 33 33 33 33
7 6 5 7 9 10 11 12 13 13 14 16 21 26 28 30 30 31 32 33 34 34 34 34 33 32 35 37 36 35 36 37 36 35 36 36 34 34 34 33 32 32 36 36 34 35 40 42 41 41 40 39 38 37 37 37 37 36 36 35 34 34 34
5 5 6 8 9 9 10 11 12 14 14 15 20 25 27 29 30 31 32 33 34 34 32 32 33 32 33 35 35 35 36 37 37 36 37 36 35 34 34 34 32 31 33 36 35 35 37 41 42 42 41 40 39 38 39 39 38 38 37 36 36 35 36
5 5 6 7 6 6 8 9 11 14 14 15 20 25 27 29 31 32 31 32 33 32 30 31 33 32 32 35 35 35 36 37 38 38 37 36 36 35 34 35 34 32 32 35 35 34 36 39 41 42 42 41 40 39 39 40 39 39 39 38 37 37 37
6 7 7 6 6 8 9 10 11 12 12 15 19 24 26 28 30 30 30 31 32 31 31 32 32 32 33 34 35 35 37 38 37 37 37 36 36 36 35 34 35 33 33 34 35 35 36 38 40 42 41 41 40 40 39 40 41 40 40 40 38 38 38
7 8 8 7 8 9 10 10 11 11 12 13 17 21 23 26 28 28 28 29 30 32 33 31 32 34 32 33 36 36 36 36 34 35 38 37 36 37 37 35 34 34 33 35 37 37 36 37 38 39 39 38 38 38 37 38 42 43 42 42 41 39 39
8 8 7 8 8 9 10 11 11 11 11 11 14 18 22 24 26 28 30 31 31 33 34 31 34 37 34 33 35 34 34 37 36 35 39 39 38 40 40 37 35 36 37 38 38 37 38 38 36 35 36 35 36 36 34 35 41 44 44 43 42 42 40
6 6 7 7 7 7 8 9 10 10 11 13 15 18 22 23 25 28 30 31 31 33 33 32 34 37 37 34 33 32 36 41 39 36 38 40 39 40 41 38 36 37 39 40 38 36 38 41 38 34 32 33 34 35 34 34 38 43 45 44 44 43 42
6 6 6 5 4 5 7 9 10 12 14 15 16 19 23 24 25 26 28 31 33 34 33 32 33 37 37 33 32 36 40 40 38 37 37 39 38 38 39 38 36 36 37 37 36 36 38 39 38 35 33 32 33 35 35 35 38 42 45 45 45 44 43
8 7 6 5 5 6 8 9 9 12 14 15 18 23 27 27 26 26 30 31 29 29 30 31 33 36 36 31 33 39 41 38 37 37 36 37 37 36 37 36 36 36 36 35 36 36 37 37 36 36 35 34 35 36 36 36 39 43 45 45 46 46 43
7 7 7 7 7 7 7 7 8 10 13 16 20 23 25 26 27 28 28 26 23 25 27 28 30 32 31 30 34 38 39 38 38 37 36 37 36 35 36 37 37 37 35 34 35 36 37 37 37 36 36 36 37 37 35 34 38 43 45 45 46 46 44
6 6 6 6 7 7 6 6 8 9 11 15 19 20 21 25 28 27 25 23 24 28 31 31 31 30 27 28 32 35 36 38 37 35 34 35 34 34 36 37 37 36 34 33 35 36 36 37 37 37 37 37 37 36 34 34 36 42 45 45 45 45 44
5 5 6 5 6 6 6 6 8 9 11 12 15 18 21 24 25 24 24 24 25 27 30 30 29 27 27 28 30 33 35 36 34 33 32 32 32 32 34 35 35 34 33 33 33 33 34 36 37 37 37 37 37 36 35 34 36 41 44 45 45 44 44
4 4 5 6 6 7 8 8 10 11 11 11 13 17 19 20 22 23 23 23 24 26 27 26 26 27 30 31 32 33 34 33 32 31 30 30 31 32 33 34 33 33 33 33 32 32 34 36 36 36 35 36 37 37 36 35 37 40 42 43 43 43 44
5 4 5 6 7 7 8 9 10 10 10 11 13 15 16 18 20 21 20 20 23 23 22 23 25 27 30 32 32 32 33 33 32 31 30 31 33 33 33 34 33 33 34 34 32 32 33 33 34 36 37 36 37 38 36 35 36 38 39 42 43 43 45
4 4 4 5 5 7 7 7 6 5 5 8 9 11 14 17 19 19 18 18 20 20 21 24 27 28 30 31 29 30 33 35 34 32 31 33 34 33 32 32 31 30 31 32 31 31 31 31 32 36 36 35 36 38 36 35 36 37 38 41 43 43 45
5 5 5 5 5 5 5 3 3 4 2 2 3 5 11 16 17 17 16 15 17 20 22 24 24 25 26 24 23 27 32 32 32 33 34 34 34 32 30 29 28 27 28 30 30 30 31 32 33 35 35 35 36 36 35 36 38 40 40 41 44 44 45
5 5 5 5 5 4 4 7 9 9 7 6 4 0 7 12 14 13 13 13 15 18 19 19 20 22 22 21 21 24 26 28 30 33 34 32 31 29 27 27 27 27 28 29 29 30 32 33 34 34 34 35 35 35 35 37 40 43 42 42 45 46 46
6 5 5 4 4 3 6 9 11 11 10 9 8 5 4 8 9 8 10 10 9 10 11 13 19 24 23 23 22 22 23 26 28 29 28 27 26 26 25 25 26 27 28 28 29 31 32 32 32 33 34 34 34 35 36 37 42 46 46 45 46 47 48
6 6 6 4 4 6 8 10 12 13 12 11 11 10 7 7 7 6 6 5 2 0 4 9 15 20 22 23 24 23 24 27 29 30 28 25 26 26 25 24 25 26 26 27 28 29 30 31 31 32 33 31 30 33 36 37 40 45 47 47 48 49 50
5 5 6 5 5 7 9 10 12 14 14 14 14 14 12 10 10 10 8 6 5 3 2 5 10 15 18 21 23 23 23 24 28 31 29 26 26 26 25 25 26 25 26 27 29 29 28 29 30 30 30 29 26 28 32 33 36 41 45 46 48 49 51
5 5 5 6 7 9 10 11 13 14 15 16 15 15 15 14 13 13 11 6 4 3 2 4 8 10 13 16 19 21 22 22 24 27 27 26 26 26 26 26 25 25 27 28 29 29 29 30 30 29 29 29 27 26 29 30 31 36 41 44 46 47 49
6 6 6 7 8 8 10 12 13 15 16 16 15 15 15 14 14 13 10 7 6 6 5 5 6 7 7 8 9 13 15 17 18 21 23 24 25 26 27 27 25 26 28 28 29 31 31 30 31 29 28 29 27 26 27 28 31 36 41 44 47 48 49
7 8 8 9 9 8 9 10 11 13 14 14 15 15 15 15 15 14 11 10 9 8 8 8 7 7 5 4 3 4 6 9 11 13 15 18 21 23 24 25 25 25 25 27 29 31 31 30 30 29 29 30 28 25 25 28 33 38 43 48 52 54 54
6 7 9 10 10 9 10 11 11 12 13 14 14 15 15 15 15 14 13 13 11 9 10 10 9 8 7 6 5 3 2 4 7 9 10 12 16 19 20 22 25 26 27 30 32 32 32 32 32 32 33 32 28 26 26 30 36 42 47 52 54 51 49
6 7 8 9 10 11 12 11 12 13 14 14 14 15 15 15 15 14 13 12 11 10 11 11 10 9 8 6 5 4 3 2 3 6 8 9 13 16 19 22 24 25 27 30 33 34 33 32 32 33 33 31 30 29 29 31 40 47 48 51 54 52 49
6 6 8 9 10 13 13 12 12 14 14 14 15 15 15 14 14 13 12 11 10 10 10 9 9 9 8 7 6 5 3 2 1 3 5 7 10 13 17 22 26 28 28 28 30 33 33 32 31 30 28 27 31 36 38 40 44 46 45 48 55 58 57
6 6 8 10 11 13 13 12 13 14 15 14 15 14 14 13 13 13 12 11 10 10 10 9 9 8 7 6 6 5 4 2 1 1 2 5 7 9 12 17 22 27 30 31 31 32 34 34 34 33 30 29 30 35 41 43 40 38 42 49 56 59 59
9 9 9 10 11 11 12 12 13 13 14 14 15 14 13 13 13 13 12 12 11 11 10 9 8 8 7 6 5 5 4 2 1 1 2 4 5 7 9 11 14 18 23 28 32 34 35 35 35 34 35 35 33 33 37 40 38 38 44 51 56 58 58

ECMWFFLT1_925_spd_027.txt.gz
Wind_Speed
16 16 16 15 17 18 19 20 21 22 27 30 31 34 35 35 34 33 33 35 36 35 35 33 32 32 32 32 31 30 29 27 26 26 26 25 24 23 23 22 21 21 21 20 20 20 20 20 20 20 20 20 20 19 18 18 17 16 15 15 14 14 14
17 16 14 14 15 18 20 20 21 23 27 29 31 33 34 34 35 34 34 35 37 36 36 35 34 34 33 32 31 30 29 28 27 26 25 25 25 25 24 23 22 21 21 21 20 19 20 20 21 21 21 21 21 20 20 19 19 18 17 16 16 15 15
17 15 14 14 16 18 19 20 21 25 28 30 31 33 34 35 37 37 35 35 36 36 36 36 35 34 33 32 31 31 31 29 28 28 27 26 27 26 25 24 23 22 21 21 21 20 19 20 21 22 22 22 21 21 21 20 20 20 18 17 17 17 17
18 18 17 17 18 18 19 20 21 24 29 32 34 35 35 36 36 36 35 36 37 37 36 37 36 35 33 33 32 32 32 31 30 29 28 27 26 26 25 25 24 24 23 22 22 21 20 20 21 22 23 22 22 22 22 21 21 20 19 19 18 18 18
21 20 17 16 17 16 17 19 21 24 29 32 34 35 35 35 34 34 34 35 36 38 38 38 37 35 34 34 33 32 33 34 32 30 29 27 26 26 26 26 26 25 25 23 22 22 22 21 21 22 23 23 23 22 22 22 22 21 20 20 19 19 19
19 18 15 15 14 14 17 20 22 27 30 31 32 33 33 34 35 35 34 34 35 36 37 36 35 35 35 36 35 33 33 34 33 31 29 28 27 27 28 28 27 26 26 24 22 22 23 23 22 22 23 23 23 23 23 23 22 21 21 21 20 20 19
15 15 13 13 14 16 20 20 22 26 29 29 30 31 32 34 35 35 35 34 35 35 36 36 36 35 36 36 34 33 33 34 34 33 31 29 29 29 28 28 28 27 26 25 24 23 23 24 24 23 23 23 23 23 23 23 23 22 21 21 21 21 20
15 15 14 14 15 16 16 17 19 22 25 26 28 30 32 33 34 35 35 35 35 35 36 37 37 37 36 35 34 34 34 34 33 33 32 31 30 30 29 28 29 29 27 26 26 25 25 24 24 24 24 23 23 23 23 23 23 22 22 22 22 21 21
16 17 17 17 18 15 13 14 15 18 22 24 26 28 31 31 32 35 36 35 34 35 37 37 37 37 36 35 35 35 35 33 33 33 33 33 32 31 31 29 29 29 28 28 26 26 26 25 24 24 25 25 24 24 23 23 24 23 23 23 23 23 22
13 15 14 14 14 12 13 14 14 15 17 19 22 25 29 30 31 32 34 34 35 36 37 36 36 35 34 34 35 35 35 34 34 34 35 35 34 33 33 31 30 30 30 29 28 26 26 26 26 25 26 26 26 25 25 25 25 25 24 25 25 24 24
7 8 9 9 9 9 12 13 13 13 13 15 20 25 27 28 29 30 32 34 34 34 35 35 34 34 34 34 34 34 35 35 35 35 36 36 35 34 34 33 32 31 30 30 30 29 28 27 27 27 27 28 28 27 27 27 27 27 26 25 25 26 25
8 6 5 8 9 9 10 11 11 13 12 13 20 23 24 26 28 28 30 32 33 32 33 33 33 33 33 33 33 34 35 36 36 36 36 36 35 34 35 35 33 32 31 31 31 31 30 29 29 29 29 29 29 29 29 28 28 28 27 26 26 26 26
6 6 5 6 8 8 8 9 10 13 12 14 19 22 23 25 27 27 28 30 31 30 31 33 33 33 33 33 33 33 35 35 36 35 35 35 34 34 33 34 34 32 31 30 30 31 31 30 30 30 30 30 30 30 30 30 29 29 29 28 27 27 27
5 8 9 8 8 8 9 8 9 11 12 14 18 21 22 24 25 27 27 28 30 30 30 31 32 33 33 32 32 32 34 35 34 35 35 34 34 34 33 33 33 32 31 30 29 30 30 30 30 29 29 29 29 29 29 30 30 29 29 29 28 27 27
1 6 11 11 8 8 9 9 9 10 12 13 16 19 21 21 23 24 25 26 28 30 30 30 31 32 32 32 32 32 32 32 32 32 33 33 33 34 34 33 32 32 31 30 29 28 29 29 29 28 28 28 28 29 29 29 30 30 30 30 29 28 27
4 4 5 9 9 9 8 9 10 10 11 12 13 16 19 20 21 23 24 25 27 28 29 29 30 32 32 32 32 31 30 31 30 29 30 32 33 33 33 32 32 31 32 31 29 28 27 28 28 28 27 27 28 28 29 30 31 32 34 33 31 29 28
4 5 3 2 5 7 9 9 9 10 11 12 13 16 18 19 21 22 24 25 27 28 28 28 29 31 32 32 31 29 29 30 30 29 30 32 32 32 30 30 30 30 31 31 30 28 27 27 28 28 28 28 28 29 30 31 32 34 37 37 35 32 29
5 5 4 3 2 2 7 10 11 11 12 12 14 17 18 19 20 22 23 25 26 26 27 28 29 30 31 31 29 29 29 29 30 30 30 31 32 31 29 29 29 29 29 30 30 29 28 28 29 29 29 29 29 30 31 31 32 36 39 40 41 38 32
6 5 5 3 4 5 5 6 7 9 9 8 11 14 17 20 21 22 23 23 23 25 27 29 30 29 30 30 29 30 30 30 30 31 30 30 31 30 28 28 30 30 30 30 30 30 30 30 30 30 31 30 30 30 31 31 32 36 40 41 43 44 39
7 6 6 5 5 6 5 3 1 3 4 6 8 10 12 16 19 20 21 21 23 25 27 28 28 28 29 30 31 30 30 29 30 31 30 29 29 29 29 30 32 32 31 30 30 31 32 31 30 30 31 31 30 30 30 31 32 35 39 42 43 45 45
8 7 7 5 4 4 4 4 3 3 5 6 7 8 8 11 15 18 19 21 24 26 25 25 26 26 27 29 30 30 29 29 29 28 27 27 28 29 31 31 31 32 30 28 29 30 30 30 30 30 31 31 30 30 30 31 32 34 37 42 44 44 46
11 10 8 5 4 5 5 5 5 6 6 7 7 8 9 11 12 15 19 21 23 25 25 25 25 25 26 28 30 30 30 28 27 27 27 27 28 29 30 30 30 29 28 27 26 27 28 28 29 29 30 31 30 31 32 32 33 35 36 40 42 43 46
11 8 6 6 7 6 6 6 6 6 6 7 9 10 10 11 12 14 17 19 21 23 25 25 26 27 27 26 28 29 28 27 27 27 27 28 29 30 30 29 27 27 27 27 26 27 28 29 29 30 31 32 32 32 33 32 33 36 36 38 41 43 46
9 7 8 9 8 8 8 7 7 7 8 9 11 11 11 11 12 13 15 18 20 22 24 26 27 28 27 26 26 27 27 27 27 26 27 28 28 28 27 27 26 26 27 27 27 27 27 28 29 30 31 32 33 34 33 32 32 36 37 38 40 43 47
11 10 9 9 9 9 9 10 9 10 11 11 11 11 11 11 12 12 14 17 19 20 23 26 26 27 27 26 25 25 26 26 27 27 27 27 26 25 25 25 25 25 26 27 27 27 27 27 28 29 30 31 32 34 35 33 32 35 37 38 39 43 47
10 10 10 10 10 11 11 10 10 9 9 8 7 7 8 8 11 12 13 15 18 20 22 23 23 23 24 25 24 24 25 26 26 27 26 25 25 24 24 25 25 25 26 27 26 26 26 27 27 28 28 29 30 32 35 34 33 35 38 39 40 43 47
9 9 10 9 10 10 11 10 7 7 8 9 8 7 7 7 8 11 12 13 16 18 18 19 20 20 21 23 24 23 24 24 25 25 25 24 25 25 24 25 25 25 26 25 24 25 25 26 26 26 27 27 28 29 32 34 34 35 38 41 42 44 47
9 9 10 9 9 8 9 8 7 7 8 8 8 7 6 7 7 8 9 11 13 14 13 14 17 19 20 21 23 23 23 23 23 24 24 24 24 24 24 24 23 24 24 24 23 24 24 24 24 24 24 25 27 28 30 32 34 36 38 41 42 43 47
8 8 8 8 7 7 8 8 7 7 8 8 9 9 7 6 8 7 7 9 9 10 11 11 14 17 19 20 21 21 21 21 21 21 21 22 22 22 22 22 22 22 22 22 22 22 22 23 24 23 23 24 25 26 28 29 31 34 37 40 41 43 47
7 7 7 7 7 8 8 6 5 6 6 7 8 9 10 5 5 7 6 5 4 4 8 11 11 14 16 17 18 18 18 19 19 19 19 19 20 21 21 21 21 21 21 21 21 20 21 22 23 24 24 24 24 26 27 28 29 31 35 39 42 43 46
9 8 8 7 6 6 6 5 4 5 5 7 7 8 10 7 2 4 3 4 3 0 3 7 9 10 12 13 14 15 16 16 16 17 16 16 17 18 19 19 19 19 19 20 21 20 20 21 22 22 22 22 24 25 25 26 27 29 32 36 41 44 47
8 7 8 7 5 6 6 4 4 4 4 5 6 6 8 8 4 3 4 3 1 2 2 4 6 8 9 10 11 12 13 14 14 15 15 15 15 16 17 17 18 18 18 19 20 20 19 19 19 19 20 21 22 23 24 25 26 27 29 32 37 42 45
7 6 7 6 5 5 6 3 3 4 4 4 5 6 6 6 4 2 1 0 2 3 2 4 6 7 8 8 9 10 11 12 12 13 14 14 14 15 15 16 17 17 17 18 18 18 18 19 18 18 19 20 21 22 23 23 24 25 25 25 29 36 41
7 6 5 4 3 3 4 3 2 3 4 5 6 6 6 6 5 4 2 1 1 1 3 4 5 6 7 7 7 8 9 10 11 11 12 13 14 14 15 15 16 17 17 18 18 17 18 19 19 19 20 20 20 21 21 21 22 24 24 22 23 29 34
6 5 3 2 2 2 2 2 2 4 6 6 6 6 6 6 6 5 5 4 3 2 3 4 4 5 6 6 7 7 7 8 9 9 10 11 12 13 13 14 14 13 14 15 17 18 18 17 17 18 18 18 19 19 19 20 21 22 23 24 24 28 32
5 4 2 0 1 1 2 2 2 4 5 4 4 5 6 6 6 5 5 5 5 4 4 4 4 5 6 5 4 4 5 6 7 8 8 9 10 11 12 12 13 12 10 9 10 12 14 14 14 15 15 15 17 19 19 19 19 18 19 21 22 26 30
3 1 1 2 2 3 4 5 5 5 5 4 4 5 6 7 7 7 6 6 6 5 5 4 4 5 5 5 7 7 4 2 3 3 3 3 4 5 6 8 11 11 9 9 9 10 12 14 16 18 19 20 22 25 27 27 26 25 27 27 25 24 25
2 3 3 4 5 6 6 6 7 7 7 6 6 7 8 8 7 7 7 7 6 7 6 5 4 5 5 6 8 8 7 6 6 5 3 1 1 1 3 4 5 5 4 5 9 12 13 15 17 19 20 21 22 24 28 30 31 32 34 35 33 31 28

ECMWFFLT1_925_spd_030.txt.gz
Wind_Speed
18 20 18 15 15 16 15 14 15 18 25 30 33 34 36 36 36 36 37 40 42 42 42 40 38 39 38 38 36 35 33 32 31 31 29 28 27 27 26 24 24 25 24 24 25 25 24 23 24 25 26 26 26 24 22 22 22 21 19 18 17 17 17
18 18 18 16 15 15 14 13 12 14 20 28 33 34 34 35 35 36 36 39 42 42 43 42 40 40 39 38 37 36 35 34 32 32 30 30 29 29 28 27 25 26 26 25 24 25 25 24 24 26 26 26 26 25 24 23 23 23 21 20 19 18 18
18 17 19 19 17 16 16 13 13 16 23 30 35 35 36 37 37 37 36 37 39 40 41 43 42 41 40 39 39 38 38 36 34 33 32 32 31 30 30 29 28 27 27 26 24 24 25 25 25 26 27 27 26 25 25 24 24 24 22 21 21 20 20
19 18 18 20 20 19 20 19 19 26 33 37 39 37 36 36 35 36 35 36 38 38 39 41 41 41 41 41 40 39 40 39 37 35 33 32 32 32 31 30 29 28 26 27 26 24 23 24 26 26 26 27 26 25 26 25 24 25 24 22 22 21 21
20 18 16 18 20 17 18 18 20 27 34 37 37 37 35 35 34 34 34 35 37 38 38 39 39 39 40 40 39 38 40 41 39 37 35 33 32 33 32 31 30 30 27 27 27 27 25 24 26 27 27 27 26 26 26 25 25 25 25 24 24 22 21
19 17 14 16 18 17 18 19 21 28 32 32 33 34 34 35 36 35 35 35 36 37 37 37 37 37 37 38 37 38 40 41 40 38 36 34 33 33 33 32 31 31 30 28 27 28 28 26 25 27 28 27 27 26 26 26 26 26 26 26 25 24 22
18 16 14 15 17 18 20 20 21 25 27 26 27 31 33 34 36 36 35 35 36 37 37 37 37 36 37 37 37 38 39 39 39 39 36 35 34 33 33 33 33 32 31 30 29 28 29 29 27 26 27 28 27 27 26 27 27 27 27 28 28 27 24
19 17 15 16 18 18 18 17 16 18 20 19 22 29 33 34 34 36 36 36 36 36 37 37 36 36 37 37 37 37 37 37 38 39 38 36 35 35 33 33 34 33 31 30 31 30 30 31 30 28 28 28 29 29 28 28 29 28 28 29 29 29 27
20 21 18 18 19 18 16 15 14 16 19 21 26 30 32 33 34 36 36 36 36 36 37 37 36 36 37 37 36 36 37 36 36 38 38 36 35 35 34 33 33 34 32 31 30 31 31 30 31 31 30 29 29 30 30 30 30 30 29 30 30 30 29
17 20 18 18 17 14 14 15 13 13 15 19 26 28 30 32 33 34 35 35 36 36 37 37 36 36 36 36 34 35 36 36 35 36 36 36 34 34 34 32 32 32 33 32 30 30 31 31 31 32 32 31 31 31 32 31 31 31 31 30 31 31 30
13 18 16 14 14 13 15 15 13 12 12 14 21 25 27 30 31 32 34 35 34 35 35 36 36 35 35 35 35 35 36 36 35 35 35 35 34 33 34 32 31 31 32 33 31 30 31 32 32 32 34 34 33 33 33 33 32 32 32 31 31 32 32
8 14 14 13 13 14 16 15 13 13 11 12 19 23 24 27 30 31 32 33 33 33 34 35 35 34 34 35 35 35 36 36 36 35 35 36 34 33 34 33 31 31 31 33 33 32 31 33 34 34 35 35 35 34 34 34 34 34 34 33 31 32 32
8 10 11 11 10 11 13 12 12 14 12 13 20 24 23 26 30 29 29 31 32 31 32 34 34 34 34 34 34 35 35 36 37 37 36 36 36 35 34 34 33 32 32 32 33 33 32 33 35 36 36 36 37 36 36 36 35 35 35 34 32 32 32
12 12 9 9 10 10 10 9 9 12 13 14 20 23 23 25 29 28 27 29 31 31 31 32 33 34 34 34 34 35 36 36 38 39 39 38 38 37 35 35 35 34 33 33 33 33 33 33 35 36 36 36 37 38 37 37 37 36 36 36 35 33 33
14 13 10 8 8 8 8 7 7 9 11 13 17 20 21 23 25 26 26 27 30 31 31 31 33 34 34 35 35 35 37 37 37 39 40 39 38 39 38 37 36 35 34 34 34 34 33 32 33 34 36 36 36 37 37 37 38 38 38 38 37 36 34
13 14 14 11 8 7 6 6 7 8 9 9 11 16 19 20 21 24 26 26 28 30 30 30 32 34 34 34 36 35 35 36 36 36 38 39 39 39 39 38 36 36 36 35 35 34 34 33 32 32 34 35 36 36 37 37 37 39 40 41 40 38 36
7 10 15 14 10 9 7 6 6 6 8 8 9 13 17 18 19 22 25 26 27 28 29 28 29 33 34 33 33 34 35 36 36 35 37 38 38 38 39 39 37 36 36 36 35 35 35 35 34 33 32 33 34 35 36 37 38 39 42 43 43 41 38
9 5 7 10 9 10 10 10 9 8 9 11 12 14 16 17 19 21 23 25 26 27 28 29 28 30 33 32 31 33 35 35 35 35 35 37 37 37 38 39 38 37 36 37 36 35 35 35 36 35 33 32 33 34 35 37 38 40 42 44 46 45 42
4 1 2 5 7 10 11 11 12 12 12 13 15 16 17 18 19 20 21 22 24 26 28 29 28 28 32 33 32 33 35 34 34 35 34 35 37 37 36 37 38 38 37 36 36 35 35 36 37 36 36 34 34 35 35 35 37 40 42 44 46 47 44
2 1 2 3 2 5 6 5 8 10 9 12 16 18 20 21 20 20 21 21 22 25 26 28 28 26 29 34 33 32 34 34 34 34 34 34 35 36 36 36 37 37 36 34 34 35 35 36 36 37 38 38 36 36 36 36 36 38 41 44 46 47 47
2 2 2 3 2 5 8 7 5 4 3 2 2 5 12 19 21 20 21 21 21 23 24 26 27 26 25 31 34 32 33 34 33 32 33 32 33 34 35 35 35 34 33 32 33 35 36 36 36 37 38 39 37 36 35 35 35 37 40 43 44 47 49
3 5 2 4 8 9 8 8 7 6 6 7 6 6 5 11 16 18 20 21 21 23 23 23 26 26 25 28 32 32 31 32 32 31 31 31 31 33 33 33 33 32 32 32 31 32 34 35 35 35 36 36 37 36 36 35 35 36 39 42 43 45 48
10 13 11 11 11 11 11 10 9 8 7 7 6 6 8 8 11 13 17 21 21 21 22 22 24 26 25 25 29 31 31 31 31 30 30 30 30 31 32 31 31 31 31 31 29 29 30 32 33 34 34 34 36 37 38 36 34 36 38 40 43 45 48
13 12 11 11 11 12 13 11 8 8 7 8 7 8 9 10 11 11 8 16 22 21 21 22 23 24 24 24 26 30 30 30 30 29 29 30 29 28 29 29 29 29 30 30 29 28 28 28 30 32 32 33 35 37 38 37 35 36 38 39 41 45 48
12 10 9 10 11 11 10 7 5 6 6 5 6 7 7 8 10 12 10 8 15 20 21 21 22 23 23 22 23 27 29 29 30 29 28 29 28 26 27 28 27 27 28 28 28 28 27 26 27 29 30 32 33 35 37 37 35 36 38 38 39 43 47
10 10 9 10 11 10 8 5 4 4 5 7 9 9 8 8 8 9 10 11 10 15 19 21 21 22 23 22 22 25 28 28 28 28 27 27 27 26 26 26 26 25 26 26 27 27 28 28 27 27 28 30 31 33 36 38 36 36 37 38 39 41 45
9 9 8 10 10 8 7 7 7 7 7 8 9 9 8 7 8 8 9 10 11 11 13 17 21 22 23 24 22 23 26 27 27 27 26 25 25 25 24 25 25 26 26 25 25 26 27 28 27 27 27 28 30 31 33 35 35 35 36 38 38 40 43
9 9 8 9 8 7 8 7 7 7 8 8 8 9 10 8 7 7 8 9 8 9 9 10 18 23 23 23 23 22 23 25 25 25 25 24 24 24 24 24 24 25 25 25 25 25 25 26 26 25 25 26 27 28 29 30 31 33 35 38 38 38 41
10 9 9 9 8 8 9 7 6 6 6 7 9 9 10 12 10 5 6 7 6 7 8 7 12 20 21 21 22 21 21 23 24 23 23 23 24 24 24 24 23 24 24 25 24 23 23 23 24 23 23 22 23 24 25 26 27 30 34 36 38 38 40
10 9 9 10 9 9 9 5 4 6 6 7 9 7 9 13 10 1 1 4 6 2 5 7 7 16 18 17 19 19 18 19 22 23 22 22 22 23 22 23 23 23 23 23 23 21 20 20 20 21 20 20 21 21 22 22 24 26 29 33 35 37 38
10 9 9 10 9 10 10 6 5 6 6 7 8 6 8 12 9 7 7 8 9 8 7 6 4 11 16 15 15 17 17 16 19 21 21 20 21 21 20 20 20 20 20 20 20 19 17 16 16 17 18 18 19 19 19 20 19 20 22 26 32 35 37
10 10 9 10 9 10 10 9 6 7 7 8 9 7 6 9 9 9 8 6 6 7 8 7 2 5 11 12 11 13 14 14 15 18 19 19 18 19 18 18 19 18 17 17 17 17 16 15 15 15 16 16 17 18 18 18 18 19 20 21 26 33 37
9 10 9 9 8 8 8 7 6 6 5 7 9 9 7 6 8 6 4 4 4 3 4 5 3 3 7 8 8 10 11 12 12 14 17 16 15 15 16 16 16 16 15 15 15 15 15 15 14 14 14 14 15 16 17 18 20 21 18 14 15 24 31
8 9 9 7 6 6 7 7 5 5 5 6 6 8 7 5 5 4 3 3 2 0 0 1 2 3 5 7 7 8 10 11 11 13 15 15 14 14 15 17 16 16 16 16 16 16 15 15 16 16 15 15 15 14 15 16 14 10 7 6 5 9 17
9 10 9 6 4 4 5 6 5 4 5 4 4 4 4 3 3 3 3 2 1 1 2 4 5 5 7 8 8 10 11 11 12 12 13 14 16 15 14 15 15 15 14 12 13 14 13 11 10 8 7 7 5 4 5 5 3 4 8 9 9 8 7
8 10 8 5 3 2 2 2 3 3 3 3 5 4 2 2 3 4 5 5 3 2 4 6 6 6 7 5 4 7 11 10 11 15 14 12 14 16 16 14 13 11 8 6 5 4 3 2 1 1 2 2 4 5 5 4 6 9 12 14 15 14 13
6 8 8 5 3 1 2 2 1 1 0 4 6 4 2 2 4 5 5 6 5 5 4 3 5 5 8 9 11 11 9 6 6 10 9 4 6 6 7 9 9 7 6 7 6 4 4 4 4 4 4 4 5 5 5 6 8 12 16 17 19 20 20
7 8 8 5 2 1 2 3 3 3 1 3 5 6 5 6 7 7 7 8 8 10 11 7 3 6 9 10 12 14 13 11 11 11 10 10 11 10 8 7 7 7 8 9 9 9 9 7 7 7 8 8 8 8 9 11 12 14 15 17 18 19 20

ECMWFFLT1_925_spd_033.txt.gz
Wind_Speed
19 19 18 16 17 17 18 18 19 21 26 29 31 32 32 34 36 36 37 40 41 40 41 42 41 40 41 42 41 40 39 38 37 36 35 35 35 34 34 35 34 32 31 32 32 32 32 30 29 29 30 30 29 27 26 25 26 25 23 22 21 21 21
19 18 17 17 16 17 18 19 20 23 25 27 30 31 31 33 36 37 37 39 41 41 40 41 41 40 41 43 42 41 40 39 38 37 35 35 34 34 35 35 36 34 32 32 31 29 30 30 29 29 29 30 29 29 28 26 25 25 25 24 22 21 22
19 18 17 17 17 17 18 18 20 25 27 27 30 33 33 34 36 37 37 38 39 39 39 40 41 41 41 42 42 42 41 40 39 38 37 36 36 35 34 35 36 36 34 32 31 29 28 29 30 29 29 30 30 30 30 28 26 26 26 26 24 23 23
20 19 18 18 18 17 17 18 19 24 29 32 35 37 36 34 34 36 36 38 39 39 39 41 41 41 41 41 42 42 41 41 40 40 39 38 38 36 34 33 34 35 35 33 32 31 30 29 29 29 29 30 31 31 32 31 29 28 27 27 27 26 25
20 19 17 16 16 15 15 17 19 23 29 32 35 36 35 34 34 35 36 38 40 41 42 42 41 41 40 39 39 40 42 43 42 41 40 39 38 37 35 34 33 33 34 34 33 32 32 32 31 30 31 32 32 32 33 32 31 30 29 29 29 29 28
19 18 17 16 15 16 16 17 20 26 30 31 32 33 34 35 36 36 37 37 39 40 41 41 40 40 39 39 38 38 40 42 42 42 41 40 39 37 37 37 36 34 33 34 34 33 32 33 34 33 33 33 34 33 33 33 33 32 31 31 31 31 31
18 18 18 17 16 17 17 17 20 26 30 31 33 34 35 35 36 37 37 38 39 40 40 40 40 40 39 39 39 39 39 40 42 42 41 41 40 39 38 38 37 37 35 34 34 34 33 33 34 35 35 34 34 35 34 34 34 33 33 33 33 32 31
19 18 18 18 18 17 17 16 17 21 27 29 30 32 34 35 35 36 37 38 39 39 40 41 41 41 40 39 40 41 40 40 42 42 41 40 39 39 39 38 38 38 37 35 34 35 35 34 34 35 36 36 35 35 35 35 35 34 34 34 34 34 32
18 18 18 18 18 17 16 16 16 20 24 27 28 29 33 34 34 36 37 38 38 38 40 41 41 42 41 40 40 41 40 39 40 40 40 39 38 39 39 39 39 38 37 37 36 35 36 37 35 34 35 37 36 35 35 36 36 36 35 36 36 35 35
17 17 19 19 17 16 15 15 16 17 19 22 26 29 31 32 32 33 34 35 36 38 39 40 41 41 42 41 41 40 40 39 39 40 40 39 39 39 39 38 38 38 38 38 37 36 36 37 37 35 34 36 37 37 37 36 37 37 37 37 37 37 37
18 17 18 20 17 15 16 15 15 15 15 18 24 27 29 30 30 30 32 33 33 35 38 39 40 40 41 42 41 41 41 40 39 39 40 41 40 39 39 38 37 38 38 38 37 37 36 36 37 38 36 36 38 39 39 39 38 38 38 38 38 38 38
19 18 18 20 19 17 16 15 15 16 15 17 22 25 28 30 30 30 31 32 32 33 36 37 38 38 40 41 41 41 41 41 40 40 41 42 41 40 39 38 37 37 38 39 38 37 37 37 37 39 39 39 39 39 41 41 40 40 40 39 39 39 39
16 16 18 20 19 18 17 16 17 18 17 18 21 24 27 29 30 30 30 32 33 33 34 36 37 38 39 40 40 40 41 42 42 42 42 43 42 41 40 39 39 38 38 39 39 38 37 38 38 39 41 42 41 40 41 41 41 41 41 40 39 39 39
17 14 16 18 18 18 18 16 16 17 16 16 21 25 26 29 31 31 31 33 34 34 34 35 37 37 38 38 39 41 42 43 43 43 43 42 42 41 41 40 40 39 38 39 40 40 39 38 39 40 41 42 43 42 41 41 42 41 41 41 40 40 40
16 13 14 16 17 17 17 16 15 14 14 15 19 23 25 27 30 31 32 32 34 35 35 35 37 37 37 38 39 41 42 42 42 43 42 41 41 42 42 41 41 40 39 39 40 41 40 39 39 39 40 41 42 42 42 41 42 42 42 43 42 41 41
15 13 13 14 15 15 15 15 15 14 14 14 16 21 24 25 28 31 31 31 33 35 34 35 36 37 38 38 39 40 41 42 41 41 41 41 41 42 42 41 41 41 40 40 40 40 40 40 39 39 40 40 41 42 42 42 42 43 44 45 44 43 42
13 13 13 12 12 12 12 13 13 14 14 14 16 20 22 23 27 30 30 30 32 34 35 35 36 38 39 38 39 39 40 40 40 40 41 42 41 42 42 42 41 41 40 40 39 40 40 40 40 39 39 40 41 42 42 43 43 44 45 47 46 45 43
11 11 11 10 10 10 10 11 12 13 13 13 16 20 22 23 25 28 29 30 31 33 35 34 34 36 39 38 38 39 40 39 40 39 40 41 41 41 42 42 41 40 40 40 39 39 39 40 41 41 40 40 41 42 43 44 45 45 46 47 48 47 45
9 9 9 9 9 9 9 9 9 10 12 13 16 20 22 24 24 26 29 31 31 31 33 34 33 33 36 38 38 40 41 40 40 40 39 40 41 41 41 41 40 40 40 40 40 39 39 41 42 42 41 41 42 43 44 44 45 47 47 47 48 48 47
9 7 8 9 9 7 7 7 6 6 9 13 15 17 19 21 21 24 28 30 31 31 31 33 32 31 33 37 38 39 41 41 40 40 40 40 40 39 39 39 39 40 40 39 39 39 39 41 42 42 43 42 42 43 44 44 45 46 47 48 48 48 49
13 12 11 11 11 9 8 8 8 7 8 8 7 9 14 18 19 20 23 25 27 29 30 32 32 30 31 34 37 38 39 41 41 40 40 39 39 38 38 37 38 39 39 37 38 39 40 40 41 42 43 43 42 41 42 43 44 44 46 47 47 47 49
13 15 13 11 11 10 8 9 10 9 10 11 10 6 3 9 15 19 21 22 23 24 27 29 31 31 30 32 36 37 38 40 40 39 39 38 37 38 37 37 37 37 37 36 36 38 39 39 39 40 41 42 41 40 41 41 41 41 43 44 45 46 47
12 13 12 11 11 11 12 14 14 13 12 13 12 11 10 6 4 10 14 19 23 23 23 25 27 29 29 30 34 36 37 38 39 38 38 37 37 37 37 37 37 36 36 35 34 34 35 37 37 37 38 39 40 41 41 39 37 37 39 40 42 43 45
12 11 10 11 10 12 15 15 13 14 15 15 14 13 12 13 9 4 4 9 17 24 25 23 24 27 27 28 32 35 36 36 38 38 37 37 37 36 35 35 35 35 34 34 34 33 33 34 34 35 36 36 38 39 40 38 35 33 33 35 37 40 43
11 10 10 12 12 11 15 16 15 16 17 16 16 15 13 14 12 8 6 6 7 15 22 25 26 26 27 27 29 33 35 36 36 37 37 36 36 35 34 34 33 33 33 33 33 33 32 31 31 32 34 35 36 36 37 36 35 33 32 32 32 36 40
11 10 11 13 15 16 17 18 17 16 16 15 15 14 14 15 15 12 9 8 7 6 13 21 26 29 28 27 27 30 34 35 35 36 36 35 34 33 33 32 31 31 32 32 31 31 31 31 31 31 32 33 34 34 35 34 33 33 33 32 31 32 36
13 14 15 15 16 17 17 17 16 14 13 14 15 14 15 16 16 16 13 10 9 8 8 11 20 28 29 28 28 29 32 34 34 35 34 34 33 31 31 31 30 30 30 30 29 29 30 31 31 30 30 31 32 33 33 33 32 32 32 33 32 32 33
12 14 16 16 16 16 14 12 12 12 12 14 15 14 15 16 17 18 15 10 8 9 8 8 14 26 30 29 28 29 31 32 33 33 32 32 31 30 29 29 29 29 29 28 28 28 28 29 29 29 28 28 29 31 32 32 32 31 31 32 33 34 35
12 11 13 14 14 16 16 10 8 10 12 12 12 13 13 14 17 17 11 6 9 8 6 5 7 22 29 29 28 28 30 31 31 30 30 29 30 29 27 27 27 28 28 28 27 27 27 27 28 28 28 27 27 27 29 31 32 32 32 33 33 35 38
11 10 11 13 13 16 17 12 7 9 11 11 12 12 11 12 14 12 7 7 11 10 7 6 2 13 24 27 27 27 28 29 29 29 28 28 28 28 26 25 26 27 27 28 27 26 25 25 26 26 26 26 26 24 23 24 26 29 32 33 35 36 38
10 11 12 13 12 13 15 14 9 8 8 10 12 13 12 10 10 10 9 8 10 9 8 9 5 7 18 22 23 24 25 27 27 27 28 27 27 27 26 25 25 24 25 26 26 25 23 22 23 24 23 23 24 24 22 20 19 20 21 25 29 33 35
10 12 14 14 11 11 13 14 11 8 8 9 11 13 14 12 10 10 10 8 9 8 7 9 7 5 13 17 19 20 22 25 25 25 26 27 27 27 26 26 25 23 23 23 24 24 23 21 21 22 21 21 22 23 24 24 22 17 14 15 18 22 27
8 10 13 13 10 9 11 11 10 9 9 8 9 11 13 12 10 10 9 7 8 8 5 6 7 6 10 13 15 16 19 21 23 23 24 25 26 25 25 25 25 23 22 22 22 21 21 20 19 19 18 19 19 20 22 22 19 14 9 7 7 9 11
7 9 14 16 11 6 6 9 8 7 7 7 9 11 13 11 8 8 7 7 7 7 4 3 4 5 8 11 12 13 14 15 19 23 23 23 24 23 22 22 22 21 20 20 20 20 20 20 19 18 17 15 15 16 16 13 11 8 5 3 3 4 5
8 10 13 18 14 5 2 6 6 5 7 9 10 14 15 12 8 7 7 7 7 7 4 2 0 3 5 8 10 11 11 10 14 20 22 21 21 20 17 17 19 20 17 15 16 17 18 18 17 15 14 11 8 8 10 9 8 5 3 2 1 3 5
10 11 13 18 16 6 1 3 4 4 6 9 13 16 16 12 8 6 8 10 10 8 4 2 1 2 4 5 6 10 11 9 11 17 20 21 20 16 13 11 12 14 13 10 9 10 11 12 12 11 11 11 9 8 8 9 7 3 1 2 3 5 7
11 11 12 15 16 8 2 2 3 4 6 9 14 17 14 11 10 12 13 13 12 11 8 4 2 7 9 9 8 10 11 9 10 13 15 18 19 18 20 19 17 15 15 13 11 11 11 12 12 11 9 9 9 8 7 6 5 3 3 3 3 4 6
15 15 14 13 13 10 6 3 3 6 9 11 15 19 19 20 20 19 17 15 13 13 11 9 9 12 15 14 14 16 15 14 14 17 16 15 17 22 25 26 26 25 23 21 19 18 17 17 15 13 11 10 9 9 8 8 7 7 6 6 5 5 5

ECMWFFLT1_925_spd_036.txt.gz
Wind_Speed
18 18 18 16 17 18 19 19 20 23 28 31 33 37 38 39 40 40 40 42 44 44 45 45 44 44 44 45 44 43 41 40 39 37 36 35 35 36 37 36 36 36 36 35 35 34 33 32 31 30 28 28 28 27 26 25 25 24 23 22 22 21 22
18 18 18 17 17 19 20 20 22 25 28 31 34 36 37 38 39 40 40 42 43 44 44 44 44 44 45 45 44 42 42 41 40 38 36 34 33 34 36 36 36 37 37 36 35 34 32 31 31 30 29 29 29 29 28 27 26 26 26 25 24 23 24
18 18 18 19 18 19 20 19 22 26 29 31 33 34 37 39 42 43 42 42 42 41 41 42 42 42 43 42 41 41 41 41 40 39 38 36 34 34 35 35 36 36 36 36 35 34 33 31 31 31 31 30 30 30 29 28 28 27 28 28 27 26 26
19 19 19 20 20 19 19 19 21 26 30 33 35 38 40 42 42 43 43 43 42 41 41 42 42 41 41 40 40 40 40 40 40 39 39 38 36 35 34 34 35 35 35 36 36 35 33 32 32 32 32 31 31 31 31 30 29 29 28 29 30 29 29
22 21 19 18 18 17 17 18 20 26 31 34 38 40 40 40 39 39 40 41 42 43 43 44 43 42 41 41 40 40 40 40 39 39 39 38 37 35 34 35 36 36 36 36 36 35 34 33 33 33 33 33 32 32 31 31 31 30 29 29 30 30 30
20 20 19 18 17 17 18 19 22 28 33 35 38 38 36 36 37 37 39 40 41 43 43 42 42 41 40 41 41 39 39 39 39 38 38 38 37 36 37 38 38 38 38 37 36 35 34 34 34 34 33 33 33 33 32 32 32 32 31 31 31 31 32
18 18 18 18 17 17 18 18 21 29 33 35 35 34 34 35 37 38 38 39 41 41 40 41 42 41 41 40 40 39 38 38 39 39 38 37 37 37 38 38 38 39 38 37 36 35 34 33 34 34 33 33 34 34 33 33 33 33 33 33 33 33 33
20 19 18 19 18 17 18 17 19 25 29 29 29 31 33 35 36 36 38 39 40 40 40 42 42 42 41 40 39 40 39 39 39 39 39 37 36 37 37 36 37 37 37 37 37 37 36 35 35 34 34 34 35 35 35 35 34 34 35 35 35 35 34
20 20 19 20 19 17 17 17 19 23 26 27 28 31 33 34 34 36 38 39 38 39 40 42 43 43 42 40 40 41 40 40 40 39 39 37 37 37 37 36 36 36 35 37 38 38 38 38 37 36 35 35 36 36 36 36 36 36 36 37 37 36 36
19 20 20 19 18 16 15 15 17 18 20 22 26 29 32 33 34 35 35 36 37 38 40 41 41 41 41 40 40 40 40 39 39 39 38 37 37 37 37 37 36 35 36 36 36 37 38 38 38 37 37 37 37 37 38 38 38 38 38 38 38 38 38
19 19 18 17 16 15 15 15 15 15 15 20 25 28 31 33 33 32 33 34 35 36 38 39 38 38 39 40 40 39 40 40 39 39 39 39 38 38 38 38 37 37 37 37 36 36 37 37 37 37 38 39 39 39 40 40 40 39 39 40 40 40 40
18 17 17 18 18 16 16 15 16 15 15 19 25 27 30 31 32 31 32 33 35 35 36 37 38 38 38 38 38 38 39 40 40 39 40 40 39 39 39 39 38 38 39 39 38 37 37 37 37 38 39 40 41 41 41 41 41 41 41 41 40 40 40
17 16 16 18 17 16 16 15 16 17 17 20 25 28 29 31 31 31 32 33 35 36 36 37 38 38 38 38 38 37 38 39 40 40 40 40 41 41 41 40 40 40 40 40 40 39 38 37 38 39 40 41 42 42 42 42 41 42 42 41 41 40 40
19 18 17 17 17 17 17 16 16 17 16 19 24 27 28 30 31 32 33 34 35 36 36 37 38 38 38 38 38 37 38 39 40 40 40 40 40 41 41 41 41 41 41 40 40 40 40 40 40 41 41 42 43 43 42 41 41 42 42 41 41 41 41
20 19 19 19 19 18 18 17 16 16 16 18 22 24 26 28 30 32 32 33 35 36 37 38 38 38 38 38 38 39 40 39 39 39 39 39 39 41 41 41 41 41 40 40 40 41 41 41 41 41 41 43 43 43 42 41 42 43 43 42 42 42 42
20 19 19 19 19 18 17 17 17 17 17 16 19 23 25 26 29 31 31 32 34 35 37 37 37 37 37 37 39 40 40 39 38 38 38 39 40 40 41 41 40 40 40 40 40 41 41 41 41 41 42 43 43 43 42 42 43 44 45 44 44 43 42
19 19 18 17 16 15 14 15 15 16 16 16 19 24 26 27 29 30 30 31 33 35 36 36 36 36 36 37 39 39 38 38 37 37 38 39 40 40 40 41 40 39 40 40 40 41 41 41 41 42 43 43 43 43 43 44 44 45 46 46 46 45 43
18 18 18 17 16 14 14 14 14 16 16 17 21 25 27 28 29 29 30 31 32 33 35 35 35 36 36 37 38 37 37 37 37 37 38 38 39 39 39 39 39 39 39 40 41 40 40 41 42 43 43 43 43 43 43 45 46 46 47 47 48 48 45
12 12 13 14 14 13 13 12 12 14 16 18 23 27 29 31 30 30 32 33 33 33 33 33 34 35 36 37 37 37 37 38 38 38 39 39 39 39 38 37 38 39 40 40 41 40 40 41 42 44 44 43 43 43 44 45 46 47 48 49 49 49 48
9 9 8 8 8 7 7 7 7 9 12 17 22 26 29 30 31 32 33 33 32 32 32 32 32 33 35 36 36 37 38 38 38 38 39 39 39 38 38 38 39 40 40 39 39 39 40 41 42 43 44 44 44 44 44 45 46 47 48 49 49 48 48
12 13 12 10 10 9 7 7 7 7 8 11 16 18 21 24 26 27 28 29 30 30 31 32 31 32 33 35 36 37 37 38 38 38 38 39 39 38 39 40 40 40 40 39 38 39 40 41 41 42 43 43 43 43 43 44 45 45 45 47 47 47 47
13 14 13 10 10 9 8 9 11 11 12 11 10 10 13 18 22 23 25 27 29 29 30 31 31 31 32 34 36 37 37 38 37 37 38 38 38 38 38 39 40 40 40 39 38 39 39 40 40 40 41 41 41 41 42 43 41 41 42 43 44 44 44
13 14 13 12 13 13 14 16 17 17 19 20 18 13 8 8 15 21 24 26 28 29 30 30 30 31 31 33 36 37 38 39 38 37 38 38 37 37 38 39 40 40 40 39 38 38 39 39 40 39 39 39 39 40 41 41 38 37 38 39 40 41 42
14 14 13 12 14 16 18 20 21 21 22 23 22 20 17 12 8 10 13 16 21 24 26 27 29 31 31 32 35 37 39 40 40 39 38 38 38 38 38 39 39 40 40 39 39 39 39 39 39 39 39 39 39 40 40 38 37 35 35 36 36 37 40
13 13 14 15 16 16 17 20 22 23 24 23 21 19 18 15 13 10 7 3 6 14 20 23 27 30 32 33 34 37 39 41 41 41 40 39 39 39 39 39 39 40 40 40 40 39 38 38 38 38 39 39 40 40 39 38 36 35 34 34 33 35 38
12 12 13 17 18 18 20 23 23 21 21 20 19 19 19 16 14 13 11 8 4 2 9 15 21 27 32 34 34 36 38 40 41 42 41 40 40 39 39 39 38 38 38 38 38 37 36 36 37 37 37 38 38 38 38 37 35 34 33 33 33 34 35
13 14 15 18 20 21 20 21 22 20 20 21 21 20 19 17 15 14 12 9 7 6 4 6 10 17 25 30 32 34 36 38 40 41 41 41 41 39 38 38 37 36 37 36 35 35 35 35 35 35 35 35 35 35 35 34 33 33 33 33 34 34 34
13 15 16 19 22 22 20 18 18 19 20 22 22 21 20 18 15 13 11 9 8 9 7 6 8 10 16 25 29 31 34 36 37 38 39 39 38 38 36 36 36 35 35 35 34 33 33 34 33 33 32 32 32 31 31 31 31 31 32 33 34 34 34
10 11 12 15 18 20 20 17 16 17 19 20 20 20 20 19 16 14 12 11 11 11 9 8 8 9 12 20 27 29 31 33 35 35 35 35 36 36 35 34 34 34 33 33 32 31 31 31 31 30 28 28 28 28 27 27 28 29 30 31 32 33 34
10 10 10 12 14 17 19 16 14 17 19 19 19 19 20 19 17 15 14 13 13 13 12 11 9 8 10 16 24 27 29 31 32 33 33 33 33 33 33 32 32 31 32 32 31 29 28 27 27 27 25 24 24 24 24 23 23 25 27 29 30 31 32
11 12 13 16 17 18 18 17 16 16 16 18 18 17 18 19 17 15 14 14 15 14 13 13 12 9 9 14 20 24 25 27 29 30 30 31 32 32 31 30 29 28 29 29 28 27 25 24 24 24 23 22 22 22 23 22 22 22 24 27 29 31 32
11 14 15 17 19 20 19 18 17 15 15 17 18 18 18 17 16 16 16 15 14 14 12 13 14 11 9 13 17 20 22 23 25 27 27 28 30 31 30 30 29 27 27 27 26 25 23 22 23 22 22 21 21 21 22 23 22 22 22 23 25 27 30
11 13 14 16 19 20 16 15 14 13 13 16 18 19 19 16 15 16 17 14 12 12 12 11 13 12 8 13 16 18 22 23 23 24 25 26 27 28 28 29 29 27 26 25 24 23 22 21 21 21 21 21 20 21 23 22 20 19 18 18 17 17 19
11 13 16 19 22 21 15 11 11 12 12 15 18 20 18 15 14 14 14 11 9 10 11 10 11 11 6 10 15 18 21 23 24 24 24 22 21 20 20 22 25 25 25 25 25 24 23 22 22 22 22 22 22 22 20 18 18 18 16 14 12 11 10
11 13 16 18 20 21 16 10 10 12 13 14 17 19 18 17 16 14 13 12 10 9 9 7 8 9 6 5 13 17 20 22 23 25 23 21 18 15 12 12 16 18 20 22 23 24 24 24 24 25 25 24 22 20 17 17 17 16 14 12 10 8 7
11 13 15 17 19 21 19 12 10 12 14 14 16 18 19 18 17 15 15 14 12 10 8 7 6 6 4 1 8 14 18 20 22 23 23 22 21 18 14 10 8 10 11 12 16 19 21 22 22 23 22 20 17 15 16 16 16 15 12 10 9 7 5
12 12 14 17 17 16 16 13 10 12 14 13 13 15 17 17 17 16 15 14 12 10 7 4 3 3 3 3 5 10 15 18 20 21 22 23 23 23 21 20 17 14 12 9 7 10 13 14 14 15 16 15 14 13 13 13 13 12 10 8 6 4 3
15 14 14 16 16 14 11 9 9 11 12 11 12 13 14 15 16 15 14 14 12 11 9 8 8 8 8 6 6 8 12 16 18 19 21 23 24 24 25 26 25 22 19 17 14 12 12 11 11 11 11 10 10 12 13 13 12 10 8 6 4 3 3

ECMWFFLT1_925_spd_039.txt.gz
Wind_Speed
18 18 17 15 15 16 17 18 19 23 28 31 33 35 36 37 37 37 38 40 42 41 42 42 42 42 42 42 42 42 41 39 37 36 35 35 35 34 34 34 34 34 34 34 34 33 32 31 31 29 27 26 25 24 23 22 22 22 21 20 20 20 20
16 16 16 16 15 16 17 18 20 24 28 30 33 35 36 37 38 39 39 41 43 43 43 43 43 43 43 43 42 42 41 40 38 37 36 35 34 34 34 35 34 34 35 35 35 33 32 31 31 30 29 28 27 25 24 23 23 23 22 22 21 21 22
16 16 16 17 16 17 18 17 20 25 28 30 32 35 37 40 41 42 41 41 43 43 43 44 44 43 43 43 41 41 41 40 39 38 37 36 36 35 35 34 35 35 34 34 34 34 33 32 31 31 30 29 28 27 26 25 24 24 23 23 23 23 23
17 18 18 19 19 19 18 17 19 24 29 32 36 38 39 41 43 43 43 43 43 42 42 43 43 43 43 41 40 40 40 39 38 38 38 37 36 35 34 34 35 35 34 34 34 34 34 33 32 31 31 30 30 29 28 27 25 25 25 25 25 25 25
19 19 17 17 18 16 15 16 18 24 29 32 36 38 39 40 40 40 41 42 42 43 43 43 42 41 41 40 39 38 38 38 38 37 37 36 35 33 33 34 35 35 35 35 35 34 34 33 33 32 32 31 31 30 30 29 28 27 27 27 28 27 27
18 18 16 16 16 16 16 17 20 26 30 32 36 37 37 37 37 38 39 39 40 40 40 41 41 40 39 39 39 38 37 38 37 37 37 36 34 33 34 35 35 36 36 35 35 35 35 34 34 34 33 32 32 31 31 31 30 29 29 29 29 29 29
18 17 18 18 17 17 18 18 20 27 31 31 32 33 32 34 36 37 38 37 38 39 38 39 39 39 39 39 40 39 38 38 38 38 37 36 35 35 35 35 34 35 35 33 33 34 35 35 35 35 34 33 33 32 32 32 32 31 30 30 31 31 30
19 18 19 19 18 19 19 17 19 24 27 27 28 29 31 34 34 35 36 37 38 38 38 39 40 40 40 39 39 39 39 38 38 38 38 37 36 36 36 35 34 34 33 32 33 34 34 36 36 36 35 34 34 34 33 33 33 32 32 31 32 32 32
20 19 20 20 20 18 17 16 18 22 25 26 28 30 32 33 33 34 36 37 37 37 39 41 41 42 41 39 39 39 39 39 38 38 38 38 37 37 37 36 35 34 33 33 33 33 34 35 36 36 35 35 36 35 35 35 34 34 33 33 33 33 33
18 19 20 19 18 16 15 15 15 16 18 22 26 28 30 32 33 34 35 36 36 38 41 41 41 41 40 39 39 39 39 38 38 38 38 37 37 38 38 37 36 35 35 35 34 33 34 34 35 35 35 36 36 36 36 36 36 36 35 35 35 34 34
17 18 18 17 16 15 15 15 14 14 15 20 24 27 29 32 32 33 35 36 37 38 40 40 39 38 39 39 38 37 38 38 38 37 37 37 37 38 38 37 36 36 36 36 35 35 34 34 34 34 35 37 38 38 38 38 38 37 37 36 36 35 35
15 15 16 17 16 15 16 16 16 16 16 19 24 26 28 31 31 33 34 35 37 37 37 38 37 37 38 38 37 37 37 38 37 37 37 37 37 38 38 37 37 37 37 37 36 36 35 34 34 35 36 38 38 39 39 39 38 38 38 37 36 36 36
14 14 15 16 16 16 16 16 17 18 17 19 25 27 29 30 31 32 33 34 36 36 36 37 37 37 37 37 37 37 37 38 38 38 38 38 39 38 38 37 37 37 38 37 37 36 35 35 35 36 38 39 39 39 39 38 38 38 38 37 36 36 36
15 15 14 14 15 16 17 17 17 17 16 18 23 26 27 29 31 32 32 33 34 35 35 36 37 37 37 37 37 37 38 38 38 39 39 39 39 38 38 37 38 38 38 37 36 37 37 37 37 37 38 39 40 40 39 38 37 38 38 37 37 37 37
15 14 14 15 16 17 18 17 16 16 16 18 21 24 25 27 29 30 30 31 33 35 36 36 37 37 37 37 37 37 38 39 38 38 39 38 38 38 38 37 37 37 37 36 37 37 37 38 38 37 37 38 39 39 39 38 38 39 39 38 38 38 38
15 15 16 17 17 17 17 18 17 17 17 16 19 23 25 26 29 30 31 32 34 36 36 37 37 37 36 36 37 38 38 38 37 37 37 38 38 38 38 37 36 36 36 36 37 37 37 37 38 38 38 39 39 38 38 38 39 40 40 40 39 39 38
15 16 17 17 18 18 18 17 16 16 16 16 20 24 26 27 30 31 31 32 34 35 36 36 36 36 35 35 36 37 36 36 36 36 37 38 38 38 37 37 36 36 36 36 37 37 37 37 37 38 39 39 39 39 38 39 41 41 41 41 41 40 38
15 16 16 17 17 16 16 16 15 16 16 18 22 26 27 28 28 29 30 32 33 33 33 34 34 33 33 34 35 35 35 35 35 35 36 37 37 37 37 37 37 37 37 37 37 37 37 37 38 39 40 39 39 40 39 40 42 42 42 42 42 41 40
16 17 17 17 16 16 16 15 15 17 18 20 24 29 31 31 30 31 32 32 31 31 32 32 32 32 33 35 36 35 35 36 35 36 36 37 37 38 37 37 37 38 38 38 38 37 37 38 39 40 40 39 39 40 40 41 42 42 42 43 43 42 41
10 12 12 12 13 13 14 13 12 14 17 21 26 28 30 30 30 30 30 29 29 31 31 31 31 32 34 36 36 35 36 36 36 36 37 37 37 37 37 37 38 39 39 38 37 37 38 38 39 39 40 40 40 40 40 41 42 42 42 43 43 42 41
5 8 8 9 10 9 9 9 9 10 14 19 22 22 24 25 25 24 25 27 29 30 30 30 31 32 34 35 35 35 36 36 36 36 37 37 37 37 37 38 38 39 38 38 38 39 39 38 39 40 40 40 40 39 39 41 42 41 41 42 42 41 40
7 9 9 9 10 9 9 11 11 12 14 18 19 20 22 23 23 23 24 26 27 28 30 30 30 31 33 33 34 35 35 36 36 36 37 37 37 36 37 38 38 38 38 38 38 38 38 38 39 40 40 40 39 39 40 41 41 41 41 41 39 38 38
9 10 11 11 12 13 14 17 18 19 19 19 18 20 21 23 24 24 24 24 25 26 28 29 29 31 32 33 34 35 36 37 37 37 37 37 36 36 37 38 39 39 38 37 37 37 37 38 39 39 39 39 39 40 40 40 41 40 39 39 37 36 36
11 11 11 12 15 17 19 22 22 23 24 22 17 15 20 24 26 25 23 23 24 24 25 26 28 30 32 34 35 37 38 38 38 38 37 36 36 37 38 39 39 39 39 38 38 38 38 38 37 38 39 39 40 40 39 39 39 38 38 38 37 36 36
12 12 12 14 17 18 20 23 25 25 25 23 18 14 15 22 25 24 22 23 24 24 24 25 27 30 32 35 37 38 38 39 39 39 37 37 37 38 39 40 40 39 39 38 38 37 37 36 35 36 37 38 39 39 38 38 38 37 37 38 37 36 36
12 11 11 14 17 19 22 25 25 24 22 20 18 17 18 19 19 17 16 18 19 20 22 24 28 30 31 33 35 36 37 37 38 38 38 37 38 39 40 40 39 37 36 36 36 35 34 33 34 34 35 36 36 36 37 37 36 36 37 37 36 37 37
13 13 14 14 16 19 22 25 25 23 21 21 21 21 20 21 20 16 14 12 10 7 9 13 20 24 27 30 31 33 35 36 36 38 38 39 40 39 39 38 37 36 35 35 34 33 32 32 33 33 33 34 34 34 35 35 35 35 36 36 36 36 36
13 15 15 16 17 18 19 21 22 23 22 23 25 23 22 23 21 18 16 15 12 8 6 3 4 11 18 25 29 31 33 35 36 37 38 38 38 37 36 36 36 35 34 33 32 31 31 32 31 31 31 31 31 32 33 33 33 34 34 35 35 35 36
12 12 12 13 14 16 17 17 18 20 21 22 24 24 23 23 20 17 16 14 12 9 8 7 4 1 6 15 24 30 33 35 37 38 37 37 36 35 35 35 34 33 32 31 30 30 30 30 29 28 28 28 28 29 30 31 32 32 33 34 34 34 35
11 11 11 12 13 15 17 16 16 18 21 22 22 21 20 20 18 15 14 13 10 9 8 7 6 5 4 6 14 24 30 33 36 37 38 37 36 35 33 32 31 31 30 30 29 28 27 27 27 26 25 25 26 27 28 29 30 31 31 32 32 32 33
11 12 12 14 15 15 16 17 16 18 20 20 20 19 18 18 17 15 14 12 10 9 8 8 8 7 7 6 7 15 23 28 32 34 36 36 35 34 33 31 29 28 28 28 28 27 25 25 25 25 24 24 24 24 26 26 27 28 28 28 28 29 30
12 13 15 15 15 14 15 17 17 18 18 18 19 19 18 18 18 16 13 11 10 10 9 9 9 8 9 9 9 10 16 23 27 30 32 33 33 33 33 31 29 28 27 27 27 26 25 24 24 23 23 22 22 23 24 25 25 26 25 24 24 25 25
11 12 14 15 16 15 14 15 15 15 15 16 18 20 20 19 18 17 14 13 12 11 10 10 9 8 9 11 10 7 12 20 24 26 27 28 29 29 29 29 29 27 26 25 25 23 22 22 21 21 21 20 20 21 23 24 24 24 23 22 22 22 22
11 12 15 18 19 16 13 12 13 13 13 14 16 19 20 19 18 16 14 13 13 11 11 11 10 9 9 10 9 6 10 17 20 21 21 21 21 21 21 22 24 24 24 24 24 22 21 21 21 22 22 21 21 21 21 21 22 22 21 21 21 20 20
11 13 15 16 17 15 11 9 11 13 13 13 16 19 20 19 18 16 14 14 13 12 12 11 10 10 9 9 8 5 8 13 15 18 19 19 18 16 14 14 17 19 20 22 22 22 22 21 22 23 24 22 21 20 19 19 20 21 20 19 17 16 15
11 14 15 16 16 15 13 10 12 14 15 15 18 21 21 20 18 16 15 14 14 13 11 10 9 9 9 7 6 3 6 10 14 17 20 21 21 18 14 11 11 13 15 16 18 19 20 20 20 21 21 20 19 18 18 18 19 18 16 15 14 12 11
12 13 15 17 16 15 14 13 14 15 16 17 19 20 20 19 18 16 15 14 13 12 11 9 8 9 8 7 5 1 6 11 15 18 20 20 21 20 18 16 12 9 9 10 12 14 16 16 17 16 16 16 15 15 15 15 14 13 13 13 12 11 10
16 15 16 17 16 15 13 11 11 12 13 15 18 18 18 18 17 15 14 13 11 11 11 10 10 10 9 7 5 2 7 13 16 18 20 20 20 21 21 20 19 16 12 8 7 8 9 11 12 11 11 11 11 11 11 11 12 12 12 11 10 10 9

ECMWFFLT1_925_spd_042.txt.gz
Wind_Speed
16 16 16 14 14 15 16 17 19 23 27 29 31 34 36 37 38 37 37 39 40 39 39 40 39 39 39 40 40 39 38 36 35 35 35 34 34 33 32 32 32 32 32 32 32 31 30 28 27 27 27 26 25 24 23 21 19 18 17 17 17 17 16
15 15 15 14 14 16 17 17 20 23 26 29 31 33 36 37 38 39 38 39 40 40 40 40 40 39 40 40 39 39 38 37 36 35 35 34 34 34 33 33 33 32 32 32 32 31 31 29 28 27 27 27 27 26 24 23 21 20 19 18 18 18 18
15 15 15 15 15 16 17 16 20 25 28 30 32 34 37 39 40 41 40 39 40 39 39 40 40 40 40 39 38 39 39 38 37 36 35 35 35 35 34 33 33 32 32 32 32 31 31 31 30 29 28 27 27 26 26 24 23 22 21 20 19 19 19
16 17 17 17 17 17 16 16 19 25 30 33 35 37 38 39 40 40 39 39 39 39 39 40 41 40 40 39 38 38 39 38 38 38 37 37 36 34 33 33 33 32 32 32 32 32 32 31 31 30 29 28 27 27 27 26 25 24 23 22 21 20 20
16 17 16 16 16 15 14 15 18 24 29 32 35 36 37 38 38 38 39 39 40 40 41 41 40 40 39 39 38 38 38 39 38 38 37 36 34 33 33 33 33 33 34 33 33 32 32 31 32 31 31 30 29 28 28 28 27 26 25 24 23 22 21
14 15 15 15 15 14 15 16 20 27 30 32 34 35 35 36 36 37 38 38 38 39 39 39 39 39 38 38 38 36 36 37 37 38 37 35 34 33 34 34 34 34 34 33 33 32 31 31 32 32 32 32 31 30 29 29 29 28 27 26 25 24 22
13 14 15 16 16 15 17 17 21 28 31 30 31 31 32 34 36 37 37 37 38 38 38 38 39 38 38 37 37 36 35 36 37 37 37 35 34 34 35 34 34 34 33 32 32 32 32 32 32 32 32 32 32 31 30 30 29 29 28 27 26 25 24
14 15 16 17 17 17 17 17 19 24 28 27 27 29 33 35 36 36 37 37 37 37 38 39 39 38 38 37 37 37 37 37 37 37 37 36 35 35 35 34 34 34 32 32 33 33 32 33 33 32 32 32 32 31 31 31 30 29 28 28 27 26 25
15 15 16 17 17 17 16 17 18 21 25 28 30 32 34 35 35 36 37 37 37 37 38 39 39 39 39 38 38 39 38 37 37 37 37 37 36 36 36 35 34 33 32 33 33 33 33 33 33 33 33 32 33 32 32 32 31 30 29 29 28 27 27
13 14 16 16 16 15 15 14 14 16 19 24 28 29 31 33 34 35 36 36 37 38 39 39 39 39 38 38 38 38 38 37 36 37 37 38 37 37 37 36 34 33 33 33 33 33 34 34 33 33 33 33 34 34 34 33 32 31 31 30 29 29 28
12 14 14 15 15 15 14 13 13 13 15 21 26 28 30 32 33 34 36 37 38 38 39 39 38 38 38 38 38 37 36 37 36 36 37 38 38 38 38 36 34 33 33 33 33 33 33 33 33 33 33 34 35 35 35 35 34 33 32 32 31 30 30
11 12 14 15 16 15 14 14 14 15 16 20 26 28 30 32 33 34 35 37 38 38 38 38 37 36 37 37 36 35 36 37 36 37 38 38 38 37 37 36 35 34 33 33 33 32 32 32 32 33 34 35 36 36 36 35 35 34 33 32 31 31 31
11 12 14 15 14 14 14 14 16 17 17 21 26 29 30 32 33 34 35 36 37 37 36 36 36 36 36 36 36 35 36 37 37 38 38 38 38 37 36 36 36 35 34 34 33 32 32 32 32 33 34 35 36 36 36 35 34 34 33 32 32 32 31
13 14 14 13 13 14 16 16 17 17 17 20 25 28 29 31 32 34 34 35 35 35 35 36 36 36 36 36 35 36 37 38 38 38 38 37 38 37 37 36 36 36 35 34 33 33 34 33 33 33 34 35 36 36 35 34 34 34 34 33 33 32 32
14 16 15 14 14 16 17 17 17 17 18 19 23 26 27 28 30 31 32 33 34 35 35 36 36 36 36 35 36 37 37 37 37 37 37 37 37 37 37 36 36 36 35 34 34 34 34 34 34 33 33 34 34 35 34 34 34 35 35 34 33 33 33
15 16 15 15 16 16 17 18 18 18 17 17 20 25 26 27 29 31 32 33 34 35 36 36 36 36 35 35 36 37 37 36 36 36 36 37 37 37 37 36 35 35 34 35 35 35 34 34 34 34 34 34 34 34 33 34 35 37 36 35 34 33 33
14 15 15 15 17 16 17 17 16 16 17 17 21 26 28 28 30 32 31 32 34 35 35 36 36 35 36 36 37 36 36 35 35 35 36 36 36 36 36 35 35 34 35 35 35 35 34 34 34 35 35 34 34 34 33 34 36 37 36 36 35 34 33
13 15 15 16 16 15 15 15 16 17 17 18 22 26 28 28 29 29 31 33 34 34 34 35 35 35 35 36 36 35 35 35 34 34 35 35 36 36 36 35 34 35 35 35 35 35 35 35 35 36 35 34 34 34 34 35 36 36 36 36 35 34 33
10 12 15 16 16 15 16 15 16 18 19 20 25 30 31 32 32 32 33 34 33 33 33 33 33 33 34 34 34 34 34 34 34 34 35 36 36 36 35 35 35 35 35 35 36 35 35 36 36 36 36 35 35 35 35 36 36 36 36 36 36 35 34
8 8 9 11 13 14 15 14 14 16 20 25 28 30 32 32 30 29 29 30 31 31 32 32 31 31 32 33 33 34 34 34 35 35 36 36 36 36 36 36 36 36 36 35 35 34 35 36 36 36 36 36 36 36 35 36 37 37 36 36 36 35 34
6 7 7 7 10 12 12 13 12 13 17 23 25 26 27 27 26 25 27 29 31 31 31 31 31 31 33 33 34 34 34 35 35 36 36 36 36 35 36 36 36 36 36 35 35 35 36 36 36 36 36 37 36 36 36 37 37 36 36 37 36 34 33
2 6 8 8 9 10 11 12 14 16 19 22 25 26 26 26 26 27 28 30 30 30 31 31 31 32 33 33 33 34 35 35 35 35 35 35 35 34 34 35 35 36 35 35 34 35 35 35 35 36 37 36 36 35 36 38 38 37 37 37 35 34 33
6 2 6 7 7 8 10 14 17 19 22 24 26 27 27 27 28 28 27 28 28 29 30 30 31 32 32 33 33 35 36 36 36 36 35 34 33 33 34 35 36 36 36 34 34 34 35 35 35 36 36 36 35 36 37 38 37 36 37 36 34 33 33
10 7 5 7 10 12 15 18 21 22 25 25 24 25 28 28 28 28 26 26 27 28 28 29 30 31 31 33 34 35 36 37 37 37 35 34 34 35 35 36 36 37 36 35 35 36 37 36 35 36 36 36 36 37 37 37 37 36 36 36 35 34 33
12 11 9 8 9 12 17 22 24 24 25 25 24 26 29 30 29 27 25 25 27 27 26 28 30 31 32 34 35 36 37 37 37 37 35 35 36 37 37 37 37 37 35 35 36 36 35 34 34 34 35 36 37 36 36 36 37 37 37 36 35 34 34
12 12 11 12 12 12 16 21 22 21 21 23 26 29 32 32 30 27 25 25 26 25 26 29 32 33 34 35 34 35 35 36 36 36 36 36 37 38 38 37 36 35 33 34 35 34 33 32 33 33 35 35 35 35 35 36 37 37 37 36 35 34 33
15 15 15 15 16 15 16 17 17 17 16 19 25 30 32 32 28 24 24 25 24 25 28 32 33 33 34 34 32 33 34 35 36 37 37 38 38 37 36 36 35 33 33 33 34 32 31 31 31 32 33 33 33 34 34 35 36 36 36 35 34 33 33
16 17 17 18 19 18 16 16 17 17 15 15 21 27 30 29 25 21 22 22 21 24 27 29 31 32 33 33 32 32 33 34 35 36 37 38 37 35 34 35 34 34 33 32 31 30 31 31 30 30 31 31 31 32 33 33 34 35 35 34 34 32 32
15 15 14 15 17 17 15 14 15 17 17 16 19 23 27 27 22 20 20 18 17 20 22 23 26 28 29 30 30 31 32 34 35 36 36 36 36 35 35 35 33 32 32 31 30 29 29 30 29 28 28 28 29 30 31 31 32 33 33 33 32 31 31
16 15 13 14 16 18 17 14 14 17 19 19 21 22 25 27 25 22 20 18 17 18 18 18 19 21 24 28 30 32 32 34 35 37 37 37 36 35 34 33 31 31 31 31 30 28 27 27 27 26 25 26 27 28 29 30 31 31 31 30 30 30 29
15 15 15 15 17 18 17 15 15 17 18 20 22 23 24 26 26 22 18 16 17 17 16 15 15 14 15 19 25 30 33 33 34 35 36 36 35 34 33 32 30 30 30 30 29 28 26 26 25 25 25 24 25 26 28 29 30 30 29 28 28 28 27
14 16 17 16 16 16 16 16 16 16 17 18 20 22 23 24 24 22 18 16 15 15 13 12 11 10 9 9 11 17 24 29 31 32 32 32 31 32 33 32 31 30 29 28 28 27 26 25 24 23 23 23 23 25 26 27 28 28 27 26 26 26 26
13 14 15 16 16 16 15 15 14 14 15 15 16 19 22 22 22 20 18 16 14 12 10 10 9 7 7 5 4 7 13 20 25 27 27 27 26 28 29 30 30 28 27 26 26 25 24 23 22 22 22 22 23 24 25 25 25 25 25 25 25 24 24
11 13 16 18 18 16 15 13 12 12 12 12 13 16 19 19 18 17 16 15 13 11 9 8 7 6 5 4 3 5 9 13 17 21 22 21 22 23 23 24 25 26 26 27 27 25 24 24 23 24 24 24 24 23 22 22 22 23 24 24 24 23 22
11 13 16 18 18 15 13 12 11 11 11 10 13 17 17 17 16 15 15 14 12 10 10 9 7 6 4 2 2 4 7 10 13 16 18 18 18 18 17 17 20 22 23 25 26 26 26 25 25 26 26 25 24 22 20 20 22 23 23 22 21 20 20
12 14 16 18 18 17 14 11 10 11 10 10 14 17 18 17 16 15 15 14 12 11 10 9 9 8 6 4 4 5 9 12 14 17 18 19 18 17 14 12 13 16 18 20 21 22 23 24 24 25 25 23 22 21 21 21 21 20 19 19 18 18 17
11 13 15 16 16 16 15 13 10 10 10 10 14 17 17 17 17 16 15 14 12 11 10 9 10 10 8 7 6 8 12 15 17 18 20 20 20 19 17 14 11 10 12 13 14 16 18 19 19 19 19 19 20 19 19 18 17 15 15 15 15 15 14
12 13 16 16 15 14 15 13 9 7 8 10 13 15 16 16 16 15 14 13 11 11 10 11 12 11 10 9 9 11 13 16 18 19 19 20 20 20 20 19 17 14 10 8 9 11 13 14 14 13 13 14 15 15 14 13 12 11 12 13 14 14 13

ECMWFFLT1_925_spd_048.txt.gz
Wind_Speed
16 16 16 15 16 18 19 20 23 26 28 29 30 32 32 31 31 30 30 32 32 31 31 31 29 29 29 29 27 26 26 25 24 23 23 22 21 20 20 19 20 20 19 18 18 17 17 16 15 15 15 15 15 15 15 14 14 12 12 11 10 10 10
15 15 16 16 16 18 20 21 24 26 28 29 30 32 32 32 32 32 30 31 33 33 32 31 30 30 29 28 27 27 26 26 24 23 22 21 21 21 20 20 20 20 20 19 17 16 16 16 16 16 15 15 15 15 15 15 15 13 12 12 12 10 10
15 15 16 16 16 18 20 21 23 27 28 29 31 32 34 34 34 33 32 31 32 32 32 32 32 30 29 28 27 27 27 26 25 24 23 22 22 22 21 20 20 20 19 19 17 16 16 16 16 16 16 15 15 16 16 15 15 14 13 13 13 12 11
15 16 16 17 18 19 19 20 23 27 29 31 33 35 36 36 34 33 31 31 33 33 33 33 32 30 29 29 28 28 28 28 27 25 24 23 22 22 21 21 21 20 19 19 18 17 16 16 16 16 16 16 15 15 16 16 15 15 14 14 13 13 12
17 16 15 16 17 17 17 19 23 27 30 32 34 34 34 35 33 32 32 31 32 34 34 33 32 30 30 29 28 27 28 29 28 26 25 24 22 21 22 22 21 21 20 19 18 18 17 16 16 16 16 16 16 16 16 16 16 15 15 15 14 14 13
18 18 16 15 15 16 18 20 24 29 32 32 34 33 33 34 34 33 33 32 32 32 32 32 32 32 31 30 29 27 28 28 28 27 25 24 23 22 22 23 22 21 20 19 18 18 18 18 17 16 16 16 16 16 17 16 16 16 16 16 15 15 14
17 17 17 16 15 16 19 20 24 30 32 32 32 32 32 33 34 34 32 32 33 32 33 34 34 33 32 31 30 29 29 29 29 28 26 25 25 24 23 23 22 21 20 19 18 18 18 19 18 18 17 17 17 17 17 17 17 16 16 16 16 16 15
17 16 17 18 17 18 18 19 22 27 29 29 30 30 32 33 33 33 33 33 33 33 33 34 34 33 32 31 31 31 31 29 29 28 27 26 26 25 24 23 23 22 20 20 19 19 19 19 19 19 18 18 17 17 17 17 17 16 16 16 17 16 16
16 16 16 17 18 18 17 17 20 24 27 28 30 31 33 33 33 34 35 34 33 34 35 34 34 34 32 31 31 32 31 30 28 28 28 28 27 26 25 24 23 22 22 21 20 19 20 19 19 19 19 19 18 18 17 17 17 17 16 17 17 17 16
16 16 16 17 17 16 15 16 17 19 21 25 28 30 32 32 33 33 34 33 34 35 36 35 33 33 32 32 32 32 31 30 29 29 29 29 28 27 27 25 24 23 23 22 21 20 20 20 20 19 20 20 19 18 18 18 18 17 17 17 17 17 16
13 15 15 16 16 15 15 16 16 16 17 22 27 29 30 32 32 32 33 34 34 34 35 34 33 33 33 32 32 32 31 31 30 30 30 30 29 28 28 26 25 24 23 23 22 21 20 20 21 21 21 21 20 20 19 19 19 18 18 18 17 17 16
4 7 9 11 12 13 13 14 15 16 17 22 27 29 29 31 31 31 32 34 34 33 33 34 33 33 33 32 32 32 32 32 31 30 31 30 29 28 28 27 26 24 24 24 24 23 21 21 21 22 22 21 20 20 20 19 19 19 19 18 17 17 17
1 3 5 8 9 10 11 12 14 17 18 22 27 29 30 31 32 31 32 33 33 32 33 33 33 33 33 32 32 32 33 33 32 31 31 30 29 28 27 27 26 25 24 24 24 24 23 22 22 22 22 22 21 20 20 19 19 19 19 19 18 18 17
2 4 6 8 9 11 13 14 15 17 18 21 25 27 28 30 31 31 31 32 32 32 32 33 33 33 33 32 32 32 33 33 32 31 30 29 28 27 26 26 26 26 24 23 23 24 24 23 22 21 21 21 21 21 20 20 20 20 20 20 20 19 19
2 2 4 7 10 13 14 15 16 17 18 20 24 27 27 27 28 29 29 30 31 32 32 32 33 33 32 31 31 32 32 31 30 30 29 28 28 28 27 26 26 25 24 23 23 23 23 23 22 21 21 21 21 21 20 20 20 20 21 21 20 20 20
8 6 4 3 6 11 15 16 16 18 19 19 23 26 27 26 27 29 30 31 32 32 32 32 32 33 32 32 32 31 30 30 29 29 29 29 28 28 27 26 25 25 25 24 23 23 22 23 22 21 21 21 21 21 21 21 21 22 24 23 22 20 19
11 11 10 9 7 6 11 15 17 18 18 20 23 27 28 27 28 30 30 31 32 33 33 33 33 33 33 32 30 30 30 30 29 29 29 29 28 28 28 26 25 25 25 24 23 23 22 22 22 22 21 20 20 21 21 21 21 24 27 27 26 22 19
14 13 13 11 10 10 9 12 16 18 20 22 26 29 29 28 29 29 30 31 32 33 33 33 33 33 32 30 29 29 30 30 30 29 29 29 28 28 28 27 25 25 25 25 24 23 22 22 22 22 21 20 20 21 21 21 22 25 27 28 29 27 22
15 15 15 14 13 12 13 12 13 17 21 23 27 31 32 32 31 31 32 32 32 32 33 32 32 31 30 29 29 30 30 30 30 29 29 29 28 28 27 27 26 26 25 25 24 23 22 22 22 22 22 21 20 21 21 21 22 26 28 28 29 29 27
16 16 16 16 15 14 13 13 13 16 21 25 29 32 33 33 31 30 30 30 30 31 31 31 30 30 30 30 30 30 29 29 30 29 28 28 28 27 27 28 27 26 25 24 24 23 23 23 23 22 22 22 22 21 21 21 22 25 28 29 28 28 28
16 17 17 17 16 16 15 15 15 16 20 26 28 29 30 30 29 28 28 29 30 31 30 30 29 28 29 30 30 29 29 29 29 29 28 28 27 27 27 27 27 26 25 23 23 23 23 23 23 23 22 23 23 22 22 22 23 25 27 28 28 27 27
17 17 17 17 17 17 17 17 18 18 20 24 25 27 29 30 30 29 29 29 30 30 30 29 28 28 28 30 30 30 30 30 29 29 28 27 27 27 27 27 26 26 25 23 22 22 22 22 23 23 23 24 24 23 23 23 24 27 28 28 28 26 26
18 19 18 19 19 19 20 19 20 19 20 22 24 27 28 29 29 29 28 28 28 29 30 29 28 28 29 30 30 30 30 30 29 29 28 27 28 28 27 27 26 26 25 24 23 22 22 22 23 23 24 25 25 24 24 24 25 27 29 30 29 27 27
20 19 19 19 19 19 19 17 16 18 19 22 25 27 27 28 28 28 27 28 28 28 29 29 29 29 29 29 29 29 29 29 29 29 28 28 28 28 27 26 26 26 25 25 24 23 23 22 22 23 24 24 25 25 25 24 24 27 29 30 30 30 29
21 21 21 21 18 17 18 15 14 16 18 21 24 26 27 28 29 28 27 27 28 28 28 29 29 30 29 29 29 28 28 28 28 28 28 28 27 27 26 26 25 25 25 25 24 24 23 22 22 22 22 23 24 26 26 25 24 26 29 30 31 31 30
20 21 20 20 19 17 17 14 11 14 17 21 24 26 28 29 28 27 27 27 27 27 28 29 29 29 28 27 27 27 27 27 27 27 27 27 26 25 25 25 24 24 24 24 23 23 23 23 22 21 21 22 22 24 26 25 24 25 29 30 31 32 32
23 22 19 20 20 16 13 10 11 15 17 20 24 25 27 29 27 26 27 27 27 28 28 28 27 27 25 26 26 26 26 26 27 27 26 25 25 24 24 24 23 23 24 23 23 23 23 23 22 21 21 21 21 22 24 25 25 25 28 30 31 32 33
22 21 19 20 18 14 10 7 9 14 16 19 24 26 27 28 26 26 26 27 27 28 27 25 25 25 25 26 26 26 26 26 26 26 25 24 24 24 23 23 23 23 23 22 22 22 21 21 21 20 20 19 20 20 21 23 25 25 27 29 30 31 33
18 18 18 18 17 14 9 5 5 10 15 19 22 24 25 26 25 24 26 26 26 25 24 23 24 25 25 25 26 25 25 25 25 25 24 24 25 24 23 23 22 22 22 21 20 20 20 20 19 19 18 18 19 20 20 21 24 26 28 29 30 31 32
17 17 19 18 18 18 12 4 3 5 10 17 19 20 22 23 23 22 23 23 22 22 22 22 23 24 23 24 25 24 23 23 24 24 23 23 24 23 23 22 22 21 21 21 20 19 20 20 20 19 19 19 19 20 20 20 22 25 29 30 31 31 31
18 18 20 20 20 22 15 2 3 2 4 11 15 17 18 20 20 19 18 19 20 22 22 21 22 23 22 23 23 23 22 22 23 23 23 23 23 23 23 23 22 21 21 21 20 20 19 20 20 20 20 20 20 19 20 20 21 22 26 29 30 30 30
19 20 22 22 21 23 18 6 3 4 3 5 9 11 13 15 16 16 15 16 19 20 20 20 21 21 21 21 22 22 21 21 21 22 22 22 22 22 22 22 22 21 21 21 21 21 20 20 21 21 20 20 20 20 19 19 20 20 21 24 27 28 28
19 21 22 21 21 21 19 12 4 4 5 5 6 7 8 10 12 14 14 16 17 18 18 18 19 19 19 20 20 20 21 20 20 20 21 21 21 21 20 21 21 21 21 21 21 21 20 20 20 21 20 19 19 19 19 18 19 19 18 19 22 25 27
19 21 23 24 24 21 18 15 11 8 6 7 6 6 7 8 9 11 12 13 15 16 16 16 16 17 17 18 18 18 19 19 19 19 19 20 21 20 19 20 21 21 21 21 20 20 20 21 20 20 20 20 19 18 18 18 18 18 18 17 17 19 22
20 21 22 24 24 21 17 17 16 14 11 10 9 8 8 9 9 8 8 9 11 13 14 14 14 14 15 16 16 17 17 18 19 19 18 18 19 17 17 18 19 19 19 19 21 22 21 19 19 19 19 19 18 17 17 17 17 17 17 17 17 16 16
21 21 23 24 24 22 20 20 20 18 16 15 14 13 13 12 10 8 6 6 8 11 12 13 13 14 14 15 16 16 16 17 18 18 18 17 16 17 17 16 16 17 16 16 19 23 22 19 17 18 18 17 16 16 17 15 13 14 15 16 18 17 16
20 20 22 23 22 21 22 22 22 21 19 18 17 17 16 15 13 10 8 5 5 8 11 13 13 13 13 14 13 12 14 15 15 15 17 17 15 16 18 15 13 15 16 14 15 20 22 21 18 17 17 16 14 14 16 15 12 12 14 14 16 17 18
21 20 21 21 20 20 21 21 21 20 19 18 18 17 17 17 16 14 11 8 5 5 8 11 11 11 12 12 9 7 9 13 13 13 15 16 14 14 16 14 12 11 12 12 13 16 20 22 20 18 18 17 15 13 14 15 14 14 15 14 14 15 18

ECMWFFLT1_925_spd_051.txt.gz
Wind_Speed
20 20 21 19 19 20 19 20 22 26 29 31 32 33 34 33 33 33 33 35 36 35 35 34 33 33 33 32 31 29 29 27 26 26 25 24 24 23 22 20 20 20 19 18 18 18 18 17 17 16 16 16 16 15 15 14 13 12 11 10 9 9 9
20 19 19 20 20 20 20 21 24 27 28 30 32 33 33 33 33 33 33 34 36 35 36 35 33 33 33 32 30 30 29 28 27 26 25 25 24 24 23 22 21 21 21 20 18 18 19 19 19 18 17 17 17 16 16 15 14 13 12 11 11 10 10
18 19 19 20 20 19 20 21 24 27 29 30 31 32 34 34 35 35 34 34 36 35 35 35 34 33 32 31 30 30 30 29 28 27 27 26 25 25 24 23 22 21 21 21 19 18 19 20 20 20 19 18 17 17 17 16 16 15 14 13 12 12 11
18 19 19 20 21 20 19 19 23 27 29 31 33 34 35 36 36 35 34 35 36 36 36 36 35 33 32 32 30 29 30 30 29 28 28 26 25 25 24 24 23 22 21 21 20 19 19 20 20 20 20 19 17 17 17 17 16 16 15 14 14 13 13
18 18 18 18 20 18 17 18 22 26 29 31 33 35 35 36 36 35 34 34 35 37 36 35 34 32 32 32 31 29 30 30 29 28 27 27 25 25 25 25 24 23 22 21 21 20 19 20 21 21 21 20 18 18 17 17 17 16 16 16 15 14 14
16 17 15 16 18 18 17 16 20 26 29 31 33 34 35 35 35 35 35 34 34 35 34 34 34 33 33 33 31 29 29 30 29 28 27 27 26 25 25 25 24 23 23 22 21 21 21 21 22 22 21 21 20 19 18 18 18 17 17 17 16 15 14
17 16 15 16 17 19 19 17 20 25 27 30 32 32 33 34 35 35 35 34 35 35 35 35 35 34 33 33 32 31 31 31 30 29 28 27 27 26 25 25 25 24 23 23 22 22 22 22 22 22 22 22 21 20 20 19 19 18 18 17 17 16 15
20 17 17 17 17 19 20 18 19 22 24 27 29 30 32 33 34 35 35 35 35 35 35 36 35 35 33 33 33 32 33 32 31 30 29 28 28 27 26 25 25 24 23 23 23 22 23 23 22 22 22 22 22 21 21 20 20 19 18 18 18 17 16
20 19 18 18 18 19 19 18 19 22 25 27 28 30 32 32 33 34 35 35 35 35 36 36 35 35 33 33 33 33 32 32 31 30 30 30 29 28 27 26 25 25 24 24 23 23 23 24 23 22 22 22 22 22 22 21 21 20 20 19 19 18 18
17 18 19 19 18 16 18 18 18 19 21 24 26 28 31 32 32 34 34 34 35 36 37 36 35 34 33 33 33 33 33 32 31 31 31 31 30 30 29 28 26 26 25 25 24 24 24 24 23 23 23 23 22 23 23 22 21 21 20 20 20 19 19
15 15 16 19 19 17 18 19 17 15 16 21 25 28 30 31 31 32 33 34 35 35 36 35 34 34 34 33 34 34 33 33 32 32 32 32 31 31 30 29 28 27 26 26 26 25 24 24 24 24 24 23 23 23 23 23 23 22 21 21 20 20 19
11 14 15 16 17 18 18 17 18 17 17 21 27 28 29 30 31 31 33 34 34 34 35 35 34 34 34 33 33 34 34 34 33 33 33 33 32 31 31 30 29 28 27 26 26 26 25 24 24 24 24 24 23 23 24 23 23 23 22 21 21 20 20
4 9 14 15 14 15 15 13 17 18 18 23 28 29 29 31 32 31 32 34 33 33 34 35 34 34 34 33 33 34 35 35 35 34 34 33 33 31 31 30 30 29 28 27 26 27 26 26 25 24 24 24 24 23 24 23 23 23 22 22 21 21 20
2 5 11 10 7 8 8 9 15 17 18 23 27 28 28 30 31 30 31 32 33 33 34 34 35 35 34 33 33 33 35 35 35 34 33 33 33 31 30 30 30 29 28 27 27 27 27 27 26 25 24 25 24 24 23 23 23 23 23 22 22 21 21
2 3 6 7 4 5 7 7 11 15 17 20 24 26 27 27 29 29 29 30 31 32 33 34 34 35 34 33 33 34 34 34 33 33 33 32 32 32 31 30 30 29 28 27 27 27 27 27 26 25 25 25 25 24 24 24 24 24 24 23 23 22 22
9 9 6 5 4 2 5 8 10 13 15 16 20 24 25 26 28 28 28 29 30 31 32 33 34 34 34 34 34 33 33 33 32 32 33 33 33 33 31 29 29 29 29 28 27 26 27 27 27 26 26 25 25 25 24 24 24 25 26 26 24 23 22
11 11 10 10 10 9 5 4 8 11 12 14 18 22 24 24 27 29 29 30 31 31 31 33 34 34 34 34 33 32 32 32 32 32 33 34 33 33 32 30 29 29 29 28 27 26 26 26 27 27 26 26 26 26 25 25 25 26 29 29 28 25 22
9 9 9 10 10 11 10 6 5 9 12 16 19 22 24 24 26 28 29 29 31 31 31 32 33 33 33 33 32 32 32 33 32 32 32 33 32 33 32 31 29 29 29 28 27 27 26 26 27 27 26 25 26 26 26 25 25 27 30 32 32 29 25
8 8 9 10 10 11 11 9 7 6 8 14 19 22 24 26 26 27 29 30 31 31 31 32 32 32 32 31 32 32 33 33 32 32 32 32 32 31 32 31 29 29 29 29 27 27 26 26 26 26 26 25 25 26 26 25 25 28 30 32 34 34 30
10 10 10 10 10 11 11 11 10 12 13 13 17 23 25 26 27 27 28 29 30 30 30 31 31 31 31 31 31 32 33 33 33 32 32 32 31 30 31 31 30 29 29 28 27 27 26 26 25 25 26 25 24 24 24 24 25 28 30 32 33 34 34
11 12 12 11 11 12 13 13 12 13 15 16 17 21 24 25 26 27 26 27 28 29 30 30 30 30 31 31 31 32 32 33 33 32 31 31 30 30 30 31 30 29 28 28 28 27 26 26 25 25 26 26 25 24 23 24 25 27 29 32 32 32 34
12 14 13 13 13 13 15 17 17 16 15 17 18 19 23 27 27 27 27 28 29 30 30 29 29 29 31 31 31 32 32 32 32 31 31 31 31 30 30 30 30 29 28 27 26 26 25 25 25 25 25 26 26 25 24 23 24 25 27 29 31 30 32
13 14 15 16 17 17 20 21 20 19 18 17 19 20 23 27 28 27 28 28 28 29 30 30 29 30 32 32 32 32 33 32 32 31 31 31 31 31 30 29 29 28 27 26 26 26 25 25 25 25 25 25 26 26 25 24 25 26 26 27 29 29 31
15 15 16 19 20 21 23 24 22 21 21 19 19 21 23 26 28 28 27 27 28 29 30 31 31 31 32 33 33 32 33 33 32 32 31 32 32 31 30 29 28 28 27 26 26 26 25 24 24 25 25 26 26 26 26 25 27 28 28 28 29 29 30
16 18 20 22 23 23 25 27 27 25 23 21 20 21 23 25 28 28 27 28 29 30 30 31 33 33 33 34 33 32 32 32 32 32 31 32 31 31 30 29 28 27 27 26 26 25 25 24 24 24 25 25 26 27 27 26 27 29 30 31 31 31 31
17 18 21 23 25 26 27 29 28 24 21 20 19 21 23 25 28 28 27 28 29 30 31 33 34 33 32 32 31 31 31 31 31 32 31 31 31 30 29 28 27 26 26 26 25 25 25 25 24 24 24 24 25 27 28 27 27 28 31 32 32 33 33
20 20 22 24 27 28 27 27 27 24 19 18 17 19 22 24 26 26 27 27 28 30 32 33 32 31 30 30 30 31 30 30 31 31 30 29 29 28 28 27 26 26 26 25 24 24 24 25 25 24 24 24 24 25 26 27 27 27 29 32 33 34 34
22 22 24 27 30 29 27 26 29 27 20 16 15 17 21 23 24 23 25 26 28 30 30 30 30 30 30 30 30 30 30 29 29 29 28 27 28 27 27 27 26 25 25 24 23 24 24 24 24 23 23 23 23 23 24 25 27 27 27 30 31 33 34
20 21 23 26 28 30 28 26 28 28 21 16 14 17 22 23 22 22 23 26 27 27 27 27 29 29 29 29 30 29 29 29 28 28 26 26 27 27 26 26 25 25 25 24 23 23 23 22 22 21 21 21 21 22 22 22 25 27 28 28 29 31 33
19 20 23 25 27 31 30 26 28 26 21 17 15 18 21 21 21 20 22 24 24 23 24 25 27 28 27 28 28 27 27 27 27 27 26 25 27 26 25 25 25 23 24 23 22 21 21 21 21 20 20 20 20 21 21 20 22 25 28 29 29 30 31
19 21 24 25 27 30 28 28 31 25 18 16 14 18 18 19 22 20 19 22 22 22 24 25 25 26 26 26 27 26 26 26 26 26 25 24 26 25 24 25 24 23 23 23 22 21 21 21 21 20 19 19 19 19 20 20 20 23 26 29 29 29 30
19 22 24 24 26 30 29 31 31 21 12 13 12 17 18 17 21 21 19 21 23 22 23 24 24 24 24 24 25 25 25 25 24 24 24 23 24 24 23 24 24 23 23 22 22 21 21 21 21 20 19 19 19 19 19 19 20 21 23 26 29 29 30
18 21 24 24 26 29 28 28 27 17 9 9 9 12 16 16 18 19 19 21 22 22 22 22 23 23 22 23 23 23 24 23 23 23 23 23 23 22 22 23 23 22 22 22 22 21 21 21 21 21 20 20 19 19 19 19 20 20 21 24 29 31 30
18 21 24 25 26 28 26 25 26 19 8 4 5 3 8 13 17 19 21 22 23 23 22 22 22 22 22 22 22 22 22 22 22 22 22 22 22 21 21 22 23 23 23 23 22 22 22 22 21 21 21 20 19 19 19 19 21 21 20 22 26 30 31
20 22 24 25 26 27 26 26 26 19 6 2 2 2 0 5 12 18 21 22 23 23 22 22 22 22 22 22 22 22 21 21 22 22 21 21 21 19 19 20 21 22 22 22 23 23 22 22 22 21 21 20 20 20 20 20 21 22 22 22 23 26 29
21 22 24 25 27 28 26 28 27 17 6 2 1 2 2 2 7 14 18 20 22 22 22 22 22 21 22 21 20 21 21 21 21 21 21 21 20 18 17 17 17 18 19 21 25 25 24 22 21 21 21 20 19 21 21 20 20 21 21 21 21 21 23
19 22 24 25 27 27 27 30 30 19 10 8 4 4 6 5 6 10 14 17 20 21 22 22 21 20 20 19 18 20 20 20 20 20 21 20 19 18 18 16 15 15 15 17 22 24 24 24 22 21 22 21 19 20 19 18 18 19 18 19 19 20 21
19 21 23 23 24 26 27 28 27 19 12 11 9 8 8 8 7 4 7 11 14 18 20 20 20 19 17 16 17 19 20 19 19 20 20 20 18 19 19 16 14 12 11 13 17 20 22 22 20 19 20 19 18 19 18 17 17 17 16 17 18 20 22

ECMWFFLT1_925_spd_054.txt.gz
Wind_Speed
23 23 21 18 18 18 18 18 17 16 17 20 25 28 30 31 34 34 33 37 39 38 38 39 38 39 40 40 38 36 35 34 32 30 28 27 25 23 22 23 23 22 21 20 21 20 19 18 18 18 17 17 16 15 14 13 12 11 10 9 9 7 6
22 21 20 18 19 19 19 19 19 20 21 23 26 29 31 32 34 34 34 37 39 39 39 41 40 40 41 40 39 37 36 35 34 32 30 29 27 26 24 23 23 23 23 21 20 21 20 20 19 19 19 18 18 16 15 15 14 13 11 11 10 9 8
21 20 20 20 18 18 19 19 20 23 25 26 28 31 33 33 35 36 36 37 38 38 38 40 41 40 40 40 38 38 37 35 34 34 32 31 30 28 26 25 23 23 24 23 21 20 20 21 21 21 21 20 19 18 17 16 15 15 13 12 11 10 10
22 21 22 22 20 19 19 19 21 25 27 29 31 33 33 33 35 36 36 36 39 39 38 39 39 38 38 40 39 38 38 37 35 35 34 32 31 30 28 27 26 24 24 24 23 21 20 21 23 23 23 22 20 20 19 17 17 16 15 14 13 12 11
24 22 20 22 20 18 18 18 21 27 29 30 30 31 33 33 32 34 36 36 38 40 39 37 37 36 37 39 38 37 39 39 37 35 34 32 31 31 30 28 28 26 24 24 25 23 21 22 24 24 24 24 22 21 21 20 18 17 17 16 15 13 12
22 19 18 21 21 19 20 20 24 30 32 32 30 29 31 29 27 31 35 36 37 38 37 36 36 36 36 37 36 35 38 39 38 36 35 33 32 31 31 30 29 29 27 25 25 25 24 23 24 25 25 25 23 22 21 21 20 19 18 18 17 15 14
16 17 17 20 20 19 21 20 25 32 32 32 31 28 28 28 26 29 33 35 38 38 38 37 36 36 35 35 35 36 37 38 39 38 35 34 33 32 32 32 31 30 28 27 26 26 26 25 24 25 25 25 24 23 23 23 22 20 19 19 19 18 16
12 15 18 21 21 20 21 19 22 29 30 30 29 27 30 33 32 30 31 34 37 38 38 38 37 37 36 36 36 36 37 37 37 38 36 34 34 33 32 32 32 31 29 28 27 26 27 27 26 26 26 25 25 25 24 24 24 22 21 21 20 19 18
12 11 16 22 23 21 19 18 21 25 27 28 26 26 31 36 36 33 34 35 36 37 39 39 38 37 37 37 37 36 36 36 35 37 36 34 33 33 32 31 32 32 30 28 27 27 27 28 27 27 27 27 26 26 26 25 26 24 22 22 22 22 20
13 10 11 17 21 20 18 18 20 20 20 23 24 25 29 33 34 35 35 35 35 37 39 39 38 37 36 37 37 36 36 35 34 35 35 34 33 33 33 31 30 31 31 29 27 27 28 28 28 28 29 28 27 27 27 26 27 26 25 24 24 24 22
13 13 13 14 16 21 22 20 18 16 16 21 25 27 30 33 33 34 34 34 35 37 38 38 36 36 37 37 36 36 36 36 35 35 35 35 33 33 33 32 30 30 31 30 28 28 28 29 29 29 29 30 28 28 28 28 27 28 27 25 25 25 24
7 11 15 15 13 20 23 20 18 17 17 22 27 29 32 35 35 34 35 36 36 36 37 37 36 36 36 35 35 36 36 36 36 36 36 36 34 33 33 32 31 30 31 31 30 29 28 30 31 30 30 30 29 28 29 29 28 29 28 27 25 25 24
6 5 13 15 13 17 19 18 19 18 18 23 29 30 31 34 35 34 35 36 37 37 37 36 36 36 36 35 35 36 37 37 37 37 36 36 35 34 33 33 32 31 31 31 31 30 29 29 30 31 31 31 30 29 28 30 30 29 30 28 26 25 25
13 3 11 13 9 11 17 18 20 18 18 23 29 31 31 33 34 33 35 37 37 37 36 36 36 36 36 36 36 37 38 37 38 38 37 36 36 35 34 34 33 32 31 31 31 30 29 29 30 31 30 30 31 30 28 29 30 30 31 30 28 26 26
19 13 6 9 8 6 7 12 17 18 19 23 27 30 31 32 33 34 34 35 35 36 35 35 35 35 35 36 36 38 39 38 37 37 37 37 37 36 35 34 34 33 32 32 32 30 30 30 30 31 30 29 30 30 29 29 30 31 31 32 30 28 26
18 18 16 17 17 15 12 5 6 13 16 21 25 29 29 28 30 31 32 33 33 34 34 34 35 35 35 36 37 38 38 38 37 37 37 37 38 38 37 35 35 34 32 33 33 31 31 31 30 30 30 30 30 30 29 28 29 31 32 32 32 30 27
16 17 17 18 17 15 16 15 11 5 2 7 12 19 24 25 28 30 31 31 33 33 33 34 35 35 35 35 35 36 37 37 37 37 38 38 38 39 38 35 35 35 33 32 34 33 32 31 31 30 30 30 29 29 29 28 28 31 33 33 33 32 30
16 16 16 17 17 16 16 15 14 12 9 10 10 6 7 12 19 27 29 29 32 33 32 33 34 35 34 34 33 34 37 37 37 37 38 38 39 39 39 36 34 34 34 33 33 34 33 32 32 30 30 30 29 29 29 29 29 30 33 34 34 33 31
15 15 16 16 15 16 16 14 12 11 9 7 7 8 12 17 20 23 26 28 29 31 31 31 33 34 33 33 33 34 36 37 37 37 38 39 39 38 39 37 34 34 34 33 32 34 34 33 32 31 30 30 30 30 29 28 29 31 32 34 35 35 33
13 14 14 14 14 15 14 13 12 13 15 11 7 9 15 21 24 20 21 23 24 27 30 29 30 32 32 33 34 34 35 37 36 37 38 38 38 37 38 38 36 34 33 32 31 32 33 33 32 31 31 30 30 31 30 28 29 31 32 34 35 36 36
13 13 13 12 13 13 13 13 15 16 18 17 15 16 17 18 20 17 16 19 21 23 27 27 27 31 32 31 32 33 34 36 36 35 36 37 37 37 37 38 37 35 33 32 31 31 31 32 31 31 32 31 29 29 29 29 29 30 32 33 35 36 37
12 13 12 12 12 12 12 13 16 18 20 21 20 18 17 16 18 18 17 20 22 22 25 25 24 29 32 30 31 33 34 35 35 34 35 36 36 36 36 37 37 36 34 31 31 30 30 30 30 30 31 31 30 28 27 27 28 30 32 33 35 36 36
13 13 13 13 14 14 15 15 17 19 20 22 22 20 19 18 19 22 21 23 24 24 25 26 24 27 32 32 31 32 34 34 34 34 33 34 35 35 36 36 36 36 34 32 30 29 29 29 28 28 28 29 30 30 27 26 27 29 31 33 35 36 37
14 14 15 17 17 17 19 18 19 20 20 21 22 22 23 22 20 23 24 25 27 27 27 28 27 29 33 34 33 33 34 34 34 33 33 34 35 34 34 35 35 35 34 32 30 29 28 28 28 27 28 28 30 31 29 27 27 28 29 32 35 36 37
15 16 17 18 18 19 21 21 21 21 20 21 22 23 25 24 23 26 27 27 28 28 28 29 31 32 35 36 36 34 34 34 34 33 33 33 34 33 32 32 33 33 34 32 31 29 28 28 28 27 28 28 29 30 31 29 29 29 28 29 32 35 36
15 17 18 19 20 22 22 22 21 21 21 21 23 25 27 27 25 27 28 30 30 30 31 34 35 33 34 35 34 33 33 33 34 34 34 34 33 32 31 30 30 31 32 31 30 29 28 28 28 27 27 27 28 29 31 30 29 30 30 30 31 33 35
19 19 20 20 21 23 23 22 22 23 24 25 26 27 29 30 27 24 25 29 31 31 33 36 35 32 32 33 33 33 33 34 34 34 33 33 33 31 30 29 29 30 32 31 30 30 29 27 27 26 26 26 27 28 29 30 30 31 32 32 33 33 35
20 20 22 23 23 24 25 24 25 26 27 28 28 27 29 31 28 23 22 25 30 33 33 32 32 31 31 33 33 32 32 33 33 33 32 31 32 32 31 30 30 30 32 31 30 30 30 29 27 26 25 26 26 26 28 29 31 32 32 33 35 36 37
18 19 22 24 25 27 27 25 25 28 29 31 31 29 29 31 29 24 20 24 32 35 30 28 30 31 30 32 33 31 31 32 32 33 32 31 32 32 31 32 31 30 31 32 30 29 29 29 28 26 25 25 25 26 26 28 30 33 34 33 34 36 39
17 19 22 24 25 27 28 26 26 29 32 32 31 32 32 31 28 22 19 24 33 33 27 27 31 31 30 32 33 31 31 32 32 32 32 32 33 32 31 32 31 30 30 31 29 27 28 28 28 26 24 23 23 24 25 27 29 33 35 34 33 35 38
16 19 22 24 26 28 28 27 27 29 32 33 33 34 34 31 26 20 19 25 30 30 27 28 32 32 30 32 32 31 31 31 31 32 32 32 33 32 32 32 31 29 29 29 28 26 26 26 27 26 24 23 22 23 24 26 27 29 32 33 33 34 36
16 20 23 24 27 29 30 29 28 29 31 33 35 35 32 30 27 22 22 25 29 30 28 28 32 32 31 32 31 31 31 31 31 31 32 33 33 32 31 31 30 28 27 28 27 26 25 25 26 25 25 24 23 23 23 24 25 26 29 32 33 34 36
15 18 21 23 26 28 29 29 27 28 30 32 35 36 32 30 27 20 23 25 28 31 29 29 32 31 30 32 32 30 31 31 31 32 32 31 31 31 30 30 29 27 27 27 27 25 25 25 24 24 25 24 24 23 23 24 25 25 27 31 34 36 36
15 17 19 22 25 27 28 28 27 29 30 30 34 36 31 28 25 15 23 26 27 30 27 27 32 32 30 31 31 29 30 31 31 31 30 29 30 30 30 30 29 28 28 29 29 27 25 25 25 25 25 25 25 24 23 23 25 25 27 31 34 36 37
15 18 19 22 26 27 27 27 28 30 31 31 35 35 27 22 23 13 16 23 26 28 26 26 30 30 29 31 30 29 30 31 31 30 29 29 30 30 29 30 31 30 28 29 30 29 27 26 26 26 26 25 25 25 24 24 26 27 27 29 31 33 36
15 17 18 22 27 29 29 28 28 28 30 32 34 30 21 16 19 15 7 10 15 18 19 22 28 29 28 28 30 30 30 29 30 31 31 30 29 29 26 25 27 28 28 28 29 30 29 28 27 26 26 24 24 26 26 25 26 26 25 25 27 29 31
15 17 18 20 25 28 31 32 29 27 32 37 32 23 17 14 14 16 13 8 8 9 8 8 15 22 26 26 27 28 31 30 29 31 31 28 28 30 28 22 21 23 25 27 30 29 28 28 27 27 27 25 24 26 27 25 23 23 24 25 25 24 25
16 17 17 18 21 25 28 30 29 30 36 38 29 18 15 14 12 13 13 12 9 9 9 8 12 14 18 25 27 27 29 29 28 30 29 26 27 31 30 25 21 18 17 21 27 28 26 26 26 26 28 28 25 24 25 25 23 21 22 23 23 22 22

ECMWFFLT1_925_spd_057.txt.gz
Wind_Speed
18 17 17 15 16 17 16 16 20 25 27 30 32 34 36 37 37 37 37 40 42 40 40 39 40 42 42 40 39 40 40 37 35 34 32 34 34 31 29 28 28 27 26 27 26 24 22 21 21 21 20 19 18 18 16 15 14 13 13 12 11 11 11
18 17 18 17 16 17 18 18 21 25 27 29 32 33 35 36 38 37 38 41 43 42 42 41 41 42 44 43 40 40 41 39 37 36 34 34 35 34 32 30 29 29 29 28 27 25 23 21 22 22 22 21 20 19 19 18 17 17 15 15 15 14 13
19 18 18 18 17 18 18 19 21 26 28 29 32 34 35 37 39 40 39 41 43 43 43 42 42 42 43 43 41 41 42 40 39 38 37 35 34 33 33 33 32 31 30 29 28 26 24 23 23 23 23 23 22 20 20 20 19 18 18 16 16 15 15
21 21 20 20 19 18 18 18 21 26 29 31 35 37 38 38 39 40 40 42 43 42 43 43 42 41 41 42 42 42 42 42 41 40 40 38 36 33 33 33 34 33 31 29 28 27 25 25 25 25 24 24 24 22 21 21 21 19 18 17 16 15 15
22 21 19 18 17 16 16 17 22 27 30 32 35 38 40 39 38 39 39 41 44 44 44 44 42 41 40 41 42 42 43 44 43 42 41 39 38 35 33 33 33 33 33 31 29 27 27 27 27 27 27 26 25 24 22 22 22 21 20 19 18 17 15
19 19 17 16 16 17 17 18 24 30 32 33 35 36 38 38 37 38 38 39 42 43 42 42 42 41 41 41 41 40 41 43 43 42 41 40 39 38 36 35 34 33 33 32 31 29 28 28 28 29 29 28 27 26 24 23 23 23 21 20 20 19 18
18 17 17 17 17 17 18 19 24 31 34 34 35 35 37 37 37 37 37 37 40 41 41 41 42 42 41 41 41 40 41 42 43 42 42 40 40 40 40 38 36 35 33 32 32 32 30 28 29 30 30 30 29 28 27 25 25 25 23 22 22 22 20
20 19 17 18 18 18 19 17 21 28 31 32 32 32 34 36 36 36 36 36 38 39 41 42 42 42 42 42 41 41 41 42 43 42 42 41 40 41 41 40 39 37 35 34 33 33 33 32 30 30 31 32 31 31 29 28 27 26 26 24 24 24 23
23 21 19 19 18 18 17 17 21 26 28 30 31 32 34 35 36 36 36 36 37 38 41 42 42 43 42 41 42 42 42 41 42 43 42 42 41 41 42 42 41 40 37 36 35 33 34 34 33 31 32 33 33 32 31 30 28 28 28 27 26 25 25
22 20 20 20 18 17 16 16 19 21 23 27 29 30 33 34 35 36 35 35 37 39 41 41 41 41 41 42 42 42 41 41 42 43 43 42 42 42 42 41 41 40 39 38 36 35 34 34 35 34 32 34 34 33 32 31 30 30 30 30 29 27 26
17 21 19 19 17 16 16 16 16 16 18 24 26 29 32 33 34 36 35 35 36 39 40 40 39 39 40 41 41 40 41 42 42 42 44 44 43 42 42 41 40 40 40 38 37 36 36 35 35 36 34 35 35 35 33 33 32 32 32 31 30 29 28
8 16 17 20 21 17 15 15 15 15 18 23 26 28 31 32 34 36 36 35 35 36 38 39 38 38 38 39 40 40 41 42 42 43 45 45 44 42 42 41 39 39 39 39 38 36 36 37 37 37 37 36 36 36 35 34 33 33 33 33 31 30 29
12 7 5 7 13 17 18 17 17 17 19 24 28 30 31 33 34 36 36 37 36 35 36 37 38 37 37 37 38 40 41 42 43 43 44 45 44 43 42 41 40 39 40 40 39 37 36 37 38 39 39 38 37 37 36 35 35 35 35 34 32 31 30
19 18 17 14 8 2 12 16 18 19 19 23 27 28 30 33 35 37 37 38 37 35 35 36 36 37 37 36 37 38 40 42 43 43 43 44 44 43 42 42 41 40 40 40 40 39 38 37 38 39 39 39 38 37 36 36 36 36 36 35 34 32 30
20 20 19 18 18 15 8 2 5 10 14 20 25 27 28 30 32 34 35 36 36 35 35 35 35 36 35 35 37 40 41 41 41 42 42 42 43 43 42 42 42 41 40 40 40 40 39 38 38 38 39 38 38 37 36 36 36 37 37 36 35 34 31
19 19 18 17 17 17 15 13 10 6 2 4 10 15 20 24 28 31 32 34 34 34 35 35 35 36 36 36 37 39 39 40 39 40 41 41 43 44 43 42 42 42 40 40 41 40 40 38 37 38 39 38 38 37 35 35 36 37 38 37 36 35 33
18 17 16 17 16 15 14 15 14 13 11 9 7 2 3 9 18 26 29 31 33 33 35 36 35 34 35 36 37 37 37 38 39 39 40 42 43 44 44 42 41 42 41 41 41 40 40 39 37 37 39 38 37 37 36 35 35 36 38 38 37 36 34
17 16 16 16 15 15 15 15 14 13 12 11 10 8 5 2 7 18 23 23 23 20 21 26 31 34 36 35 34 36 37 37 38 39 40 41 43 43 44 43 41 42 41 40 41 40 40 39 38 37 38 38 37 37 37 36 36 36 37 38 38 37 35
16 16 16 15 15 15 15 12 12 14 16 16 15 11 7 3 3 11 17 17 15 11 6 11 19 24 31 35 34 35 38 38 38 39 40 41 42 42 43 42 41 42 42 41 41 41 40 40 39 37 37 38 37 37 37 37 37 37 37 38 38 39 38
15 15 15 14 15 15 13 12 14 19 22 22 20 18 12 5 3 8 10 10 14 18 16 14 20 24 25 31 37 37 38 38 38 39 40 40 41 40 41 42 42 42 42 40 40 40 41 41 40 38 36 37 38 37 36 37 38 38 37 37 38 39 39
14 15 15 14 14 13 12 14 16 19 23 26 26 24 21 14 8 4 5 8 12 18 24 26 28 30 30 31 36 38 39 40 40 39 39 39 39 39 41 42 42 41 40 39 39 40 41 41 40 39 37 36 37 38 36 36 38 38 38 37 37 38 40
14 15 14 14 15 14 15 18 19 19 20 22 24 24 24 23 20 15 11 17 21 23 27 30 33 37 36 34 35 39 41 42 41 40 39 38 38 39 40 41 42 40 39 38 37 38 39 40 40 40 38 36 36 37 37 36 37 38 38 38 37 38 39
14 14 15 17 19 19 21 23 23 24 23 21 21 20 20 22 24 22 17 17 25 29 30 30 32 36 37 35 37 41 42 43 43 41 39 39 38 39 40 40 41 40 38 37 36 36 37 38 38 39 39 37 35 36 37 37 37 38 38 38 38 38 39
15 16 17 20 21 22 24 26 25 26 26 24 22 21 20 23 26 26 23 18 18 25 30 30 32 36 37 36 38 42 43 43 43 42 40 40 40 40 39 39 39 39 39 37 36 35 36 37 36 37 39 39 38 36 35 36 37 38 38 38 38 38 40
16 19 20 21 21 22 24 26 25 26 26 25 24 25 24 25 27 26 24 22 19 17 24 30 34 38 39 38 39 42 43 43 43 42 42 41 41 40 39 38 38 38 39 37 36 34 33 34 35 35 36 38 39 38 36 34 35 37 38 38 38 38 40
13 18 21 21 23 24 24 25 25 24 24 25 27 28 26 24 24 24 25 25 22 20 21 27 35 39 38 36 37 39 41 42 43 43 43 42 41 40 38 37 36 36 38 37 35 33 32 33 34 34 34 36 36 38 38 37 34 34 36 37 38 39 41
13 18 21 22 24 26 25 24 24 23 23 26 29 29 26 24 22 23 25 25 24 24 24 25 30 34 33 31 33 37 39 40 42 43 43 42 40 38 37 37 36 36 37 36 35 33 32 32 33 33 33 35 35 35 37 38 37 36 35 35 36 39 41
15 17 19 22 24 26 25 24 24 24 24 26 29 28 26 25 24 25 25 24 26 29 29 27 27 30 31 29 31 35 37 39 41 41 40 39 38 37 37 37 36 36 36 36 35 34 33 32 32 32 32 33 34 35 35 37 38 39 38 37 36 36 39
12 13 17 21 23 25 25 23 23 24 24 25 27 28 26 25 25 27 25 25 29 32 30 29 29 31 34 33 32 35 36 37 38 38 38 37 38 38 37 36 36 35 35 36 35 34 33 32 31 31 31 31 32 34 34 35 37 39 40 40 38 37 38
11 12 15 19 22 25 25 23 23 24 24 24 27 29 28 25 26 27 28 31 34 32 29 30 33 33 37 37 35 36 37 37 38 38 37 37 37 37 36 35 35 35 35 36 35 33 32 32 31 30 30 30 30 32 34 35 36 38 41 42 41 40 40
11 11 14 19 22 24 24 23 24 24 23 25 29 30 29 27 26 27 31 35 37 33 30 32 33 34 38 38 37 37 37 36 37 37 37 37 37 36 36 35 34 33 33 35 34 33 31 31 31 29 29 29 30 31 33 35 36 38 41 42 42 43 42
12 12 15 18 21 23 24 24 24 24 24 26 30 33 35 32 28 28 33 38 38 34 33 35 34 34 38 38 37 38 37 35 36 36 36 36 36 36 35 35 33 32 32 32 33 33 32 31 31 30 28 29 30 31 33 35 36 38 40 42 42 43 42
12 14 15 18 21 23 25 24 22 23 25 27 30 37 41 40 38 36 36 37 35 32 34 37 33 32 36 36 36 37 37 35 35 34 34 34 34 33 33 34 34 32 31 32 32 32 31 30 30 30 29 28 29 30 32 34 35 36 39 42 43 43 43
12 15 16 19 21 21 22 23 21 23 25 27 32 41 45 44 44 43 38 33 30 30 34 33 30 32 34 34 35 35 35 36 35 33 32 32 32 31 31 33 35 34 35 36 35 34 33 32 32 32 33 32 31 30 30 31 33 36 39 42 44 44 45
13 15 16 19 20 20 21 23 22 23 25 28 36 45 46 44 42 38 32 29 28 29 31 26 24 32 32 32 33 32 32 32 31 31 31 30 31 33 34 35 36 36 36 38 39 38 38 36 36 38 39 38 36 33 29 29 33 39 42 44 43 43 45
13 13 15 18 19 19 22 24 24 24 27 31 38 44 42 39 37 34 30 28 27 27 26 21 16 25 27 27 28 29 29 29 29 31 32 31 31 32 32 34 36 36 35 35 38 41 41 39 38 39 39 37 37 37 36 34 34 36 38 40 40 41 41
13 11 13 16 17 18 22 26 26 25 27 31 36 38 36 33 33 32 29 27 25 23 23 18 11 14 20 22 24 26 27 27 26 26 29 31 32 32 30 29 31 33 33 33 34 38 40 39 38 37 36 35 35 37 38 37 33 30 30 33 35 37 38
15 12 12 14 14 16 21 24 24 25 27 30 33 35 35 33 32 32 30 27 24 22 20 17 13 11 16 20 23 25 27 25 21 16 15 18 21 25 28 28 25 24 26 28 31 34 37 39 37 35 35 36 35 35 36 36 33 30 29 29 29 31 33

ECMWFFLT1_925_spd_060.txt.gz
Wind_Speed
15 15 15 14 15 15 15 16 20 25 29 31 33 37 39 38 38 38 39 41 42 41 41 41 41 41 42 42 42 41 40 39 37 37 39 38 37 36 34 34 33 31 30 30 28 27 27 27 26 25 23 22 21 18 17 18 18 16 16 14 12 14 16
14 15 15 15 16 17 17 19 23 25 29 32 33 36 38 38 39 39 40 41 43 42 42 42 41 42 42 42 42 41 41 40 38 37 38 39 38 37 35 35 34 33 32 31 29 28 27 27 27 27 25 23 22 21 18 18 17 17 18 18 14 13 16
16 15 16 17 17 18 19 20 24 26 30 32 33 36 38 40 41 42 41 42 42 42 42 43 43 43 42 42 41 42 42 40 39 38 39 40 40 38 36 35 35 34 33 32 30 29 28 27 27 27 26 24 23 22 21 20 19 19 19 20 19 16 16
18 18 18 19 19 18 17 19 23 27 30 33 36 38 40 41 42 42 42 43 43 41 42 43 43 43 42 41 41 42 43 42 40 39 40 41 41 40 37 36 35 34 33 32 31 29 29 27 26 25 25 24 23 23 22 22 21 21 21 21 21 20 19
19 18 16 16 15 15 15 17 23 28 29 33 37 38 40 41 40 40 41 42 43 43 44 43 42 42 41 42 41 41 43 44 43 41 40 41 41 40 38 37 36 35 34 33 31 30 29 28 26 25 24 24 24 24 24 23 23 23 23 23 23 23 22
17 16 15 14 14 15 16 18 25 30 31 33 37 37 38 39 39 39 40 40 42 43 43 42 42 41 41 42 41 41 42 44 43 42 41 40 40 41 41 40 38 36 35 34 33 31 30 29 28 27 26 25 26 26 25 25 25 25 25 25 25 24 24
16 16 16 15 15 16 17 18 24 30 32 33 35 36 36 38 38 38 38 39 41 41 41 41 42 41 41 41 41 41 41 42 43 43 42 41 40 41 42 42 40 39 37 36 35 34 33 32 31 29 28 27 28 28 28 27 27 27 26 26 26 25 25
17 16 17 17 16 17 16 16 21 27 30 31 32 33 34 36 37 37 37 38 40 40 41 42 42 42 41 40 40 41 41 41 42 43 43 41 41 41 42 42 42 41 39 38 37 37 36 35 34 32 30 29 30 30 30 30 29 28 28 27 27 27 26
16 16 17 17 17 17 16 16 21 26 27 29 30 32 34 35 36 37 38 38 38 39 41 42 42 43 42 41 41 41 40 40 40 42 43 42 42 42 42 42 42 42 40 40 40 39 38 37 36 34 32 31 32 32 32 32 32 31 30 29 29 29 28
10 14 16 17 17 16 14 15 19 20 21 24 27 30 33 34 35 36 36 37 38 39 41 41 42 41 41 41 42 41 40 39 39 40 41 42 42 43 43 42 42 41 41 41 40 40 39 39 37 36 34 34 34 34 34 34 34 33 32 31 30 30 30
4 4 7 11 14 15 14 14 15 15 19 23 25 28 31 32 34 35 36 36 37 39 40 40 40 40 41 41 40 40 41 40 40 40 41 42 42 43 43 43 42 41 41 41 40 39 39 39 38 37 36 36 36 36 36 36 36 35 35 34 33 32 32
13 10 7 4 1 5 8 12 13 15 19 23 25 27 30 32 33 34 35 36 36 37 38 40 40 39 40 40 39 39 41 42 41 41 42 42 43 43 43 43 42 41 41 41 40 39 39 39 39 39 39 38 38 37 37 37 37 37 36 35 34 34 33
16 14 13 14 13 10 6 1 5 10 17 24 27 29 30 32 34 34 35 36 36 37 37 38 39 39 39 39 39 39 40 42 43 43 42 42 42 42 42 42 42 41 42 41 41 40 39 39 39 40 40 40 39 39 39 38 38 38 37 37 35 34 34
19 18 17 17 16 16 15 13 9 5 4 12 20 26 29 30 32 35 36 36 36 36 37 38 38 39 39 38 39 40 41 42 43 43 42 42 41 41 41 42 42 42 42 41 41 41 41 40 40 40 40 41 41 40 39 39 39 39 38 37 36 35 34
20 20 19 19 18 16 16 16 14 13 12 11 6 7 16 23 26 29 31 34 34 34 35 37 38 38 38 38 39 40 41 41 41 41 41 40 40 41 42 42 42 42 41 41 41 42 42 41 41 40 40 40 41 41 40 39 39 39 39 38 37 36 35
18 18 18 18 17 15 15 15 14 15 17 20 21 17 9 7 15 21 24 26 29 31 32 35 37 37 37 38 39 40 39 39 39 39 39 40 41 41 42 42 41 41 41 41 41 41 41 41 40 40 40 40 40 40 39 39 39 40 40 40 39 37 36
15 16 17 17 17 16 16 16 15 15 17 19 20 21 20 17 11 11 21 23 23 24 26 29 32 34 36 37 37 37 37 38 39 39 39 40 41 41 42 42 41 41 41 41 41 41 40 40 40 40 40 40 40 40 39 39 39 40 41 42 41 39 37
13 14 16 16 16 16 17 17 15 15 17 20 21 20 21 23 21 12 10 21 24 23 24 27 30 32 35 36 36 37 38 38 39 39 40 40 41 41 41 41 41 40 40 40 40 40 40 40 40 41 40 39 39 40 40 40 40 40 41 42 42 41 38
12 13 14 14 14 15 15 15 15 17 19 20 20 21 21 20 19 19 13 8 20 27 29 30 33 34 36 36 36 36 38 38 39 39 40 41 41 41 40 39 40 40 40 40 40 39 39 40 41 41 40 40 39 39 40 40 41 41 42 42 43 42 40
11 11 12 13 13 14 14 15 18 21 22 23 22 22 21 19 18 18 16 10 11 23 31 33 32 33 33 33 32 33 34 35 37 39 39 40 40 39 39 39 40 41 40 39 39 39 39 40 40 41 41 41 40 40 40 40 41 42 43 43 43 42 41
10 11 12 13 12 12 13 17 21 23 25 26 25 23 21 21 23 23 17 13 10 13 23 32 34 34 33 33 33 34 34 34 36 37 38 38 38 38 39 40 40 40 40 39 38 39 40 40 39 40 41 42 41 40 39 40 41 42 43 44 43 42 41
9 9 10 12 13 13 14 17 19 21 23 24 23 22 24 25 25 25 22 16 13 13 15 22 29 32 34 35 35 36 36 35 36 37 37 37 37 38 39 40 40 40 39 38 37 37 38 38 39 39 40 41 40 39 39 40 41 42 43 44 43 42 41
7 9 10 13 15 16 17 18 19 20 22 23 22 22 27 30 28 25 24 20 14 14 16 18 23 28 30 32 34 36 36 35 34 36 37 37 37 39 40 40 40 39 38 37 36 36 36 37 38 38 39 40 40 40 40 40 41 42 43 44 44 42 41
7 10 11 13 16 18 18 20 20 20 22 23 23 23 25 28 29 27 23 20 17 15 16 17 21 26 28 30 33 34 35 35 34 34 36 37 39 40 39 39 38 38 38 37 37 36 36 36 36 37 38 39 40 41 41 40 41 42 43 44 44 43 42
9 12 13 14 16 17 18 20 19 20 22 23 25 27 25 23 26 26 21 19 19 18 18 18 18 19 23 28 32 34 34 34 34 34 36 38 40 39 38 38 38 37 37 37 37 37 36 35 35 36 37 38 39 40 41 40 40 41 42 43 43 43 43
10 12 14 15 17 18 17 17 17 19 21 22 25 28 25 22 22 22 20 20 20 18 18 19 19 18 20 22 26 30 34 35 35 36 38 39 39 38 37 37 36 35 36 37 36 35 35 34 34 35 36 37 37 39 40 41 40 40 42 43 43 43 44
15 14 13 14 17 20 19 17 16 17 19 21 24 25 25 23 21 20 21 21 19 18 19 21 22 22 22 22 22 25 31 35 36 37 39 40 39 37 36 36 35 36 36 36 35 34 34 34 34 34 34 36 36 38 40 41 41 41 42 43 43 43 44
18 17 14 12 14 18 20 19 17 17 19 21 22 22 24 24 21 21 21 21 21 24 24 24 24 25 25 26 24 23 24 30 36 38 38 39 38 36 36 36 36 36 36 35 34 34 35 34 33 33 33 34 36 38 39 41 42 42 42 43 43 44 45
18 18 17 14 14 17 19 19 18 17 19 21 21 21 22 22 22 23 23 23 26 30 29 27 26 26 26 27 26 24 24 26 32 37 37 37 37 37 37 36 36 36 35 34 33 33 34 34 33 32 32 33 35 38 39 40 41 42 43 43 43 43 45
18 20 19 17 17 18 18 19 20 20 19 21 22 21 21 20 21 23 25 28 31 32 31 29 27 26 25 25 24 24 25 25 29 35 37 37 38 38 37 36 36 35 34 34 33 32 32 33 33 32 31 31 33 35 37 38 39 41 44 45 43 43 44
20 21 21 20 20 20 19 19 21 21 21 22 22 22 21 21 21 22 26 31 34 33 32 31 28 26 25 24 24 24 24 25 27 31 36 37 37 37 37 36 35 33 33 33 32 32 31 32 32 32 31 30 30 32 34 36 36 38 42 45 45 45 44
20 22 22 22 22 22 20 19 20 21 21 23 24 23 22 22 22 24 27 31 32 32 32 31 28 25 24 24 26 27 26 25 27 30 34 36 37 37 37 36 35 33 32 32 32 33 32 31 31 31 30 30 31 31 32 33 34 36 39 42 44 45 46
19 22 23 24 24 23 21 19 19 20 21 23 25 24 23 24 25 26 28 29 29 30 31 29 26 24 25 26 28 28 26 25 27 29 31 33 35 35 35 35 35 34 33 33 33 33 32 30 30 30 30 30 31 30 30 31 33 35 36 38 41 44 45
19 22 25 27 27 24 20 17 18 20 21 24 26 25 23 24 26 29 30 28 26 26 27 27 25 24 25 27 26 26 26 25 27 30 30 31 33 33 32 33 34 34 35 37 37 33 31 30 30 31 32 31 30 29 29 29 32 34 36 38 41 44 45
22 24 25 27 28 26 21 17 18 19 21 25 27 26 24 24 27 30 30 28 26 25 26 27 26 24 25 25 24 24 25 25 27 29 31 31 31 33 34 35 37 37 38 39 40 38 37 35 35 35 35 33 32 31 29 29 34 39 43 44 45 45 46
22 25 26 27 28 28 24 18 17 19 21 24 27 26 24 24 28 31 30 28 27 26 26 28 28 25 25 23 22 22 23 24 27 28 29 30 31 32 32 31 33 36 35 35 37 40 41 40 39 39 36 34 35 36 35 35 37 39 40 42 44 45 45
22 24 26 27 27 26 24 19 17 19 21 24 27 26 24 25 29 32 32 30 29 29 28 29 28 25 23 22 21 21 20 19 24 27 29 32 32 31 29 28 30 34 36 35 35 37 39 40 40 39 37 35 36 36 37 37 37 34 34 36 39 41 42
25 25 26 27 25 23 22 19 18 20 21 24 26 26 25 26 30 33 32 32 32 31 30 28 27 25 22 20 19 18 15 10 14 17 21 25 28 30 31 29 27 26 30 33 34 35 38 39 38 37 36 37 37 36 36 37 37 36 35 34 36 38 41

ECMWFFLT1_925_spd_063.txt.gz
Wind_Speed
13 13 14 13 14 15 15 16 22 25 27 30 32 34 35 35 36 37 36 38 39 39 40 40 40 40 41 40 40 38 38 37 37 35 35 35 33 31 31 30 30 29 27 26 26 26 26 25 25 23 22 21 20 19 18 17 18 18 16 15 14 14 14
14 13 13 14 14 16 17 18 23 26 27 30 32 34 35 36 37 37 37 38 40 40 41 41 40 41 42 42 40 39 39 39 38 36 35 35 34 32 32 31 30 30 28 27 26 25 25 25 26 25 23 23 22 20 19 17 18 19 19 17 16 14 13
13 15 15 15 16 16 17 18 22 26 28 30 31 34 36 37 39 39 38 38 39 39 40 41 41 41 42 41 40 40 40 40 39 38 36 36 36 35 33 32 32 31 29 28 27 26 25 25 25 26 25 24 23 21 20 18 18 20 20 19 17 16 14
13 15 16 16 16 16 15 16 21 25 28 31 33 35 37 38 39 40 40 39 39 39 39 40 41 41 41 40 40 40 41 41 41 40 39 37 37 37 35 34 34 33 32 30 29 28 26 25 25 26 26 25 24 23 21 20 19 19 20 19 18 17 17
14 14 14 14 14 14 14 15 21 26 28 31 34 35 37 38 37 38 39 39 40 41 41 42 41 40 40 40 40 40 41 42 42 42 40 39 38 37 36 36 36 35 35 33 31 30 28 27 26 26 26 26 25 24 22 21 20 20 19 19 19 19 18
13 14 13 14 14 14 15 17 23 28 30 31 33 34 35 36 36 37 38 38 39 40 40 40 41 41 40 39 39 39 39 40 41 41 40 38 37 37 38 39 38 37 36 35 34 32 31 29 28 27 27 26 26 25 24 23 22 21 21 21 21 21 20
7 14 14 14 15 15 16 17 22 28 30 30 31 31 33 34 35 36 37 37 38 38 38 39 40 40 39 39 39 38 38 39 40 40 39 37 36 37 39 40 40 39 38 36 35 34 32 32 30 29 28 27 27 26 25 25 23 22 22 23 23 23 23
11 7 12 13 14 14 14 16 20 26 28 28 29 29 31 33 34 35 35 37 38 37 37 39 39 40 39 39 39 39 38 38 39 39 38 37 36 36 38 39 40 40 39 38 36 35 34 33 32 31 30 29 28 27 26 25 24 24 24 25 25 25 25
19 10 3 4 6 8 9 12 17 22 25 27 28 29 31 33 34 35 36 36 37 37 38 39 39 39 39 38 38 38 38 37 38 38 38 37 37 36 37 38 39 40 40 39 38 37 36 35 34 33 31 30 30 29 27 26 26 25 25 26 26 27 27
20 18 15 11 7 3 2 5 11 15 19 24 26 28 31 33 33 34 36 36 36 37 38 39 39 38 38 38 38 37 37 37 37 37 38 38 38 38 37 37 37 37 39 40 39 38 38 36 35 34 33 32 31 30 30 28 27 27 27 28 28 28 28
18 18 19 18 15 13 10 6 3 4 11 18 23 26 29 32 33 34 34 35 36 37 38 38 38 37 37 37 36 36 37 38 37 37 38 39 40 40 39 37 35 35 36 38 38 39 38 37 36 35 34 34 33 33 32 31 30 29 29 30 30 30 30
15 16 18 19 18 16 14 12 12 12 10 7 12 20 25 27 30 32 33 35 35 36 37 37 37 36 36 36 36 36 37 38 38 39 39 40 40 41 40 38 36 35 35 36 37 38 38 37 37 36 36 36 36 35 35 33 32 31 31 31 31 31 31
14 14 15 16 17 16 16 16 15 17 20 19 13 6 13 22 26 27 28 31 33 34 34 36 36 36 36 36 36 37 37 38 39 40 39 40 40 40 40 39 38 37 36 36 36 37 37 37 37 37 38 38 38 37 37 36 34 33 32 32 32 32 32
16 15 15 16 17 17 17 17 16 17 21 23 23 20 12 6 16 23 26 27 29 31 32 33 34 35 35 36 36 37 38 39 39 39 39 39 39 39 39 39 39 39 38 36 36 36 37 37 37 37 37 38 38 38 38 37 36 35 34 33 33 32 32
17 17 17 17 17 16 16 15 14 16 20 22 23 25 24 19 10 9 21 27 27 27 30 32 32 33 34 34 36 37 38 38 37 38 38 38 38 39 40 40 39 39 38 37 36 36 36 36 36 35 36 36 37 37 37 36 36 36 36 35 35 34 34
16 16 16 16 15 14 14 14 14 16 20 23 24 24 24 24 23 17 8 19 27 27 28 30 31 32 33 34 36 36 36 36 36 36 36 37 38 40 40 40 39 38 38 38 38 37 36 36 35 35 35 35 35 36 36 36 36 37 37 37 36 36 35
14 15 15 15 15 14 13 13 14 17 19 21 23 24 23 23 23 23 19 8 18 27 29 30 32 34 34 35 36 35 35 36 36 35 36 38 39 39 39 40 39 38 38 38 38 38 37 36 36 36 36 35 35 35 35 36 36 37 37 37 37 36 35
13 14 15 15 15 14 15 15 14 16 18 20 22 23 24 25 24 24 25 21 11 16 27 32 33 34 36 36 36 36 36 36 36 36 37 38 39 40 40 39 38 37 37 37 38 37 37 37 37 38 37 36 35 35 36 37 37 37 37 38 38 37 36
12 12 13 13 14 13 13 14 14 16 18 19 21 22 23 23 23 24 25 24 21 12 17 30 33 34 35 35 35 35 36 35 35 36 37 38 39 39 38 37 37 38 38 38 37 36 36 37 38 38 38 37 37 37 37 38 38 37 37 38 38 38 37
10 11 12 11 11 11 12 14 16 19 22 22 23 24 22 22 24 25 25 24 22 18 10 17 26 30 33 34 34 35 35 35 36 37 38 38 37 36 36 36 38 39 38 37 36 36 37 38 38 38 38 38 38 38 38 38 38 38 38 38 39 38 38
9 10 10 10 10 10 13 16 19 21 24 26 29 28 25 25 27 27 26 25 21 19 16 9 12 20 26 31 33 34 35 36 37 37 38 38 37 36 36 37 38 38 38 37 37 37 38 38 37 38 38 38 38 37 38 39 39 38 38 38 39 38 38
9 8 7 9 10 11 14 17 19 21 23 25 29 28 26 27 29 27 25 23 19 18 18 14 8 8 15 23 28 32 34 36 37 37 37 37 36 36 36 37 39 39 38 37 37 37 37 37 37 38 38 38 38 37 38 40 40 39 39 39 38 38 37
10 10 11 12 12 13 15 17 19 21 22 25 27 26 26 27 28 27 25 21 17 18 18 16 13 9 7 11 17 24 30 33 35 36 36 35 35 36 37 38 38 38 37 35 35 36 36 37 38 38 38 37 37 37 39 40 40 40 40 40 38 37 37
13 14 15 16 16 16 16 17 18 19 21 24 25 26 27 27 26 26 24 19 16 17 17 16 15 14 12 10 10 14 20 25 29 31 33 34 35 36 37 37 37 36 36 36 36 36 36 37 37 37 37 38 39 39 40 41 41 40 40 40 39 37 37
14 16 17 17 18 18 18 18 18 18 20 22 24 27 27 26 24 22 20 19 18 17 16 15 15 15 15 14 12 11 13 18 24 27 29 31 34 37 36 36 36 35 35 36 36 36 36 36 35 36 37 38 39 40 40 41 41 40 40 40 39 38 37
14 16 18 18 19 19 19 19 18 18 19 21 24 26 27 25 23 20 18 19 19 17 17 17 17 17 18 18 16 14 12 13 19 25 28 29 31 33 33 34 34 34 34 35 36 35 35 35 35 35 36 37 38 38 40 41 40 39 40 40 40 39 38
16 17 19 20 21 20 19 20 19 19 20 21 23 24 24 24 24 23 21 19 18 18 19 19 19 19 19 19 19 18 16 14 15 20 27 30 31 30 31 33 33 34 35 35 34 34 34 34 35 35 35 36 36 37 39 40 40 40 39 40 40 40 39
15 17 20 22 22 21 20 20 20 20 22 24 24 23 22 21 21 22 23 21 19 21 22 22 21 20 20 20 20 20 19 17 16 17 22 28 31 31 32 33 33 34 35 34 33 34 34 35 34 34 34 34 35 36 38 39 40 40 39 40 40 40 40
13 15 19 21 22 22 21 21 21 20 22 25 26 24 22 20 19 20 21 22 22 24 24 23 22 21 20 21 21 20 20 19 18 17 19 24 29 32 33 33 33 34 34 34 34 33 33 34 34 33 32 32 33 35 37 37 38 39 40 41 41 41 42
14 15 17 19 22 23 22 22 23 23 24 25 26 25 22 21 20 19 20 23 25 26 24 23 22 20 20 21 21 20 19 18 17 17 18 21 25 31 33 33 33 34 34 34 34 33 32 32 32 31 30 30 31 33 35 36 37 38 40 41 42 42 42
17 17 18 19 21 22 23 24 26 26 26 26 27 26 24 22 21 21 22 25 26 26 25 23 21 19 18 20 20 20 19 18 17 18 20 21 23 28 32 32 32 32 33 33 33 32 31 31 30 31 30 30 30 31 33 34 36 37 38 40 41 42 43
18 19 19 19 20 21 23 26 27 28 27 28 28 27 26 25 24 23 26 27 27 25 24 22 20 18 17 17 19 19 19 19 20 21 22 22 24 27 31 32 32 32 32 32 32 32 32 30 30 30 30 29 30 31 31 32 33 35 36 37 39 41 43
18 20 21 20 20 22 23 23 25 26 27 29 30 28 27 28 28 28 29 29 27 26 23 21 19 19 17 17 18 18 18 19 21 22 23 23 24 27 30 32 33 32 32 32 32 32 31 30 29 28 28 28 29 29 29 30 32 34 35 35 37 40 42
18 21 23 23 22 22 21 21 23 25 27 29 31 30 28 28 30 31 31 30 28 26 23 21 20 20 19 18 18 17 17 19 21 22 23 24 24 26 29 32 33 33 34 35 36 34 32 31 30 29 30 31 30 29 28 30 33 35 36 36 37 39 40
19 22 25 25 23 22 22 21 23 25 27 29 31 31 30 29 30 31 32 31 29 27 24 21 21 21 20 19 20 18 18 19 20 21 23 24 25 27 30 33 35 36 38 40 43 42 40 37 35 35 37 36 34 32 30 30 35 40 41 38 38 40 40
19 22 26 26 24 23 23 23 24 25 27 29 30 30 30 31 31 31 31 31 29 27 24 22 21 21 20 18 19 19 18 18 20 23 24 24 25 26 29 33 37 40 41 42 45 48 48 45 43 42 42 40 38 37 37 38 41 43 41 39 39 40 40
20 23 26 28 25 23 23 24 24 24 25 27 29 29 30 33 33 32 32 31 29 27 26 24 23 22 20 18 18 19 19 20 23 25 26 26 25 26 27 30 34 39 42 43 43 45 49 49 48 47 45 41 39 39 40 42 43 39 35 35 36 37 37
23 24 26 27 25 22 22 23 23 24 24 26 28 29 30 31 32 33 33 31 28 27 27 25 24 23 21 19 18 19 20 22 24 26 28 28 26 26 27 27 28 32 37 41 40 40 43 47 48 48 46 44 41 39 38 40 40 37 34 33 31 32 34

ECMWFFLT1_925_spd_066.txt.gz
Wind_Speed
10 10 10 10 12 13 14 16 20 23 24 27 29 32 33 33 33 34 33 35 36 35 35 36 36 36 36 36 36 36 36 35 36 35 34 32 30 30 30 28 26 25 24 24 24 23 22 20 20 21 20 20 19 18 16 13 12 12 12 12 11 10 10
6 10 12 11 12 13 14 18 22 23 25 27 29 31 33 34 34 34 34 35 37 36 36 37 37 37 37 37 36 36 36 36 36 35 35 33 31 31 31 30 28 26 24 24 24 23 22 21 21 21 21 20 19 18 17 15 13 12 12 13 12 11 11
7 6 10 12 12 13 13 16 21 24 26 28 29 31 33 35 36 36 36 36 36 36 36 37 37 37 37 36 35 35 36 36 36 36 36 35 34 32 31 30 29 27 25 24 24 23 21 20 20 20 21 21 20 19 17 16 15 14 13 13 14 14 13
11 11 9 12 14 13 14 16 20 25 27 29 32 33 35 37 37 37 37 37 37 37 36 36 37 37 37 36 36 36 36 36 37 37 37 37 35 33 31 31 30 28 26 26 25 24 22 20 19 19 20 21 21 20 18 17 16 15 14 13 14 15 15
13 14 11 9 13 13 12 15 21 25 27 29 32 34 35 36 36 36 37 37 38 38 39 39 38 38 37 36 37 36 37 37 37 37 36 36 34 33 32 31 31 30 29 27 26 25 24 22 20 19 19 20 21 21 20 18 17 16 15 14 14 15 15
13 13 13 9 9 11 11 13 20 25 27 28 30 31 33 34 35 35 36 36 36 37 37 38 38 38 37 36 36 36 36 36 37 37 36 35 34 33 33 33 32 31 31 29 28 27 26 25 23 21 20 20 20 21 21 20 18 17 16 15 15 15 15
13 12 13 12 6 5 8 10 15 20 22 24 26 28 30 31 33 35 34 35 35 35 35 36 36 36 36 36 36 35 35 36 37 37 36 35 35 35 35 34 33 32 32 30 29 29 28 27 26 24 22 21 21 21 20 20 19 18 18 17 17 16 16
13 13 13 14 12 8 2 4 10 14 17 18 20 23 27 29 30 32 33 35 35 34 35 36 37 36 36 35 35 36 36 36 36 37 36 35 35 35 35 34 34 33 31 31 30 30 30 29 28 27 25 24 23 22 21 20 19 19 19 19 19 18 18
15 14 14 15 14 13 12 10 5 3 11 16 18 20 23 26 28 29 31 33 33 33 35 36 37 37 36 35 35 36 36 35 35 36 36 36 36 36 36 36 36 34 32 32 31 30 30 30 30 29 28 26 25 25 23 22 21 20 20 20 20 20 20
14 15 15 16 14 13 15 19 20 15 7 2 10 17 20 22 23 25 27 29 30 32 34 35 35 35 35 35 35 35 35 35 35 34 35 36 37 37 37 36 36 35 35 34 32 31 31 30 30 29 29 28 27 27 26 25 23 22 22 21 21 21 21
13 13 15 16 16 16 17 18 19 19 20 18 11 1 12 20 23 22 22 24 26 29 31 32 33 33 33 34 34 34 34 34 34 34 35 36 37 37 37 36 35 35 36 36 34 33 32 31 30 30 30 30 30 29 29 27 26 25 24 23 23 22 22
12 12 14 16 15 15 15 15 17 20 22 22 22 19 10 4 15 22 25 24 25 27 29 30 31 31 32 33 33 33 33 34 34 34 35 35 36 37 36 35 34 34 35 36 35 34 33 32 31 31 31 31 31 31 30 30 28 28 27 26 25 24 24
11 11 12 13 14 14 14 14 16 20 23 21 21 24 24 18 8 8 22 28 28 29 29 29 31 31 31 32 32 32 33 34 35 35 34 35 35 36 35 35 34 34 34 34 34 34 33 33 33 33 33 32 31 32 32 31 31 30 29 28 27 27 26
13 13 13 14 14 15 15 14 14 17 21 22 22 24 24 25 25 16 1 13 22 28 30 29 30 31 32 32 32 33 34 35 35 35 35 35 35 35 36 35 35 35 35 34 33 33 33 34 34 34 33 33 32 32 32 31 31 31 31 30 30 29 28
14 14 15 15 15 14 14 13 13 16 19 20 23 25 24 24 27 26 20 12 4 16 26 30 31 31 32 33 33 34 35 35 34 35 35 34 35 35 36 35 35 35 35 34 34 34 34 34 33 34 34 33 33 33 32 32 33 33 33 33 32 31 31
14 14 14 14 14 13 13 12 14 16 18 20 22 23 23 23 25 25 23 23 17 7 12 24 31 32 32 33 34 35 35 35 35 35 35 35 36 36 36 35 35 34 34 35 35 35 35 34 33 33 34 34 34 34 34 34 35 35 35 35 34 33 32
13 13 14 14 13 13 12 13 15 18 19 20 21 22 22 23 24 23 24 25 24 18 10 10 23 32 34 34 36 36 35 36 36 35 35 36 36 36 36 35 34 34 34 34 35 35 35 34 34 34 35 35 35 35 35 36 37 38 37 36 36 34 33
12 13 13 13 13 14 14 13 14 17 19 20 21 22 22 23 24 24 25 26 26 22 18 13 11 23 34 36 35 36 37 36 36 36 36 36 36 36 36 35 33 33 34 34 34 34 34 34 35 36 36 35 35 36 37 38 39 39 38 38 37 36 34
11 12 13 13 13 13 13 13 15 17 18 19 19 21 22 22 22 25 25 25 25 23 22 20 15 12 25 34 34 35 37 37 36 36 36 36 36 36 36 35 34 35 35 35 35 33 33 35 36 36 36 36 36 37 38 39 39 39 38 38 37 36 35
10 12 12 12 13 13 13 15 16 19 20 19 19 22 23 22 23 25 26 26 24 23 24 22 20 16 13 26 34 34 35 36 36 36 37 37 37 36 35 35 37 37 37 36 34 34 35 36 36 36 37 37 37 38 39 40 40 40 39 38 38 37 36
8 10 11 12 12 14 16 18 18 20 23 22 22 23 24 25 27 27 27 25 24 24 25 24 22 21 15 12 26 32 33 34 35 36 37 37 36 35 36 37 37 37 37 35 34 35 37 37 36 37 37 38 38 38 39 41 42 40 40 39 38 37 35
7 8 9 11 13 15 18 19 19 20 22 23 23 23 23 25 28 28 26 23 21 24 25 23 21 20 19 13 9 20 28 32 34 35 36 36 35 34 35 36 37 37 37 35 34 35 35 35 36 37 37 38 38 37 39 42 42 41 41 41 39 37 35
7 8 10 13 15 17 18 19 20 21 21 22 23 23 24 26 27 28 27 21 19 22 24 21 19 19 20 19 13 7 14 23 29 33 34 33 33 34 36 36 37 37 36 34 34 34 35 36 36 37 37 37 37 38 40 43 43 41 41 41 39 37 36
9 10 13 14 17 18 18 19 20 20 21 21 22 23 25 26 27 27 25 19 18 21 22 19 19 19 20 21 19 14 9 10 17 25 30 31 31 33 35 35 36 36 35 34 35 36 37 37 36 36 36 37 38 39 41 43 43 41 41 40 39 37 37
12 13 14 15 17 18 20 20 20 20 21 21 22 25 26 25 26 26 23 19 19 19 18 17 19 21 23 23 22 19 15 10 9 14 22 28 32 33 33 34 34 34 33 34 36 36 37 36 34 35 36 37 39 39 40 42 42 41 40 40 38 37 37
15 16 17 17 18 18 20 21 20 19 20 21 23 25 25 24 24 24 23 22 21 19 17 18 21 24 25 24 23 22 19 15 12 11 14 20 27 31 32 32 32 31 31 33 35 35 34 34 34 35 36 37 38 38 40 41 42 41 40 39 38 37 37
17 18 19 20 21 19 19 20 20 19 20 21 23 24 24 23 23 22 23 23 21 20 21 22 24 25 26 25 24 22 21 19 16 13 13 15 19 25 29 31 30 30 31 32 33 33 33 33 34 35 36 37 37 37 39 40 41 41 40 39 39 38 37
17 18 20 23 23 22 19 19 19 19 20 21 23 24 23 22 22 22 23 22 21 24 26 26 25 25 26 27 26 23 21 20 18 16 14 15 16 19 24 28 30 31 32 33 33 33 34 34 34 34 35 35 35 36 38 39 40 41 40 40 39 39 38
18 18 20 22 24 24 23 21 20 19 19 20 21 23 23 22 22 21 21 23 25 27 29 29 26 25 25 26 26 24 21 18 16 16 17 17 17 19 21 25 28 31 33 33 33 33 33 34 34 33 33 33 33 35 37 38 39 40 41 40 40 39 40
18 20 20 21 23 25 24 24 24 23 22 20 20 21 22 22 23 21 20 23 27 29 30 31 29 27 26 24 23 23 23 20 17 17 19 18 17 18 20 22 26 29 31 32 33 32 31 32 32 31 31 31 32 33 34 35 37 38 40 41 41 41 41
19 21 22 22 23 24 24 25 27 27 26 23 20 20 21 22 21 20 21 24 26 28 30 32 30 28 27 24 23 23 24 22 20 19 19 18 16 17 19 21 23 27 29 31 31 31 30 30 30 30 30 30 31 31 32 33 34 36 39 40 41 42 42
20 22 22 23 23 23 24 25 27 28 28 27 23 19 20 21 21 20 22 24 25 26 28 30 30 29 27 25 25 26 25 24 22 21 19 19 18 19 20 21 22 25 28 29 30 31 31 30 30 30 30 30 31 31 31 31 33 35 37 38 40 41 42
19 21 22 23 23 23 23 23 25 26 28 30 27 21 20 22 23 22 24 24 24 24 24 24 26 27 27 26 26 26 25 24 24 22 21 20 21 21 21 22 23 25 27 29 30 30 30 30 30 29 28 30 31 31 30 31 33 34 35 36 37 39 40
18 20 22 24 25 24 22 22 24 26 28 31 31 26 23 23 24 24 25 24 24 23 22 21 20 23 26 26 25 25 24 24 23 23 21 21 22 21 20 20 21 24 28 31 33 32 32 32 31 31 31 32 32 30 29 30 33 36 36 35 36 38 40
19 20 23 24 25 25 24 23 25 27 29 33 33 29 26 25 25 25 25 25 24 23 22 20 19 20 23 25 25 25 24 23 23 22 21 20 21 22 22 22 22 24 28 32 36 39 39 37 35 36 37 37 35 32 29 30 35 41 41 39 38 40 41
21 21 22 24 25 26 25 25 26 27 30 34 33 30 27 26 25 25 25 26 25 23 22 21 20 20 22 23 24 24 23 22 22 22 21 20 20 22 24 25 25 26 29 33 36 40 43 43 41 41 41 40 39 38 37 38 42 43 42 41 40 40 40
23 23 23 24 25 26 26 26 26 27 29 32 33 31 29 27 25 25 27 28 27 24 22 21 21 22 23 24 25 25 24 25 25 24 23 22 22 22 23 25 26 27 29 33 36 40 43 46 47 47 45 42 41 41 42 44 45 42 38 37 38 39 40
26 25 25 25 24 25 26 25 25 25 27 30 32 31 30 30 28 26 28 29 28 24 22 22 23 24 26 27 27 26 26 27 27 26 25 25 24 24 23 22 23 26 28 30 32 37 42 45 47 49 49 48 44 40 39 42 44 42 39 36 34 36 37

ECMWFFLT1_925_spd_069.txt.gz
Wind_Speed
4 5 9 12 14 15 15 18 22 23 22 23 25 26 27 26 26 25 26 30 33 33 33 34 34 33 33 33 33 32 31 31 31 30 29 28 27 26 26 26 25 23 21 19 18 16 14 13 14 15 15 15 15 14 13 11 10 9 8 8 7 7 6
11 8 6 6 11 15 17 20 23 23 23 24 25 26 27 26 27 27 27 32 36 35 36 36 36 35 35 34 33 33 32 32 31 31 30 29 29 28 27 26 26 25 24 21 19 17 15 14 15 15 15 15 15 15 14 13 12 10 9 9 8 9 8
11 10 10 9 8 10 15 19 22 24 25 25 26 27 27 27 29 32 31 32 34 34 34 35 36 36 36 35 34 34 33 32 32 32 31 30 30 28 27 27 26 25 25 24 22 19 16 15 15 16 16 16 16 16 15 14 13 12 10 10 9 9 10
13 13 11 10 10 9 12 17 22 25 24 23 25 27 28 29 30 33 33 32 33 32 32 34 36 35 35 35 35 34 34 34 33 33 31 30 30 29 28 28 26 25 25 25 23 20 18 16 16 16 16 16 16 16 16 15 14 13 12 11 10 10 10
14 14 13 11 10 8 9 14 19 21 22 22 24 24 25 27 29 30 30 30 31 32 34 36 35 32 34 36 34 33 35 35 35 33 32 31 30 30 29 28 27 26 25 25 25 23 20 17 17 17 16 15 15 16 16 16 15 15 13 12 12 11 10
14 14 13 12 12 10 5 11 17 21 22 21 22 23 24 26 27 27 28 28 28 29 31 32 30 29 32 33 31 32 35 35 35 35 33 32 31 31 30 30 29 27 26 25 26 24 22 19 18 18 17 16 15 15 16 16 16 16 15 14 13 12 11
13 14 14 14 14 13 10 4 5 14 21 23 22 22 22 23 25 25 25 26 26 26 26 27 26 26 28 29 28 30 34 35 35 35 34 32 32 31 31 30 30 29 27 26 26 26 25 22 20 19 19 17 17 16 16 15 16 16 16 16 15 15 13
14 14 15 15 15 14 15 16 14 8 3 11 17 20 22 21 22 23 23 22 23 24 24 26 25 24 26 27 28 30 32 31 32 34 34 32 31 31 31 31 31 30 28 27 27 27 26 25 23 22 20 20 19 18 17 17 16 16 17 17 17 17 15
14 14 15 15 15 15 16 19 20 21 19 14 6 7 18 21 20 21 18 14 16 17 18 20 19 20 24 27 28 30 29 27 28 30 32 30 29 29 29 29 30 31 30 28 27 27 28 27 26 24 23 22 22 21 20 19 18 17 18 18 18 18 16
13 14 15 16 15 16 19 22 22 22 22 21 20 13 1 11 19 23 22 22 22 17 16 18 17 16 19 23 25 26 25 25 25 26 28 27 26 27 27 25 26 30 31 28 26 27 28 28 27 27 25 24 24 23 22 22 21 20 19 19 18 18 18
12 13 14 16 17 17 19 21 21 21 20 19 20 21 17 7 10 22 29 31 29 24 24 28 25 20 20 22 23 23 23 24 25 24 25 26 25 26 26 24 23 27 30 28 26 27 28 28 28 28 27 26 25 24 23 23 22 21 21 20 20 20 19
12 12 13 15 16 16 17 18 20 21 21 21 20 20 20 18 8 7 19 24 24 24 29 33 29 24 23 23 24 24 24 24 24 24 25 26 26 25 25 25 24 25 29 29 28 28 28 29 29 30 29 29 28 26 24 23 23 23 22 22 22 22 22
12 12 12 13 13 14 15 17 20 22 22 21 21 20 19 19 18 11 2 7 12 18 24 28 26 23 23 24 25 25 25 25 25 25 25 26 27 27 25 25 25 25 26 29 30 29 28 29 30 32 31 31 30 28 27 25 25 25 25 24 24 24 24
13 13 13 14 14 16 16 15 17 21 22 21 21 21 20 19 18 17 13 8 1 7 14 19 23 23 22 23 24 24 25 26 25 25 26 27 28 29 27 25 25 25 25 27 30 31 30 30 31 32 33 32 32 31 29 28 27 27 27 27 26 26 26
14 15 15 16 16 16 15 14 15 18 20 21 21 22 21 20 19 18 16 14 10 5 2 11 20 24 25 24 25 26 26 25 24 24 27 29 30 32 30 27 27 28 27 29 31 31 30 30 30 31 33 33 33 33 32 31 31 31 30 30 29 29 28
13 14 14 15 15 15 14 14 16 17 19 20 21 22 21 20 20 18 17 15 14 12 8 3 9 18 24 26 26 26 27 28 30 29 29 32 33 34 34 30 28 29 31 32 32 31 31 31 30 30 31 32 34 34 33 33 34 34 34 32 32 31 30
13 13 14 14 14 14 14 15 17 19 20 21 21 21 20 19 19 18 17 16 15 14 12 9 6 7 15 22 24 25 27 30 33 32 32 34 35 35 35 33 30 30 33 33 32 32 33 32 32 31 29 29 32 33 33 35 37 37 37 35 34 33 32
13 13 13 13 13 14 14 15 17 19 20 21 21 21 20 19 19 19 19 18 17 15 14 11 9 7 6 12 18 22 28 30 30 31 33 34 35 35 35 33 31 31 32 32 32 33 33 31 32 34 31 28 29 30 31 35 38 39 38 37 37 35 34
12 13 13 13 13 13 14 15 16 18 19 19 19 20 19 19 19 19 20 21 19 15 15 14 10 8 7 6 10 17 26 29 28 30 32 33 34 35 34 33 32 32 31 31 30 31 33 33 33 35 33 30 29 30 30 32 37 40 39 38 38 37 36
11 11 12 12 12 13 14 16 17 17 18 18 18 19 18 18 19 18 20 22 19 15 16 17 13 10 10 8 6 9 19 26 27 28 30 33 34 33 32 32 33 33 29 27 27 29 34 35 32 33 36 34 33 33 32 31 35 39 39 39 39 38 37
10 11 11 11 12 14 16 17 18 19 19 18 18 18 18 19 20 20 20 19 17 17 18 17 13 12 12 11 9 6 8 18 25 27 28 31 32 31 32 32 34 33 29 25 24 28 34 34 30 32 36 37 35 34 32 33 36 38 38 39 38 38 37
9 10 11 11 13 15 16 17 17 19 20 19 18 17 18 19 20 21 21 18 16 19 20 16 12 13 14 14 12 10 7 7 15 22 26 27 27 28 29 31 34 36 32 27 24 24 28 30 30 30 33 35 34 32 32 35 37 37 39 39 38 37 36
9 9 11 12 13 15 16 16 17 17 18 19 18 17 17 19 19 19 20 18 16 18 18 14 13 13 15 15 15 14 12 10 9 11 17 22 24 26 28 29 33 34 30 27 25 24 24 26 28 29 30 31 32 34 36 39 39 39 39 39 38 36 36
10 11 11 12 14 15 16 17 17 17 17 17 18 17 18 20 19 18 18 18 17 17 15 12 13 15 15 16 17 18 15 12 10 10 11 15 20 25 27 27 28 28 26 26 26 26 25 25 25 27 27 28 31 34 37 39 39 39 39 39 38 37 37
11 12 12 13 14 15 16 17 17 17 16 16 17 19 19 19 19 17 16 16 17 17 15 13 13 15 17 18 19 19 18 15 12 11 10 12 16 21 25 25 24 23 23 24 25 26 25 24 23 24 26 27 29 33 36 35 35 36 38 38 38 37 38
12 13 13 13 14 15 16 17 16 17 17 16 16 18 19 19 18 17 16 16 16 16 16 15 16 16 17 19 19 19 18 17 15 12 11 12 13 16 20 24 25 23 22 23 24 25 24 24 24 24 25 26 27 29 32 33 32 33 36 38 37 37 38
14 15 15 15 15 15 16 16 16 16 17 17 16 16 17 18 17 17 17 16 16 15 15 17 18 18 17 18 19 19 19 18 16 14 13 12 12 14 16 19 22 23 23 23 24 24 24 24 25 25 26 26 26 27 29 31 32 33 35 37 37 37 37
15 16 17 17 15 14 15 17 17 18 17 17 16 15 15 16 17 18 18 17 17 17 17 18 19 19 19 18 19 20 21 20 17 16 15 14 13 15 18 19 21 24 24 24 24 24 25 25 25 26 26 26 26 27 28 31 33 33 34 36 38 37 37
16 17 19 19 18 16 16 17 19 20 19 17 16 15 14 15 16 16 16 18 20 19 19 19 18 19 19 19 18 19 20 20 18 16 15 15 15 17 18 18 21 25 26 26 25 24 25 25 25 26 26 26 26 27 27 29 32 35 36 37 37 38 38
16 18 18 20 21 19 17 17 19 21 21 18 16 15 14 14 15 16 16 18 21 21 20 20 20 18 18 18 17 17 18 18 17 16 14 13 16 18 18 17 20 23 26 28 28 26 25 25 25 25 26 26 26 26 27 27 29 34 37 38 38 38 38
17 18 18 19 21 21 19 18 19 21 23 21 18 16 15 13 14 17 18 18 20 21 21 20 20 20 18 17 17 18 17 17 17 17 15 13 15 18 18 18 19 21 22 26 28 28 27 26 27 27 28 27 27 26 26 26 26 30 34 37 38 38 39
17 18 19 19 19 20 20 20 20 20 23 23 20 17 15 14 14 17 20 20 19 20 20 19 20 20 19 18 17 18 18 18 17 17 16 14 14 17 19 19 19 19 20 23 26 28 27 27 28 29 29 29 29 28 26 24 24 26 29 32 36 38 39
18 18 19 19 19 20 20 20 21 21 22 24 22 17 15 15 16 17 19 20 20 20 19 18 18 19 19 19 18 17 17 17 17 17 17 15 14 16 19 20 20 19 20 22 24 26 27 28 29 28 28 29 29 28 27 25 24 24 25 26 30 36 38
19 19 20 19 20 20 20 20 21 22 23 25 24 19 16 17 18 18 19 20 20 20 19 18 18 18 18 19 19 17 16 17 17 17 17 15 14 15 18 20 20 20 21 23 24 25 27 28 28 27 27 27 26 25 25 24 24 26 26 25 26 31 37
20 20 20 20 21 22 22 21 22 23 25 26 26 23 19 19 19 19 19 19 19 18 18 19 19 18 18 18 19 19 17 16 17 18 17 16 15 16 18 21 21 22 23 24 25 26 27 28 28 27 27 26 25 24 22 22 26 32 34 32 31 33 36
21 22 23 23 23 24 24 24 24 25 26 27 27 25 22 20 20 18 17 17 17 17 18 19 19 19 18 16 17 18 18 17 18 18 18 17 18 18 20 22 23 24 26 28 29 30 30 31 31 32 30 27 26 26 25 28 34 39 37 35 36 37 38
23 24 25 25 25 25 26 26 25 26 27 27 27 26 25 22 20 19 17 16 17 17 19 19 19 19 18 16 17 19 20 21 21 21 20 19 19 20 22 23 24 25 27 29 31 33 35 36 37 38 38 36 35 33 30 32 37 39 36 34 35 35 36
26 27 27 26 25 25 25 25 26 27 28 27 27 27 26 24 23 20 18 17 18 18 19 19 18 18 18 18 18 19 21 22 23 24 24 21 20 22 23 23 23 25 27 28 28 30 33 35 36 38 40 42 44 43 39 37 36 36 35 36 36 34 33

ECMWFFLT1_925_spd_075.txt.gz
Wind_Speed
7 10 10 8 9 10 10 13 15 14 11 11 15 19 21 22 20 17 19 21 22 22 22 22 22 22 21 21 19 19 18 17 16 16 15 14 13 13 13 13 13 13 12 11 11 11 10 9 10 9 9 9 9 8 8 7 7 6 6 7 6 5 5
5 7 8 8 8 8 9 12 13 12 12 12 13 16 18 20 19 19 20 22 22 22 22 22 22 22 22 21 20 19 19 18 17 16 16 15 14 13 13 13 13 13 12 11 10 11 11 11 11 10 10 10 10 10 9 9 9 8 7 8 8 7 7
4 4 6 6 7 9 9 9 8 9 11 12 12 14 17 18 17 18 21 23 22 21 21 21 21 21 21 21 20 20 20 19 18 18 17 16 15 15 14 14 13 14 13 12 11 10 12 12 11 11 10 10 10 11 11 10 10 9 9 8 9 9 8
4 3 3 5 7 8 8 10 13 13 14 12 12 14 16 17 17 15 16 19 21 21 21 20 20 21 21 21 21 20 20 20 19 18 17 16 16 15 15 14 14 14 14 14 12 11 11 12 12 12 11 11 11 11 11 11 11 11 10 10 10 9 8
6 6 3 3 6 6 3 8 14 16 15 13 12 11 11 11 14 14 13 15 16 19 21 20 19 21 22 21 20 19 20 20 19 18 17 16 17 16 16 16 15 15 14 14 14 13 12 12 12 13 12 12 11 11 12 12 11 11 11 11 10 10 8
9 9 7 5 6 7 7 2 6 12 14 12 11 12 11 9 10 13 15 17 17 19 22 22 22 23 23 21 20 19 19 20 20 19 17 17 17 17 17 17 16 16 16 15 15 14 14 14 13 13 13 13 13 12 13 12 12 12 11 11 11 10 9
10 10 10 9 7 7 9 10 7 6 10 9 7 11 16 15 11 12 15 17 21 22 22 23 23 22 21 20 18 18 19 20 20 20 19 18 18 18 18 17 17 17 16 16 16 15 15 15 15 14 14 14 13 13 13 13 13 12 12 12 12 11 10
11 10 10 9 8 7 8 10 12 11 7 5 4 6 14 18 15 15 19 21 21 22 20 20 20 19 16 15 15 16 17 18 19 20 20 19 19 19 18 18 19 18 17 17 17 17 16 16 16 16 15 14 14 14 14 13 13 13 12 12 12 12 11
11 11 10 9 8 7 8 9 12 15 15 14 13 12 2 11 15 14 20 22 16 15 17 17 17 16 15 15 14 14 15 16 17 18 20 20 20 20 20 19 19 19 19 19 18 18 18 17 17 17 17 16 15 15 14 14 14 14 13 13 13 13 12
11 11 11 10 9 9 10 13 15 16 17 17 18 21 18 2 9 6 8 13 11 11 13 13 14 15 15 15 14 15 16 16 17 18 19 20 20 20 20 20 20 20 20 20 19 19 19 18 17 17 18 18 17 16 16 15 15 14 14 14 13 13 13
10 10 11 12 12 12 13 15 16 16 16 17 16 17 18 10 3 6 6 6 9 12 14 13 12 12 13 15 15 15 17 17 18 18 19 20 21 21 21 20 20 20 20 20 20 19 19 19 19 18 18 19 18 18 18 17 16 16 16 15 14 14 14
9 10 11 12 13 13 13 14 16 17 17 17 16 15 14 13 12 11 10 7 2 7 12 12 11 10 12 15 15 15 17 17 19 19 19 21 21 21 21 21 21 21 21 20 20 20 20 20 20 20 20 20 19 19 19 18 18 18 17 17 16 15 15
10 10 11 12 12 12 13 13 15 18 18 17 17 16 15 14 16 17 15 13 8 3 3 5 8 9 12 14 13 15 17 17 17 17 18 20 22 21 21 21 21 21 21 21 21 21 21 21 21 21 21 21 21 20 20 20 19 19 19 18 17 17 16
12 12 12 12 12 13 13 13 14 16 17 18 17 17 17 16 16 17 17 16 13 10 9 7 4 5 9 13 12 13 15 16 18 18 18 21 23 22 20 20 21 21 21 21 21 21 22 22 22 21 21 21 22 21 21 20 20 20 20 20 19 18 18
12 12 13 13 13 13 13 13 14 15 17 17 18 18 17 17 17 17 16 16 14 13 13 11 9 9 8 10 14 14 13 14 17 18 19 21 21 20 19 20 20 21 21 22 22 22 22 22 22 22 22 22 22 22 21 21 21 21 21 21 20 20 19
11 12 12 13 12 12 12 12 14 15 16 16 17 17 17 16 17 16 15 15 13 13 13 12 8 8 10 9 10 13 13 13 14 14 15 17 18 18 19 20 20 21 21 22 22 22 21 21 22 22 22 22 22 22 22 22 22 23 24 23 21 20 20
11 11 12 12 12 11 11 12 14 14 14 15 16 16 16 15 15 15 15 15 13 12 12 11 9 6 8 10 11 11 12 13 14 14 15 15 15 16 17 19 20 21 21 21 21 21 21 21 21 22 22 22 22 23 23 23 23 24 26 26 25 22 20
10 10 11 11 11 11 11 12 13 15 15 15 15 15 15 14 14 14 14 14 14 14 13 11 10 9 6 7 10 11 11 11 11 12 14 14 14 14 14 16 17 18 20 22 22 22 22 22 22 22 22 22 23 23 23 23 24 25 27 28 29 28 24
9 10 10 10 10 11 11 12 13 15 15 15 15 15 14 14 14 13 13 13 12 12 13 12 11 11 10 8 9 11 11 10 10 11 12 13 15 14 13 15 17 19 20 21 21 22 22 22 22 22 23 23 23 23 23 23 24 25 27 28 30 31 30
8 9 9 9 10 10 11 12 12 14 15 14 14 14 13 14 14 12 12 12 10 11 12 13 11 11 12 12 12 12 12 12 11 10 11 13 15 16 16 17 18 20 23 23 20 20 22 23 23 22 23 23 23 23 23 24 24 25 28 30 31 32 33
7 8 8 8 9 9 10 11 12 14 13 13 13 12 13 14 14 13 13 12 11 11 11 11 10 10 12 13 13 12 13 13 12 12 12 10 10 13 16 18 18 18 20 23 24 21 19 20 22 22 22 23 23 23 24 25 25 25 26 28 31 32 33
6 7 7 8 8 9 9 9 11 13 13 12 12 11 12 14 14 14 14 13 12 12 11 10 9 9 11 13 14 15 15 14 13 13 14 13 10 10 12 15 16 17 17 19 24 26 22 17 17 19 21 21 23 23 24 26 26 27 28 28 29 30 31
6 6 6 7 8 8 8 9 11 12 12 11 11 11 12 13 14 14 13 13 14 13 12 11 10 9 10 13 14 15 16 16 15 12 12 13 12 11 11 12 14 17 18 18 22 24 23 20 19 20 21 22 24 24 24 25 26 27 29 30 29 29 30
5 5 6 6 7 8 8 10 12 12 11 11 11 11 13 14 13 13 12 13 14 14 13 12 12 11 11 13 14 14 14 14 14 12 12 12 12 12 12 12 11 13 16 20 24 25 24 25 26 25 23 23 24 25 25 25 25 27 29 30 31 31 31
5 6 6 6 7 8 9 10 11 11 10 11 11 12 13 13 12 12 12 12 13 13 13 12 12 13 13 13 13 13 13 14 14 13 12 13 14 13 12 13 12 12 13 18 22 24 23 24 26 28 28 25 24 25 26 26 25 26 28 30 31 32 33
7 8 8 8 9 10 10 10 10 10 11 11 12 13 13 13 12 12 12 12 13 13 12 12 12 12 13 13 13 14 14 14 14 13 13 14 16 15 15 17 18 17 16 17 18 19 20 21 23 25 27 27 25 25 26 27 27 27 28 30 31 32 34
6 8 10 11 13 14 13 11 10 11 12 12 12 13 13 12 12 12 12 13 13 13 13 14 13 13 13 13 14 14 14 13 12 11 10 11 13 15 16 18 20 19 17 17 17 18 19 20 20 22 23 25 25 25 26 27 28 27 27 29 30 30 32
5 7 8 9 11 12 13 14 14 14 14 13 13 13 13 13 13 13 13 13 14 14 15 15 14 14 14 13 13 13 13 13 12 10 8 7 9 12 15 17 18 18 18 17 17 19 20 20 20 23 24 24 25 25 25 26 27 27 26 28 30 30 31
5 6 7 8 10 10 11 13 15 16 16 15 15 14 14 14 15 14 14 14 15 15 16 15 15 15 15 15 14 13 13 13 12 12 10 9 9 11 14 16 15 17 19 19 17 18 20 20 20 22 25 26 26 24 23 24 25 25 24 25 27 29 30
5 6 7 9 10 11 12 13 14 16 17 17 16 16 15 15 15 15 16 16 16 15 15 15 15 16 16 16 15 14 14 14 13 13 13 12 12 12 14 15 14 15 18 18 17 18 19 19 19 20 23 27 27 25 24 23 23 23 22 23 25 27 29
7 7 8 8 9 10 11 13 14 16 18 18 18 17 17 16 16 17 18 17 16 15 15 15 16 16 16 16 16 16 16 15 15 15 14 14 14 13 14 14 14 15 15 16 17 18 18 19 19 19 22 24 24 23 20 17 16 16 16 17 19 23 27
8 8 8 8 9 9 11 13 14 15 17 18 18 18 17 16 17 18 18 18 17 17 17 17 17 17 17 17 17 17 17 17 16 16 15 15 15 14 15 16 15 15 16 16 16 17 17 18 19 20 20 18 17 19 20 18 17 18 19 19 18 18 21
10 10 11 11 11 11 11 12 13 14 16 17 17 17 17 17 17 18 18 18 19 19 19 18 18 18 18 18 18 17 17 17 16 16 15 15 15 15 16 16 16 16 16 16 16 16 17 18 19 19 17 14 14 19 22 22 23 24 22 20 19 18 20
11 12 13 14 14 14 13 12 12 13 15 16 17 17 18 19 19 19 20 20 19 20 20 20 20 20 20 19 19 18 18 18 17 17 16 16 17 17 16 16 15 15 15 15 15 15 15 15 15 14 14 13 15 18 21 22 24 24 21 18 16 15 15
11 13 15 16 16 16 15 15 15 15 16 16 16 17 18 19 20 21 21 21 20 19 20 20 20 21 21 20 20 19 18 18 18 18 18 17 17 17 16 16 16 17 18 18 17 17 18 18 19 18 16 15 15 15 16 16 16 17 17 17 14 10 9
12 14 15 16 16 17 17 18 18 18 17 17 16 17 18 19 20 21 21 21 20 20 20 21 21 21 21 20 20 19 18 18 18 18 18 17 17 17 17 19 19 20 22 23 23 23 24 26 27 26 24 25 26 24 21 20 19 18 17 16 16 16 19
13 14 15 16 17 18 19 20 20 20 20 19 18 18 18 18 19 19 20 20 20 20 21 21 21 21 21 20 20 19 19 19 19 19 18 18 18 18 19 21 21 22 23 25 26 26 25 26 28 26 24 26 30 32 30 29 30 29 27 27 28 28 31
14 15 16 17 17 18 19 20 20 21 21 20 19 19 19 19 19 19 19 20 20 21 22 22 22 23 22 21 21 20 20 20 20 19 19 19 19 19 19 20 21 21 22 22 22 22 21 22 23 23 21 23 27 31 32 31 30 30 30 31 31 31 32

ECMWFFLT1_925_spd_078.txt.gz
Wind_Speed
7 9 9 7 7 6 4 5 5 7 11 15 16 18 18 18 20 18 19 24 25 23 24 22 22 23 22 22 20 19 18 18 17 17 15 15 14 14 15 14 13 13 12 12 11 11 11 12 12 12 12 12 10 10 9 8 8 7 7 6 6 6 5
5 6 7 5 5 5 4 6 6 5 7 7 9 14 15 13 16 18 19 23 24 22 22 22 22 22 21 21 20 19 19 19 18 18 17 16 16 15 16 15 15 15 14 12 12 12 11 11 12 12 12 12 11 10 10 10 10 8 7 8 6 5 5
4 2 2 4 5 5 5 8 8 7 7 4 5 10 11 6 3 7 14 20 21 19 19 21 22 21 20 20 20 20 20 20 19 19 18 17 17 16 16 16 16 15 15 13 12 13 13 12 13 13 12 11 11 11 10 9 9 9 8 8 8 7 7
4 4 2 2 4 5 7 9 9 9 9 7 8 11 14 13 8 9 14 16 17 18 18 20 20 19 19 20 20 19 20 20 19 19 18 17 17 16 16 17 17 16 16 15 14 12 13 14 14 13 13 12 11 11 11 10 9 9 9 9 9 9 9
6 8 8 3 5 5 7 9 9 8 8 8 10 12 16 18 17 19 19 17 20 21 17 18 18 17 19 20 19 18 19 20 20 19 19 18 18 17 17 17 17 17 16 17 16 14 13 15 15 14 14 13 12 12 12 11 11 10 10 10 9 8 8
6 8 9 6 9 6 6 9 8 6 8 9 12 15 17 16 15 17 18 19 23 20 16 17 16 15 17 18 17 17 17 19 20 20 20 19 19 19 18 17 17 17 17 17 17 16 14 15 15 15 15 14 13 13 12 12 12 11 11 12 10 9 9
6 6 9 8 9 8 3 3 5 4 5 7 11 16 20 17 16 15 17 21 21 17 18 19 14 12 14 14 16 17 17 17 18 19 20 20 20 20 19 19 18 18 17 17 17 17 16 16 16 16 16 15 14 14 14 14 13 12 13 13 12 11 10
3 4 8 10 11 11 10 10 8 4 3 2 6 13 20 17 12 10 13 17 17 15 18 19 16 16 14 14 17 20 20 20 18 19 20 20 20 21 20 21 21 19 18 18 18 18 18 18 17 16 16 15 15 15 15 15 15 14 13 14 13 12 11
4 6 8 10 10 10 11 12 12 11 10 10 7 9 16 15 10 8 9 11 13 13 15 17 18 21 18 16 19 22 23 23 21 21 22 21 21 21 20 20 20 20 19 18 18 18 18 18 18 18 17 16 16 15 15 16 16 15 14 14 14 14 13
7 8 10 10 10 10 11 11 12 13 13 15 16 14 13 13 10 7 6 9 11 12 13 16 19 22 23 20 19 20 21 22 22 23 23 22 21 20 20 20 19 20 20 19 18 19 19 18 17 18 19 18 16 16 16 15 16 16 16 15 15 15 14
9 8 8 9 9 9 11 12 12 14 14 14 16 17 16 14 12 8 5 7 9 8 9 11 14 17 20 19 16 17 20 21 22 24 24 23 21 19 19 19 19 19 20 19 18 18 19 20 18 17 19 20 18 17 17 16 16 16 16 16 16 16 15
9 9 9 10 10 9 10 12 13 15 15 14 14 15 16 16 14 11 8 5 4 6 7 8 9 9 12 13 14 18 23 24 24 24 24 24 23 21 20 20 19 19 19 20 19 18 18 20 20 19 18 19 20 18 18 19 17 17 17 16 16 16 16
9 9 10 10 10 10 11 12 14 15 16 16 15 14 15 15 13 12 12 11 7 3 3 1 3 6 10 12 14 20 25 25 25 25 23 21 21 20 18 18 18 19 20 20 19 19 18 18 20 21 20 19 20 19 19 19 19 19 19 18 17 17 17
11 11 11 11 11 11 12 11 12 15 16 16 16 15 15 14 12 10 10 11 12 9 7 8 7 5 8 10 13 21 25 22 19 20 18 17 18 19 19 18 17 18 19 21 21 19 19 19 19 21 21 20 20 20 19 20 21 20 20 20 19 18 18
12 12 12 12 12 12 12 11 12 14 16 16 16 16 15 13 12 10 9 10 13 12 9 10 10 8 7 8 8 12 17 14 9 8 8 8 8 9 10 13 15 15 14 17 20 20 19 19 19 19 21 21 20 20 20 20 20 21 21 21 21 20 19
12 12 12 13 13 12 12 12 13 15 16 16 17 16 15 13 12 12 11 11 12 12 12 11 10 10 10 9 9 9 8 9 10 9 10 12 13 13 12 9 11 13 13 13 15 18 20 20 19 19 19 21 21 21 21 20 20 21 23 23 22 22 21
11 12 12 12 12 12 12 13 14 15 15 16 16 16 15 14 13 13 13 13 12 12 13 11 8 9 12 13 14 16 15 13 13 12 12 12 10 11 13 14 13 11 12 12 12 11 15 18 19 19 19 20 21 21 21 21 21 22 24 25 25 24 22
10 11 11 11 11 11 12 13 13 14 15 15 15 15 14 13 12 12 12 12 13 13 13 12 9 9 13 15 17 19 19 15 12 14 15 13 9 8 10 12 13 11 12 14 15 13 10 12 15 17 19 19 20 21 22 22 23 24 25 26 28 27 26
9 10 11 11 11 11 11 13 13 14 14 14 14 14 14 12 12 12 10 9 10 11 11 11 10 11 14 15 16 18 19 16 15 16 16 10 5 5 8 10 11 11 10 13 17 18 15 14 15 16 17 18 19 20 21 22 24 25 27 28 29 30 30
9 9 10 10 10 10 11 13 13 13 13 13 13 13 13 12 11 10 9 9 10 9 9 8 9 12 15 16 16 17 17 16 15 14 13 10 7 6 8 9 9 11 11 11 16 19 19 19 20 20 20 21 21 21 21 22 23 24 26 29 30 31 32
7 8 9 9 9 10 11 12 13 12 11 11 11 12 12 12 11 10 10 10 11 10 9 7 9 12 14 15 16 17 16 16 15 12 11 11 10 7 5 5 6 8 11 13 15 18 21 21 21 22 23 24 23 22 22 23 24 23 24 27 30 32 33
6 7 8 8 9 10 11 12 12 11 9 9 10 11 11 10 10 10 9 10 11 11 10 9 10 12 12 13 14 14 14 15 15 12 11 12 10 7 6 7 6 6 9 12 14 17 20 22 23 23 23 24 25 26 25 24 24 25 25 25 27 30 33
6 7 7 8 9 10 11 11 11 10 9 8 10 11 10 9 8 8 8 9 10 10 10 11 11 11 10 10 11 11 11 11 12 11 9 10 9 7 8 10 9 8 9 11 12 14 16 20 23 25 25 25 26 28 29 27 26 26 27 27 27 27 31
7 7 8 8 9 10 11 11 10 9 8 8 10 11 10 9 8 8 8 8 9 9 9 9 10 10 9 9 9 8 7 6 8 9 8 9 9 8 8 8 9 9 10 11 12 13 14 16 18 20 21 23 24 26 28 27 26 25 27 28 28 28 30
7 7 7 8 10 10 10 9 8 8 8 9 11 11 10 9 9 8 8 8 8 8 8 8 9 8 8 8 8 7 6 6 7 9 9 9 9 9 8 8 9 9 10 11 13 15 16 15 16 17 18 18 20 23 24 24 24 24 25 27 28 28 29
6 6 6 9 11 9 8 8 8 9 10 11 11 11 10 9 9 9 9 9 8 8 8 8 8 7 7 8 8 8 7 7 8 10 11 10 10 11 10 9 10 10 10 10 12 15 17 17 16 17 18 18 18 19 21 24 25 23 22 24 26 28 29
6 6 6 8 9 8 7 8 9 10 11 11 11 11 10 10 10 9 9 8 8 8 9 9 8 8 7 8 9 9 9 8 8 9 9 9 10 12 12 12 12 12 12 12 12 13 15 17 17 17 18 17 17 18 19 18 16 14 15 16 19 24 27
6 5 7 7 7 8 8 9 9 10 10 11 11 11 11 11 11 10 9 8 8 9 9 9 8 8 8 8 9 9 9 9 10 10 10 10 10 12 14 15 14 14 14 15 15 16 18 19 18 18 17 17 17 18 17 15 14 15 17 18 19 21 23
6 6 7 8 8 10 10 10 10 10 11 11 11 11 11 11 11 10 9 9 9 9 9 9 9 9 8 9 9 8 8 9 11 12 13 13 12 12 14 15 16 16 16 15 16 18 19 18 17 17 16 16 16 16 16 18 20 21 23 26 27 26 22
6 6 8 8 9 11 11 11 12 12 12 12 12 13 12 12 11 10 10 10 11 11 10 10 10 9 9 9 9 8 9 10 11 13 14 14 14 14 14 15 16 16 16 15 15 17 17 16 16 15 15 14 14 14 15 19 23 25 25 24 25 25 23
5 6 7 8 9 10 11 12 13 14 14 14 14 14 13 13 13 13 12 12 12 12 12 12 11 11 10 11 10 10 10 11 12 13 14 15 15 15 16 16 17 17 17 16 15 16 16 15 15 14 15 14 14 14 15 17 21 24 25 23 22 23 22
5 6 7 7 9 10 11 12 12 13 15 15 16 15 14 14 14 14 14 14 14 14 13 13 13 13 12 12 12 12 12 12 12 13 13 14 15 16 18 18 18 19 19 17 16 15 16 16 15 14 13 12 12 13 14 16 20 23 22 21 21 21 20
5 6 7 8 9 10 11 11 12 13 14 15 16 16 16 16 15 15 15 16 16 15 15 15 14 14 14 14 14 13 13 13 13 13 13 14 15 16 17 17 18 19 19 18 16 15 15 13 11 9 10 12 14 14 14 15 17 19 20 21 21 20 18
4 5 6 8 9 10 10 11 12 13 15 16 16 16 17 17 17 17 17 17 17 17 17 16 16 15 15 15 15 14 14 13 13 13 14 14 14 15 15 16 17 18 18 16 14 13 11 10 10 11 13 16 16 15 15 16 15 15 16 15 13 11 11
4 5 6 7 8 9 9 10 12 13 15 15 16 16 16 17 17 17 17 17 17 17 17 17 17 17 17 16 16 15 14 14 14 14 14 14 14 15 16 16 17 17 17 16 15 15 16 18 21 22 22 22 22 19 18 19 18 17 17 15 12 11 11
5 6 6 7 8 9 10 11 12 13 15 15 15 16 16 16 16 16 16 16 16 17 17 18 18 18 17 17 16 15 15 15 15 15 15 15 16 17 18 20 21 21 23 23 23 24 25 27 29 30 28 28 28 25 22 23 24 23 24 24 23 23 24
6 7 8 9 9 9 10 11 12 13 14 14 15 15 16 16 17 17 17 16 17 17 18 19 19 18 18 17 17 17 18 18 17 17 17 17 18 18 19 21 22 24 26 28 29 29 29 29 31 30 27 26 27 26 25 25 25 26 26 26 26 26 26
7 8 10 11 11 11 11 11 11 13 13 14 15 15 16 17 17 17 18 18 18 19 19 19 19 19 19 19 19 19 19 19 19 19 18 18 18 18 19 20 22 23 24 24 25 26 25 26 27 26 24 24 26 26 26 24 23 23 24 24 23 23 24

ECMWFFLT1_925_spd_081.txt.gz
Wind_Speed
9 8 6 5 4 4 4 5 5 11 15 17 20 21 16 13 17 24 31 34 30 29 29 25 25 27 25 24 22 21 23 21 19 18 16 17 18 17 18 18 17 16 16 16 15 15 14 12 14 14 13 14 13 10 10 10 10 9 9 9 9 9 8
7 8 8 8 7 6 6 6 4 11 17 15 19 22 20 20 23 25 28 32 31 30 29 26 25 27 26 25 23 22 22 21 20 19 17 16 17 17 17 17 18 17 16 16 15 15 14 13 14 14 14 14 13 11 10 10 11 10 9 9 9 9 8
4 4 5 7 5 4 8 6 3 9 17 17 19 23 23 25 27 27 28 30 30 29 29 26 25 27 26 26 25 23 22 21 21 21 20 18 18 17 17 17 18 17 16 15 15 15 15 13 14 15 14 14 14 12 11 11 11 10 9 9 9 9 8
4 3 3 5 4 4 7 11 10 10 13 16 21 24 24 26 30 29 28 29 30 30 30 27 25 26 26 26 25 24 23 22 22 21 21 20 19 17 17 17 18 18 18 17 15 16 16 14 14 15 15 14 14 14 12 11 11 11 11 10 9 9 8
6 4 4 5 4 3 2 6 6 8 16 17 16 22 24 25 28 28 27 28 28 29 30 28 26 26 26 26 25 24 24 24 22 22 21 21 20 19 18 18 18 18 18 18 16 15 17 16 14 15 16 14 13 15 15 12 11 11 12 12 10 9 8
5 5 5 4 3 3 2 5 13 20 21 15 12 16 21 24 25 24 25 27 26 25 27 28 27 25 24 24 24 23 22 24 23 22 21 20 19 20 20 19 19 19 18 18 17 16 16 17 17 17 17 15 14 15 16 14 13 12 11 11 11 9 8
6 5 5 3 4 4 6 12 16 15 15 18 18 16 19 22 22 19 19 24 26 24 25 27 25 24 24 23 23 22 21 22 24 22 21 20 20 20 21 20 19 19 18 18 18 18 16 16 18 19 17 16 15 15 15 15 14 14 13 12 11 10 9
7 4 2 4 7 7 10 15 15 11 10 14 15 13 15 17 17 16 14 17 23 23 22 21 20 19 21 21 23 24 21 19 22 24 22 20 19 19 20 20 19 19 20 19 18 19 18 17 18 19 18 17 17 16 16 16 15 15 14 14 13 12 11
7 6 6 7 9 9 12 15 13 11 9 9 9 9 10 11 11 13 12 12 17 19 18 17 16 17 18 18 19 23 23 19 19 23 23 22 21 19 19 20 20 19 19 19 19 19 19 19 19 18 18 18 18 17 17 18 18 16 15 16 15 13 12
5 8 9 10 10 10 13 15 12 9 7 6 8 8 8 9 8 10 11 12 13 14 14 14 16 20 20 16 12 15 18 19 19 20 20 18 13 10 11 15 19 21 20 19 20 20 20 20 21 20 18 19 19 18 17 18 18 18 17 16 16 16 14
6 7 9 10 10 10 10 11 11 9 8 8 8 7 9 11 10 9 8 9 9 8 9 9 10 13 15 12 10 9 7 7 7 8 8 5 5 10 9 9 11 16 21 21 20 20 21 21 21 22 21 20 20 19 18 18 18 19 19 17 16 16 15
6 7 8 10 9 8 8 9 11 11 9 9 10 11 13 15 15 13 10 6 4 2 1 2 3 5 6 7 10 9 7 6 1 1 6 8 7 10 12 11 11 13 16 23 23 20 21 23 23 22 23 23 22 21 20 18 17 17 18 19 17 16 16
7 6 7 8 8 7 8 8 11 13 13 13 14 13 14 16 18 18 16 14 12 10 9 6 2 2 2 2 3 4 6 8 5 3 7 11 13 14 15 17 15 11 13 17 25 24 22 24 26 25 24 23 24 24 23 21 20 19 18 19 18 17 17
9 9 8 8 8 8 8 8 9 12 14 15 17 17 15 15 17 19 18 18 16 15 15 13 8 7 9 10 8 6 4 6 6 5 6 9 14 16 15 16 18 15 12 14 20 28 26 23 26 28 27 25 24 24 24 23 24 23 22 20 19 19 19
11 11 10 10 9 7 7 7 8 12 13 12 14 16 17 16 16 17 18 18 17 15 16 16 14 13 14 16 14 11 7 5 3 2 3 5 9 13 15 13 13 16 14 13 13 22 25 23 24 26 29 28 25 25 25 25 25 25 25 25 24 23 22
12 11 11 10 9 7 7 7 8 12 14 12 11 13 14 16 17 18 17 16 16 16 16 17 16 16 19 19 18 15 12 10 7 5 3 1 3 6 9 10 10 14 15 12 10 13 17 19 19 21 27 30 28 26 26 26 25 25 26 27 27 26 26
11 11 12 11 10 8 7 7 8 11 12 11 12 14 15 16 17 19 18 16 16 18 18 18 17 18 19 19 18 16 14 11 9 7 6 4 2 3 6 7 9 13 14 13 11 11 11 14 14 13 18 26 30 30 28 28 27 26 26 27 28 28 28
9 10 11 11 10 9 8 8 9 10 11 12 12 14 16 16 16 17 18 17 18 19 17 18 19 18 18 17 17 16 15 11 10 9 8 6 4 0 4 7 10 12 13 12 12 11 10 11 11 10 10 14 21 25 27 28 28 27 27 26 27 29 29
10 10 11 10 9 8 8 8 10 11 13 14 14 13 13 14 16 18 17 16 18 20 20 19 18 18 18 17 16 15 15 12 11 12 11 8 5 3 3 5 7 8 8 8 8 10 11 11 12 13 12 11 12 14 17 20 22 24 26 26 27 28 30
10 10 11 10 8 7 8 8 10 12 15 15 14 14 13 13 17 18 16 14 15 18 22 21 19 17 17 16 15 15 14 13 11 13 14 11 7 4 5 7 5 5 5 5 7 8 10 12 14 15 15 15 14 14 14 14 14 16 19 24 28 30 31
9 9 9 8 7 7 8 8 8 11 16 15 13 14 15 14 14 17 17 16 16 18 20 20 19 17 16 15 15 14 14 12 11 12 13 12 9 6 5 6 4 3 3 5 6 7 9 12 14 15 15 16 17 18 19 19 17 15 14 16 20 25 31
7 8 9 9 9 9 9 8 8 11 16 15 13 12 13 13 13 14 14 15 16 18 18 17 16 15 14 14 14 13 13 12 10 10 10 10 9 7 7 6 5 4 4 5 6 7 9 11 12 13 15 15 16 18 20 22 22 21 19 17 17 18 22
7 10 13 15 14 12 9 8 9 13 17 15 13 10 10 11 12 12 12 12 13 15 15 15 15 13 12 11 10 10 10 9 8 8 6 5 5 6 6 6 6 6 5 6 6 7 8 10 12 12 13 14 15 16 18 20 20 21 22 21 20 18 18
12 15 16 16 15 12 9 9 12 16 17 14 13 12 12 12 12 12 12 13 13 14 15 15 13 11 11 11 9 9 8 8 8 6 5 5 6 7 6 6 6 5 5 6 6 6 7 9 11 12 12 12 13 13 14 15 15 17 20 22 23 23 22
14 18 17 14 12 11 11 12 15 18 17 14 14 15 14 13 13 13 11 11 12 14 15 14 11 9 9 9 8 8 7 7 8 8 8 9 10 9 9 9 8 8 7 8 8 7 7 8 10 11 11 11 11 11 11 12 14 18 22 23 24 26 29
14 17 15 12 11 13 15 15 15 16 16 15 15 15 14 13 12 12 10 9 11 12 12 11 9 7 7 7 7 7 7 7 8 9 10 12 13 13 12 11 10 10 10 10 10 9 9 8 9 10 11 10 10 10 12 16 19 22 22 21 22 24 25
16 16 15 14 15 16 16 15 15 15 15 15 15 15 14 13 11 10 9 9 10 11 10 8 7 6 5 6 7 8 7 7 8 9 11 12 13 15 15 14 13 13 12 11 11 11 11 11 11 12 13 13 11 11 16 20 21 21 20 19 19 22 22
16 15 15 17 17 15 15 15 14 13 14 14 14 14 13 12 10 9 10 11 11 11 10 8 7 8 7 7 8 8 7 8 8 10 12 12 13 15 17 16 16 15 15 14 14 14 14 14 14 14 15 15 13 13 16 19 20 19 19 18 20 22 23
14 13 14 17 16 14 13 14 12 11 13 14 13 12 11 11 12 11 12 13 12 10 10 9 9 10 9 9 9 9 9 10 11 13 14 13 13 14 16 16 16 16 16 16 16 16 16 17 17 16 16 16 15 14 15 17 17 17 18 19 20 21 22
14 13 13 15 15 12 11 11 10 10 12 12 12 11 12 12 12 11 12 12 11 10 10 10 10 10 10 11 11 11 11 12 14 15 16 15 14 14 15 15 16 16 16 17 17 17 18 19 18 17 16 16 17 16 14 14 14 15 16 17 18 19 20
14 13 13 14 13 11 9 9 8 9 10 10 10 10 11 11 10 10 10 10 9 9 10 10 10 10 11 12 12 13 14 14 15 16 16 16 15 15 15 15 16 17 17 17 18 18 19 20 21 20 18 17 16 14 11 10 11 12 13 14 15 15 17
14 13 13 12 11 8 7 7 7 8 9 9 10 9 9 9 9 8 8 8 8 8 9 9 10 10 11 12 13 14 15 16 17 17 17 17 17 18 18 18 18 19 19 19 19 20 20 20 19 17 15 13 11 10 11 13 15 15 16 16 16 16 16
13 12 10 8 6 6 6 6 7 8 9 9 9 9 9 9 9 8 9 9 9 9 9 10 10 11 11 12 13 14 15 16 16 16 16 17 18 19 19 18 17 18 18 16 15 16 16 14 13 11 12 13 14 15 16 17 18 18 20 20 18 17 17
11 10 8 5 4 5 5 6 8 8 8 9 9 10 10 10 10 10 10 10 10 10 10 10 10 11 12 12 13 13 14 15 16 16 18 19 19 20 21 21 20 20 20 19 18 18 18 19 20 20 18 18 19 20 21 21 19 20 21 21 19 18 17
8 6 4 3 3 5 6 6 6 7 7 8 9 10 10 10 10 11 11 11 12 12 12 12 12 12 13 12 12 13 14 15 17 19 20 21 21 22 23 23 23 24 25 24 24 23 24 25 27 27 26 25 24 23 23 23 23 22 22 23 23 23 23
7 5 4 3 5 6 6 5 4 5 6 8 9 11 11 12 12 13 13 13 13 14 14 15 14 13 13 13 13 13 14 16 17 18 19 20 21 22 23 23 23 24 24 25 25 25 26 27 28 29 28 28 28 25 24 26 27 25 24 26 27 27 27
7 5 5 6 6 5 5 5 4 6 7 9 10 11 12 13 14 15 15 14 14 15 15 15 16 15 14 14 14 15 15 16 16 18 19 20 21 22 24 26 25 24 24 24 24 24 24 24 25 25 24 25 28 29 28 28 27 26 26 27 26 26 25
7 6 6 6 4 5 4 6 8 9 10 10 11 12 13 13 14 14 14 15 15 16 16 16 16 16 16 16 16 16 16 17 17 18 19 20 21 22 23 25 26 27 27 25 24 23 24 24 25 25 24 25 28 30 30 30 30 29 29 27 25 25 25

ECMWFFLT1_925_spd_084.txt.gz
Wind_Speed
8 5 5 5 5 6 7 12 20 24 25 27 29 31 31 32 33 34 35 36 36 34 33 32 31 30 29 28 28 27 27 24 20 20 20 19 20 20 17 17 18 18 18 18 17 16 14 13 13 12 12 11 11 9 9 10 10 11 11 10 9 9 9
7 5 5 4 4 4 7 10 7 12 16 22 28 31 29 30 32 33 34 36 36 35 34 33 32 32 31 29 28 27 28 27 23 20 19 19 21 21 19 18 17 17 17 16 16 15 14 14 14 12 12 12 12 10 9 10 11 11 11 10 10 10 10
6 4 2 5 4 3 12 18 14 12 12 17 25 30 30 30 32 34 33 34 35 34 34 34 33 32 31 30 28 27 27 27 25 21 19 19 20 19 19 18 18 17 16 15 15 15 14 14 14 13 13 13 13 12 10 10 11 11 11 10 10 11 11
3 4 6 7 6 6 15 18 11 10 14 20 24 27 29 32 34 34 34 34 33 33 33 33 33 32 31 30 29 27 26 27 26 22 19 19 19 18 18 18 17 17 17 16 15 16 16 14 14 14 14 14 13 13 12 11 10 11 11 10 10 11 12
7 9 9 7 7 5 9 15 17 18 20 21 21 22 27 33 34 33 33 34 33 33 34 33 33 32 31 30 28 27 26 25 25 23 21 19 18 17 18 18 17 17 18 18 16 16 17 17 16 15 15 15 14 13 13 11 10 11 12 12 11 11 11
6 7 6 5 7 7 8 12 17 22 22 22 22 23 25 29 31 31 31 32 32 31 31 30 29 29 29 28 27 25 24 23 23 23 21 20 19 18 18 17 17 17 17 17 18 17 17 18 18 16 16 16 16 15 14 13 11 10 11 13 13 12 11
6 6 6 5 6 6 8 11 14 16 17 21 23 21 20 23 26 27 26 28 28 27 26 26 26 26 25 22 19 17 18 19 20 21 21 21 20 19 19 18 18 17 17 17 18 19 18 18 19 18 17 17 17 17 15 15 14 12 11 12 13 12 11
8 7 6 5 4 4 6 9 10 10 10 12 13 13 14 16 21 22 21 21 18 15 18 15 10 11 12 13 14 13 13 16 19 20 19 20 21 21 20 20 19 18 18 18 18 18 19 18 19 20 19 18 18 18 17 16 17 15 13 13 13 13 12
10 9 8 7 6 6 6 5 5 6 7 8 7 9 10 10 13 15 15 14 11 12 15 7 9 9 10 15 21 21 18 17 19 21 20 18 20 21 21 21 21 21 20 20 19 18 19 20 19 20 21 21 19 19 18 18 18 17 16 16 16 15 14
8 9 8 8 7 8 8 6 5 6 7 8 6 6 7 7 8 10 9 8 10 17 18 8 7 10 12 18 24 24 22 19 17 19 19 17 18 20 20 20 21 22 22 21 20 20 20 21 21 20 21 22 22 20 20 20 20 20 19 18 17 17 16
7 8 8 8 8 9 10 9 8 8 8 8 7 6 8 8 8 8 9 10 13 19 17 12 15 15 10 13 18 18 20 21 19 18 18 19 20 20 19 18 18 21 22 21 21 21 21 22 23 22 22 23 23 22 22 21 20 21 22 22 20 18 17
6 7 8 8 8 8 9 10 11 11 12 12 12 10 9 10 10 14 19 18 15 15 14 13 19 17 11 11 14 14 16 19 19 18 17 20 22 21 20 18 17 18 20 20 20 20 22 23 24 25 25 25 24 23 22 21 21 21 22 23 23 21 19
6 7 7 7 8 8 8 10 11 13 15 17 17 14 12 13 14 17 21 19 15 14 16 13 14 14 11 10 12 14 16 15 14 12 13 16 19 20 20 20 20 19 19 20 20 19 19 22 26 27 26 26 26 25 23 22 22 22 22 23 24 24 23
9 8 8 7 8 8 9 8 9 13 16 18 20 19 18 18 17 18 20 17 13 14 18 17 14 13 12 12 12 13 14 14 13 11 11 13 15 17 18 19 19 20 20 20 19 18 17 19 24 27 28 27 26 26 25 23 23 23 23 22 22 23 25
11 10 9 9 8 9 9 8 8 11 15 17 18 20 21 21 19 19 18 14 13 16 19 20 18 16 14 13 13 12 10 12 14 14 14 13 13 15 17 17 17 17 19 19 18 17 17 18 22 25 28 29 28 28 27 26 26 25 24 24 23 23 24
12 11 10 9 9 8 8 9 10 12 15 15 15 17 19 21 21 22 20 17 17 19 19 19 19 17 16 14 13 11 10 10 11 11 11 11 10 11 12 14 14 15 17 18 17 15 14 15 19 23 27 28 29 30 29 28 28 27 26 26 26 26 25
12 12 11 9 9 8 8 9 11 12 14 13 13 13 15 18 20 21 20 19 19 19 19 19 18 17 17 16 15 13 10 9 8 7 7 8 8 7 8 9 11 14 16 18 17 14 11 10 13 18 23 25 28 30 30 30 29 28 28 28 27 28 28
11 11 9 8 8 8 8 8 10 11 13 13 13 14 14 15 17 19 18 17 18 18 20 20 18 17 17 16 15 13 11 9 7 6 5 5 5 6 7 7 8 10 13 15 15 12 11 10 9 12 15 18 22 26 28 28 28 28 28 29 28 28 28
11 10 9 9 8 7 8 9 10 12 11 12 14 14 14 14 16 18 18 17 17 18 20 19 18 17 17 15 13 10 8 8 7 5 3 3 4 4 5 5 5 6 7 9 11 11 11 11 10 9 10 12 14 17 21 23 25 26 26 27 27 28 28
10 10 10 9 8 8 10 10 11 12 14 15 17 17 15 15 15 17 19 19 19 19 19 18 18 17 17 16 12 8 7 8 7 5 3 2 2 2 2 2 2 2 1 3 5 7 8 9 9 9 9 9 10 12 14 17 19 22 24 25 25 26 27
10 11 9 8 6 7 9 11 12 13 14 16 18 18 17 15 15 16 18 19 19 18 18 18 17 17 17 16 13 10 8 7 6 6 5 5 5 3 2 2 3 3 3 2 1 2 4 5 7 8 8 9 9 10 12 14 16 18 20 22 22 22 24
9 9 8 7 7 8 10 12 12 13 12 12 16 18 17 17 16 15 15 16 16 15 15 16 15 15 15 14 12 10 8 6 5 5 6 7 7 6 5 4 3 3 3 3 2 2 1 1 5 7 7 8 8 10 12 15 17 18 19 20 20 20 21
11 11 10 11 12 14 16 14 13 15 15 13 15 16 16 18 19 17 15 15 15 14 13 13 13 13 13 12 11 10 8 7 7 7 8 9 9 8 7 6 5 5 4 4 4 3 3 3 5 7 7 7 8 10 13 15 16 16 16 16 16 17 18
15 15 14 15 17 19 19 17 18 20 19 17 16 15 13 13 17 18 17 15 14 13 13 12 12 11 11 11 11 11 10 10 10 9 9 10 11 10 10 9 8 7 7 6 6 6 5 5 6 8 7 6 7 9 12 15 14 12 12 13 14 15 16
15 16 17 19 21 21 20 21 22 22 21 19 17 14 12 10 12 16 17 15 14 14 14 13 12 11 10 10 11 10 10 10 11 11 11 12 12 12 12 12 11 10 9 9 8 8 8 7 7 10 10 8 8 9 11 13 13 11 12 13 14 16 17
14 17 19 21 22 22 21 22 23 22 21 19 16 13 12 10 10 12 14 14 15 15 15 13 12 10 9 10 11 10 10 11 12 12 13 13 14 13 13 13 13 13 12 12 11 11 10 9 9 11 13 11 9 10 11 13 14 14 14 14 15 16 17
19 20 20 20 21 21 22 22 22 21 19 17 14 13 12 11 12 12 12 13 14 14 13 11 10 10 10 10 11 11 11 12 12 13 14 14 14 14 12 12 13 13 14 14 13 13 13 12 11 13 15 14 12 12 12 13 14 14 14 14 15 15 16
20 20 20 19 19 19 20 20 20 19 17 15 14 13 13 13 14 13 12 12 13 12 10 10 9 9 10 10 11 11 12 13 13 14 15 15 15 15 14 13 12 13 14 14 14 13 14 15 15 16 17 16 14 13 13 12 13 14 14 13 13 13 14
18 18 19 19 18 17 18 19 18 17 17 15 14 13 12 13 13 12 11 11 10 8 8 9 9 9 10 10 11 12 12 13 14 15 15 15 16 16 16 15 14 14 14 15 15 16 17 17 18 18 18 18 17 16 15 13 12 12 12 12 11 11 12
19 19 18 19 18 16 16 18 16 15 15 14 13 12 10 11 12 11 10 9 8 6 7 8 8 8 9 10 11 12 13 14 14 15 15 15 16 17 17 17 17 16 16 17 18 18 18 18 18 17 18 18 18 17 14 11 10 11 12 12 12 12 13
20 20 19 18 17 15 14 15 14 13 12 11 11 11 9 9 9 9 8 8 7 6 7 8 8 8 9 10 10 12 13 14 15 15 15 15 15 16 17 17 17 18 17 18 18 17 17 17 16 15 15 15 15 15 12 10 12 15 16 16 15 15 16
19 20 19 17 15 13 13 13 12 12 10 9 9 9 8 8 8 8 8 8 7 7 8 8 8 9 10 10 11 12 14 15 16 17 17 16 16 16 16 16 17 18 18 18 18 19 19 18 17 17 18 18 18 18 18 18 19 21 21 21 18 17 16
17 18 17 15 14 13 12 12 11 9 8 7 7 7 7 7 8 8 9 9 9 9 9 9 10 10 11 12 12 12 14 16 17 18 18 18 18 19 19 18 18 19 19 20 20 20 20 20 20 20 21 22 23 23 24 24 24 24 24 23 20 18 18
17 17 16 14 14 13 12 11 9 7 6 7 7 7 7 8 8 9 10 10 11 10 10 10 11 11 11 11 12 13 14 16 17 18 19 20 20 21 21 21 21 21 21 20 19 19 20 21 22 22 22 23 24 25 26 26 26 25 24 23 21 21 22
18 17 16 15 15 13 11 8 7 6 7 8 8 7 6 7 8 8 9 10 10 10 10 11 11 10 10 11 12 13 14 15 16 17 18 19 20 21 21 21 21 22 22 21 19 19 20 22 23 23 23 24 24 23 24 27 27 25 23 22 23 24 26
18 17 17 16 14 11 8 6 7 9 10 9 8 6 5 5 6 8 8 8 8 10 10 11 11 11 11 12 12 13 14 15 16 16 17 19 20 21 22 22 21 20 21 21 21 20 19 20 21 22 23 25 26 24 24 26 27 25 23 23 24 25 27
19 18 18 16 12 10 9 9 10 12 10 8 6 5 5 5 6 6 6 7 8 9 10 10 11 11 12 13 14 14 15 16 17 17 18 19 20 21 23 23 23 22 21 20 20 20 20 20 22 22 21 22 24 24 24 25 25 25 25 25 25 25 24
20 20 17 14 14 15 14 13 11 9 7 6 6 5 5 5 5 5 5 6 7 8 9 9 10 11 12 14 15 14 15 17 17 18 19 20 21 22 23 24 24 24 24 23 21 20 20 21 21 21 20 20 21 23 24 24 24 25 26 26 26 25 24

ECMWFFLT1_925_spd_090.txt.gz
Wind_Speed
6 5 4 4 7 9 12 17 21 22 23 26 27 28 29 29 29 29 30 31 32 32 32 31 30 30 28 27 26 24 24 22 19 16 16 16 17 17 16 14 13 12 12 12 13 13 12 10 9 9 9 9 8 7 7 8 8 8 7 7 7 7 6
6 6 5 4 5 6 11 17 20 22 24 25 26 27 28 29 30 31 31 32 33 33 33 32 31 29 27 25 25 25 25 23 20 17 16 17 17 17 17 16 15 13 12 11 11 12 13 12 10 10 9 9 9 8 8 8 8 8 8 8 8 8 8
6 5 5 5 4 4 8 14 18 20 23 24 25 26 28 31 32 34 34 33 34 33 32 31 30 29 27 25 25 26 26 24 20 18 17 18 18 17 16 16 16 15 13 12 11 11 12 12 11 10 9 9 9 9 8 8 8 8 8 9 9 9 9
9 7 6 5 5 5 8 13 17 19 21 23 25 27 30 33 34 35 34 33 33 32 31 31 30 29 27 25 26 27 27 25 21 19 18 18 18 17 16 16 16 15 14 13 11 11 11 11 11 11 10 10 9 9 9 8 9 9 8 9 10 10 10
12 9 7 6 5 4 5 10 15 18 19 20 23 25 26 28 28 26 25 25 25 26 27 28 28 28 28 27 26 27 28 27 23 21 20 19 18 17 17 16 16 16 15 14 13 12 11 11 11 10 10 10 10 10 10 10 10 9 9 10 10 10 11
11 10 8 6 6 5 5 7 10 12 15 18 20 20 20 21 21 20 20 21 22 23 24 24 25 27 28 28 27 28 28 27 25 23 22 20 19 19 18 17 17 16 15 14 14 13 13 12 12 12 11 11 11 11 11 11 11 11 10 10 10 11 11
9 10 10 7 6 6 6 7 8 8 11 17 18 18 18 20 21 21 21 22 24 24 23 24 25 27 27 28 28 27 28 28 27 25 23 22 21 21 20 19 17 16 15 14 15 14 14 14 13 13 12 12 12 12 12 12 12 11 11 11 11 11 11
5 5 6 6 6 6 7 9 11 11 11 14 16 18 19 21 22 23 23 24 26 26 24 24 25 27 27 27 28 28 28 28 27 26 24 23 23 22 22 20 18 15 14 14 14 14 15 15 14 14 14 13 12 12 13 13 13 12 12 12 12 12 11
4 4 5 5 6 6 9 12 13 15 15 15 16 19 20 21 21 22 21 22 24 26 26 26 26 26 26 27 27 28 28 27 26 26 25 24 24 23 23 22 19 16 15 15 14 14 15 15 15 14 14 14 13 13 13 14 14 14 14 13 13 13 12
5 6 6 6 6 7 10 13 14 15 16 17 17 18 18 17 17 18 18 19 21 24 26 27 27 27 25 25 26 26 26 26 25 25 25 24 24 23 23 23 21 19 17 17 16 16 16 16 16 15 15 15 15 15 14 14 14 14 15 15 14 14 14
6 7 7 7 7 7 9 10 9 10 13 16 17 17 16 15 16 17 18 22 25 25 26 27 30 29 26 24 23 23 24 24 24 24 24 24 23 22 22 22 22 21 19 18 18 17 17 17 17 17 17 17 16 16 15 15 14 15 15 16 15 15 14
6 6 7 7 7 7 8 8 8 7 8 10 13 15 17 18 19 21 23 25 26 26 26 28 30 28 24 21 19 21 22 22 22 22 21 21 21 22 21 20 20 20 20 20 19 18 18 18 19 19 19 18 18 17 16 16 16 16 16 16 16 16 16
6 6 6 7 7 7 7 8 8 7 7 8 10 14 19 22 25 27 27 26 24 24 26 26 27 25 24 24 22 21 22 22 21 20 18 16 15 16 18 18 19 19 19 19 18 18 18 18 18 18 18 19 19 19 18 18 18 17 17 17 18 18 18
8 8 7 7 7 7 7 6 6 7 8 9 10 12 17 23 25 25 24 22 22 22 22 22 23 21 22 24 23 22 23 24 23 22 21 19 16 14 14 15 17 18 18 18 17 16 16 16 17 17 17 18 19 19 19 19 19 20 19 19 19 20 20
9 8 8 8 7 7 7 5 4 5 8 9 10 10 12 14 17 17 18 18 18 19 17 16 16 16 16 17 17 18 20 20 19 18 18 20 20 18 16 15 16 18 19 19 17 16 16 15 16 15 15 16 17 18 18 19 20 20 21 21 22 22 22
9 8 8 8 7 6 6 4 3 6 9 10 10 9 7 7 9 12 14 14 13 12 11 11 13 13 13 13 14 15 13 12 13 12 11 14 16 17 16 14 14 16 18 19 19 18 17 16 16 17 17 17 17 18 19 19 20 21 21 22 23 24 24
8 7 7 7 6 5 4 4 5 6 9 11 12 11 11 11 11 11 12 10 7 5 4 7 9 9 9 9 11 13 10 8 9 9 9 10 11 10 10 10 10 13 15 16 17 17 16 16 16 16 16 16 17 18 19 20 21 21 22 22 23 24 24
7 7 7 6 6 5 3 4 5 7 9 11 12 13 13 14 15 12 8 5 6 8 8 8 10 11 10 8 7 8 9 8 7 8 9 9 8 6 5 5 6 9 11 11 11 12 13 13 13 12 12 13 13 14 16 17 19 20 22 22 22 22 24
8 7 7 6 6 5 4 5 7 9 11 12 13 14 14 14 16 14 11 9 11 14 16 16 18 18 15 14 15 14 14 14 13 13 12 10 9 8 6 5 5 4 4 4 5 8 9 10 10 9 8 9 9 9 9 10 12 15 18 21 21 22 22
7 7 6 6 6 6 6 7 9 12 15 15 15 16 17 17 18 18 17 17 18 19 22 23 22 21 19 18 18 16 16 15 14 13 11 9 8 8 7 7 6 4 3 3 3 4 5 5 5 4 4 5 5 5 4 4 6 9 11 13 17 19 20
7 8 7 6 5 6 8 10 11 14 16 17 16 17 19 19 20 22 23 24 24 24 25 25 24 23 22 20 18 17 17 15 15 14 13 11 10 8 8 8 6 3 1 1 2 2 2 2 2 1 1 2 3 5 5 5 6 7 6 6 8 11 14
7 8 7 7 7 8 11 12 14 15 16 17 17 18 19 20 22 24 26 27 26 26 25 25 24 23 22 20 18 17 17 16 16 16 14 13 12 11 11 10 7 5 2 1 0 1 2 1 1 1 1 0 2 5 7 7 6 5 5 5 5 6 9
8 9 9 11 12 13 15 16 16 16 17 18 18 19 20 21 22 23 25 26 26 25 25 24 23 21 21 20 18 16 16 16 15 14 14 13 13 14 13 11 8 6 3 1 1 2 1 0 2 2 2 2 3 5 6 6 6 5 4 3 3 4 6
13 14 14 14 16 16 16 18 18 18 18 19 20 19 20 20 20 21 23 24 24 24 24 23 22 20 19 18 16 15 14 13 13 13 13 13 14 14 13 11 9 7 4 3 2 3 3 3 4 5 5 5 5 5 6 6 8 9 8 6 4 4 5
14 17 16 17 18 17 16 17 20 21 20 20 20 19 19 18 18 20 22 22 22 23 23 21 20 18 17 15 14 13 12 11 11 12 13 13 14 13 12 11 9 7 6 5 5 5 6 6 6 6 6 7 8 8 6 6 7 9 10 10 9 8 8
16 18 19 19 19 18 17 18 21 22 21 21 20 18 17 16 17 19 19 19 20 21 21 19 17 16 15 14 13 12 12 13 13 13 15 15 15 15 14 12 10 9 7 7 7 9 10 9 9 8 7 6 8 10 8 6 5 5 6 7 8 8 6
18 20 21 22 21 20 20 19 20 20 19 18 18 16 15 15 16 18 17 16 18 19 17 16 15 14 14 15 14 14 14 15 15 15 16 16 16 16 16 15 14 12 11 10 10 11 13 14 14 13 11 8 9 11 11 8 5 6 10 9 5 4 4
18 18 20 22 22 23 23 21 20 19 18 16 15 14 13 13 16 17 16 16 17 16 14 13 13 13 14 15 15 16 15 15 15 15 15 15 14 15 16 16 15 14 13 13 12 12 14 15 16 15 13 11 10 12 13 12 8 6 9 11 9 7 7
17 17 19 21 22 23 24 22 20 19 17 15 14 13 11 12 15 15 15 16 16 13 12 12 12 12 14 14 15 15 15 15 15 14 14 14 13 14 15 14 14 14 13 13 13 13 14 15 14 14 13 11 11 11 12 14 13 10 7 8 8 8 8
17 17 18 20 21 22 23 23 20 18 15 13 12 11 10 11 13 14 15 15 13 11 11 11 11 11 13 13 13 14 14 14 14 13 13 13 13 13 14 14 13 14 13 13 13 14 14 15 14 13 13 12 11 11 10 12 13 12 10 8 7 7 7
16 17 18 20 20 21 22 22 20 18 15 11 9 9 9 10 12 15 15 13 11 10 10 10 10 11 12 12 12 12 12 12 12 12 13 13 13 13 14 14 13 14 13 13 14 14 14 14 14 13 13 13 12 11 11 11 11 11 10 10 9 8 8
13 15 17 19 20 20 21 21 20 18 16 13 11 10 10 9 11 14 15 12 10 10 9 9 10 11 11 11 11 11 10 11 11 12 11 12 12 13 13 14 13 14 13 13 13 14 14 14 13 13 13 13 13 12 12 12 11 11 11 11 11 11 12
11 13 15 18 19 19 19 19 18 17 17 15 13 12 11 11 10 11 10 9 9 8 8 8 9 10 10 10 10 10 10 11 11 11 11 11 11 11 11 12 12 13 13 13 13 13 13 13 13 13 13 13 13 13 12 12 12 13 14 14 15 15 16
11 13 14 16 18 18 17 17 16 15 16 15 13 12 11 10 9 7 5 5 5 6 6 7 8 8 9 9 9 9 10 10 10 10 10 11 11 11 12 12 12 12 12 12 12 12 12 12 12 12 12 12 13 13 13 13 13 14 16 17 18 18 19
15 15 15 16 16 16 16 17 17 16 16 14 12 10 8 7 6 4 3 3 3 4 4 5 6 7 8 8 8 9 9 9 9 10 10 10 10 11 11 11 11 11 10 9 9 9 9 10 10 10 10 10 11 12 14 15 15 15 15 16 17 18 19
19 19 19 17 16 16 17 19 19 18 17 14 11 9 7 5 3 1 1 1 1 2 3 4 5 6 7 8 8 8 7 8 9 9 9 10 11 11 11 10 10 9 9 9 9 9 8 8 8 8 8 9 9 10 11 13 14 14 14 14 14 15 17
21 22 22 20 19 19 20 21 20 19 17 15 12 10 8 6 5 4 3 3 2 0 1 2 3 5 6 7 7 7 7 8 9 9 10 11 11 11 11 11 11 10 10 10 10 10 10 8 7 7 7 8 9 9 9 9 11 12 13 14 14 15 16
26 26 25 23 22 22 23 22 21 19 18 16 13 11 10 9 8 7 6 6 4 3 2 1 2 3 4 5 6 6 6 8 9 9 11 12 12 12 12 12 11 10 10 11 11 11 10 10 9 9 8 9 9 10 10 10 11 12 13 14 14 15 16

ECMWFFLT1_925_spd_093.txt.gz
Wind_Speed
13 12 11 9 10 11 13 17 18 17 18 19 19 20 20 19 20 21 22 25 27 26 27 27 27 27 26 25 24 22 22 21 20 18 16 14 12 11 11 11 11 10 9 9 7 7 8 7 7 7 6 6 5 5 4 4 5 5 5 5 5 4 4
11 11 10 9 10 11 13 17 17 18 19 19 19 20 19 19 21 24 24 26 28 27 28 28 27 27 26 26 25 24 23 22 21 20 18 16 14 12 12 11 12 11 10 8 7 6 7 7 8 8 7 6 5 5 4 4 5 5 5 5 5 5 5
9 9 9 9 9 9 12 15 16 17 18 19 19 19 20 22 25 28 28 28 28 27 27 28 28 28 27 27 27 25 24 23 22 21 19 17 15 13 12 11 12 12 11 9 7 6 5 6 7 8 7 7 6 5 4 4 5 5 5 5 5 5 6
8 8 9 8 8 9 11 14 15 16 17 18 19 20 23 26 26 26 25 25 26 26 27 28 28 27 28 28 28 26 25 24 23 21 20 18 16 13 12 12 12 13 12 11 9 7 5 5 6 7 7 7 6 5 4 4 5 5 5 5 5 6 6
8 8 7 7 7 7 9 12 14 15 16 17 18 18 19 21 20 20 20 21 23 23 25 26 25 25 27 27 26 26 25 23 22 22 21 19 16 14 13 13 12 13 12 11 9 8 7 6 6 7 7 7 7 6 5 5 5 6 6 6 6 6 6
9 8 6 5 5 5 5 8 10 13 14 16 18 18 17 17 17 16 18 19 21 22 23 24 23 24 27 26 25 26 25 23 22 22 22 20 17 15 14 14 13 12 12 11 10 9 8 8 7 7 7 7 7 6 6 6 7 7 7 7 7 7 6
9 8 8 6 5 5 4 5 7 9 12 15 18 19 19 18 16 16 17 19 22 22 21 22 23 25 27 26 26 26 24 23 22 22 22 21 18 16 15 15 14 13 12 11 10 9 8 8 8 7 7 8 8 7 7 7 7 8 8 8 8 8 7
9 8 8 7 6 6 6 6 7 8 11 14 17 19 21 20 20 20 21 20 20 19 19 21 24 26 26 25 26 25 24 23 22 21 22 21 19 18 17 16 16 15 14 13 11 9 8 8 8 8 7 8 8 8 8 7 7 8 8 9 9 8 7
7 7 8 7 7 9 10 10 10 10 12 13 15 19 20 20 21 24 24 23 22 20 21 23 23 23 23 23 22 22 22 22 22 21 22 21 19 18 16 15 16 17 16 13 11 10 9 8 8 8 7 7 8 8 9 9 9 9 9 9 9 9 8
7 7 8 8 7 8 10 10 10 12 15 14 14 17 18 19 22 23 24 25 25 25 25 24 22 21 20 20 18 16 16 18 20 21 21 21 20 19 16 14 14 16 16 14 11 10 10 9 8 8 8 8 8 8 9 10 10 10 10 10 10 10 10
9 8 9 9 8 8 9 10 10 11 14 15 13 15 18 19 21 21 22 24 26 27 26 23 20 20 20 20 18 16 15 16 18 20 20 21 21 20 18 15 13 14 14 14 12 11 10 10 10 10 10 10 10 9 10 10 11 11 11 11 11 11 11
8 8 9 10 10 9 9 9 8 7 10 13 14 17 21 22 24 25 25 26 27 26 25 21 18 17 17 16 16 16 16 15 15 18 19 20 20 20 19 15 13 13 13 13 13 12 12 12 12 12 12 12 12 11 11 11 11 12 12 12 12 12 12
8 8 8 8 8 8 7 7 6 4 4 8 12 15 17 19 21 22 23 25 25 23 21 18 17 17 16 18 20 19 17 15 14 14 16 17 18 18 18 16 13 12 11 12 13 13 12 12 12 12 13 12 12 12 11 11 12 12 12 12 12 13 14
9 9 8 7 7 7 7 6 5 4 3 4 7 10 10 10 13 14 14 17 18 16 14 15 18 20 18 20 23 20 15 14 14 14 15 16 16 15 15 15 15 14 13 12 12 11 11 10 10 10 10 10 11 11 10 10 11 12 12 12 12 13 14
10 10 9 8 7 7 7 5 5 5 3 2 3 5 6 8 10 9 7 8 10 10 10 12 15 17 17 18 21 19 16 15 16 17 18 17 16 14 13 13 15 16 16 15 12 11 10 10 9 9 8 9 10 10 9 10 10 11 11 11 12 13 13
11 10 9 8 7 7 8 7 6 6 5 4 3 3 5 7 8 5 5 6 9 10 11 14 16 17 18 18 20 20 18 18 18 20 20 19 18 18 16 14 12 13 15 16 16 15 14 13 12 10 9 9 9 9 9 9 10 12 12 11 12 12 12
10 9 7 6 6 7 8 8 8 7 7 6 4 4 3 2 3 7 7 8 10 11 11 14 15 16 16 15 15 16 17 18 19 20 21 21 21 21 19 16 14 14 15 15 16 16 14 14 12 11 10 10 10 9 8 8 10 13 13 13 13 13 13
9 7 6 6 6 8 9 9 9 8 8 7 7 7 6 7 10 11 9 7 8 9 9 10 10 10 11 11 13 15 16 17 17 18 19 20 18 17 17 15 13 14 14 14 14 13 10 9 9 9 8 8 9 8 6 7 11 13 13 14 14 15 15
9 8 7 6 6 8 9 9 10 9 9 10 10 11 11 12 14 13 12 11 10 11 11 10 8 8 7 8 10 12 15 16 17 18 18 16 14 13 13 13 11 10 10 9 8 8 7 5 5 5 5 5 5 4 3 6 10 11 11 12 13 15 16
10 9 8 7 7 8 9 10 11 11 12 13 14 15 18 19 18 18 18 18 17 17 17 16 15 14 14 12 11 10 10 10 11 12 12 13 15 15 13 13 11 9 8 7 7 7 7 6 5 4 3 3 4 3 3 5 8 7 8 9 10 11 13
8 9 8 7 7 9 10 11 12 12 13 14 15 16 19 20 20 20 20 21 22 22 22 22 22 21 20 19 17 16 14 12 12 13 13 14 17 17 15 14 12 11 10 9 7 7 6 6 6 5 3 2 3 4 4 4 4 4 5 6 6 7 8
7 8 8 7 9 10 11 12 13 13 14 17 19 19 19 20 21 22 22 22 24 23 23 24 24 23 22 21 19 18 16 14 13 14 14 15 16 16 15 14 12 11 10 10 8 6 5 5 5 5 4 3 3 4 4 3 2 1 1 3 4 4 4
7 8 9 9 10 12 13 14 16 17 18 21 25 25 25 25 25 25 25 26 25 24 23 23 22 22 22 22 21 19 16 14 13 13 12 12 13 13 12 11 10 9 8 8 8 8 6 6 5 5 4 4 4 3 2 1 2 3 3 3 3 3 2
8 9 10 12 13 14 14 14 17 19 21 25 27 26 24 24 24 25 25 25 24 24 23 22 20 19 20 19 19 19 17 16 15 14 12 11 11 11 11 9 8 7 6 5 6 7 6 5 5 5 4 3 3 2 2 1 2 4 4 4 4 3 2
8 9 10 11 13 14 14 14 16 18 20 22 23 22 21 20 20 22 22 21 20 20 21 20 19 19 19 18 17 18 19 18 17 17 15 13 12 12 11 10 9 8 8 7 6 6 6 5 5 5 5 4 3 3 4 3 2 1 1 2 3 3 2
7 9 10 11 12 14 15 15 16 16 16 16 17 18 21 22 23 22 20 17 16 16 16 17 15 15 17 19 19 19 19 18 17 17 16 15 15 14 13 12 11 11 11 10 9 8 8 7 8 8 7 6 6 5 6 6 5 4 2 2 2 1 2
8 8 10 11 13 15 16 15 15 15 15 16 17 19 21 23 24 23 20 18 17 16 15 17 17 15 15 17 18 18 17 17 16 17 16 16 15 15 14 14 13 13 13 12 10 11 11 11 10 10 10 10 10 9 9 8 7 6 6 6 5 5 5
8 8 9 11 13 16 17 15 15 16 15 15 17 18 18 21 23 23 22 21 19 17 16 16 17 17 16 16 15 16 16 16 15 15 14 14 14 14 14 14 14 14 14 13 13 13 14 13 11 10 11 12 12 12 11 9 7 6 7 7 7 6 6
8 9 10 11 11 14 17 16 14 14 13 12 13 13 14 18 21 21 21 21 18 16 15 14 15 16 17 16 15 15 14 15 14 13 13 12 12 12 12 12 12 13 13 13 13 13 13 13 11 9 9 10 11 11 12 11 9 8 8 8 8 7 6
7 8 10 10 10 12 15 17 15 14 13 13 13 12 12 15 18 19 19 19 17 15 14 14 14 15 15 15 14 14 13 13 13 12 12 12 11 11 11 11 10 11 11 11 10 10 9 9 8 7 7 7 8 9 10 11 10 10 10 10 9 8 7
7 7 9 10 11 12 14 15 15 15 15 14 13 13 13 14 17 19 19 17 15 14 14 13 13 14 13 13 12 12 11 12 12 12 11 11 10 10 10 9 9 9 9 9 9 8 7 7 6 6 6 6 7 8 8 8 8 8 8 9 9 9 8
10 10 10 10 12 13 13 14 14 14 15 15 14 14 14 14 16 18 17 15 13 12 12 12 12 12 12 11 10 10 10 10 10 10 10 10 10 9 9 9 8 7 7 7 7 7 6 5 5 5 5 5 6 6 7 8 7 7 8 9 9 10 9
11 11 12 13 14 14 13 12 12 12 13 14 13 14 15 16 16 17 15 13 11 10 9 10 10 10 10 9 9 8 8 8 8 8 8 9 8 7 8 8 7 7 7 6 6 6 5 5 5 5 5 5 6 6 6 6 7 9 10 11 11 12 12
12 12 13 15 16 15 13 11 11 11 12 13 13 13 15 15 15 14 12 11 9 7 7 8 8 8 7 7 6 7 7 7 7 7 7 8 7 7 7 7 6 6 6 6 6 5 5 4 4 4 5 5 5 5 5 5 6 9 11 12 13 13 13
14 14 16 18 17 14 12 12 12 12 12 13 12 12 12 12 12 10 10 9 8 7 7 8 7 7 6 5 5 6 6 6 6 6 6 6 6 6 6 6 5 4 4 5 4 4 3 3 3 4 4 4 4 4 4 4 5 7 8 9 10 11 11
15 16 18 18 17 14 12 11 12 13 13 13 12 11 10 10 9 9 8 8 8 7 8 7 6 6 5 5 4 5 5 5 5 6 6 5 5 5 5 5 4 4 3 3 3 3 3 3 3 3 3 3 4 4 3 4 4 5 5 5 7 8 9
18 18 18 18 18 16 12 11 11 12 13 13 11 9 8 8 7 7 7 6 7 7 7 6 5 5 5 5 4 4 4 4 4 4 4 4 4 3 3 3 3 3 3 3 3 3 3 3 3 3 3 3 4 4 3 3 4 4 5 5 5 6 7
17 18 18 19 19 18 16 15 15 14 14 14 12 10 8 7 5 4 4 4 4 5 6 6 5 4 4 3 3 3 2 2 2 2 2 3 3 2 2 2 2 2 3 3 3 4 4 5 4 3 2 2 3 4 4 4 5 6 8 8 8 8 9

ECMWFFLT1_925_spd_099.txt.gz
Wind_Speed
15 16 16 15 15 15 16 18 20 20 20 19 18 19 18 17 17 16 16 18 18 17 17 16 15 15 15 14 13 13 12 11 11 10 9 8 7 7 7 7 7 6 6 6 7 6 5 4 5 5 5 5 5 4 4 4 4 4 3 3 3 2 3
16 15 15 15 15 16 18 20 21 20 20 20 19 19 19 18 17 16 16 17 18 18 17 17 15 15 14 13 13 13 13 11 10 10 10 9 7 7 7 7 6 6 6 5 5 6 6 5 5 5 5 5 5 5 4 4 5 4 4 4 4 3 3
16 13 12 12 13 15 18 20 21 21 20 20 20 19 19 19 18 17 16 16 18 18 17 17 16 15 14 13 13 13 13 13 11 11 11 10 10 10 9 7 6 7 7 5 5 6 7 7 6 6 6 5 5 6 5 5 5 5 4 4 4 4 4
14 11 10 11 15 18 18 20 21 20 20 20 20 20 20 19 18 18 17 16 17 18 17 18 17 16 15 14 13 13 14 14 13 12 12 11 11 11 10 9 8 8 8 7 7 7 5 6 7 6 6 6 5 5 6 6 6 6 6 5 5 4 5
15 13 12 13 17 18 16 19 21 20 20 19 18 18 19 19 18 18 17 17 17 17 17 17 16 16 16 15 14 13 14 14 13 13 12 11 11 10 10 10 9 9 9 8 9 7 5 5 7 7 7 7 7 6 6 7 7 6 6 6 6 5 6
15 13 10 8 12 16 16 20 22 20 19 19 19 18 18 18 18 18 18 17 16 17 16 16 16 15 16 15 14 13 14 15 14 13 12 11 11 11 11 11 10 10 10 9 9 9 8 8 8 7 8 8 8 7 7 7 7 7 7 7 7 6 5
15 12 9 6 9 13 14 17 21 21 20 20 20 18 17 17 17 17 17 16 16 17 17 16 15 15 15 15 14 14 14 14 15 15 14 12 12 12 12 12 12 11 11 11 10 10 10 10 9 8 8 8 7 7 7 7 7 7 7 7 7 7 6
15 12 10 8 8 9 11 14 15 16 16 18 19 18 16 13 12 13 15 15 15 16 16 16 15 14 14 14 14 15 14 14 14 14 15 14 14 13 13 12 12 11 11 11 11 10 10 10 10 10 9 9 8 7 7 7 7 8 8 8 8 8 8
15 13 11 9 6 6 9 9 8 4 9 14 17 16 14 13 13 13 13 13 13 13 13 14 14 15 14 14 14 14 14 14 14 14 15 15 15 15 15 14 13 13 13 12 11 11 11 10 10 10 10 9 8 8 8 7 8 9 9 8 8 8 8
14 14 12 10 8 6 8 13 13 4 7 11 13 15 15 15 16 13 10 11 11 11 11 11 12 13 14 14 14 14 14 15 15 15 15 15 15 15 16 16 15 14 14 13 12 12 11 11 11 9 10 10 9 9 9 9 9 10 9 9 9 9 9
13 13 12 11 9 7 9 11 9 5 3 1 5 11 13 13 12 10 9 9 8 8 9 10 10 10 12 13 13 14 15 15 15 15 14 14 14 15 15 16 15 15 14 14 13 13 12 11 11 10 10 11 11 10 11 11 11 11 10 10 9 9 9
12 12 12 11 8 7 7 8 7 7 8 4 1 6 10 9 9 9 9 8 7 7 8 10 10 10 10 12 12 13 15 15 15 15 14 15 14 14 14 15 15 15 14 14 13 13 13 12 12 12 11 12 12 11 11 12 12 12 11 11 10 10 9
12 11 11 10 9 8 7 8 9 10 12 11 6 4 7 7 8 9 9 9 8 7 8 10 10 10 10 12 12 13 14 14 14 14 14 15 15 14 14 15 15 15 14 15 14 14 14 14 13 13 12 12 13 12 12 12 12 12 12 12 11 10 10
12 11 11 11 10 10 9 9 9 9 11 11 8 7 7 6 7 8 8 8 8 8 9 10 10 11 11 11 12 13 14 14 14 14 13 13 13 14 14 15 15 15 15 14 14 15 15 15 15 14 14 14 14 13 13 13 14 13 13 13 13 12 11
12 11 12 12 10 10 8 8 8 8 8 8 8 7 7 7 9 9 8 8 8 9 10 9 10 11 12 11 12 12 13 13 12 12 11 10 10 11 11 13 14 15 15 15 15 15 15 15 15 15 15 15 15 14 15 15 15 14 14 14 13 12 13
11 11 12 12 11 10 8 8 9 9 9 9 8 8 8 7 9 10 11 12 12 13 14 12 12 12 13 14 14 13 12 12 12 11 12 11 10 10 10 10 10 11 12 14 15 15 14 14 15 16 16 15 15 15 15 15 15 14 15 14 13 12 12
12 11 10 8 7 8 7 6 8 8 8 8 7 8 8 8 7 9 10 11 14 16 16 15 14 14 15 15 16 16 15 14 12 11 11 12 13 13 12 11 11 10 10 12 14 14 14 14 14 15 16 15 15 15 15 13 13 14 15 15 15 13 11
12 11 7 4 4 6 6 6 7 7 8 8 7 6 5 6 6 8 9 9 12 14 14 15 17 17 17 16 17 18 18 19 18 15 12 14 16 16 15 14 15 13 12 12 13 13 14 14 15 15 15 14 15 15 13 9 9 12 14 15 16 16 14
10 9 8 7 7 8 7 8 9 9 9 8 7 7 5 4 3 1 3 5 8 11 11 11 13 15 15 15 16 15 15 17 19 19 17 16 17 17 17 17 17 17 16 15 14 13 14 16 16 15 15 15 15 11 7 7 8 10 12 13 14 16 16
5 9 13 11 10 10 10 10 10 10 10 9 9 8 8 9 9 8 7 4 0 4 4 4 5 5 5 8 9 11 13 14 16 19 20 18 18 18 17 16 17 17 17 15 14 15 15 16 17 15 13 13 12 6 3 5 7 8 10 12 13 14 15
3 7 14 13 11 12 12 12 11 11 11 11 10 9 9 9 10 11 11 9 7 7 8 6 5 4 4 4 6 7 9 10 9 11 14 14 15 15 15 15 16 17 16 16 17 16 15 16 17 16 12 8 5 3 3 5 7 7 9 11 12 13 14
1 4 11 12 13 14 13 12 12 12 12 12 12 11 11 10 10 11 13 13 13 14 13 10 8 8 8 6 6 5 5 5 6 5 4 6 6 7 10 13 14 15 14 17 19 18 16 17 16 15 11 6 4 3 3 5 7 8 9 9 10 10 10
6 9 13 15 15 16 14 14 14 14 14 14 13 13 12 11 12 13 15 15 16 17 16 13 12 12 12 11 10 9 7 6 6 6 4 2 1 1 3 5 6 8 9 13 17 17 16 16 13 11 10 8 8 8 7 6 7 8 8 8 9 8 7
9 12 15 15 15 15 15 15 15 15 16 15 15 14 13 13 14 15 16 16 17 18 18 17 16 15 14 14 13 11 11 11 9 8 8 6 6 6 4 5 4 2 4 6 10 13 13 12 8 5 8 10 10 9 7 5 6 7 8 9 9 8 7
11 11 11 11 13 15 16 16 17 17 17 16 16 14 13 13 14 14 15 15 16 17 17 17 18 16 14 13 12 11 11 11 10 9 9 8 9 9 8 8 8 4 1 1 5 8 10 11 9 8 11 12 10 7 5 4 4 5 6 7 7 8 9
9 10 10 11 12 14 16 17 17 17 16 15 13 12 10 11 12 12 11 11 11 12 12 12 14 15 14 13 12 11 11 10 9 10 9 9 9 10 9 8 8 8 6 5 6 9 11 12 12 10 11 12 11 8 4 1 1 2 3 4 5 7 7
11 15 14 12 11 12 14 15 16 16 16 14 12 10 9 9 10 10 10 9 9 10 9 9 11 12 13 12 10 10 10 10 10 10 10 10 10 10 9 8 7 8 8 8 8 9 10 12 11 9 10 11 10 7 4 3 2 3 3 3 3 3 2
13 17 15 12 11 11 13 14 14 15 15 13 11 10 9 9 10 10 9 9 9 9 8 8 9 9 10 10 9 8 9 10 12 11 9 9 10 10 9 7 7 7 6 7 7 7 7 8 7 5 7 10 8 7 5 3 3 3 3 2 2 2 1
11 14 14 12 11 12 12 13 13 13 13 13 11 11 10 9 10 9 9 9 9 8 7 7 7 7 7 8 7 7 7 8 9 8 7 7 9 9 8 7 7 6 5 6 6 6 6 5 3 3 5 7 7 8 7 4 4 3 3 3 3 2 2
10 12 13 12 11 12 12 13 13 12 11 11 10 10 11 10 10 9 9 8 7 6 7 7 6 6 6 6 5 5 5 5 5 5 5 6 7 8 8 8 7 6 5 5 5 5 4 3 1 2 3 4 5 6 6 4 4 4 5 5 4 4 3
12 12 12 12 11 11 11 11 12 11 11 10 9 9 10 10 10 10 8 7 6 5 6 6 5 6 6 5 5 4 4 4 4 5 4 3 4 6 6 6 6 6 6 4 3 3 2 0 1 1 2 2 3 4 4 3 2 3 5 6 6 7 6
10 11 12 12 10 10 11 11 11 10 11 10 9 9 9 10 10 10 8 6 6 5 5 5 5 5 5 4 4 4 3 3 3 4 4 3 3 5 5 4 5 4 5 6 4 1 0 1 2 2 2 2 2 2 2 1 1 2 5 6 6 8 9
8 9 12 12 10 10 10 10 10 10 11 10 10 9 9 9 9 9 7 6 6 5 5 4 4 4 3 3 3 3 3 3 3 2 3 3 3 5 6 5 6 6 3 3 4 4 4 3 3 2 2 2 2 2 3 3 3 4 4 4 4 5 7
7 8 11 11 10 9 9 9 10 10 11 10 9 9 9 8 8 8 7 6 5 4 3 3 2 2 2 2 2 2 2 3 2 2 2 3 3 4 4 3 4 4 4 3 2 3 6 4 1 0 1 1 1 2 3 3 6 5 1 4 5 5 5
8 9 10 11 11 10 9 9 10 10 10 10 9 9 9 8 7 6 6 5 4 3 3 2 1 1 1 1 2 2 2 2 2 3 3 3 3 3 3 4 3 4 4 2 5 4 3 4 3 2 2 3 1 1 1 5 6 2 3 5 7 7 6
9 9 10 11 11 11 11 10 10 10 10 9 8 8 8 7 6 6 5 5 5 4 3 2 1 1 1 2 3 4 3 3 4 4 4 3 2 3 3 2 2 2 3 1 3 6 6 4 2 1 1 3 4 0 1 3 2 3 5 6 7 8 8
9 9 10 10 10 11 12 11 10 10 10 9 8 8 8 7 6 6 5 5 4 4 3 2 1 1 2 2 4 4 4 3 3 3 3 3 3 2 1 2 1 1 1 3 4 4 6 7 6 6 5 2 4 2 3 4 4 6 7 8 9 10 10
8 9 10 11 11 12 13 12 11 11 10 9 9 8 8 8 7 6 6 6 5 4 3 2 1 1 2 3 3 2 2 2 2 2 2 1 1 1 2 2 4 4 2 1 3 3 3 5 5 5 6 4 3 2 1 4 6 7 8 9 11 11 12

ECMWFFLT1_925_spd_102.txt.gz
Wind_Speed
12 14 14 13 13 14 14 17 20 20 21 20 20 22 21 21 24 23 22 23 22 21 20 20 19 19 18 16 16 15 14 15 13 11 11 10 9 11 11 11 11 11 11 10 10 9 8 8 9 9 8 8 7 6 6 5 6 6 5 6 5 5 5
12 12 12 12 14 14 15 19 21 20 22 21 20 22 21 22 25 24 23 24 22 21 20 20 20 19 19 18 17 16 15 16 15 13 12 11 11 12 12 11 11 11 10 9 9 10 8 8 9 8 8 8 7 6 6 6 6 6 6 6 5 6 6
11 11 11 10 11 12 14 18 20 21 23 22 21 22 21 23 24 24 25 24 23 22 21 21 20 19 19 18 18 17 16 16 15 15 14 13 12 12 11 10 10 10 10 8 9 10 8 8 9 8 7 7 8 7 6 6 7 6 6 5 5 7 6
12 11 11 10 9 11 13 17 19 20 22 23 23 22 21 24 25 23 24 24 23 23 22 21 20 19 19 18 18 17 17 16 16 15 14 13 12 11 11 10 9 9 9 8 9 9 9 10 10 9 8 7 7 7 7 7 7 7 6 6 6 7 6
14 11 7 5 4 5 9 16 19 20 22 22 23 23 21 23 24 21 22 23 23 22 22 21 20 19 19 18 16 16 16 16 16 15 15 15 14 12 12 11 9 10 10 9 10 10 9 10 11 10 9 8 7 7 7 8 8 7 7 7 7 7 7
12 7 3 2 4 6 10 16 20 20 21 22 22 23 23 23 23 21 20 21 21 21 21 21 19 19 18 17 15 15 16 16 16 15 14 15 14 13 13 13 11 11 11 11 12 11 9 9 10 10 9 9 9 8 8 9 8 7 8 8 7 8 7
10 8 7 6 6 5 8 14 22 22 20 20 20 21 22 21 21 21 20 20 20 20 21 20 19 20 18 17 16 15 15 16 15 14 14 13 12 12 12 13 13 12 11 11 12 12 11 10 10 10 10 9 9 8 8 9 9 8 9 10 9 8 7
9 8 9 6 4 4 2 6 11 15 12 13 16 18 20 20 19 19 18 19 19 18 19 18 19 21 20 18 18 17 15 15 15 14 14 13 12 12 12 12 13 12 11 11 11 11 11 11 11 10 10 9 9 9 8 9 10 9 9 10 10 9 8
7 5 6 5 6 6 3 1 5 12 7 5 8 11 8 7 11 14 14 16 16 15 16 17 17 19 20 18 17 16 15 14 14 14 14 14 13 13 12 12 12 11 11 10 11 11 11 11 11 10 10 10 10 9 9 9 10 9 9 10 10 10 9
7 8 11 9 5 2 3 7 11 14 9 7 14 16 7 1 1 8 12 14 14 11 11 14 15 16 17 17 16 15 15 14 13 13 13 14 13 13 13 12 12 12 11 11 11 11 11 11 10 10 10 11 10 9 9 10 10 9 10 10 11 11 10
8 10 11 9 7 3 4 9 10 11 10 12 17 19 15 10 7 8 13 14 14 12 11 12 14 16 16 16 15 15 15 15 14 14 14 14 13 12 13 13 13 13 13 12 12 12 11 12 12 11 11 11 11 11 11 11 11 10 11 11 10 10 10
10 11 10 9 9 5 5 7 9 11 10 12 17 17 16 17 15 13 14 13 12 14 16 13 13 15 16 16 16 14 15 15 14 14 14 14 13 13 13 13 13 14 14 13 14 13 12 13 13 12 11 12 12 12 12 12 12 12 12 11 10 11 11
12 11 9 9 9 6 5 6 5 7 7 9 14 15 13 16 17 15 14 13 11 13 16 15 13 14 15 16 16 15 14 14 14 14 14 13 13 13 13 13 12 13 13 13 13 13 13 13 13 13 13 13 13 13 12 13 13 13 13 12 11 11 11
15 14 11 12 12 10 9 8 5 4 4 5 8 11 12 13 15 15 13 12 11 11 14 14 13 12 13 14 14 14 15 15 14 13 13 12 13 14 14 13 12 13 12 10 12 14 14 13 13 13 13 13 13 13 13 13 13 14 14 13 12 11 11
16 16 15 15 15 14 12 11 9 7 6 5 4 5 6 8 12 14 12 11 12 11 12 13 12 11 11 12 13 13 14 15 14 13 13 12 12 13 14 14 12 13 12 11 11 12 12 13 14 13 14 14 14 14 14 14 14 14 14 14 13 12 11
14 15 16 16 15 14 13 12 12 12 11 9 6 4 3 3 6 9 7 8 10 9 9 10 12 13 12 12 12 12 12 12 11 11 11 11 10 9 10 10 9 9 10 11 11 11 10 10 12 13 13 13 14 15 15 13 13 15 16 15 14 13 11
9 9 11 13 12 12 12 12 11 12 11 10 8 7 5 3 3 4 4 5 5 5 5 5 7 9 10 10 11 10 11 11 10 9 9 9 8 7 8 9 8 9 10 11 11 11 11 10 10 13 14 13 12 11 11 10 9 10 14 15 14 12 11
7 6 6 7 9 11 10 11 11 11 11 11 9 7 5 4 3 2 2 5 5 6 6 6 6 7 8 9 9 8 9 9 9 8 7 7 7 7 7 9 11 11 12 11 10 9 11 11 10 11 12 11 9 6 3 6 8 6 9 13 13 13 13
5 2 6 8 9 10 10 10 11 11 12 13 12 11 9 9 11 12 9 5 3 4 4 4 5 6 6 7 8 7 7 7 7 6 6 7 8 7 8 10 13 14 14 14 12 10 11 12 11 11 11 11 9 5 5 4 5 4 6 9 11 12 13
1 2 9 12 11 11 13 14 14 14 14 14 14 13 13 13 14 14 14 12 9 7 6 5 2 1 2 4 4 5 6 7 8 9 9 10 10 10 10 12 12 13 14 15 15 13 12 13 12 13 14 13 10 7 5 5 5 5 6 6 8 9 9
6 9 11 12 11 12 14 15 16 15 14 13 13 12 11 12 12 13 14 13 12 12 11 10 10 7 3 1 3 4 4 4 4 6 7 9 11 11 11 12 12 14 14 14 14 14 14 14 15 17 17 13 8 7 9 9 7 7 7 7 7 7 6
10 11 11 12 13 13 15 16 15 14 12 11 11 11 11 11 11 13 14 14 15 16 16 16 16 14 12 9 6 4 2 1 3 4 3 3 4 5 6 9 12 15 15 14 13 15 15 15 16 17 17 15 10 7 9 10 9 8 8 7 7 6 5
13 13 13 14 16 17 18 18 16 14 12 11 12 12 12 11 11 13 15 15 16 18 19 21 20 18 17 15 13 12 9 6 4 3 3 4 3 2 1 3 6 9 11 11 13 16 18 18 17 16 16 16 13 9 8 10 9 8 9 8 7 5 4
15 15 14 15 17 18 19 20 19 17 15 13 13 13 12 12 13 15 16 16 16 17 19 21 20 18 18 17 16 15 13 12 11 9 8 8 7 7 5 1 2 4 8 11 11 13 16 18 20 21 18 15 12 11 10 9 6 6 7 7 6 4 3
14 15 14 15 16 16 18 20 21 20 18 16 14 12 13 13 14 15 15 15 15 15 16 18 18 19 19 17 16 15 14 13 13 12 12 12 11 11 9 6 3 3 6 8 8 8 11 17 21 22 17 11 9 10 9 6 3 2 2 3 4 3 3
12 14 15 16 16 16 16 16 16 17 17 16 14 12 11 12 12 13 14 14 14 14 13 15 16 17 16 15 14 14 14 14 13 12 12 12 12 11 9 9 8 4 1 1 0 2 2 7 14 18 16 12 12 10 6 5 4 2 2 2 2 0 1
13 14 15 16 15 13 13 13 13 15 15 14 12 10 10 10 12 14 14 14 14 13 12 12 13 13 12 12 12 12 13 14 13 13 12 11 11 10 9 9 9 8 7 5 4 6 7 5 8 18 20 15 12 9 5 5 5 4 5 4 3 4 4
13 14 15 14 13 13 13 13 13 14 13 12 11 10 10 10 12 13 14 14 13 12 11 10 9 10 10 10 11 10 11 12 12 13 14 13 10 9 9 8 9 9 8 7 6 8 9 9 9 12 15 12 10 9 8 7 7 7 6 6 5 4 4
10 12 14 13 13 13 13 13 12 12 12 11 11 11 11 10 11 11 12 12 12 11 11 9 8 9 9 8 9 10 9 9 9 11 13 13 11 10 9 8 8 9 8 8 9 9 9 11 10 8 10 9 10 12 12 11 10 9 7 6 6 6 5
11 12 13 12 12 13 12 11 12 12 12 11 11 11 10 10 10 11 11 11 10 9 9 9 8 8 8 7 6 7 7 7 7 8 8 8 7 8 8 7 7 8 7 7 7 7 8 9 7 5 8 9 8 10 12 11 10 10 8 7 8 8 6
12 13 13 13 14 14 12 11 11 11 12 11 11 10 10 10 10 10 10 9 8 8 7 8 8 8 8 7 6 5 5 5 6 6 6 5 5 5 6 5 5 6 7 8 8 8 7 6 4 2 3 8 10 10 9 8 8 10 10 9 8 9 7
12 12 13 13 13 13 11 10 10 11 11 11 11 10 10 9 9 9 9 7 7 7 7 7 8 8 6 6 5 5 4 5 5 4 4 3 3 4 4 3 3 3 6 8 8 8 9 8 6 5 5 4 9 10 8 8 8 9 10 8 6 6 6
11 12 13 13 11 10 10 10 10 11 11 10 10 10 10 9 9 8 7 7 7 6 6 5 5 6 6 5 5 6 7 6 4 3 2 2 2 4 5 4 3 3 5 6 5 6 8 9 8 8 8 9 7 5 5 6 6 6 5 3 3 4 5
8 10 13 12 11 10 10 10 10 11 10 10 10 10 9 9 8 7 6 6 6 5 4 3 2 3 4 5 5 5 5 5 4 4 4 4 4 5 6 6 6 7 7 5 4 5 8 9 8 9 11 11 10 7 6 5 3 2 2 2 4 6 7
7 10 11 10 9 9 10 11 11 10 10 10 9 9 9 8 8 7 6 5 5 4 4 3 2 2 3 4 5 5 3 4 5 5 5 6 5 5 7 7 7 7 7 5 4 4 5 5 5 7 9 7 6 7 7 4 1 1 2 5 6 7 8
6 8 9 9 9 9 10 11 11 10 10 10 9 9 8 7 7 7 6 5 4 3 4 3 2 3 4 5 6 6 5 6 6 5 5 6 6 5 6 6 5 4 4 5 6 6 6 5 3 4 4 2 2 2 1 2 4 5 6 7 8 9 9
6 7 8 9 10 10 10 10 10 11 11 10 10 10 9 8 7 7 6 6 5 4 4 2 1 2 4 5 5 5 5 6 6 4 4 5 5 4 3 3 3 3 3 4 5 5 5 6 4 3 2 1 2 3 4 5 6 8 9 10 10 10 10
6 7 9 9 9 10 11 10 10 10 10 10 10 10 9 8 8 7 7 6 5 4 4 2 1 1 4 4 5 4 3 4 4 3 2 3 3 3 1 1 3 3 1 3 5 3 2 3 3 3 3 2 2 4 7 8 9 10 11 12 12 11 9

ECMWFFLT1_925_spd_105.txt.gz
Wind_Speed
9 8 7 8 9 8 9 14 18 22 24 21 23 27 28 30 30 28 28 28 27 25 26 27 25 23 21 19 18 17 17 17 15 15 15 15 15 14 13 13 13 13 11 10 10 11 11 10 10 10 8 8 8 6 6 7 7 6 5 5 5 4 3
9 8 8 8 9 8 11 16 18 21 23 21 23 27 27 30 32 30 29 29 27 25 26 27 26 24 23 20 18 17 18 18 15 14 14 15 14 13 12 11 12 12 11 10 10 10 10 10 11 10 8 8 7 6 6 6 6 6 6 5 6 6 6
10 9 9 9 9 8 10 16 18 21 24 22 23 24 25 30 33 31 30 30 28 25 25 26 25 25 24 21 20 18 18 18 17 15 15 16 15 13 12 11 11 11 11 10 10 10 10 10 10 9 8 9 8 6 6 6 6 8 7 6 6 6 5
12 10 8 9 10 10 11 15 17 20 23 24 25 24 26 31 33 32 31 30 29 26 25 25 24 24 24 22 21 19 18 18 18 17 16 15 14 13 14 14 12 12 11 10 10 11 10 9 10 10 9 10 9 7 7 7 7 8 8 7 7 6 6
12 10 7 7 7 6 9 14 18 22 24 24 24 24 27 31 30 31 30 29 29 26 25 25 23 23 23 22 21 20 19 18 17 16 15 14 13 13 14 15 13 12 11 10 11 12 11 11 11 11 10 10 10 8 8 8 8 9 9 8 7 7 7
12 9 6 6 5 4 2 5 8 16 22 25 25 25 29 31 29 30 30 28 28 25 24 25 23 22 23 23 21 20 20 19 17 16 16 15 15 15 15 14 13 12 11 11 12 13 12 12 12 12 11 11 10 9 9 10 10 9 10 10 9 8 7
10 4 5 4 5 4 5 9 10 8 7 11 17 21 25 29 29 29 29 28 28 26 24 25 24 23 23 22 20 20 21 20 18 17 17 17 17 16 16 15 15 14 13 13 13 13 13 12 12 12 12 11 11 10 9 10 11 9 9 10 9 8 8
7 8 7 5 7 6 4 10 12 11 8 7 14 17 14 19 27 28 28 28 27 26 25 24 25 24 23 23 21 20 21 21 20 19 18 18 18 17 15 15 15 14 14 15 15 14 13 12 12 12 12 12 11 12 11 10 11 11 10 11 10 9 8
10 10 9 8 8 8 8 13 14 13 11 11 17 19 11 12 21 24 25 29 27 26 27 25 25 25 24 23 21 19 21 21 19 19 18 16 17 17 15 14 14 14 14 15 15 14 13 13 13 12 13 12 12 13 12 10 10 11 11 11 10 9 8
9 9 8 8 9 9 12 16 16 14 15 15 17 19 13 12 19 20 22 28 27 25 28 26 25 27 26 24 24 21 20 21 20 20 19 17 16 16 15 13 13 14 13 13 13 14 15 14 13 12 13 13 12 13 12 11 10 11 11 10 10 9 9
4 8 8 8 10 10 11 13 14 15 17 17 18 21 17 15 18 18 18 24 25 23 25 22 23 29 29 25 25 23 21 20 20 20 20 19 18 17 16 15 14 14 14 13 12 13 15 15 13 12 13 13 12 12 11 10 10 10 11 10 10 11 10
1 5 8 9 9 10 10 10 12 15 17 17 17 20 20 19 20 18 16 21 23 22 21 19 20 26 29 25 24 25 24 21 20 20 19 19 18 17 16 16 14 15 16 16 15 13 14 15 16 14 14 13 13 13 12 12 11 10 10 10 11 11 11
3 2 6 9 8 9 10 10 11 14 15 16 16 16 16 17 18 18 16 18 21 22 20 19 18 20 24 24 23 23 22 20 19 18 18 18 17 16 15 15 12 9 10 13 16 16 15 14 15 16 15 15 15 15 14 13 12 12 12 11 11 11 11
4 3 4 5 5 6 10 11 12 14 16 18 19 18 16 15 15 15 15 16 18 19 19 20 18 16 18 21 22 22 22 21 20 20 18 17 16 15 15 16 14 9 4 4 8 11 13 12 12 14 17 18 16 15 14 13 12 12 12 12 12 12 11
7 6 6 5 5 5 5 6 7 12 17 19 19 18 17 17 15 12 12 12 11 11 12 17 19 17 16 15 14 14 14 12 12 13 14 16 16 16 16 17 17 14 9 6 4 4 6 7 6 8 14 18 17 15 13 13 14 13 12 13 13 13 13
9 7 6 5 5 6 6 7 8 9 9 10 11 12 13 15 13 10 10 9 8 7 6 10 13 12 8 4 0 2 4 3 1 1 1 5 8 10 14 16 16 15 13 12 9 5 4 5 4 4 6 9 11 12 12 13 13 13 12 13 15 15 15
9 9 8 8 7 6 6 7 9 11 11 11 12 12 11 10 7 6 9 10 8 7 3 3 5 4 2 4 6 5 5 7 9 8 6 5 6 7 8 10 13 15 14 12 11 10 8 6 4 4 3 3 6 9 12 12 12 12 11 12 15 17 16
6 7 8 9 8 7 7 8 9 10 11 12 12 11 9 7 5 4 6 7 6 5 2 1 2 3 1 5 9 8 5 6 11 14 12 9 9 10 9 8 10 12 12 11 9 10 10 9 7 7 5 3 3 5 9 11 11 12 11 10 13 17 17
6 6 7 8 9 8 9 9 10 13 15 15 15 14 13 11 10 9 7 5 4 3 4 5 5 3 1 3 6 7 7 8 10 12 9 6 6 9 10 10 11 11 10 10 9 10 11 10 9 9 8 6 5 6 7 9 9 10 10 8 9 12 14
5 7 7 9 9 9 11 13 14 16 17 17 16 16 16 15 14 13 10 8 6 4 5 7 8 8 7 6 6 6 7 8 9 9 10 9 8 9 9 11 11 11 11 11 12 12 13 12 12 12 10 7 7 8 9 10 9 9 9 8 7 8 10
5 7 7 9 9 9 13 16 17 17 17 17 16 16 16 15 13 12 11 9 8 7 6 7 9 10 9 7 6 5 5 6 8 8 10 11 12 12 12 12 12 13 13 13 13 13 13 14 16 16 13 10 9 10 11 11 12 11 10 9 7 5 6
8 8 8 9 9 9 12 16 18 18 18 17 17 17 16 15 13 12 12 11 10 10 9 9 10 10 10 8 6 4 4 4 5 6 7 8 10 10 10 11 12 13 14 14 14 14 15 16 17 18 18 18 18 15 13 12 13 13 12 11 10 7 6
7 7 11 14 14 12 13 15 16 17 17 16 17 17 17 17 16 15 15 14 13 13 12 12 13 13 12 11 10 8 6 5 5 5 4 4 4 5 7 8 9 11 12 13 13 14 16 16 15 15 15 18 19 17 15 14 12 11 12 12 11 9 7
11 11 11 13 15 15 15 16 15 15 14 14 14 14 14 15 16 17 17 16 15 15 15 16 15 15 14 14 13 12 11 10 9 7 5 4 3 2 3 5 7 7 7 8 9 10 12 12 13 13 12 14 15 15 15 14 11 9 9 9 10 9 8
14 14 12 13 17 17 17 17 16 15 14 15 14 14 14 15 16 17 17 16 16 16 17 16 15 14 15 14 14 15 15 14 14 12 11 9 6 4 2 1 1 2 2 2 3 4 6 8 10 11 11 13 15 15 14 13 11 8 7 6 7 8 9
14 13 11 14 17 17 16 16 15 14 14 14 14 14 13 14 15 16 15 14 15 15 15 14 14 14 14 15 15 15 15 14 14 14 13 11 8 6 4 4 5 4 3 3 4 5 3 1 1 3 5 10 14 15 12 9 9 7 6 6 7 8 8
16 15 14 15 16 15 16 16 15 14 13 13 14 13 12 13 14 16 16 14 14 13 13 12 13 12 12 12 13 14 14 14 13 12 12 11 10 9 7 6 8 7 6 7 9 11 12 12 12 12 13 12 10 12 11 9 8 8 7 7 9 8 7
16 15 14 14 15 16 17 16 15 15 14 14 14 13 13 14 15 15 15 14 13 11 11 11 12 12 12 11 12 13 14 13 13 12 11 10 11 11 11 10 10 10 8 9 11 13 14 16 18 18 17 15 13 14 14 12 11 11 11 10 11 11 9
15 14 14 15 16 15 15 15 14 15 15 14 14 14 14 14 14 14 14 13 11 10 10 10 10 11 11 11 12 11 11 11 12 12 11 10 10 10 10 10 9 9 9 9 11 12 13 14 17 18 18 16 15 16 16 16 15 13 12 12 13 13 11
16 15 16 16 16 15 15 16 16 16 16 15 14 14 14 15 16 15 14 12 10 10 10 9 9 9 8 8 9 10 9 9 9 8 8 8 8 8 8 9 9 9 9 10 11 12 12 11 12 14 15 15 15 17 18 17 15 12 11 12 12 12 11
17 16 16 17 17 16 17 17 17 16 15 14 14 14 14 15 16 14 12 10 9 9 9 9 9 9 7 7 7 7 7 9 10 10 9 7 6 6 7 8 9 11 11 11 12 15 15 13 11 12 13 12 14 16 16 13 10 9 9 11 12 12 12
15 17 19 19 18 16 17 17 16 15 14 13 13 13 12 13 13 13 11 9 8 9 10 9 9 7 6 5 5 4 4 5 7 8 9 9 8 8 8 7 7 9 10 11 13 14 15 17 16 14 13 12 13 13 12 10 8 8 7 8 10 12 13
13 18 21 19 16 16 17 17 15 13 14 13 12 11 11 11 11 11 10 8 9 9 8 8 9 8 7 7 7 6 5 4 3 2 3 6 7 7 7 7 6 6 7 9 11 11 12 14 16 15 14 14 15 14 12 9 8 7 5 5 8 10 12
14 17 19 18 17 18 18 16 14 13 13 14 12 10 10 9 8 8 9 9 8 7 5 5 4 4 5 6 6 5 5 6 7 6 7 7 7 7 7 7 6 6 8 8 9 10 10 11 12 13 14 14 13 11 10 8 5 5 6 7 9 10 12
14 15 16 16 17 19 18 16 15 13 12 12 11 10 9 8 7 6 7 7 6 5 4 3 2 2 4 6 5 7 7 7 10 10 9 9 9 9 9 8 6 6 6 6 6 6 6 6 7 8 9 8 7 7 6 4 4 5 7 10 11 12 12
14 13 14 16 17 17 17 16 14 12 12 10 10 9 9 8 7 6 5 5 5 5 5 3 4 5 6 6 7 9 8 6 6 8 8 8 8 8 8 8 6 5 6 5 4 3 2 1 2 3 4 4 4 4 4 5 4 5 7 9 11 12 12
12 11 12 15 16 16 16 15 13 12 12 11 10 9 8 8 8 7 6 5 4 4 6 4 3 3 3 3 4 6 6 6 5 5 5 6 5 5 6 5 5 5 6 6 5 4 2 1 1 1 3 4 4 4 5 6 6 6 8 8 9 10 9
8 9 10 13 15 15 15 15 14 13 12 10 10 9 8 8 7 7 6 6 4 5 6 3 1 1 4 3 4 5 4 4 4 4 4 5 5 4 3 2 1 2 4 5 5 5 5 4 3 3 2 2 3 3 5 5 6 7 8 7 7 6 6

ECMWFFLT1_925_spd_111.txt.gz
Wind_Speed
6 8 10 10 11 12 13 18 23 24 25 26 27 28 29 29 30 30 30 31 30 29 29 28 27 26 25 24 22 21 21 22 22 22 21 20 20 21 22 21 20 19 19 19 18 16 15 14 12 11 11 10 9 9 9 9 9 8 7 7 7 6 6
7 8 9 10 12 12 14 21 24 24 26 27 28 29 29 29 31 31 31 32 32 31 30 30 29 28 26 25 24 23 22 22 21 22 21 20 20 21 21 20 20 19 19 18 17 15 14 13 12 12 12 11 10 9 10 10 10 9 9 8 8 8 7
8 8 9 10 12 12 14 20 23 25 27 28 28 29 30 31 32 33 33 32 32 32 31 31 30 29 27 26 25 25 24 22 22 22 21 21 21 21 20 19 19 19 18 17 16 15 14 13 13 12 12 12 11 11 11 11 11 11 10 10 10 9 8
9 9 9 10 11 13 15 19 22 24 27 29 31 31 32 33 34 34 34 34 33 32 32 32 31 30 29 27 27 26 25 23 22 22 22 21 21 21 20 19 18 18 18 17 16 15 14 14 14 14 13 13 12 12 12 11 10 10 10 10 10 9 8
10 9 8 8 9 10 12 17 22 25 27 29 31 32 34 35 34 34 35 35 35 34 34 34 32 30 29 29 28 27 26 24 23 22 22 21 21 20 20 19 19 18 18 16 16 16 15 15 15 15 14 14 13 13 12 11 10 9 9 10 11 10 8
9 9 8 7 8 9 11 17 23 26 28 30 31 32 32 33 33 34 34 34 34 34 34 33 31 30 30 29 28 27 25 25 24 22 21 20 20 21 20 20 19 18 17 15 15 16 15 15 15 15 15 14 13 13 12 11 10 10 10 10 10 10 9
7 7 7 7 8 9 12 19 24 27 28 30 31 31 31 32 33 33 33 34 34 32 31 31 31 30 30 29 28 27 26 25 24 22 21 20 20 20 20 19 19 18 16 15 15 15 15 15 15 15 14 14 14 14 13 13 12 11 11 10 10 10 10
7 7 7 7 7 5 6 9 15 21 26 28 29 29 30 31 33 32 32 32 32 31 31 31 31 30 30 29 28 28 26 24 23 22 22 21 20 20 20 20 19 17 16 16 15 16 16 15 15 15 15 15 14 14 14 13 13 12 12 12 11 10 10
6 7 7 7 7 6 8 9 4 3 11 17 24 28 31 31 30 31 32 32 31 31 31 32 32 31 30 29 28 28 26 24 23 22 22 22 21 20 20 20 19 17 17 17 16 16 16 16 16 16 16 15 15 15 15 14 13 13 13 13 12 11 11
5 6 7 9 7 7 11 15 11 5 2 1 6 12 20 28 32 31 30 31 32 32 32 32 31 31 30 29 28 27 26 25 23 22 21 22 22 21 20 21 20 18 17 17 17 17 16 16 16 16 16 16 16 16 15 14 14 13 13 13 13 12 12
6 6 8 9 9 9 10 12 12 10 8 6 4 4 3 9 21 30 32 32 32 32 32 32 31 30 30 29 28 26 26 25 24 23 22 22 22 22 21 22 21 20 19 18 18 18 17 17 17 17 18 18 18 17 17 16 15 15 14 14 13 13 13
7 7 8 10 11 11 12 12 13 14 16 15 13 10 6 7 5 11 18 22 25 25 24 25 27 30 30 29 28 27 26 26 25 24 23 23 22 22 22 22 22 21 20 20 20 20 19 19 19 20 20 20 19 19 19 18 17 17 16 16 15 14 14
5 5 6 8 8 8 9 12 15 18 20 20 18 18 18 12 7 6 7 8 14 20 21 19 19 24 27 28 28 27 27 27 26 25 23 23 22 21 21 21 21 21 20 21 21 22 22 22 22 22 21 21 21 20 20 20 20 19 18 17 16 15 15
4 4 4 5 5 5 6 7 10 14 18 20 21 21 22 22 19 16 14 11 12 17 22 21 18 19 21 23 25 25 25 25 25 24 23 23 22 21 21 20 20 20 20 20 21 21 22 23 23 22 22 22 22 22 22 21 21 21 20 18 17 17 16
4 4 4 4 4 4 4 4 5 10 13 17 21 22 23 25 25 25 27 26 22 21 23 23 23 23 22 22 23 23 24 24 24 24 24 24 24 23 22 21 21 20 19 19 19 19 20 21 22 22 22 23 23 24 25 25 23 22 21 19 18 17 17
3 3 3 4 4 3 4 3 4 7 11 15 19 21 23 26 27 28 29 29 30 29 25 23 25 25 24 24 24 23 23 21 21 23 24 24 24 24 23 23 23 21 18 17 16 15 15 16 17 19 21 22 23 24 25 26 26 24 22 20 20 19 19
3 3 3 4 4 4 4 4 5 6 9 12 15 18 21 24 27 29 27 25 28 31 27 24 24 24 23 23 23 22 21 18 17 19 21 22 22 23 23 23 23 21 18 18 17 16 15 14 14 14 15 17 19 22 24 26 26 25 23 21 21 20 20
5 4 4 4 4 5 5 4 5 6 8 11 13 15 17 21 24 27 28 26 27 29 27 24 23 22 20 19 18 19 20 18 16 17 19 19 20 20 20 21 21 19 18 18 18 17 16 15 14 13 13 13 13 16 20 23 24 24 22 22 22 21 20
6 5 5 5 5 6 6 7 9 10 10 12 14 15 16 19 21 22 24 25 24 24 25 24 22 20 20 18 17 18 19 18 16 16 16 17 17 16 16 15 15 14 14 15 14 14 14 13 12 12 12 12 11 12 14 18 21 22 21 22 22 21 21
6 6 7 7 7 7 7 10 14 16 15 15 17 16 15 17 17 16 17 19 19 18 19 20 20 19 19 19 18 18 18 16 15 14 14 14 14 14 14 13 12 12 12 12 11 11 11 11 11 10 10 10 10 10 11 13 16 19 20 21 21 21 21
7 7 7 7 7 7 9 11 13 15 16 17 19 20 19 18 18 17 17 17 18 17 16 17 16 15 16 16 16 15 15 14 13 13 12 12 13 13 13 13 13 13 13 13 12 11 11 10 9 9 10 10 10 10 11 13 15 17 19 19 19 19 19
7 7 7 7 8 10 12 14 14 14 16 17 19 21 22 21 20 19 18 17 17 16 15 14 14 12 12 12 11 10 9 9 9 9 9 10 10 10 10 10 11 12 13 12 11 11 10 7 6 6 8 9 10 11 12 13 14 15 16 16 17 17 17
8 9 10 11 13 15 17 17 15 15 16 17 18 18 19 19 20 20 19 18 16 14 12 11 11 11 10 8 6 6 5 4 4 4 5 6 7 9 11 11 12 13 12 10 8 7 6 7 10 11 11 10 11 12 13 14 14 14 15 15 15 16 16
11 12 13 15 17 17 18 18 16 16 17 19 19 18 18 19 20 21 21 19 18 16 14 12 11 11 10 8 5 4 3 3 2 2 2 2 3 5 8 10 11 12 12 10 9 9 8 11 14 14 12 12 12 14 15 16 17 18 18 19 19 18 18
10 13 13 15 18 17 17 18 17 15 17 19 19 17 18 19 20 21 21 19 18 18 16 15 14 12 11 9 7 5 4 3 2 2 2 2 3 2 1 4 5 7 6 5 7 9 9 10 11 11 12 13 13 13 14 15 16 17 18 20 22 23 22
8 12 14 15 18 19 17 17 16 15 14 15 15 16 17 18 19 20 19 18 18 17 17 16 14 13 12 11 10 8 6 4 3 1 2 3 2 1 0 1 2 3 3 3 5 6 7 8 8 8 9 8 8 8 8 9 10 11 12 15 18 21 21
8 11 15 14 15 18 19 18 17 16 14 13 14 15 17 19 20 20 19 18 18 17 15 14 13 12 12 11 11 10 9 8 7 6 6 6 3 1 2 2 1 2 2 2 2 1 2 4 4 2 3 1 0 0 1 2 4 5 7 8 11 13 14
9 10 12 12 14 17 19 19 18 16 14 13 14 15 16 19 21 20 19 19 17 15 14 13 12 11 11 11 12 11 10 10 9 8 8 8 6 5 5 5 4 4 4 3 2 4 6 5 4 5 7 6 6 6 6 5 4 4 5 5 5 6 6
9 9 10 12 14 16 19 19 18 17 15 15 15 15 16 19 19 19 19 17 15 14 13 12 12 11 12 12 12 12 11 10 9 8 7 6 6 6 7 7 7 6 6 6 5 5 6 7 7 8 9 9 8 7 6 6 7 8 9 10 8 7 6
10 10 11 14 15 18 21 21 19 18 17 15 14 14 15 17 18 17 16 15 13 12 12 11 11 11 11 11 11 10 10 9 8 8 7 7 6 6 7 7 7 7 7 7 7 7 8 8 8 9 9 9 8 7 6 6 7 9 11 12 12 11 11
10 11 12 14 15 17 20 20 20 19 17 15 14 13 13 15 16 16 14 12 11 11 11 11 10 10 10 10 10 10 10 9 8 7 7 6 6 6 7 6 6 7 7 7 6 7 8 9 9 9 9 8 6 6 5 5 6 8 10 10 11 11 12
8 11 13 14 15 16 18 19 19 19 18 16 14 13 13 13 14 14 12 9 9 9 9 9 9 9 9 9 9 9 9 9 8 8 7 6 6 6 7 6 6 6 6 6 7 7 7 7 7 8 8 6 4 3 3 3 4 6 7 8 9 9 10
7 9 12 13 13 13 15 16 16 16 16 15 13 12 11 11 11 11 9 7 7 6 5 6 6 7 7 7 6 6 6 5 4 5 5 5 5 6 7 6 6 5 5 5 6 7 8 6 6 7 7 5 4 3 2 1 2 5 7 8 8 9 10
8 9 11 12 11 10 11 13 13 13 13 12 11 10 10 10 9 9 8 7 6 5 4 5 5 4 5 5 4 4 4 3 2 2 3 3 4 5 6 6 5 5 5 5 4 5 7 8 8 8 7 6 4 2 2 1 3 6 8 8 9 11 11
11 11 12 12 11 11 12 13 12 11 11 11 9 9 9 9 9 8 7 7 6 5 5 5 4 3 3 4 3 3 3 2 2 2 2 2 2 3 3 4 4 4 4 4 4 4 4 6 7 7 7 5 3 3 4 4 5 7 8 9 10 11 11
13 12 12 12 11 11 12 12 11 11 11 10 9 8 8 8 8 7 5 4 3 3 4 4 3 2 1 2 2 1 1 2 2 2 2 2 1 1 1 2 3 4 3 2 2 2 2 3 4 5 4 4 4 5 6 6 7 8 9 10 10 9 9
15 13 12 12 12 12 11 11 10 10 10 10 8 7 7 6 5 4 3 2 2 1 2 4 4 2 1 2 2 2 2 1 1 1 1 0 0 1 1 2 3 3 4 3 2 1 2 3 3 3 4 4 5 6 6 6 7 8 8 8 7 6 6
15 15 14 13 12 12 12 11 10 9 9 9 8 6 6 5 3 3 2 2 2 0 1 1 3 1 2 3 2 2 1 1 1 2 2 2 2 1 0 1 1 1 1 3 3 2 2 3 3 3 3 3 4 4 3 4 4 5 5 5 5 4 4

ECMWFFLT1_925_spd_114.txt.gz
Wind_Speed
8 9 9 9 9 9 11 17 20 21 23 24 26 27 28 28 28 28 29 30 30 30 29 29 28 28 27 25 22 20 20 20 21 21 21 21 20 19 19 19 18 17 16 16 15 14 13 12 12 12 11 10 10 9 9 9 9 8 7 7 6 7 7
8 9 9 9 9 9 12 18 21 22 23 25 26 27 28 28 29 29 30 31 31 31 30 29 29 29 28 26 23 21 21 20 19 20 21 21 20 19 19 18 18 18 17 16 16 15 14 13 13 13 12 11 11 10 9 9 9 9 8 8 8 8 8
8 9 10 11 11 10 12 17 20 22 24 25 25 26 28 29 31 32 32 31 32 31 30 29 29 28 28 26 24 22 22 20 19 19 20 20 20 19 18 17 17 17 18 17 16 16 14 14 14 13 12 12 11 10 10 10 10 10 10 10 10 10 10
10 10 11 12 12 11 13 17 20 22 24 26 28 29 30 32 33 33 33 32 32 31 30 30 29 29 28 27 25 24 22 21 19 18 18 18 18 18 17 17 17 17 18 18 16 16 15 15 14 13 13 12 12 11 11 10 10 11 11 11 11 11 11
10 10 9 10 10 10 12 16 21 23 25 27 28 30 31 32 32 31 31 32 31 31 31 30 29 28 28 27 26 25 23 22 21 19 18 17 17 17 17 18 17 17 17 16 15 15 15 14 14 14 14 13 13 12 12 11 11 11 10 10 10 11 11
10 10 9 9 10 10 11 17 23 25 27 28 29 30 30 30 29 29 30 30 30 30 29 29 29 28 28 28 27 26 24 23 22 21 20 18 17 17 18 18 18 18 17 16 15 15 14 14 14 14 14 14 14 13 12 12 11 11 11 10 11 10 10
9 9 10 10 10 10 12 18 23 26 28 29 29 29 29 29 29 29 29 29 29 29 28 28 29 28 28 28 28 27 25 24 23 22 21 20 18 18 18 18 18 18 17 16 15 15 14 14 14 14 14 14 14 13 13 12 12 12 12 12 11 11 10
11 10 10 10 11 10 12 17 22 25 26 26 25 26 27 28 29 28 28 29 29 29 29 29 29 29 29 28 28 27 26 24 23 22 22 21 20 19 18 17 18 17 17 16 15 15 14 14 13 14 14 14 14 14 13 13 13 12 12 12 12 12 11
9 10 10 11 11 10 13 19 22 23 24 24 24 24 24 25 26 28 29 30 29 29 30 30 30 30 30 29 28 28 26 25 23 22 22 21 21 20 19 18 17 16 16 16 15 14 14 13 14 14 15 15 15 15 14 14 13 13 13 13 13 13 12
8 8 9 9 9 9 12 17 19 20 22 23 24 24 24 24 25 25 26 27 28 30 31 31 30 30 30 29 29 28 26 25 24 23 22 22 22 21 20 19 18 16 16 16 15 15 15 14 15 15 15 15 15 15 15 15 14 14 14 14 14 14 13
6 7 8 8 8 8 9 12 15 18 21 24 26 26 26 27 27 26 26 26 27 28 29 29 30 30 30 30 28 27 27 26 25 24 23 23 22 21 21 20 19 17 17 17 16 16 16 16 16 16 16 16 15 15 16 15 15 15 15 15 15 15 14
4 5 6 7 7 7 8 10 13 17 21 23 25 27 28 28 29 29 29 28 27 27 26 26 27 27 28 28 27 27 27 26 26 25 24 23 21 20 20 21 20 19 18 18 18 17 17 17 17 18 17 17 16 16 16 16 16 17 17 16 16 16 16
2 3 4 5 5 5 6 6 8 13 19 23 25 27 29 29 30 31 30 28 28 28 26 24 24 25 26 26 26 27 27 27 27 25 24 23 21 19 19 20 20 20 20 20 19 19 19 19 19 19 19 19 18 18 18 18 18 19 19 18 18 18 18
3 2 3 4 4 4 4 3 4 6 11 17 21 25 27 28 29 31 31 31 31 31 31 29 27 27 27 27 27 28 28 28 26 25 23 22 21 19 19 19 19 20 20 20 20 20 20 20 20 20 20 21 20 20 19 19 20 20 20 20 20 20 20
4 4 2 3 4 3 3 3 3 4 6 9 14 19 22 23 25 26 28 29 30 31 31 32 31 30 29 28 28 29 29 28 26 24 22 22 21 20 19 19 20 19 19 19 19 19 18 18 18 19 20 20 20 19 19 20 20 21 21 22 22 22 21
4 2 1 2 3 3 4 4 4 6 8 8 10 14 17 20 21 23 25 27 28 29 29 30 30 30 30 30 30 30 29 27 25 23 22 22 21 20 20 20 19 20 20 20 20 19 17 16 16 17 18 18 19 19 19 20 20 20 21 22 23 23 22
4 4 3 2 3 4 4 5 6 8 10 12 13 13 15 17 20 22 23 25 26 28 28 29 29 29 30 29 29 28 27 26 25 23 23 23 22 21 21 20 20 20 20 21 20 19 16 15 15 15 14 15 15 16 17 18 19 20 21 22 22 23 22
6 6 5 5 4 4 5 5 6 7 9 11 12 13 14 16 18 21 23 24 23 23 24 26 27 27 25 22 22 24 24 23 22 21 20 20 20 20 21 21 21 21 21 22 21 19 17 15 14 13 13 13 13 13 13 14 15 16 18 20 20 21 21
7 6 5 5 5 5 5 5 6 8 10 10 11 12 14 16 19 21 22 22 22 21 21 21 20 21 21 17 17 20 20 19 18 17 17 17 16 17 18 19 20 19 18 17 15 13 11 10 9 10 11 11 11 12 12 12 13 13 13 16 18 19 20
5 5 4 4 4 4 4 6 8 9 12 14 14 14 13 15 16 16 16 18 20 21 22 20 17 16 18 17 16 15 15 16 15 14 14 13 13 14 14 16 15 13 10 8 7 7 8 10 12 11 11 10 10 10 10 10 11 12 12 13 16 18 19
6 7 7 6 6 6 6 8 10 10 10 12 14 13 11 11 12 12 13 16 18 18 18 18 15 14 15 15 13 12 12 12 12 12 12 11 11 11 10 8 5 4 5 6 7 10 14 16 15 9 6 6 6 8 10 11 11 12 13 14 15 16 17
7 8 7 6 7 7 7 8 9 10 9 10 13 14 13 13 14 13 14 16 17 16 16 16 14 12 12 12 10 9 9 8 7 7 7 8 8 8 7 6 6 6 3 6 5 4 7 9 8 7 7 9 9 9 11 13 13 13 14 14 15 15 15
9 9 8 9 9 9 8 9 9 9 10 10 12 14 15 16 16 16 15 16 16 16 15 15 14 13 12 11 10 8 8 8 6 4 2 3 5 6 5 4 4 3 5 8 7 6 9 10 9 10 12 14 15 14 14 14 14 14 14 14 14 14 14
11 11 11 11 11 11 12 11 11 12 13 14 13 11 12 14 16 19 19 19 20 19 17 15 14 14 12 11 9 8 7 6 5 4 3 3 3 1 1 1 2 3 2 3 5 8 12 13 11 8 7 8 10 12 12 13 14 14 15 15 16 16 17
11 13 14 14 14 14 15 15 15 15 16 16 13 10 11 13 16 18 17 16 18 19 18 17 16 14 13 11 10 9 9 9 8 7 4 2 1 3 5 4 2 3 4 2 1 3 7 9 7 5 5 5 6 7 8 10 11 13 14 15 16 18 19
10 13 14 14 15 15 15 16 17 17 17 16 12 10 12 15 18 20 18 18 18 18 16 15 16 17 16 14 13 11 10 10 10 9 8 5 4 5 5 5 4 4 4 2 1 3 4 4 3 3 2 1 3 4 5 6 8 9 10 10 11 12 13
14 15 15 15 15 16 17 17 17 18 17 15 13 12 14 18 21 22 21 22 22 21 18 18 18 18 17 17 16 15 14 13 12 10 10 9 7 6 6 6 5 4 3 3 3 2 2 3 4 5 5 3 2 1 3 4 5 6 7 7 7 8 8
14 14 16 17 16 17 17 16 16 18 17 16 15 15 17 21 24 24 23 23 21 18 18 19 18 18 19 19 18 17 16 14 13 12 12 11 9 9 9 8 7 5 5 6 7 7 6 6 7 8 8 6 5 6 7 7 8 8 9 10 9 9 9
11 11 13 16 17 17 17 16 17 18 18 17 17 18 19 22 24 24 24 23 19 16 18 19 18 17 18 19 19 18 17 15 14 13 13 11 10 11 11 9 8 7 7 7 8 9 9 8 8 9 9 8 7 7 8 9 9 9 10 10 10 9 9
10 11 12 14 15 16 17 17 18 18 18 18 19 19 21 23 23 23 22 20 16 15 16 16 15 15 16 17 17 17 16 15 14 13 13 12 11 11 11 10 8 8 7 7 7 8 10 10 9 9 9 8 8 7 7 7 7 8 9 9 9 9 9
12 12 12 13 14 15 16 17 18 18 18 18 18 19 20 21 22 21 19 16 15 15 15 15 15 16 17 17 17 16 15 14 13 12 11 11 11 12 12 10 8 6 5 5 5 6 6 7 8 8 7 7 7 6 5 4 5 7 9 9 10 10 11
13 14 14 13 13 14 15 16 17 18 18 17 17 17 17 18 20 19 17 15 14 14 14 14 15 16 16 15 15 14 14 13 13 12 11 10 10 11 11 10 8 6 4 3 3 3 3 3 4 5 5 5 4 4 3 3 5 7 8 10 10 11 12
12 14 14 13 13 14 15 16 16 16 17 17 15 15 16 17 17 17 15 14 13 12 12 13 15 15 14 14 13 12 11 11 11 11 10 10 10 10 10 9 8 7 5 3 2 1 1 2 1 1 1 1 3 3 3 4 6 9 11 11 12 12 14
13 15 14 13 13 14 14 15 16 16 16 16 14 14 15 16 16 15 15 15 14 12 12 13 13 13 13 13 12 12 11 11 11 10 10 10 9 9 9 9 8 7 6 5 3 1 1 1 2 2 3 3 3 4 4 6 9 11 13 14 15 15 15
15 15 15 14 14 14 15 15 15 15 15 15 14 14 15 15 15 14 14 14 13 12 13 12 11 11 12 12 12 11 11 11 10 10 9 9 8 7 7 7 7 6 5 5 4 3 2 2 2 2 3 4 4 4 5 7 10 12 14 15 15 15 14
14 14 14 15 15 15 16 16 15 15 15 14 13 14 14 14 13 13 13 12 11 11 12 13 11 11 11 11 11 10 10 9 9 8 7 7 7 7 6 6 6 6 5 4 4 3 3 2 1 2 2 3 4 6 7 8 10 11 12 13 12 12 12
13 12 12 12 13 14 14 14 13 13 13 12 12 12 12 12 12 12 13 12 10 9 10 11 11 11 9 8 8 8 7 7 6 6 5 5 5 5 5 5 5 6 6 6 5 4 3 3 2 3 4 5 5 6 6 7 8 8 9 10 10 10 10
12 12 10 10 11 12 12 12 11 11 11 10 9 9 10 10 10 10 11 12 12 11 9 9 9 8 6 5 5 5 5 6 5 5 5 5 4 4 4 5 5 5 5 6 5 4 3 3 3 4 5 5 6 6 7 7 7 7 8 9 10 9 8

ECMWFFLT1_925_spd_117.txt.gz
Wind_Speed
12 13 13 12 12 13 14 17 19 19 19 20 21 21 21 21 20 20 21 24 25 25 27 28 27 27 26 25 24 22 20 18 16 15 15 16 15 14 14 13 12 12 10 9 8 8 9 9 9 9 8 8 8 7 7 7 8 7 7 6 6 6 6
12 12 12 12 12 13 15 18 20 19 20 20 21 21 21 21 21 22 23 25 28 27 28 29 28 28 27 26 25 23 21 19 17 16 15 16 16 15 15 14 13 13 12 11 10 10 10 9 10 10 9 9 8 8 8 8 8 7 7 7 6 7 7
12 11 12 12 12 12 15 18 19 20 20 20 21 21 21 22 24 26 27 27 28 27 27 29 29 29 27 26 25 24 23 20 18 16 15 15 15 14 14 15 14 13 12 12 12 11 10 10 11 10 10 10 9 9 9 8 8 8 8 8 7 7 8
11 11 11 12 13 13 15 18 19 20 20 21 22 22 24 26 28 30 29 28 27 26 26 27 27 27 26 26 25 24 24 22 19 17 16 14 14 13 13 14 14 13 12 12 11 11 11 11 11 11 11 10 10 9 9 9 9 9 9 9 9 8 9
12 12 11 11 12 12 13 17 20 21 21 21 22 22 24 27 27 26 26 25 26 26 26 25 22 22 25 25 22 22 23 23 21 18 17 15 14 13 13 13 12 13 12 11 11 11 11 11 10 10 11 10 10 10 10 10 10 10 10 10 9 8 8
11 12 11 10 11 11 13 18 21 22 22 22 23 23 22 23 23 23 23 22 23 23 22 23 21 21 24 23 20 21 23 24 22 19 18 16 15 13 13 12 12 12 11 10 10 10 10 10 10 10 10 9 9 9 10 10 10 9 10 10 9 9 8
10 11 11 10 11 12 13 18 21 22 22 22 23 22 20 21 22 22 22 22 23 22 21 21 21 23 25 23 21 23 23 23 22 20 18 17 16 14 13 13 12 12 11 10 11 10 10 11 10 10 10 10 9 9 9 10 10 10 10 10 10 10 10
10 11 11 12 12 12 13 17 20 20 21 21 21 20 20 21 21 21 21 22 23 22 22 22 22 25 27 25 24 25 23 22 22 21 19 17 16 15 13 13 13 12 11 11 11 11 11 10 10 10 10 10 9 9 10 11 11 10 9 10 11 11 10
9 10 12 12 13 12 13 17 19 19 20 21 21 21 21 21 21 22 23 23 22 23 24 25 26 28 29 27 27 26 23 22 21 21 20 17 16 15 14 13 12 12 12 11 10 11 11 11 10 10 10 9 9 10 10 10 10 10 10 11 11 11 10
7 9 10 11 11 10 12 15 16 16 18 20 19 20 21 21 22 23 23 23 24 26 27 28 28 29 29 28 27 25 24 23 22 20 19 17 16 16 15 13 12 12 12 11 10 10 11 11 11 10 10 9 10 10 10 10 10 10 11 11 11 11 11
4 6 8 9 9 8 9 11 12 14 17 18 19 21 21 22 25 26 26 26 28 29 29 28 26 26 27 26 25 23 24 24 23 21 21 20 18 17 16 14 13 12 12 11 11 10 10 11 11 11 10 10 10 10 10 10 10 10 11 10 11 11 11
2 3 5 7 7 7 7 7 10 13 16 18 20 21 21 23 25 26 27 29 30 31 30 28 26 25 24 23 21 20 22 22 21 21 22 22 21 18 16 14 13 13 12 12 11 10 10 10 10 11 11 11 11 11 11 11 11 11 11 11 11 12 12
3 2 2 3 4 4 5 5 7 10 13 15 17 20 22 23 24 25 27 29 30 31 31 30 29 27 26 25 22 20 20 20 20 20 21 21 22 20 17 14 13 13 12 12 12 11 11 10 10 11 12 12 12 12 12 13 13 13 13 12 13 14 14
4 4 4 3 3 4 5 6 6 8 10 11 13 15 17 20 21 24 28 28 28 30 31 30 30 30 29 28 25 23 23 21 20 21 22 22 21 20 19 16 14 12 12 12 11 11 11 10 10 10 11 12 12 13 13 13 14 14 13 13 14 15 16
5 5 5 5 4 4 5 5 6 8 9 10 11 12 13 14 15 18 22 24 26 29 31 30 30 29 28 27 27 27 27 25 23 23 24 23 21 20 19 18 16 14 13 13 12 11 11 11 10 10 10 10 11 11 13 13 14 14 14 14 14 14 15
4 4 3 4 4 4 4 4 5 7 8 9 10 10 11 11 12 14 17 18 22 25 27 28 28 26 24 24 27 28 26 26 26 25 24 23 21 20 19 18 17 15 14 14 13 12 11 11 10 9 9 10 10 11 12 11 12 13 14 14 14 15 14
4 4 3 2 2 3 3 3 3 5 6 8 9 9 10 11 13 15 15 16 19 22 24 25 26 25 22 20 19 18 18 19 21 22 23 23 21 20 18 18 17 16 14 13 12 12 12 11 11 10 9 8 8 8 7 7 8 11 11 12 13 14 14
4 5 5 4 3 3 3 3 3 3 5 6 8 9 10 12 14 16 17 17 19 21 22 23 24 22 19 15 13 12 10 11 13 14 17 19 20 19 18 16 14 13 11 9 8 9 9 8 8 8 7 6 5 4 4 6 8 10 10 10 11 11 11
2 3 4 4 4 3 3 2 2 2 3 4 6 8 10 13 15 17 18 18 18 19 19 20 20 18 15 14 15 16 15 13 11 11 12 13 14 14 14 13 12 9 8 9 9 8 7 6 7 7 7 7 7 6 7 9 10 10 11 11 12 11 11
5 6 6 6 6 5 4 4 3 1 0 2 4 5 7 10 11 12 14 16 18 19 19 21 21 20 18 18 17 17 17 14 12 12 10 8 6 7 9 11 10 8 6 7 9 9 10 11 12 12 11 9 8 7 8 9 9 10 11 11 12 12 11
7 8 8 7 7 8 7 7 6 5 4 2 1 3 4 6 6 7 9 12 16 19 20 22 23 22 23 23 19 16 15 13 12 12 9 7 7 5 5 6 5 5 4 4 6 8 10 12 13 12 10 9 8 7 8 9 9 9 10 10 11 12 11
7 7 8 8 8 8 7 6 6 5 5 4 4 4 5 5 6 7 8 10 14 17 19 20 20 20 21 21 19 17 15 13 14 14 10 8 11 9 7 7 7 7 7 8 8 9 9 8 8 8 8 7 8 6 7 9 10 10 11 12 12 12 11
7 8 10 10 9 8 6 6 7 7 8 9 8 7 7 6 6 6 6 7 9 13 16 16 16 17 18 18 17 16 15 13 13 14 11 11 12 10 9 9 8 7 8 9 8 8 7 5 4 4 6 7 8 8 9 12 13 13 12 13 13 13 12
7 10 12 11 10 9 9 10 10 10 13 14 12 10 8 8 8 9 8 7 5 7 9 10 12 15 18 18 17 16 15 13 13 13 13 12 11 11 8 7 6 6 7 6 4 4 5 5 4 3 4 6 7 7 8 9 10 10 11 12 13 13 13
8 11 14 13 12 13 14 14 14 14 16 17 15 13 12 12 13 14 14 14 14 15 16 15 13 14 18 19 18 16 15 15 15 14 13 11 11 10 8 6 6 5 5 4 3 3 4 4 4 4 3 2 3 4 5 5 6 7 9 10 11 11 11
9 11 14 14 14 18 21 21 18 16 17 16 15 15 16 19 21 20 19 21 22 20 19 17 16 17 19 20 20 18 17 17 17 16 15 15 14 11 9 9 8 6 4 3 3 3 4 5 4 3 2 1 0 1 1 2 3 5 5 6 6 7 7
11 11 14 14 14 19 25 26 23 20 18 17 18 20 25 29 29 26 25 26 24 21 19 19 20 21 22 22 22 22 22 22 21 20 17 16 15 14 13 11 9 7 5 3 3 5 6 6 5 4 4 3 4 4 5 7 8 7 7 7 8 8 8
13 12 13 14 15 19 24 25 25 24 22 20 21 23 28 33 31 27 27 27 22 20 21 22 23 25 26 27 26 25 24 24 23 21 19 17 16 14 13 13 13 11 8 6 7 8 8 8 7 6 5 6 7 8 9 10 9 8 8 9 9 9 10
13 12 13 15 15 18 21 22 23 25 24 22 22 22 26 31 29 25 26 25 21 20 22 22 23 26 28 28 28 26 25 24 23 22 20 18 16 14 12 13 13 12 9 9 9 9 8 7 7 6 6 7 9 9 9 9 8 8 9 10 10 11 11
12 13 15 16 15 17 20 20 21 24 25 25 24 22 23 26 25 23 23 21 20 21 22 22 25 27 27 27 25 24 22 21 21 21 19 18 17 15 13 12 12 12 11 10 9 8 7 6 6 5 5 6 6 6 5 6 7 8 9 10 11 11 12
12 13 15 16 16 16 18 19 20 23 24 25 26 25 23 24 24 23 21 19 20 22 23 23 25 26 26 25 23 21 20 20 19 19 18 17 16 16 15 13 12 12 12 10 9 8 6 5 5 4 4 4 3 3 2 4 6 8 9 11 12 12 13
12 13 14 14 14 15 17 19 20 21 21 22 24 25 25 25 25 23 21 20 20 20 20 21 22 23 23 22 21 20 20 19 19 18 17 17 17 17 16 14 11 10 9 8 8 7 6 5 4 4 3 3 2 2 3 5 7 9 11 12 14 15 15
11 12 12 13 13 14 16 18 19 19 20 20 21 22 24 25 24 22 21 20 20 19 20 21 22 22 21 21 20 20 20 19 18 17 16 16 16 15 15 14 12 11 10 8 7 5 5 5 4 3 2 2 2 3 4 6 8 11 14 16 17 17 16
12 12 12 14 16 15 14 16 18 18 19 20 21 23 24 24 23 22 21 20 19 19 20 22 22 22 21 20 20 19 19 17 16 16 15 15 14 14 14 14 13 12 11 9 8 6 5 4 4 3 2 3 4 5 6 6 8 11 15 16 16 16 14
12 12 13 15 17 17 16 16 17 18 18 19 22 24 24 23 23 22 21 20 19 19 20 21 22 21 20 19 18 17 17 16 16 15 15 15 15 15 15 14 13 12 11 10 8 7 5 4 3 3 3 3 5 5 6 7 8 11 13 13 13 14 14
12 13 14 16 17 18 19 18 17 18 18 19 21 23 24 23 22 21 20 20 19 19 20 20 19 18 17 17 16 15 16 16 16 15 15 14 14 13 13 13 13 12 11 10 9 8 6 5 4 4 4 4 5 5 5 6 8 9 10 11 12 13 12
14 14 15 16 17 17 18 19 19 19 19 18 18 19 21 22 23 22 21 20 19 18 18 18 17 15 13 13 14 15 15 15 15 15 14 13 13 12 11 10 10 10 10 10 10 9 8 7 6 6 6 5 5 5 6 6 7 9 10 10 11 11 10
15 15 15 16 16 16 15 17 18 19 19 18 18 17 17 18 19 20 20 20 20 20 19 19 18 15 12 12 12 12 13 12 12 12 12 11 11 11 10 7 6 7 8 8 8 8 8 7 7 7 7 7 6 6 7 7 8 9 9 10 11 10 10

ECMWFFLT1_925_spd_120.txt.gz
Wind_Speed
17 17 16 14 14 14 14 16 18 18 18 18 18 18 17 17 17 17 17 17 18 18 18 18 18 17 16 15 14 14 14 13 11 10 10 9 8 7 7 6 6 5 5 5 5 4 4 4 5 5 4 4 4 3 3 4 4 4 4 3 3 3 4
17 16 16 15 14 14 16 18 19 19 19 19 19 19 18 18 18 18 17 18 18 18 18 18 18 17 16 15 15 14 14 14 13 12 11 10 9 8 8 7 6 6 6 6 5 4 5 5 5 5 5 5 5 4 4 5 4 5 4 3 4 4 4
15 15 15 15 14 14 16 18 19 19 20 19 19 19 19 19 19 19 18 18 19 19 18 18 18 17 16 15 15 15 15 15 14 13 13 11 11 10 9 8 8 7 7 6 6 6 6 6 5 6 5 6 5 5 5 5 5 5 5 4 5 5 5
14 16 16 15 14 13 15 18 19 19 19 20 20 19 20 20 19 19 19 19 19 20 19 19 18 18 17 16 16 15 16 16 15 14 14 12 11 10 9 9 9 9 8 7 7 6 6 6 6 6 6 6 6 6 5 5 5 5 5 5 6 6 6
15 17 16 14 13 12 13 16 19 19 19 19 19 20 20 21 20 20 20 19 19 20 20 19 18 18 18 17 16 16 16 16 16 15 14 12 11 10 9 9 10 9 9 8 8 7 7 7 7 7 7 7 7 7 6 6 6 6 6 6 6 7 7
15 16 14 12 12 11 12 16 19 20 20 19 19 20 20 20 20 20 19 19 19 19 19 20 19 18 18 18 17 16 15 16 16 16 14 13 11 11 10 10 10 10 9 9 9 8 8 8 8 7 7 7 7 7 7 6 6 6 6 6 7 7 7
13 13 12 11 10 10 12 16 20 20 20 20 19 19 19 19 20 20 19 19 20 20 20 20 20 19 18 18 17 17 16 16 17 16 16 14 13 13 12 11 11 10 10 9 9 9 9 9 9 8 8 7 7 7 6 6 6 6 6 7 7 7 7
11 10 11 11 11 11 13 16 19 19 20 19 19 19 19 19 19 19 19 19 20 20 20 20 20 19 19 18 17 17 17 16 16 17 16 16 15 14 13 12 11 11 10 10 10 10 9 9 9 8 8 8 7 7 7 6 7 7 8 8 8 8 8
10 10 12 12 11 11 14 17 19 19 19 20 19 19 19 19 18 19 19 19 19 20 20 20 19 19 18 18 17 17 17 16 16 16 16 16 15 15 15 14 13 12 11 11 10 10 10 10 9 8 8 7 7 7 7 7 7 8 8 8 8 8 8
8 10 11 11 10 12 14 15 17 17 18 19 19 19 19 19 18 18 19 19 19 19 20 19 18 18 18 18 18 17 17 16 16 16 16 16 15 15 14 14 13 12 12 11 10 10 10 9 9 8 8 8 7 8 8 8 8 8 8 8 8 8 8
8 8 9 11 11 12 12 13 14 15 16 18 18 19 19 19 19 19 19 19 19 19 19 18 18 18 19 19 18 18 17 17 17 16 16 15 14 14 13 13 13 12 12 11 10 10 9 9 10 9 9 9 8 8 8 8 7 8 8 8 8 8 9
7 8 9 11 11 10 10 10 12 15 16 16 18 18 18 19 19 19 19 20 20 19 19 19 19 19 18 18 18 18 18 17 17 16 16 15 14 13 12 13 12 11 11 11 10 10 9 9 10 9 9 9 9 9 8 8 8 7 8 8 8 8 9
4 6 8 9 9 9 9 10 11 13 14 15 15 16 17 18 19 19 19 20 20 19 19 19 19 19 18 18 18 18 18 18 17 16 16 15 15 14 13 12 12 12 11 11 10 10 10 10 10 9 9 9 9 9 9 8 8 8 8 9 9 9 10
3 5 6 7 9 9 10 10 11 11 13 14 14 14 15 15 16 17 17 18 18 18 19 19 19 19 19 18 18 18 18 18 17 16 15 14 14 14 14 13 12 11 10 10 11 11 11 11 10 10 10 10 10 10 10 10 10 9 9 9 10 10 10
4 5 6 7 9 10 10 10 10 11 13 13 12 13 14 14 14 15 15 16 16 17 18 18 17 18 17 17 17 17 16 15 15 14 13 14 14 13 13 13 13 12 10 10 10 10 10 10 11 10 10 10 10 10 11 11 9 9 9 9 9 9 10
4 3 3 5 6 7 8 8 9 10 11 12 12 13 13 12 13 13 14 14 15 16 17 16 17 16 16 15 15 14 12 12 11 11 11 11 11 12 12 12 12 12 10 10 10 10 9 10 10 10 10 10 9 10 11 9 6 7 9 10 9 9 9
4 3 2 2 3 4 5 5 6 7 8 9 10 11 11 11 11 11 12 13 14 15 15 16 16 16 15 15 14 13 11 10 10 9 9 9 9 9 9 9 10 9 9 9 10 9 9 10 10 10 10 9 9 10 9 6 4 6 8 9 8 8 7
3 2 1 1 2 2 4 4 5 6 6 6 7 8 9 9 10 11 12 12 13 14 15 16 16 16 16 15 14 13 13 12 12 11 10 9 10 9 7 6 7 7 7 9 10 9 9 9 9 9 9 8 9 9 5 4 6 8 8 8 8 8 8
5 4 1 1 3 2 3 4 3 4 5 5 6 7 8 9 10 11 11 12 13 13 14 16 15 15 16 15 15 14 14 15 16 14 12 11 11 10 9 7 7 8 8 8 8 7 7 7 7 8 8 7 8 6 3 4 8 8 8 9 9 9 9
7 8 6 4 4 4 4 4 4 4 4 4 4 5 7 8 9 9 10 11 11 12 13 15 15 15 15 15 15 14 14 15 15 14 13 13 11 10 9 10 10 10 9 8 8 6 6 7 8 7 6 5 4 3 3 5 8 6 7 8 8 9 10
6 10 9 8 9 8 7 6 6 7 6 4 3 3 3 5 6 6 7 8 9 10 11 11 12 13 13 13 13 13 12 12 12 12 12 13 13 12 11 12 14 12 10 10 10 8 6 6 7 6 5 4 4 3 2 5 6 5 6 7 8 9 8
6 11 12 9 8 9 9 10 10 9 8 7 6 4 2 1 2 3 4 5 6 8 8 8 10 12 11 12 14 14 13 11 10 9 9 10 12 13 10 10 12 12 9 9 9 7 6 6 6 6 5 4 4 3 3 6 7 6 8 9 10 10 9
8 13 15 13 11 11 13 13 12 10 9 8 8 7 5 3 3 3 4 3 1 1 2 4 7 10 12 13 15 16 16 15 13 11 10 9 10 11 10 8 9 9 8 7 6 6 6 5 5 4 3 2 2 2 3 5 6 7 8 10 11 11 9
10 16 18 16 14 13 13 14 14 13 13 12 11 10 9 9 10 10 10 9 7 7 6 3 1 5 9 12 14 15 15 16 16 14 12 10 10 12 13 10 8 9 9 7 6 5 4 4 4 3 3 3 3 3 1 2 4 6 7 8 9 8 7
12 19 21 17 15 14 13 13 14 15 16 17 15 14 14 15 16 16 15 14 14 13 12 10 8 3 4 11 14 15 15 17 19 16 14 13 13 12 12 11 8 8 9 9 7 6 4 3 4 4 4 4 4 3 1 2 4 4 4 6 6 5 4
12 19 22 19 17 17 15 14 14 14 16 17 16 15 16 18 19 18 17 17 18 17 14 13 13 11 7 10 15 17 17 19 21 20 17 15 14 12 11 10 9 9 9 9 9 8 5 4 5 5 5 5 4 2 2 3 4 6 7 8 8 8 8
11 17 20 20 20 20 19 18 17 16 18 18 17 17 18 21 22 20 18 19 19 18 17 19 21 21 21 22 22 22 22 21 21 19 17 15 14 12 10 9 9 11 11 10 11 10 7 6 6 6 6 6 5 5 6 8 8 9 9 9 9 9 9
14 17 21 23 22 22 22 21 20 20 20 19 17 17 20 24 24 21 21 22 21 21 23 26 28 28 28 29 27 25 23 22 20 19 17 16 15 14 12 10 10 13 13 12 13 12 9 8 7 7 8 7 7 8 9 9 9 8 8 8 9 9 10
15 17 20 23 23 23 23 22 20 20 21 21 20 18 20 25 25 23 23 23 23 26 29 30 30 31 31 31 30 28 25 22 21 20 19 18 19 18 16 13 14 17 17 15 14 12 10 9 8 9 9 9 8 8 7 7 7 7 8 8 9 10 11
15 16 18 21 22 21 22 22 21 20 21 22 21 19 19 23 25 24 24 23 24 28 30 30 30 29 28 29 29 29 26 24 23 22 21 20 20 20 18 16 16 18 17 13 12 12 11 10 8 7 7 6 6 5 4 5 6 6 8 10 11 12 13
15 16 18 20 21 20 21 22 22 22 21 20 19 19 19 21 23 25 23 21 21 23 24 24 24 22 21 21 22 23 24 24 23 22 21 18 17 18 17 15 15 16 14 11 10 10 9 9 7 5 4 4 4 4 3 4 5 5 8 12 14 14 15
16 17 19 20 20 20 21 22 22 23 23 21 19 20 20 20 22 23 20 18 18 18 19 20 21 20 19 18 18 18 19 19 19 19 19 17 17 17 15 13 13 13 11 9 8 8 6 6 5 4 4 4 4 4 3 4 4 4 6 9 11 11 13
16 17 18 18 19 19 19 20 21 22 22 21 20 19 19 19 19 20 19 18 18 18 18 19 20 20 18 17 18 17 16 15 15 15 15 14 15 14 13 11 10 9 7 6 6 5 5 4 3 3 3 3 2 2 3 4 4 5 7 9 9 9 10
16 16 17 18 18 18 19 20 21 21 21 20 18 17 18 18 17 17 18 18 18 17 17 17 17 18 17 16 16 15 14 14 15 14 14 13 13 12 11 10 9 9 8 6 5 4 4 4 3 3 3 3 3 3 4 4 4 6 9 10 10 11 11
16 16 17 18 18 18 20 20 21 21 21 19 17 17 17 17 17 17 17 17 16 16 16 16 16 16 16 15 15 14 14 14 13 13 13 14 14 15 14 12 10 9 9 8 7 6 5 5 4 3 3 3 4 4 4 4 5 7 9 10 10 10 10
16 17 17 18 18 19 20 20 21 21 20 18 17 17 17 17 16 15 15 14 14 14 14 15 15 15 15 14 14 14 14 13 12 11 11 11 12 13 14 14 13 12 10 10 10 10 9 7 6 5 4 3 4 4 4 4 5 7 8 9 9 9 9
16 17 18 18 19 19 19 19 19 20 20 19 18 18 18 17 17 15 15 14 13 13 13 13 14 14 14 14 13 12 12 12 12 11 10 9 9 8 9 11 12 12 11 10 10 10 9 8 8 8 7 5 4 4 4 5 5 7 8 8 9 9 9
18 17 18 18 18 18 18 17 17 18 18 17 17 17 17 17 16 16 15 14 13 13 13 13 13 13 13 13 12 11 11 11 10 10 10 9 8 7 6 7 8 8 8 8 7 7 7 6 6 6 7 6 5 4 4 5 6 7 8 9 9 10 10

ECMWFFLT1_925_spd_123.txt.gz
Wind_Speed
16 18 17 15 15 15 15 17 19 19 19 19 18 19 19 19 20 19 19 21 21 21 20 19 18 18 18 17 16 15 15 14 13 12 11 11 9 9 9 9 9 8 7 7 7 8 7 7 7 7 7 6 6 6 5 5 5 5 5 4 5 5 5
13 16 16 15 15 15 16 19 20 20 20 19 19 19 19 19 20 19 19 20 21 21 21 20 19 19 18 18 16 16 16 15 14 13 12 12 10 10 10 9 9 8 8 7 6 7 7 8 8 7 7 7 7 7 6 5 5 5 5 4 5 5 5
7 12 15 15 15 15 16 18 20 20 20 20 19 19 19 18 19 19 18 19 20 20 20 20 20 19 18 18 17 16 17 16 15 14 13 13 12 12 11 10 9 9 9 8 8 8 8 9 9 8 8 7 7 7 6 6 6 6 6 5 6 6 6
6 11 16 16 15 16 17 18 20 20 20 20 20 20 19 18 18 18 17 19 20 20 21 21 21 20 19 18 17 17 17 17 16 16 15 14 13 12 12 11 11 10 10 9 9 9 8 8 9 9 8 8 7 7 6 6 6 6 6 6 7 7 7
8 11 17 16 15 15 15 17 20 21 20 20 20 19 20 19 18 19 18 18 19 20 21 21 21 20 19 19 18 17 17 18 17 16 15 14 13 12 12 12 12 11 11 10 10 9 8 8 9 9 9 9 8 8 7 7 7 7 7 7 7 7 8
10 9 14 13 14 14 15 18 22 22 21 21 20 19 19 20 19 19 19 18 19 20 20 20 20 20 20 19 18 17 17 18 17 16 15 14 14 13 12 12 12 12 12 11 10 10 10 9 10 9 9 10 9 9 9 9 8 8 8 8 8 8 8
10 9 11 11 13 14 15 19 22 22 21 21 21 20 19 20 19 19 19 19 19 20 20 20 20 19 19 19 18 17 17 17 17 17 16 15 15 14 13 12 12 12 11 11 11 11 11 11 11 10 9 9 9 9 9 8 8 8 8 8 8 8 9
9 11 13 12 14 15 15 18 21 22 22 21 21 21 20 20 19 19 19 19 19 19 20 20 19 19 18 18 17 17 17 16 16 17 17 16 15 15 14 13 13 12 11 11 11 11 11 11 11 10 10 10 9 9 7 6 7 9 9 9 9 9 10
7 7 7 8 12 14 14 17 20 21 22 22 21 21 21 20 19 19 18 19 19 19 19 18 18 18 18 17 16 16 16 15 15 16 16 16 16 15 15 14 13 12 12 12 11 11 11 11 10 10 10 9 8 8 8 7 8 10 10 10 10 9 10
8 5 4 8 11 12 13 15 16 15 17 19 20 20 21 20 19 18 18 18 18 18 18 18 18 18 18 17 16 16 16 15 15 15 16 16 16 15 15 14 13 13 12 12 11 12 11 11 10 9 9 9 8 8 8 9 9 10 10 11 10 10 11
8 6 6 9 11 12 14 14 13 13 14 16 18 20 20 20 19 18 18 18 17 17 17 17 17 17 18 18 17 16 16 16 16 15 15 15 15 15 14 14 13 13 13 12 12 12 11 11 11 9 9 10 10 10 10 10 10 10 10 11 11 10 10
8 8 7 8 9 12 14 13 13 16 17 17 18 19 18 18 18 18 18 19 18 17 17 17 17 17 17 18 17 17 17 17 16 16 16 16 14 14 14 13 14 13 13 12 12 12 11 11 11 11 11 11 11 11 12 11 11 10 9 11 11 8 8
6 7 5 4 5 7 11 14 15 16 18 19 18 18 17 17 17 17 19 20 20 19 19 19 19 18 18 18 17 17 17 17 17 16 16 15 14 14 13 13 13 13 13 12 12 13 12 12 12 12 12 12 12 12 12 12 11 10 9 10 9 7 6
5 6 5 4 4 4 8 12 13 14 17 18 18 18 18 18 19 19 19 19 19 19 19 19 20 19 19 19 18 17 17 17 16 16 15 14 14 14 13 13 12 12 12 12 13 13 13 13 13 13 13 13 12 11 12 12 10 10 11 10 9 7 8
4 5 4 4 5 5 6 10 10 12 15 16 17 17 18 17 18 18 17 17 17 18 18 18 19 19 19 18 18 17 16 16 15 14 13 12 11 10 11 11 12 11 11 11 12 12 13 13 14 13 13 13 14 14 13 12 9 10 11 10 10 9 8
2 2 3 3 6 6 7 8 8 10 15 16 16 16 16 15 16 16 16 16 16 17 17 17 17 17 18 18 18 16 15 15 15 13 11 10 10 11 11 11 11 11 11 11 12 12 11 12 13 13 13 13 13 14 13 11 10 11 12 11 11 9 8
3 1 3 5 7 8 5 5 8 10 14 16 16 16 15 14 15 15 15 15 15 16 16 17 16 16 16 16 16 17 15 14 14 12 12 15 16 16 16 15 13 12 11 11 11 11 11 11 11 12 12 9 4 3 1 4 8 9 11 12 11 9 8
5 3 2 3 7 8 6 6 11 13 12 14 14 15 15 14 14 15 14 14 15 15 15 15 15 16 15 13 14 16 15 14 13 13 14 17 18 18 18 17 16 14 12 12 12 12 11 11 11 11 9 5 2 3 4 1 4 7 9 10 9 9 8
7 8 7 4 2 1 1 1 5 5 4 7 9 10 11 11 11 11 12 12 12 13 14 15 15 15 15 14 13 14 15 15 15 15 15 17 17 18 19 18 17 16 14 13 13 12 12 11 11 11 7 2 2 4 3 3 6 5 5 6 7 8 8
6 10 11 8 6 5 5 7 8 8 7 4 4 6 5 6 7 7 8 10 11 12 13 14 14 14 15 16 16 15 14 15 16 15 15 17 17 17 18 17 17 16 14 13 13 12 11 11 10 10 7 4 5 7 6 6 6 4 5 6 7 8 9
1 6 10 10 8 8 7 6 5 7 10 9 7 6 6 4 4 4 5 7 9 10 11 12 13 14 14 15 17 17 14 15 17 17 17 16 15 16 18 17 16 15 15 14 13 11 10 10 8 6 6 6 6 7 5 4 4 4 6 7 7 8 8
1 3 7 10 8 9 11 8 4 5 7 8 7 7 7 7 6 4 4 4 4 5 7 8 9 11 12 12 13 14 14 15 16 16 15 13 13 14 16 17 16 15 14 13 11 9 8 8 7 6 4 2 5 9 6 2 1 3 6 7 9 9 8
3 4 7 10 9 11 14 12 7 8 11 11 10 8 8 10 10 9 8 7 6 5 3 2 1 3 6 8 10 11 12 13 14 13 13 12 11 11 12 13 14 14 12 11 8 6 6 5 4 5 2 4 7 8 5 3 4 6 8 10 10 9 8
4 5 7 10 9 11 16 15 12 14 15 14 12 11 10 11 12 12 11 10 9 8 8 7 5 4 2 2 6 9 9 10 10 10 10 10 10 12 11 10 12 13 11 11 9 7 7 6 4 5 8 10 9 6 4 3 4 7 9 10 9 7 6
5 5 7 10 10 12 16 18 17 17 16 14 13 12 12 13 13 13 13 11 10 10 9 8 6 4 3 1 2 7 10 9 7 9 11 11 11 12 11 9 10 10 8 8 8 6 7 8 8 8 10 10 8 6 6 5 5 6 6 7 7 5 6
6 5 7 11 11 12 17 20 19 18 16 14 12 12 14 16 17 16 15 13 13 13 12 10 8 5 1 1 2 6 8 7 6 9 11 11 10 11 11 11 10 9 7 7 8 9 9 9 9 10 10 9 9 9 8 7 8 8 7 8 8 7 8
8 7 8 12 13 15 19 22 20 18 16 15 14 15 19 21 21 20 19 18 18 17 14 11 11 12 9 8 9 10 9 7 7 7 8 9 10 11 11 12 12 11 11 12 13 14 14 13 13 12 11 10 11 12 11 10 9 9 9 9 9 9 9
10 9 11 13 16 19 21 22 20 19 19 18 18 20 23 26 26 23 21 21 21 18 16 16 16 18 19 19 18 18 16 15 14 14 14 14 15 16 16 16 16 15 14 15 17 17 16 15 13 12 11 11 13 12 11 10 10 9 9 9 10 11 11
12 12 13 14 15 19 21 21 22 21 19 19 20 20 23 25 24 21 20 20 19 19 21 22 21 21 22 23 25 25 23 22 21 20 19 18 19 21 21 19 18 18 17 17 19 19 18 16 15 14 14 14 13 12 11 11 10 9 10 12 12 12 13
15 15 15 15 17 20 22 22 23 22 20 20 21 21 21 22 21 19 19 18 16 17 21 23 23 24 23 23 25 26 26 25 24 23 21 19 19 21 21 21 21 21 21 21 21 20 19 18 16 14 13 11 9 9 10 11 10 9 10 13 14 14 14
16 17 17 18 19 19 20 22 24 24 23 22 22 21 19 19 20 19 18 17 16 17 18 19 22 23 22 21 22 22 23 24 22 21 19 18 19 20 20 20 20 19 18 18 17 17 18 17 14 11 10 8 7 6 7 8 7 6 6 10 13 13 13
16 17 18 19 20 19 20 22 23 24 24 23 21 20 18 17 18 19 18 17 17 17 18 18 20 20 19 19 18 18 18 19 18 17 17 16 17 18 18 17 17 15 14 14 13 13 15 15 11 9 8 7 7 7 4 4 3 2 3 7 9 10 11
15 16 18 19 20 20 21 22 23 23 24 23 22 20 19 18 18 19 19 19 18 18 18 19 19 19 17 17 16 16 15 15 14 14 13 12 11 11 12 11 10 9 9 9 8 8 9 9 8 6 6 6 6 4 1 1 1 2 4 7 8 8 9
13 14 17 18 19 19 19 20 22 22 22 21 20 19 18 19 18 18 18 17 17 17 18 18 17 17 16 15 15 14 14 13 13 12 11 11 11 11 10 9 8 9 9 9 9 8 8 7 6 5 5 5 4 2 1 1 3 4 7 8 8 8 8
14 15 18 19 19 19 18 18 20 21 21 20 19 18 18 18 18 17 17 16 15 15 16 16 16 15 15 14 14 13 13 12 12 12 12 12 13 13 12 11 10 10 10 10 9 9 8 7 6 5 5 5 5 3 2 3 4 5 6 7 7 8 8
14 17 19 20 20 20 19 18 19 21 21 19 18 18 18 17 17 16 16 15 15 14 14 14 14 14 14 14 13 12 12 11 11 12 12 12 12 13 13 13 12 12 12 11 10 9 8 7 7 6 5 6 6 4 3 3 4 5 5 6 7 7 8
12 16 19 20 20 20 19 18 19 20 20 19 18 17 17 17 16 16 15 14 13 13 13 13 13 14 14 13 13 12 12 11 11 10 10 10 10 10 11 11 12 12 11 11 10 8 8 8 7 7 6 5 5 4 4 4 5 5 6 7 7 8 8
12 16 18 19 19 19 19 19 18 19 19 18 18 18 17 17 16 15 15 14 13 12 12 12 13 14 14 13 12 11 11 11 10 9 9 8 7 7 7 7 8 8 8 7 7 7 7 6 6 6 6 5 5 3 3 4 5 6 7 8 8 7 7

ECMWFFLT1_925_spd_126.txt.gz
Wind_Speed
14 14 13 12 13 14 13 14 17 18 18 19 19 21 22 22 25 24 24 26 25 23 23 22 22 21 21 20 19 18 17 16 16 14 13 12 11 11 12 11 11 11 12 11 11 11 11 10 11 12 12 11 10 9 9 8 8 8 8 8 8 7 7
12 14 13 13 13 13 14 16 19 19 19 20 21 22 22 22 24 25 25 26 25 24 23 22 22 22 21 20 19 19 18 17 16 15 14 13 12 12 12 11 11 12 12 11 11 12 11 10 11 11 11 12 11 10 10 9 9 8 8 9 8 8 8
10 12 12 10 10 12 14 16 19 20 21 20 20 22 22 22 24 25 26 26 25 25 24 22 23 21 21 21 19 19 19 17 17 16 14 14 13 13 12 12 11 11 11 11 11 11 11 11 11 11 10 10 10 11 10 9 10 9 9 9 8 8 9
9 11 11 8 8 12 14 15 17 19 21 21 20 21 22 22 24 25 25 26 25 25 24 23 23 22 21 21 20 19 19 18 17 17 15 14 14 13 13 13 12 11 11 12 12 11 11 11 11 11 11 10 9 10 11 10 10 9 9 10 9 8 9
9 9 10 8 7 10 13 15 19 20 22 23 21 20 22 22 23 24 24 25 24 24 24 23 22 22 21 21 20 18 19 19 18 17 16 15 14 14 13 14 13 13 13 12 12 12 11 10 11 12 11 11 9 9 10 9 9 9 9 9 9 8 8
8 8 8 6 6 8 13 17 23 23 22 24 23 21 23 23 23 24 23 23 24 24 23 23 22 22 21 21 20 18 19 20 19 18 17 15 15 14 14 14 14 13 13 13 12 12 12 11 11 12 12 11 11 10 10 10 9 9 9 9 9 8 8
9 7 8 6 5 7 12 17 23 24 23 24 25 22 23 23 23 24 24 23 24 24 24 24 23 23 22 21 20 19 19 19 19 18 17 16 15 15 14 14 14 14 14 14 13 12 13 12 11 11 12 11 11 10 10 10 10 10 9 9 10 9 8
7 7 7 7 7 8 10 15 19 23 24 24 25 24 24 24 23 23 24 23 23 24 24 24 23 24 24 22 21 20 19 18 18 18 17 16 16 16 15 14 15 16 14 14 14 12 13 14 12 12 12 11 11 11 10 10 11 10 8 8 8 8 7
5 7 7 8 7 8 7 13 18 21 23 24 24 24 25 24 24 24 25 24 24 24 24 24 23 25 26 23 21 21 19 19 19 18 18 17 17 17 17 16 16 15 14 14 13 13 12 13 13 13 12 11 11 11 10 10 10 9 8 8 7 7 6
6 7 8 8 7 9 9 13 17 17 20 22 22 23 25 25 24 24 24 25 25 24 25 24 22 23 25 23 21 20 19 19 18 18 19 19 18 18 17 16 15 14 14 14 12 12 12 12 13 14 13 12 11 9 9 9 9 8 8 7 6 8 7
6 6 7 7 8 7 8 8 11 13 17 19 20 22 24 25 24 23 23 23 24 24 24 23 22 22 23 22 20 19 19 18 17 18 18 18 18 17 17 16 14 13 14 14 13 12 13 13 14 14 13 12 11 10 9 9 8 8 7 6 6 9 9
5 5 5 5 5 4 5 6 8 11 17 18 19 21 22 23 23 22 22 22 22 23 23 23 22 21 23 22 20 18 18 18 18 18 17 17 17 16 16 14 14 14 15 14 13 13 13 14 15 14 13 14 12 10 10 9 8 8 8 7 6 7 8
5 5 5 4 3 2 1 4 10 9 16 18 19 21 22 21 21 22 23 22 22 22 22 23 23 21 23 23 21 19 19 18 18 18 17 17 17 16 15 14 15 17 17 16 14 13 12 13 14 12 11 13 12 10 10 10 9 9 9 8 7 6 5
5 6 5 4 4 4 4 4 8 12 13 16 17 18 19 21 21 22 23 24 24 23 23 23 22 22 23 23 21 20 20 19 18 17 17 16 17 17 15 13 15 15 15 15 14 13 12 11 12 12 10 11 12 11 10 9 10 10 9 9 9 7 5
6 7 7 6 6 6 6 4 4 7 10 13 17 18 19 20 20 19 21 23 24 24 24 24 23 22 22 22 22 20 19 18 16 16 17 14 14 17 16 13 13 11 10 12 13 12 11 10 10 11 12 12 11 11 9 8 7 8 9 9 9 8 7
6 7 8 8 7 6 4 3 4 5 8 9 10 14 18 22 22 19 19 21 23 22 22 23 23 23 22 21 22 20 19 19 16 14 15 14 12 15 17 15 13 11 9 9 9 9 9 10 10 10 11 11 9 8 8 8 8 8 9 10 10 8 6
6 6 7 7 6 4 6 2 5 7 9 13 12 8 8 13 20 21 19 20 23 23 20 19 19 20 21 21 21 20 18 18 16 13 14 16 15 16 18 18 16 14 11 7 6 8 8 8 7 3 2 6 9 8 7 8 8 9 11 12 11 10 8
5 6 6 7 6 4 6 5 1 4 8 11 12 12 14 14 7 9 14 17 21 22 20 17 16 16 18 18 19 19 17 16 16 15 15 17 17 17 18 18 17 16 14 10 6 6 6 6 3 4 5 2 1 3 4 7 8 8 10 10 10 10 9
3 3 3 4 4 4 4 5 6 4 2 3 3 0 5 12 12 10 5 5 12 17 19 20 21 19 16 16 18 20 19 18 19 17 14 14 15 16 17 17 17 16 15 13 10 6 5 4 3 4 3 3 4 3 5 8 9 8 7 7 6 6 6
5 6 7 6 2 2 4 5 7 9 10 5 4 8 13 15 9 3 6 10 10 13 18 22 22 20 19 17 17 19 20 20 20 18 14 13 13 13 15 17 18 16 15 14 11 7 5 2 3 2 2 6 9 9 8 8 7 6 5 4 3 3 5
6 7 7 6 4 1 3 3 4 10 14 9 7 9 14 15 13 11 9 11 14 13 16 17 15 15 16 17 16 15 16 15 14 13 12 10 9 9 11 14 16 16 14 13 10 7 6 5 3 4 6 9 9 8 7 6 4 2 1 2 4 5 6
5 4 4 6 5 1 2 3 2 4 9 11 10 12 16 16 14 13 11 10 10 8 8 8 6 7 11 14 15 12 8 7 4 5 8 10 12 13 14 14 14 14 14 13 11 9 9 9 7 8 11 10 7 6 7 5 3 2 3 4 6 6 5
3 2 3 5 5 3 3 3 3 1 5 14 19 17 17 17 17 15 13 9 4 3 6 8 6 4 5 9 10 7 6 6 6 7 12 14 14 14 14 14 13 12 13 13 9 8 10 11 8 8 11 12 10 8 8 8 6 5 6 7 6 4 4
3 3 4 5 4 3 2 3 5 5 8 15 19 18 18 18 17 16 14 11 9 8 9 11 10 9 10 9 9 10 11 10 10 10 13 13 11 11 12 12 11 10 10 11 10 10 10 9 8 10 13 15 13 10 9 10 8 6 6 7 6 4 4
4 5 6 7 7 4 4 4 6 9 11 13 16 16 17 17 16 16 15 13 11 11 11 10 9 8 10 12 10 10 11 12 13 10 7 7 8 9 11 11 10 9 8 9 9 8 7 10 16 18 16 15 14 12 11 13 12 11 10 10 9 8 8
5 5 6 8 9 8 6 4 6 11 14 14 14 15 16 16 17 17 16 15 14 14 13 11 9 7 9 13 14 13 12 11 10 6 2 3 5 5 7 8 8 7 6 7 10 13 14 17 21 22 19 16 15 14 14 15 15 14 14 13 12 12 11
7 8 8 7 7 7 7 6 8 11 15 16 17 17 17 18 19 19 17 16 17 17 15 12 11 12 14 16 18 18 15 12 10 6 6 7 6 5 4 6 9 11 12 15 19 21 21 18 19 23 23 19 18 17 14 13 14 13 12 11 12 13 13
9 9 9 8 7 6 7 10 12 13 16 18 19 20 20 21 21 20 18 19 19 19 19 18 17 20 22 22 20 19 18 17 15 14 14 14 13 13 14 15 15 16 17 18 20 22 22 19 18 21 22 19 18 17 15 13 13 11 9 9 11 12 13
9 8 9 9 8 7 8 12 15 16 17 19 20 21 23 25 24 22 21 20 19 20 23 25 25 26 27 26 24 22 22 22 21 20 19 18 17 18 19 19 18 18 18 19 19 21 22 21 19 20 21 20 19 16 13 12 11 10 10 10 10 11 12
9 7 8 10 9 8 8 10 15 18 19 20 21 23 25 27 25 23 21 20 19 22 25 27 28 29 27 25 25 25 25 26 25 23 22 21 22 22 22 21 20 20 21 22 22 22 21 18 15 15 16 18 17 14 12 11 9 9 10 11 10 11 11
10 9 9 10 11 11 11 11 15 19 20 20 21 22 24 26 25 22 20 20 20 23 25 25 27 28 26 24 24 24 24 25 25 24 24 24 24 24 22 21 21 22 22 22 21 19 17 14 11 11 12 15 14 13 12 11 10 10 10 10 9 10 10
12 11 10 9 10 13 14 13 14 17 17 17 19 20 21 23 24 23 21 20 22 24 25 25 26 25 23 22 22 21 22 24 25 25 23 22 21 20 19 18 18 18 18 18 17 16 15 14 12 10 11 12 12 12 12 11 10 8 9 9 9 10 9
13 12 11 9 10 13 15 15 14 14 15 15 17 18 19 20 22 23 23 23 24 24 25 25 24 23 23 22 21 20 20 20 20 19 17 16 15 15 15 15 14 14 13 13 12 12 12 11 9 8 9 11 12 12 12 10 9 9 10 11 10 10 10
15 15 12 10 11 13 15 15 15 15 15 15 16 18 19 20 22 23 23 24 23 22 21 20 20 20 20 20 19 19 18 17 18 18 19 18 16 15 15 14 15 16 17 16 14 12 11 11 12 12 12 11 11 12 12 11 11 11 11 11 11 11 11
17 18 16 14 13 11 9 10 12 15 15 15 17 18 18 19 20 20 20 20 20 19 18 17 17 18 18 17 17 17 17 17 17 18 20 20 20 19 19 17 16 17 18 17 15 14 12 12 14 14 13 11 10 10 11 11 11 11 11 11 11 12 12
17 18 17 17 15 10 7 9 12 15 16 16 16 17 17 18 18 17 16 16 16 16 17 16 16 16 16 16 16 16 16 17 17 17 18 18 18 19 20 18 17 16 16 16 14 13 11 12 13 12 11 11 11 10 10 10 10 10 10 10 11 11 11
18 18 15 15 15 13 10 10 11 11 13 15 16 16 18 18 17 16 16 15 15 16 17 18 18 17 17 17 17 16 16 16 17 17 16 16 15 16 18 18 17 16 15 15 14 13 12 12 11 9 8 9 10 10 9 9 8 8 9 10 10 10 9
21 21 17 13 14 14 13 11 9 9 12 15 16 18 18 18 16 16 16 16 16 17 17 18 17 16 15 16 16 16 15 15 14 14 13 12 12 13 13 13 14 14 13 13 12 12 12 11 10 9 8 8 8 8 7 7 7 7 8 9 9 9 7

ECMWFFLT1_925_spd_129.txt.gz
Wind_Speed
9 8 8 9 10 12 11 12 17 19 19 19 24 31 29 28 31 30 30 30 29 29 27 26 28 27 26 24 22 22 20 19 20 18 18 18 16 15 15 15 15 14 14 15 14 14 14 13 14 16 15 12 11 11 11 10 9 9 9 7 7 7 6
6 5 5 6 9 12 12 15 19 20 20 18 21 30 29 28 32 31 31 31 29 30 28 27 29 28 27 26 23 23 21 20 20 18 18 17 16 15 15 15 15 15 14 15 14 14 14 14 15 15 14 13 13 12 11 11 9 10 9 8 8 7 7
4 3 4 4 5 10 13 16 18 19 22 20 19 28 30 29 33 34 33 32 29 29 28 26 28 28 27 26 24 23 22 21 21 20 18 18 17 16 15 15 16 16 15 15 16 15 15 15 15 15 14 14 14 12 12 11 10 9 9 8 8 7 7
5 5 5 5 3 6 11 17 19 19 22 22 20 25 29 30 34 34 34 34 31 30 28 26 27 27 27 27 25 24 23 23 22 21 19 18 17 17 15 15 16 16 15 15 16 16 14 15 15 14 13 14 14 14 13 12 10 9 9 9 9 8 7
6 7 6 3 3 2 5 13 20 20 21 23 23 23 25 30 34 33 34 35 33 31 29 27 26 26 26 26 25 24 24 24 23 22 20 19 18 17 17 17 16 15 15 14 14 15 15 15 16 15 14 14 13 13 13 12 11 11 9 9 10 9 7
7 7 6 2 1 3 4 8 20 24 22 23 25 24 22 28 32 32 33 33 32 32 30 27 25 25 25 26 25 23 24 24 23 22 21 19 19 19 18 18 17 16 16 15 15 16 16 16 16 17 17 15 14 12 11 11 12 12 10 11 11 9 8
6 7 7 5 3 1 4 8 15 25 24 23 24 23 22 27 31 30 32 33 31 30 29 27 26 26 26 26 25 23 23 25 24 23 22 20 20 20 19 18 18 18 17 17 17 18 17 16 16 17 18 16 15 14 13 13 12 11 11 12 11 10 9
3 6 8 8 7 5 3 7 8 17 24 24 22 21 21 25 29 30 30 31 31 30 30 28 27 27 27 26 26 24 23 24 24 23 22 21 20 20 19 18 18 17 16 17 18 18 18 18 16 16 16 15 15 14 13 14 13 12 12 12 11 10 10
4 3 7 9 8 8 7 6 8 8 18 25 23 22 22 23 25 29 30 30 29 29 30 30 28 28 28 27 27 26 23 24 25 24 23 22 20 19 18 17 17 17 17 17 16 16 17 19 18 17 16 16 17 15 13 13 12 12 12 11 11 10 10
3 3 5 7 7 8 9 6 5 7 10 21 24 22 23 23 23 26 29 30 31 29 29 30 28 27 29 28 26 25 24 23 24 24 23 22 21 19 18 17 17 18 17 17 16 16 16 18 18 18 17 16 16 14 13 13 12 12 12 11 10 11 10
1 3 4 6 7 8 8 6 2 4 6 12 22 23 23 23 23 25 28 29 31 31 30 31 29 27 29 30 27 26 25 23 23 23 23 22 21 20 19 19 19 19 17 16 16 16 16 16 17 18 19 18 16 14 13 13 12 11 11 10 9 9 9
2 4 4 5 7 7 5 4 4 2 5 5 13 22 25 26 24 23 26 28 30 31 30 31 31 28 30 31 28 26 26 23 23 23 23 24 22 21 21 21 20 19 18 18 16 15 16 17 16 17 17 18 18 16 13 13 12 11 10 9 9 8 7
5 4 5 5 4 4 5 4 3 3 3 5 4 10 15 25 30 25 23 25 28 31 31 31 28 26 30 33 29 27 26 24 24 24 23 23 22 22 21 18 17 18 18 19 17 14 15 17 18 19 17 18 19 17 15 13 12 12 10 8 8 8 6
9 8 6 4 2 3 5 4 3 4 4 4 2 5 8 10 21 26 26 27 28 28 30 31 28 25 29 32 29 27 26 23 22 21 21 21 20 20 19 14 13 16 17 17 17 15 13 12 15 17 14 12 11 9 9 12 11 11 10 8 8 8 6
9 11 10 8 6 6 5 3 3 5 6 6 4 5 3 6 5 6 10 18 26 30 30 30 27 25 29 32 29 27 25 23 21 19 18 19 19 19 19 15 11 12 12 13 14 13 11 9 9 11 12 10 8 4 7 11 10 10 10 9 8 8 7
4 6 8 9 9 8 5 0 3 6 9 9 7 4 4 2 3 5 5 4 4 14 24 28 28 26 27 28 28 27 25 22 21 19 17 16 16 18 20 17 13 10 8 10 11 10 11 12 10 9 11 13 12 8 9 11 11 11 10 9 9 9 8
2 3 4 6 6 7 8 6 2 3 6 9 8 5 5 6 5 5 7 4 11 10 2 9 18 25 29 29 28 28 27 26 24 21 17 14 12 15 17 17 16 13 9 8 7 5 9 12 12 11 10 12 13 11 10 11 11 11 11 11 11 11 9
3 4 4 5 5 4 6 7 5 3 1 5 7 6 7 11 10 9 14 13 8 7 5 3 1 4 13 20 21 15 11 15 19 19 18 16 13 13 14 15 16 16 12 9 7 5 6 9 11 12 11 12 14 14 13 13 12 11 12 11 11 11 9
1 3 4 5 5 4 4 4 4 4 4 4 8 9 10 14 16 15 15 15 13 14 15 12 6 3 9 3 9 8 5 4 4 8 11 14 14 14 15 15 15 16 15 12 10 9 8 7 9 10 11 11 14 14 14 13 12 11 10 9 9 8 6
1 2 3 3 3 3 4 3 3 4 6 10 15 15 14 16 17 16 14 14 14 13 14 17 19 13 4 8 5 10 8 6 7 8 9 11 12 12 13 14 15 15 14 12 11 11 9 8 9 11 13 13 14 14 13 12 11 9 8 8 7 7 5
3 2 3 4 4 3 4 5 4 5 6 10 14 14 15 18 20 20 17 16 17 18 18 18 17 14 11 5 3 9 13 15 16 14 10 10 11 12 12 12 12 12 12 11 11 11 11 11 12 14 16 16 15 15 14 12 10 9 8 8 7 7 6
3 3 3 4 4 4 6 7 6 7 10 12 12 14 18 19 21 24 22 19 19 18 19 19 13 12 13 14 16 17 16 15 16 15 12 11 13 15 13 11 9 9 11 12 12 12 12 13 15 16 18 18 16 15 15 13 10 9 8 7 7 6 6
4 4 5 7 7 6 8 10 8 8 10 15 19 18 22 22 22 25 23 19 18 17 17 16 13 15 15 15 19 19 16 15 16 16 14 13 13 12 11 9 7 8 11 12 12 14 15 16 18 19 19 18 17 16 15 13 10 8 7 7 7 7 8
6 7 9 11 12 11 11 10 10 10 8 14 21 16 23 23 23 27 24 18 18 18 17 13 12 15 16 15 16 13 11 14 16 14 12 10 9 8 6 6 5 6 8 10 10 13 14 15 18 21 20 19 17 16 16 14 11 9 8 7 7 8 9
5 8 10 11 11 11 11 10 10 10 7 12 17 2 21 24 24 28 24 19 18 19 20 19 16 17 18 15 12 7 5 9 13 12 10 8 6 5 4 4 5 3 3 6 9 11 12 13 18 20 20 19 18 17 17 17 16 14 14 14 12 12 12
5 7 9 10 9 8 8 9 11 13 13 13 16 12 20 26 27 28 25 21 20 18 19 21 19 18 16 12 9 6 5 8 10 10 9 8 7 6 4 4 4 2 1 4 9 14 15 16 19 21 20 19 19 19 18 18 17 15 16 17 16 15 15
7 7 7 7 6 6 8 11 13 15 17 16 14 11 15 24 25 24 23 24 22 19 17 17 16 14 11 11 12 12 9 10 11 12 12 10 9 9 9 8 7 6 7 10 15 21 23 21 18 20 21 20 20 20 18 16 15 14 14 15 15 15 15
7 6 7 8 9 9 11 15 18 18 18 16 14 12 16 23 23 20 21 23 21 19 19 19 19 16 13 14 16 15 14 15 16 17 17 16 16 17 19 18 17 17 19 20 22 25 27 24 21 20 21 20 19 20 19 16 14 15 15 15 15 16 16
8 6 7 10 12 15 18 19 21 22 20 17 14 12 13 18 22 22 23 23 21 23 25 25 25 24 21 20 19 18 18 20 20 21 21 21 21 22 22 21 21 21 22 23 25 27 28 27 24 20 19 17 15 16 18 17 15 15 14 14 14 15 14
8 8 9 12 14 19 22 21 20 20 19 16 16 16 15 16 20 23 25 24 25 27 28 28 28 28 26 25 23 23 23 23 22 22 22 22 23 23 23 21 20 21 21 23 26 28 27 26 23 19 16 15 14 14 15 16 16 14 12 12 12 11 9
8 10 11 14 17 21 23 21 18 17 17 17 17 19 20 21 22 24 25 25 27 28 28 29 29 28 27 26 26 26 27 26 26 25 24 24 25 26 25 24 23 23 23 23 24 24 22 21 21 19 16 15 15 15 13 13 13 11 9 10 11 9 7
10 12 13 14 17 21 24 23 19 16 15 17 19 21 22 23 24 24 24 25 27 28 28 29 29 28 27 28 27 27 28 28 27 25 24 25 25 24 23 23 22 22 21 22 22 20 19 18 17 15 14 14 14 14 12 11 10 10 11 11 11 11 9
11 13 15 16 18 21 23 24 22 17 14 15 18 20 22 25 25 25 26 26 27 28 29 29 28 28 28 28 26 25 26 26 24 23 22 22 22 21 19 19 19 19 18 18 19 18 16 15 13 12 13 13 13 13 12 12 12 13 13 13 13 13 13
13 14 17 20 22 23 23 25 25 21 17 19 21 21 22 25 26 25 26 26 25 26 28 27 26 27 26 25 24 24 25 25 25 24 24 23 23 23 22 22 21 20 18 16 17 17 16 15 13 13 14 14 12 12 13 14 14 15 15 15 15 15 14
14 15 17 19 22 23 23 23 22 20 18 20 22 21 21 24 25 25 25 25 23 24 25 25 25 26 25 24 23 23 24 25 26 25 25 25 25 25 24 23 22 22 20 18 17 16 15 14 14 13 13 12 12 12 14 15 15 15 15 15 15 14 14
14 14 15 16 17 19 19 19 20 20 18 18 18 16 15 17 19 20 20 20 19 20 22 23 24 25 24 23 23 22 23 24 25 25 26 26 26 25 25 23 21 20 20 19 17 15 13 14 14 13 12 13 14 13 13 14 13 13 13 13 13 13 13
14 14 14 14 14 16 18 19 20 19 17 17 19 17 15 15 17 17 17 18 20 22 24 25 26 26 24 24 24 23 23 23 24 25 25 25 25 25 25 24 22 20 19 18 17 16 15 16 16 14 13 14 15 14 14 13 12 12 12 12 12 11 11
15 14 13 13 15 17 18 17 18 18 19 22 23 21 19 19 18 19 19 20 22 24 25 26 27 25 24 25 24 23 23 23 22 23 23 23 23 23 23 23 22 20 18 18 18 18 17 17 16 15 15 15 16 15 14 14 13 13 12 12 11 11 10

ECMWFFLT1_925_spd_132.txt.gz
Wind_Speed
9 9 10 11 11 11 12 14 19 22 24 26 27 29 30 29 31 32 31 33 33 30 30 31 30 30 29 28 28 27 23 19 20 22 22 21 20 20 20 20 20 19 19 20 20 18 17 16 16 15 14 13 13 13 13 12 12 11 10 9 9 8 8
8 7 8 10 11 11 14 18 21 22 23 26 28 29 30 31 32 33 32 34 35 33 31 31 31 31 30 29 28 28 25 21 20 22 21 20 20 19 20 20 19 19 18 19 19 18 17 16 17 17 15 15 15 14 13 13 13 13 12 11 11 10 10
7 6 6 9 11 10 10 13 17 22 25 25 27 29 29 32 35 35 34 35 35 34 32 31 31 31 30 29 28 28 27 23 21 22 22 21 20 20 19 19 19 19 18 17 17 18 18 17 17 18 18 18 18 16 14 14 14 14 13 13 13 11 10
6 5 3 5 8 8 10 9 13 17 24 26 27 29 31 34 37 37 36 36 36 34 33 32 32 31 30 30 29 28 28 26 23 23 23 22 21 20 19 19 18 19 18 17 16 16 17 17 18 18 18 18 18 17 15 15 15 14 13 13 14 12 10
5 5 4 3 5 7 11 14 15 15 20 26 27 27 30 34 36 36 36 36 36 36 35 33 32 31 31 31 30 28 28 28 25 24 24 22 21 21 20 20 18 18 18 18 17 17 17 17 18 18 19 19 18 17 16 16 16 15 13 12 13 12 11
4 5 6 4 5 7 10 16 18 17 17 22 28 28 29 33 35 35 36 36 36 36 35 33 31 31 31 30 30 28 27 28 27 25 25 23 22 22 21 21 19 18 19 18 18 18 18 19 19 19 19 20 18 17 16 16 16 15 13 12 13 13 12
4 3 5 5 6 7 10 16 20 19 18 19 25 29 29 32 34 35 35 35 35 35 34 33 31 30 30 30 30 28 27 28 28 26 25 24 23 22 22 21 20 20 20 18 18 18 18 19 20 20 20 20 19 19 18 17 16 16 15 14 14 14 13
6 5 3 5 6 5 7 11 17 22 21 17 16 23 30 32 33 34 34 34 35 34 34 34 33 31 31 30 30 29 28 28 28 27 26 25 24 23 22 22 21 20 20 20 19 19 19 20 21 22 22 21 20 19 19 18 16 15 16 17 16 15 14
5 5 5 3 4 3 2 2 6 18 24 18 12 17 26 32 32 33 34 34 33 33 34 34 33 32 31 30 30 30 28 28 28 28 27 26 26 25 24 24 23 21 21 22 22 22 22 22 22 23 23 23 23 23 21 20 18 17 17 17 16 16 15
3 3 5 4 2 1 1 3 4 10 19 20 16 17 22 30 33 33 34 34 34 33 34 35 33 32 31 30 30 30 29 28 28 28 28 28 27 27 26 25 24 24 23 23 22 23 24 24 25 27 25 22 20 17 15 15 16 18 19 18 16 15 14
1 1 3 5 5 4 5 6 9 8 14 18 19 19 21 26 32 34 34 34 34 34 34 34 33 32 32 31 30 30 30 29 28 29 30 30 29 28 26 24 23 23 24 22 21 22 23 22 22 20 15 11 11 11 11 12 14 15 14 15 14 13 13
3 0 1 3 5 6 7 8 12 11 9 17 22 21 20 21 27 33 35 35 35 34 34 33 33 32 32 32 31 31 31 30 30 30 30 31 30 29 27 24 22 22 22 22 23 23 21 17 14 12 10 12 17 18 18 17 16 14 14 14 13 13 13
4 3 2 2 4 6 7 8 4 10 11 9 18 24 20 16 19 25 30 33 34 34 35 34 33 33 33 33 32 32 33 32 31 31 31 31 29 28 28 25 24 24 24 24 25 24 21 16 15 18 19 18 20 21 19 17 16 16 18 16 13 13 12
5 5 3 1 4 5 4 6 6 3 9 16 12 17 23 18 15 19 23 25 26 29 32 34 35 34 34 33 33 33 34 33 32 31 31 31 29 28 28 27 27 27 26 26 25 23 21 18 17 18 18 17 19 21 19 16 15 16 17 15 13 13 12
5 5 5 3 3 5 4 2 2 7 8 5 13 10 17 21 18 19 22 23 21 22 25 28 31 34 34 34 34 35 35 34 33 31 30 30 29 27 27 27 28 27 26 27 27 23 20 20 18 17 17 18 19 19 17 16 16 17 16 15 14 14 12
3 5 5 3 2 4 5 5 2 2 8 9 3 10 7 13 21 21 22 23 22 19 19 19 21 26 30 32 33 34 35 35 33 32 30 30 30 28 26 25 25 23 22 24 25 22 20 20 20 18 17 18 19 19 17 16 17 17 16 16 16 15 13
2 4 6 4 2 4 5 6 6 4 5 10 11 6 8 7 16 22 22 22 23 21 19 16 14 16 19 23 26 28 30 31 30 28 28 28 28 27 25 25 23 19 18 19 19 18 19 21 22 21 19 19 20 20 17 16 17 18 18 17 17 16 15
3 4 5 5 3 1 4 4 5 6 7 8 12 14 12 11 16 22 22 22 23 24 23 19 17 16 17 20 23 24 24 27 27 25 22 22 23 23 23 24 22 19 18 18 16 16 18 21 22 21 19 19 20 20 18 17 18 19 19 18 17 16 15
3 4 4 4 5 3 2 3 4 5 8 10 12 15 15 15 18 21 24 25 24 25 26 23 21 21 21 22 24 24 23 23 24 24 21 19 19 19 21 23 23 21 20 19 18 18 19 20 21 19 18 19 20 20 20 19 19 19 19 18 17 16 15
2 2 3 4 5 4 3 1 2 1 2 5 9 11 12 14 18 20 23 26 27 28 28 26 24 24 24 24 25 26 24 22 21 22 23 21 18 18 19 21 22 21 20 20 19 19 19 19 19 19 18 19 19 20 20 20 19 19 18 17 16 14 13
2 1 2 3 4 4 4 4 4 3 3 2 3 7 10 13 16 18 22 27 30 29 29 27 26 27 26 26 27 27 26 25 24 23 23 21 19 19 19 20 20 20 19 20 20 21 20 20 20 20 19 19 20 20 19 18 17 17 16 14 13 12 13
3 2 1 2 3 4 4 4 5 4 4 4 4 5 7 11 13 15 18 25 30 30 30 30 29 29 29 27 28 29 28 26 26 24 22 20 19 18 18 18 18 17 17 19 20 19 18 18 19 20 20 19 19 18 16 14 14 14 14 13 12 13 15
2 1 1 3 4 5 5 5 4 4 5 6 8 8 8 10 12 14 14 15 19 23 27 29 28 29 30 29 28 29 28 25 24 23 21 20 18 17 17 16 16 15 14 16 17 16 15 15 16 18 18 17 16 14 13 11 9 9 12 13 13 14 14
1 2 2 5 6 7 8 8 6 5 5 7 11 12 13 13 14 17 16 13 15 18 22 26 28 29 30 28 27 27 27 25 24 22 20 19 17 17 16 15 16 15 10 8 11 14 14 14 15 15 15 14 13 12 12 10 8 7 10 12 14 16 16
2 4 6 7 7 7 8 7 5 5 5 7 10 12 14 18 19 22 23 20 20 20 19 22 24 23 23 24 24 24 23 22 20 18 16 15 13 13 13 12 13 12 8 4 9 13 12 13 15 16 16 16 16 14 13 13 12 10 10 11 14 16 16
5 7 9 9 9 10 10 9 7 7 8 10 11 12 14 18 24 28 26 22 22 22 23 24 23 19 17 19 20 19 17 16 15 14 12 11 10 10 10 12 15 17 12 9 10 12 12 14 16 15 15 17 18 16 14 13 13 12 12 12 13 14 16
9 10 12 11 11 12 12 11 11 10 12 12 11 15 15 6 23 29 25 22 19 18 22 27 26 22 19 19 19 18 16 15 15 14 12 12 11 12 14 15 18 20 19 17 17 16 17 18 18 17 15 16 18 18 15 12 12 12 12 13 15 15 14
9 11 12 12 12 12 12 12 13 13 13 14 13 16 17 12 19 23 23 22 18 17 20 24 24 22 20 21 21 21 20 19 18 17 16 15 16 19 21 20 21 22 24 24 23 23 23 22 21 20 17 15 17 20 18 16 15 14 14 16 18 18 14
8 9 11 12 11 11 11 12 13 13 13 16 17 18 18 17 18 19 21 21 19 20 23 25 25 23 23 23 24 24 23 23 23 23 23 23 25 27 28 27 27 28 28 28 29 29 27 25 23 22 19 17 18 20 21 19 17 15 13 13 15 15 13
9 10 11 11 10 10 12 12 12 13 15 19 22 22 20 18 18 20 20 19 21 24 26 27 28 27 25 25 26 27 27 28 28 28 28 29 30 31 30 29 29 29 29 29 29 28 26 23 23 22 20 17 15 15 18 19 17 14 11 10 12 12 9
10 11 9 9 9 11 12 12 13 14 17 21 26 27 25 22 19 18 19 21 25 27 28 29 30 29 27 27 28 29 30 31 30 30 30 29 30 31 31 30 30 30 28 27 27 26 25 23 20 19 18 16 14 14 16 17 17 13 10 9 9 8 5
10 10 9 9 9 10 12 13 15 16 18 21 27 30 29 26 23 20 21 24 27 28 29 30 31 30 28 28 28 30 31 32 31 31 30 29 29 30 30 30 30 28 26 24 25 24 23 20 18 17 17 16 15 15 15 15 14 12 9 8 7 6 5
9 9 10 10 9 10 13 15 16 17 18 20 25 29 31 30 28 25 24 26 28 29 30 31 32 32 30 29 29 30 31 32 32 32 31 29 29 29 28 28 27 25 22 22 22 20 18 16 16 16 16 15 15 14 14 14 13 12 10 10 9 9 9
9 11 12 12 12 14 16 16 17 18 19 19 24 30 32 31 29 27 27 27 27 30 31 32 33 33 32 31 31 31 31 32 32 32 31 29 28 28 27 25 25 23 21 19 18 16 15 15 15 15 15 15 15 15 15 14 14 13 13 12 12 13 13
11 13 14 15 15 16 18 18 19 20 20 21 24 29 31 30 28 28 28 27 26 29 31 31 32 32 31 31 31 31 31 31 31 31 30 29 28 27 25 23 21 20 18 17 16 15 14 15 15 14 14 15 15 14 14 14 14 14 14 14 14 14 14
13 14 15 13 12 13 17 19 20 22 21 19 21 25 28 27 27 28 28 26 24 26 28 29 29 28 28 28 28 28 29 31 31 30 30 29 28 26 25 23 21 19 18 18 16 15 15 15 16 15 16 17 16 14 14 14 14 14 15 15 15 15 15
13 11 9 7 8 10 13 15 15 16 15 15 17 22 26 27 27 27 26 23 22 22 24 25 25 25 24 25 26 27 29 30 30 30 30 29 28 27 26 25 22 20 19 19 19 19 19 19 18 17 17 17 17 15 14 14 14 15 15 16 16 16 16
11 9 7 7 9 11 11 12 13 13 14 15 17 20 23 24 24 23 22 21 21 22 22 22 23 23 23 24 25 27 29 29 29 30 30 29 28 27 27 26 24 21 19 19 20 20 20 20 19 18 17 17 17 16 16 16 17 17 16 15 16 16 16

ECMWFFLT1_925_spd_135.txt.gz
Wind_Speed
10 9 9 9 10 11 12 16 21 23 24 26 27 29 29 29 29 30 30 32 32 31 32 34 33 30 27 26 25 24 24 23 22 21 21 22 22 21 21 21 20 20 19 18 17 17 16 15 14 14 13 13 12 12 12 12 12 12 11 10 10 9 9
8 9 8 8 9 10 12 17 22 23 25 26 28 29 29 30 31 31 31 32 33 33 33 34 34 32 30 28 26 25 25 24 23 21 21 22 22 22 21 20 20 20 19 18 17 16 16 15 15 14 13 13 13 12 12 12 12 12 12 12 11 11 11
6 7 8 8 8 10 11 15 20 23 25 27 28 29 30 31 33 34 33 33 33 33 33 34 35 34 32 30 28 27 27 26 25 22 21 22 22 22 21 19 19 19 18 18 17 17 16 16 15 14 14 14 14 13 13 13 13 13 13 13 13 13 13
6 7 7 7 8 10 11 14 19 23 26 28 30 31 32 34 35 35 35 35 35 34 34 35 35 35 34 33 31 30 29 29 27 24 22 21 22 22 21 20 19 19 19 19 18 18 17 16 17 16 16 15 15 15 16 16 15 14 14 14 15 15 15
4 5 4 5 7 8 9 13 18 22 24 28 31 32 33 34 34 35 35 36 36 36 37 37 36 35 34 34 33 32 31 31 30 27 23 22 22 22 22 21 20 19 20 20 19 19 17 17 18 17 17 17 16 16 17 17 17 16 15 15 15 15 15
2 2 1 2 3 5 7 13 21 25 26 27 29 31 32 32 33 35 36 35 35 36 37 36 36 35 34 34 33 32 31 31 32 30 26 23 22 23 23 22 21 21 20 20 19 19 18 17 17 17 17 17 17 17 17 17 17 16 16 16 16 15 14
0 1 1 3 1 2 2 4 9 15 22 27 28 28 30 32 33 34 35 35 35 35 34 34 35 35 35 35 34 32 31 31 32 31 29 25 23 24 24 23 22 22 21 20 19 19 18 18 18 17 17 16 16 16 16 17 17 16 16 16 17 17 15
2 3 3 2 1 4 3 4 9 11 9 12 20 25 27 29 32 33 33 34 35 34 34 34 35 35 35 34 34 33 32 31 31 32 30 28 25 25 25 24 23 23 22 21 20 18 18 17 17 16 15 15 16 16 17 18 19 18 17 17 18 18 18
0 2 3 5 5 5 7 9 9 7 10 13 12 18 24 27 29 32 34 35 34 33 35 35 36 36 36 34 34 34 33 32 31 31 31 30 28 27 26 26 25 24 23 23 21 19 18 18 18 18 18 19 19 19 19 20 21 20 19 18 18 18 17
3 3 4 4 8 7 7 11 12 10 10 13 14 11 16 24 29 31 32 33 34 35 36 36 36 36 35 35 34 34 33 32 32 31 31 30 30 29 28 27 26 25 24 24 22 20 20 21 21 20 19 20 20 20 20 21 21 20 19 19 19 19 17
4 2 5 3 5 7 8 9 9 9 12 15 14 12 11 14 21 28 31 33 33 35 36 36 36 35 34 34 34 33 33 33 32 31 31 31 30 30 28 27 26 25 24 24 23 22 22 23 22 21 20 21 21 21 21 21 20 20 20 20 19 20 18
3 2 3 6 5 4 6 7 9 11 13 15 16 18 15 11 13 19 25 31 34 34 35 36 35 34 34 34 33 32 32 32 32 31 31 31 30 29 28 27 27 26 26 24 23 24 24 24 24 23 22 21 21 20 21 21 20 20 20 19 19 19 19
3 3 2 4 5 5 5 6 7 11 17 16 13 17 22 20 16 17 20 25 32 34 34 34 34 34 34 34 33 32 32 32 32 32 31 30 30 29 28 28 27 27 26 25 24 25 25 25 24 23 21 21 20 20 21 21 21 20 19 19 19 19 18
4 4 3 4 4 5 6 6 7 8 13 16 15 15 17 21 23 19 17 20 26 31 32 32 33 34 34 34 33 33 33 33 32 31 30 29 29 29 28 29 29 29 27 25 24 25 25 25 24 23 22 21 20 19 20 20 20 20 20 19 19 18 18
5 4 5 5 4 5 6 7 6 7 8 10 13 15 16 18 22 22 19 18 22 27 31 32 32 33 34 34 34 35 34 33 32 31 30 29 28 29 29 29 30 29 29 28 26 25 25 25 25 24 22 20 19 19 20 20 20 20 20 19 18 18 18
4 5 5 4 5 5 6 7 7 7 7 7 9 12 15 19 21 23 25 23 21 24 30 32 32 33 33 33 34 35 34 33 32 31 30 30 30 30 30 30 30 30 29 29 28 26 25 25 25 25 24 22 20 19 20 21 21 20 20 20 19 18 18
3 4 5 5 4 5 5 7 7 7 6 5 8 10 13 17 20 21 25 26 25 25 28 31 33 33 33 34 35 34 33 32 32 31 32 32 32 32 32 31 31 30 29 29 29 28 27 26 26 25 24 22 20 20 21 21 21 20 20 20 19 19 20
1 2 3 4 4 4 5 5 5 7 8 7 9 10 12 14 17 21 23 26 28 28 29 31 34 34 34 34 34 33 32 32 32 32 33 33 33 33 32 32 32 31 30 29 28 28 27 26 26 25 23 22 21 20 20 21 21 20 20 19 19 20 20
2 2 2 2 2 3 3 4 6 9 11 11 11 12 12 12 14 19 23 27 29 28 28 30 32 34 35 35 34 33 32 32 33 33 34 34 34 33 32 32 31 30 29 27 26 26 26 25 26 25 23 22 21 21 20 20 20 20 19 19 19 19 20
4 3 2 1 2 3 3 5 8 10 11 12 11 12 14 13 12 14 18 23 27 26 26 26 27 29 32 34 34 33 33 34 34 34 34 34 34 34 33 32 31 30 28 26 24 24 24 24 24 22 21 20 20 20 19 19 20 20 20 20 19 19 20
2 1 1 2 2 3 5 7 10 11 12 12 12 11 12 13 13 13 14 17 22 26 28 28 28 29 31 32 34 33 33 34 34 34 34 34 34 34 32 31 29 26 23 20 20 20 19 18 17 16 15 15 16 17 17 16 17 18 18 19 19 18 18
2 1 1 2 3 4 7 9 11 12 13 13 13 13 13 13 13 13 14 16 19 24 28 28 29 30 28 27 31 33 34 35 35 34 33 33 33 32 28 25 21 18 17 16 16 16 15 13 11 10 10 11 12 12 12 12 13 14 15 16 16 16 16
2 2 2 2 4 5 6 9 11 13 14 14 15 16 16 14 13 13 15 16 19 24 27 27 28 30 29 28 29 30 30 31 33 35 34 32 30 26 22 20 19 18 18 16 14 14 13 12 10 9 9 10 10 9 7 5 7 11 13 12 13 14 15
1 1 2 3 4 4 6 8 11 13 14 15 17 19 18 17 16 15 16 17 20 25 28 27 26 27 29 30 30 27 22 17 17 22 28 29 26 23 20 20 20 19 18 17 16 15 15 14 14 13 11 10 10 8 6 3 1 6 11 12 12 12 13
3 2 2 2 1 3 7 10 11 12 13 15 18 19 18 18 18 17 18 19 21 24 27 28 28 27 27 28 28 28 24 17 12 12 13 14 18 22 23 22 20 18 17 18 18 19 18 17 17 16 14 13 12 8 6 5 3 0 5 10 11 11 11
3 3 3 2 1 4 8 9 9 10 12 14 17 18 18 18 19 20 21 21 22 23 26 28 27 26 24 21 19 20 21 20 18 16 13 13 17 22 23 21 19 19 20 21 21 22 20 18 17 18 17 15 12 8 6 6 7 6 3 4 8 9 10
4 3 2 1 3 5 7 7 8 9 11 13 15 17 17 16 20 25 26 22 22 24 26 25 24 23 23 19 15 15 16 16 18 19 19 19 19 19 20 19 19 19 22 24 24 24 22 20 19 20 19 16 12 9 7 7 7 7 5 4 5 9 11
4 2 1 1 3 5 6 7 9 10 11 13 13 15 15 13 17 24 26 23 23 24 25 24 22 21 22 21 18 17 18 18 18 19 19 19 18 19 22 22 22 23 25 26 27 26 25 23 22 22 22 19 16 14 11 9 8 9 9 8 8 10 12
2 1 2 3 5 6 7 8 9 11 12 14 13 14 14 10 5 9 14 18 22 24 24 23 22 19 19 22 22 21 22 22 22 23 24 23 22 23 24 25 26 28 28 29 29 29 27 26 25 25 24 22 19 16 13 11 10 12 11 10 11 12 12
3 1 2 5 6 7 7 8 9 11 13 15 14 13 13 12 10 8 8 11 18 23 24 24 23 21 22 24 25 26 26 27 27 28 29 28 27 27 28 28 29 30 30 31 32 31 30 28 27 26 25 22 19 16 15 14 13 13 11 9 10 10 9
3 3 4 6 6 7 8 8 9 11 15 16 16 15 14 13 14 15 13 12 17 22 22 24 26 25 25 27 28 29 31 32 32 32 31 30 30 31 32 32 31 30 30 30 31 31 29 26 25 24 23 21 19 18 17 15 14 14 13 12 11 10 9
5 5 5 5 6 6 7 8 10 13 15 17 17 18 17 16 17 17 15 16 21 23 23 25 27 26 26 27 27 29 33 35 34 34 33 33 32 32 33 33 32 31 29 28 29 28 26 24 22 22 21 20 18 16 14 13 11 10 9 9 9 8 7
5 6 6 5 4 5 7 9 11 13 15 17 18 19 20 21 19 18 18 21 24 26 26 26 25 25 27 29 30 30 33 35 35 34 34 33 31 30 30 30 31 30 28 27 27 25 24 23 23 22 20 19 17 15 13 12 10 9 8 7 7 7 6
6 7 6 5 5 7 9 10 11 13 15 16 17 19 22 23 21 20 22 23 24 27 28 26 24 24 26 30 32 32 33 34 35 35 35 34 32 30 28 26 28 28 26 25 25 25 24 23 23 22 21 20 19 17 16 14 12 11 11 10 9 8 8
9 10 9 7 8 10 11 11 12 13 14 14 15 19 22 23 21 21 22 24 26 30 32 30 28 27 28 30 32 34 35 36 36 35 35 34 34 33 28 25 26 26 24 23 24 24 23 23 23 22 22 21 20 18 17 16 14 13 13 12 12 11 10
11 10 10 9 9 11 13 12 12 13 15 15 17 20 22 22 21 21 22 24 26 29 31 31 30 28 28 29 31 32 35 36 36 35 34 33 34 33 29 25 24 23 22 23 22 21 21 22 23 22 21 21 20 18 18 17 15 15 15 14 14 14 14
12 9 9 10 9 9 10 10 10 12 14 16 18 20 21 20 20 20 20 22 24 27 29 30 29 26 25 26 28 29 32 34 33 32 32 31 31 31 31 29 26 23 22 22 22 22 22 22 22 20 20 20 20 19 18 18 17 17 17 16 16 15 17
9 7 8 10 9 5 5 6 9 12 13 15 16 17 18 19 18 18 18 19 22 25 27 27 27 26 24 24 25 27 28 29 29 30 31 31 30 30 31 32 31 28 25 24 24 24 23 23 22 21 20 20 20 20 20 20 20 20 19 18 17 16 17